<?xml version="1.0" encoding="UTF-8" standalone="no" ?>
<gpx xmlns="http://www.topografix.com/GPX/1/1" xmlns:xsi="http://www.w3.org/2001/XMLSchema-instance" xsi:schemaLocation="http://www.topografix.com/GPX/1/1 http://www.topografix.com/GPX/1/1/gpx.xsd" version="1.1" creator="VisuGPX - https://www.visugpx.com">
  <metadata>
    <name>Dodecaudax Decembre 2023</name>
    <desc><![CDATA[Parcours orienté N/ S boucle]]></desc>
  </metadata>
  <trk>
    <name><![CDATA[Dodécaudax Décembre 2023-17950603]]></name>
    <trkseg>
      <trkpt lat="43.77494" lon="1.68128">
        <ele>113</ele>
        <time>2023-12-13T14:00:28Z</time>
      </trkpt>
      <trkpt lat="43.77498" lon="1.6813">
        <ele>113</ele>
        <time>2023-12-13T14:00:29Z</time>
      </trkpt>
      <trkpt lat="43.77612" lon="1.68317">
        <ele>113</ele>
        <time>2023-12-13T14:01:00Z</time>
      </trkpt>
      <trkpt lat="43.77622" lon="1.68291">
        <ele>114</ele>
        <time>2023-12-13T14:01:04Z</time>
      </trkpt>
      <trkpt lat="43.77655" lon="1.6824">
        <ele>114</ele>
        <time>2023-12-13T14:01:13Z</time>
      </trkpt>
      <trkpt lat="43.77673" lon="1.68207">
        <ele>114</ele>
        <time>2023-12-13T14:01:18Z</time>
      </trkpt>
      <trkpt lat="43.7768" lon="1.6817">
        <ele>113</ele>
        <time>2023-12-13T14:01:23Z</time>
      </trkpt>
      <trkpt lat="43.7768" lon="1.68138">
        <ele>113</ele>
        <time>2023-12-13T14:01:27Z</time>
      </trkpt>
      <trkpt lat="43.77665" lon="1.68026">
        <ele>114</ele>
        <time>2023-12-13T14:01:42Z</time>
      </trkpt>
      <trkpt lat="43.77666" lon="1.68012">
        <ele>114</ele>
        <time>2023-12-13T14:01:44Z</time>
      </trkpt>
      <trkpt lat="43.77668" lon="1.68008">
        <ele>114</ele>
        <time>2023-12-13T14:01:44Z</time>
      </trkpt>
      <trkpt lat="43.77672" lon="1.68011">
        <ele>114</ele>
        <time>2023-12-13T14:01:45Z</time>
      </trkpt>
      <trkpt lat="43.77678" lon="1.68009">
        <ele>114</ele>
        <time>2023-12-13T14:01:46Z</time>
      </trkpt>
      <trkpt lat="43.77681" lon="1.68005">
        <ele>114</ele>
        <time>2023-12-13T14:01:47Z</time>
      </trkpt>
      <trkpt lat="43.77682" lon="1.67996">
        <ele>114</ele>
        <time>2023-12-13T14:01:48Z</time>
      </trkpt>
      <trkpt lat="43.77692" lon="1.67992">
        <ele>114</ele>
        <time>2023-12-13T14:01:50Z</time>
      </trkpt>
      <trkpt lat="43.777" lon="1.67993">
        <ele>114</ele>
        <time>2023-12-13T14:01:51Z</time>
      </trkpt>
      <trkpt lat="43.77888" lon="1.68127">
        <ele>114</ele>
        <time>2023-12-13T14:02:29Z</time>
      </trkpt>
      <trkpt lat="43.77911" lon="1.68135">
        <ele>114</ele>
        <time>2023-12-13T14:02:33Z</time>
      </trkpt>
      <trkpt lat="43.77954" lon="1.6814">
        <ele>112</ele>
        <time>2023-12-13T14:02:41Z</time>
      </trkpt>
      <trkpt lat="43.77982" lon="1.68138">
        <ele>111</ele>
        <time>2023-12-13T14:02:46Z</time>
      </trkpt>
      <trkpt lat="43.77994" lon="1.68141">
        <ele>110</ele>
        <time>2023-12-13T14:02:48Z</time>
      </trkpt>
      <trkpt lat="43.78003" lon="1.68138">
        <ele>110</ele>
        <time>2023-12-13T14:02:50Z</time>
      </trkpt>
      <trkpt lat="43.78018" lon="1.68123">
        <ele>111</ele>
        <time>2023-12-13T14:02:53Z</time>
      </trkpt>
      <trkpt lat="43.78313" lon="1.67925">
        <ele>112</ele>
        <time>2023-12-13T14:03:51Z</time>
      </trkpt>
      <trkpt lat="43.7832" lon="1.67912">
        <ele>112</ele>
        <time>2023-12-13T14:03:53Z</time>
      </trkpt>
      <trkpt lat="43.78328" lon="1.67914">
        <ele>112</ele>
        <time>2023-12-13T14:03:55Z</time>
      </trkpt>
      <trkpt lat="43.78424" lon="1.67886">
        <ele>102</ele>
        <time>2023-12-13T14:04:12Z</time>
      </trkpt>
      <trkpt lat="43.78532" lon="1.67854">
        <ele>104</ele>
        <time>2023-12-13T14:04:32Z</time>
      </trkpt>
      <trkpt lat="43.78563" lon="1.67844">
        <ele>106</ele>
        <time>2023-12-13T14:04:38Z</time>
      </trkpt>
      <trkpt lat="43.78585" lon="1.67844">
        <ele>108</ele>
        <time>2023-12-13T14:04:41Z</time>
      </trkpt>
      <trkpt lat="43.78598" lon="1.67846">
        <ele>110</ele>
        <time>2023-12-13T14:04:44Z</time>
      </trkpt>
      <trkpt lat="43.78602" lon="1.67811">
        <ele>111</ele>
        <time>2023-12-13T14:04:48Z</time>
      </trkpt>
      <trkpt lat="43.78595" lon="1.67741">
        <ele>111</ele>
        <time>2023-12-13T14:04:57Z</time>
      </trkpt>
      <trkpt lat="43.78595" lon="1.67705">
        <ele>112</ele>
        <time>2023-12-13T14:05:02Z</time>
      </trkpt>
      <trkpt lat="43.78604" lon="1.6754">
        <ele>112</ele>
        <time>2023-12-13T14:05:23Z</time>
      </trkpt>
      <trkpt lat="43.78602" lon="1.67454">
        <ele>111</ele>
        <time>2023-12-13T14:05:34Z</time>
      </trkpt>
      <trkpt lat="43.78605" lon="1.67428">
        <ele>110</ele>
        <time>2023-12-13T14:05:38Z</time>
      </trkpt>
      <trkpt lat="43.78613" lon="1.67386">
        <ele>110</ele>
        <time>2023-12-13T14:05:43Z</time>
      </trkpt>
      <trkpt lat="43.78621" lon="1.67368">
        <ele>109</ele>
        <time>2023-12-13T14:05:46Z</time>
      </trkpt>
      <trkpt lat="43.78632" lon="1.6735">
        <ele>109</ele>
        <time>2023-12-13T14:05:49Z</time>
      </trkpt>
      <trkpt lat="43.78653" lon="1.67329">
        <ele>107</ele>
        <time>2023-12-13T14:05:54Z</time>
      </trkpt>
      <trkpt lat="43.78665" lon="1.67313">
        <ele>107</ele>
        <time>2023-12-13T14:05:57Z</time>
      </trkpt>
      <trkpt lat="43.7867" lon="1.67304">
        <ele>107</ele>
        <time>2023-12-13T14:05:58Z</time>
      </trkpt>
      <trkpt lat="43.78671" lon="1.67293">
        <ele>107</ele>
        <time>2023-12-13T14:05:59Z</time>
      </trkpt>
      <trkpt lat="43.78671" lon="1.67285">
        <ele>107</ele>
        <time>2023-12-13T14:06:01Z</time>
      </trkpt>
      <trkpt lat="43.78665" lon="1.6727">
        <ele>106</ele>
        <time>2023-12-13T14:06:03Z</time>
      </trkpt>
      <trkpt lat="43.78652" lon="1.67251">
        <ele>107</ele>
        <time>2023-12-13T14:06:06Z</time>
      </trkpt>
      <trkpt lat="43.78648" lon="1.67236">
        <ele>107</ele>
        <time>2023-12-13T14:06:08Z</time>
      </trkpt>
      <trkpt lat="43.78649" lon="1.67222">
        <ele>107</ele>
        <time>2023-12-13T14:06:10Z</time>
      </trkpt>
      <trkpt lat="43.78668" lon="1.67174">
        <ele>109</ele>
        <time>2023-12-13T14:06:17Z</time>
      </trkpt>
      <trkpt lat="43.78674" lon="1.67174">
        <ele>109</ele>
        <time>2023-12-13T14:06:18Z</time>
      </trkpt>
      <trkpt lat="43.78692" lon="1.67133">
        <ele>111</ele>
        <time>2023-12-13T14:06:24Z</time>
      </trkpt>
      <trkpt lat="43.78715" lon="1.67072">
        <ele>115</ele>
        <time>2023-12-13T14:06:33Z</time>
      </trkpt>
      <trkpt lat="43.7872" lon="1.67036">
        <ele>117</ele>
        <time>2023-12-13T14:06:38Z</time>
      </trkpt>
      <trkpt lat="43.78729" lon="1.67027">
        <ele>118</ele>
        <time>2023-12-13T14:06:40Z</time>
      </trkpt>
      <trkpt lat="43.78741" lon="1.67022">
        <ele>120</ele>
        <time>2023-12-13T14:06:42Z</time>
      </trkpt>
      <trkpt lat="43.78745" lon="1.67013">
        <ele>121</ele>
        <time>2023-12-13T14:06:43Z</time>
      </trkpt>
      <trkpt lat="43.78752" lon="1.67004">
        <ele>122</ele>
        <time>2023-12-13T14:06:45Z</time>
      </trkpt>
      <trkpt lat="43.78755" lon="1.66993">
        <ele>122</ele>
        <time>2023-12-13T14:06:47Z</time>
      </trkpt>
      <trkpt lat="43.78755" lon="1.66982">
        <ele>122</ele>
        <time>2023-12-13T14:06:48Z</time>
      </trkpt>
      <trkpt lat="43.78774" lon="1.66981">
        <ele>122</ele>
        <time>2023-12-13T14:06:51Z</time>
      </trkpt>
      <trkpt lat="43.78852" lon="1.66953">
        <ele>123</ele>
        <time>2023-12-13T14:07:06Z</time>
      </trkpt>
      <trkpt lat="43.78944" lon="1.66904">
        <ele>124</ele>
        <time>2023-12-13T14:07:23Z</time>
      </trkpt>
      <trkpt lat="43.78961" lon="1.669">
        <ele>124</ele>
        <time>2023-12-13T14:07:26Z</time>
      </trkpt>
      <trkpt lat="43.78998" lon="1.669">
        <ele>124</ele>
        <time>2023-12-13T14:07:33Z</time>
      </trkpt>
      <trkpt lat="43.79062" lon="1.66903">
        <ele>125</ele>
        <time>2023-12-13T14:07:44Z</time>
      </trkpt>
      <trkpt lat="43.79151" lon="1.66909">
        <ele>125</ele>
        <time>2023-12-13T14:08:00Z</time>
      </trkpt>
      <trkpt lat="43.79203" lon="1.66918">
        <ele>125</ele>
        <time>2023-12-13T14:08:09Z</time>
      </trkpt>
      <trkpt lat="43.79234" lon="1.66927">
        <ele>125</ele>
        <time>2023-12-13T14:08:15Z</time>
      </trkpt>
      <trkpt lat="43.79277" lon="1.66951">
        <ele>125</ele>
        <time>2023-12-13T14:08:23Z</time>
      </trkpt>
      <trkpt lat="43.79351" lon="1.67005">
        <ele>123</ele>
        <time>2023-12-13T14:08:38Z</time>
      </trkpt>
      <trkpt lat="43.79372" lon="1.67029">
        <ele>123</ele>
        <time>2023-12-13T14:08:43Z</time>
      </trkpt>
      <trkpt lat="43.79406" lon="1.67101">
        <ele>121</ele>
        <time>2023-12-13T14:08:54Z</time>
      </trkpt>
      <trkpt lat="43.79425" lon="1.67127">
        <ele>121</ele>
        <time>2023-12-13T14:08:59Z</time>
      </trkpt>
      <trkpt lat="43.79448" lon="1.67147">
        <ele>122</ele>
        <time>2023-12-13T14:09:04Z</time>
      </trkpt>
      <trkpt lat="43.79462" lon="1.67151">
        <ele>123</ele>
        <time>2023-12-13T14:09:06Z</time>
      </trkpt>
      <trkpt lat="43.7948" lon="1.67143">
        <ele>125</ele>
        <time>2023-12-13T14:09:10Z</time>
      </trkpt>
      <trkpt lat="43.79527" lon="1.67099">
        <ele>128</ele>
        <time>2023-12-13T14:09:20Z</time>
      </trkpt>
      <trkpt lat="43.79672" lon="1.67007">
        <ele>126</ele>
        <time>2023-12-13T14:09:48Z</time>
      </trkpt>
      <trkpt lat="43.79689" lon="1.67002">
        <ele>125</ele>
        <time>2023-12-13T14:09:51Z</time>
      </trkpt>
      <trkpt lat="43.79708" lon="1.67006">
        <ele>123</ele>
        <time>2023-12-13T14:09:55Z</time>
      </trkpt>
      <trkpt lat="43.79742" lon="1.67025">
        <ele>119</ele>
        <time>2023-12-13T14:10:01Z</time>
      </trkpt>
      <trkpt lat="43.79766" lon="1.67044">
        <ele>118</ele>
        <time>2023-12-13T14:10:06Z</time>
      </trkpt>
      <trkpt lat="43.79777" lon="1.67046">
        <ele>118</ele>
        <time>2023-12-13T14:10:08Z</time>
      </trkpt>
      <trkpt lat="43.7979" lon="1.67042">
        <ele>118</ele>
        <time>2023-12-13T14:10:10Z</time>
      </trkpt>
      <trkpt lat="43.79799" lon="1.67031">
        <ele>118</ele>
        <time>2023-12-13T14:10:12Z</time>
      </trkpt>
      <trkpt lat="43.7981" lon="1.66997">
        <ele>120</ele>
        <time>2023-12-13T14:10:17Z</time>
      </trkpt>
      <trkpt lat="43.79816" lon="1.66985">
        <ele>121</ele>
        <time>2023-12-13T14:10:19Z</time>
      </trkpt>
      <trkpt lat="43.79832" lon="1.66976">
        <ele>122</ele>
        <time>2023-12-13T14:10:22Z</time>
      </trkpt>
      <trkpt lat="43.79929" lon="1.66977">
        <ele>125</ele>
        <time>2023-12-13T14:10:39Z</time>
      </trkpt>
      <trkpt lat="43.80055" lon="1.66896">
        <ele>129</ele>
        <time>2023-12-13T14:11:04Z</time>
      </trkpt>
      <trkpt lat="43.80083" lon="1.66869">
        <ele>130</ele>
        <time>2023-12-13T14:11:10Z</time>
      </trkpt>
      <trkpt lat="43.80173" lon="1.66759">
        <ele>135</ele>
        <time>2023-12-13T14:11:32Z</time>
      </trkpt>
      <trkpt lat="43.80186" lon="1.66748">
        <ele>136</ele>
        <time>2023-12-13T14:11:34Z</time>
      </trkpt>
      <trkpt lat="43.80198" lon="1.66741">
        <ele>137</ele>
        <time>2023-12-13T14:11:37Z</time>
      </trkpt>
      <trkpt lat="43.80213" lon="1.66741">
        <ele>137</ele>
        <time>2023-12-13T14:11:39Z</time>
      </trkpt>
      <trkpt lat="43.80346" lon="1.66787">
        <ele>133</ele>
        <time>2023-12-13T14:12:04Z</time>
      </trkpt>
      <trkpt lat="43.8036" lon="1.6679">
        <ele>132</ele>
        <time>2023-12-13T14:12:06Z</time>
      </trkpt>
      <trkpt lat="43.80365" lon="1.66787">
        <ele>132</ele>
        <time>2023-12-13T14:12:07Z</time>
      </trkpt>
      <trkpt lat="43.8037" lon="1.66783">
        <ele>132</ele>
        <time>2023-12-13T14:12:08Z</time>
      </trkpt>
      <trkpt lat="43.80385" lon="1.66749">
        <ele>134</ele>
        <time>2023-12-13T14:12:13Z</time>
      </trkpt>
      <trkpt lat="43.80395" lon="1.6674">
        <ele>134</ele>
        <time>2023-12-13T14:12:15Z</time>
      </trkpt>
      <trkpt lat="43.80405" lon="1.66741">
        <ele>133</ele>
        <time>2023-12-13T14:12:17Z</time>
      </trkpt>
      <trkpt lat="43.80411" lon="1.66749">
        <ele>132</ele>
        <time>2023-12-13T14:12:19Z</time>
      </trkpt>
      <trkpt lat="43.80419" lon="1.6678">
        <ele>130</ele>
        <time>2023-12-13T14:12:23Z</time>
      </trkpt>
      <trkpt lat="43.80427" lon="1.66791">
        <ele>130</ele>
        <time>2023-12-13T14:12:25Z</time>
      </trkpt>
      <trkpt lat="43.80437" lon="1.66799">
        <ele>129</ele>
        <time>2023-12-13T14:12:27Z</time>
      </trkpt>
      <trkpt lat="43.80464" lon="1.66802">
        <ele>130</ele>
        <time>2023-12-13T14:12:32Z</time>
      </trkpt>
      <trkpt lat="43.80522" lon="1.66795">
        <ele>130</ele>
        <time>2023-12-13T14:12:42Z</time>
      </trkpt>
      <trkpt lat="43.80549" lon="1.66788">
        <ele>130</ele>
        <time>2023-12-13T14:12:47Z</time>
      </trkpt>
      <trkpt lat="43.80564" lon="1.66778">
        <ele>131</ele>
        <time>2023-12-13T14:12:50Z</time>
      </trkpt>
      <trkpt lat="43.80581" lon="1.66761">
        <ele>132</ele>
        <time>2023-12-13T14:12:54Z</time>
      </trkpt>
      <trkpt lat="43.80595" lon="1.6674">
        <ele>133</ele>
        <time>2023-12-13T14:12:57Z</time>
      </trkpt>
      <trkpt lat="43.80608" lon="1.66729">
        <ele>133</ele>
        <time>2023-12-13T14:13:00Z</time>
      </trkpt>
      <trkpt lat="43.80628" lon="1.66721">
        <ele>133</ele>
        <time>2023-12-13T14:13:04Z</time>
      </trkpt>
      <trkpt lat="43.80646" lon="1.66719">
        <ele>133</ele>
        <time>2023-12-13T14:13:07Z</time>
      </trkpt>
      <trkpt lat="43.80711" lon="1.66718">
        <ele>135</ele>
        <time>2023-12-13T14:13:19Z</time>
      </trkpt>
      <trkpt lat="43.80745" lon="1.66723">
        <ele>136</ele>
        <time>2023-12-13T14:13:25Z</time>
      </trkpt>
      <trkpt lat="43.80784" lon="1.66735">
        <ele>135</ele>
        <time>2023-12-13T14:13:32Z</time>
      </trkpt>
      <trkpt lat="43.80816" lon="1.66752">
        <ele>133</ele>
        <time>2023-12-13T14:13:38Z</time>
      </trkpt>
      <trkpt lat="43.80866" lon="1.66786">
        <ele>129</ele>
        <time>2023-12-13T14:13:48Z</time>
      </trkpt>
      <trkpt lat="43.8093" lon="1.66809">
        <ele>127</ele>
        <time>2023-12-13T14:14:00Z</time>
      </trkpt>
      <trkpt lat="43.80967" lon="1.66827">
        <ele>128</ele>
        <time>2023-12-13T14:14:07Z</time>
      </trkpt>
      <trkpt lat="43.8099" lon="1.6683">
        <ele>129</ele>
        <time>2023-12-13T14:14:11Z</time>
      </trkpt>
      <trkpt lat="43.81022" lon="1.6682">
        <ele>131</ele>
        <time>2023-12-13T14:14:17Z</time>
      </trkpt>
      <trkpt lat="43.81052" lon="1.66817">
        <ele>133</ele>
        <time>2023-12-13T14:14:22Z</time>
      </trkpt>
      <trkpt lat="43.81078" lon="1.66825">
        <ele>134</ele>
        <time>2023-12-13T14:14:27Z</time>
      </trkpt>
      <trkpt lat="43.81121" lon="1.6685">
        <ele>134</ele>
        <time>2023-12-13T14:14:35Z</time>
      </trkpt>
      <trkpt lat="43.81138" lon="1.66862">
        <ele>134</ele>
        <time>2023-12-13T14:14:38Z</time>
      </trkpt>
      <trkpt lat="43.81157" lon="1.66892">
        <ele>132</ele>
        <time>2023-12-13T14:14:43Z</time>
      </trkpt>
      <trkpt lat="43.81172" lon="1.66937">
        <ele>129</ele>
        <time>2023-12-13T14:14:50Z</time>
      </trkpt>
      <trkpt lat="43.81187" lon="1.66967">
        <ele>128</ele>
        <time>2023-12-13T14:14:54Z</time>
      </trkpt>
      <trkpt lat="43.81211" lon="1.66985">
        <ele>128</ele>
        <time>2023-12-13T14:14:59Z</time>
      </trkpt>
      <trkpt lat="43.81312" lon="1.67019">
        <ele>127</ele>
        <time>2023-12-13T14:15:18Z</time>
      </trkpt>
      <trkpt lat="43.81341" lon="1.67035">
        <ele>126</ele>
        <time>2023-12-13T14:15:23Z</time>
      </trkpt>
      <trkpt lat="43.81403" lon="1.67077">
        <ele>125</ele>
        <time>2023-12-13T14:15:36Z</time>
      </trkpt>
      <trkpt lat="43.81427" lon="1.67089">
        <ele>125</ele>
        <time>2023-12-13T14:15:40Z</time>
      </trkpt>
      <trkpt lat="43.81513" lon="1.67111">
        <ele>128</ele>
        <time>2023-12-13T14:15:56Z</time>
      </trkpt>
      <trkpt lat="43.81564" lon="1.67131">
        <ele>128</ele>
        <time>2023-12-13T14:16:05Z</time>
      </trkpt>
      <trkpt lat="43.81607" lon="1.67158">
        <ele>128</ele>
        <time>2023-12-13T14:16:14Z</time>
      </trkpt>
      <trkpt lat="43.8171" lon="1.67204">
        <ele>130</ele>
        <time>2023-12-13T14:16:33Z</time>
      </trkpt>
      <trkpt lat="43.81746" lon="1.67212">
        <ele>131</ele>
        <time>2023-12-13T14:16:39Z</time>
      </trkpt>
      <trkpt lat="43.81761" lon="1.6722">
        <ele>131</ele>
        <time>2023-12-13T14:16:42Z</time>
      </trkpt>
      <trkpt lat="43.8178" lon="1.67237">
        <ele>132</ele>
        <time>2023-12-13T14:16:46Z</time>
      </trkpt>
      <trkpt lat="43.81779" lon="1.67245">
        <ele>131</ele>
        <time>2023-12-13T14:16:47Z</time>
      </trkpt>
      <trkpt lat="43.81781" lon="1.67249">
        <ele>131</ele>
        <time>2023-12-13T14:16:48Z</time>
      </trkpt>
      <trkpt lat="43.81785" lon="1.67252">
        <ele>131</ele>
        <time>2023-12-13T14:16:49Z</time>
      </trkpt>
      <trkpt lat="43.81788" lon="1.67251">
        <ele>131</ele>
        <time>2023-12-13T14:16:49Z</time>
      </trkpt>
      <trkpt lat="43.8179" lon="1.67249">
        <ele>131</ele>
        <time>2023-12-13T14:16:50Z</time>
      </trkpt>
      <trkpt lat="43.81792" lon="1.67241">
        <ele>132</ele>
        <time>2023-12-13T14:16:51Z</time>
      </trkpt>
      <trkpt lat="43.8185" lon="1.6722">
        <ele>133</ele>
        <time>2023-12-13T14:17:01Z</time>
      </trkpt>
      <trkpt lat="43.81903" lon="1.67191">
        <ele>134</ele>
        <time>2023-12-13T14:17:12Z</time>
      </trkpt>
      <trkpt lat="43.8192" lon="1.67171">
        <ele>135</ele>
        <time>2023-12-13T14:17:16Z</time>
      </trkpt>
      <trkpt lat="43.81975" lon="1.67202">
        <ele>134</ele>
        <time>2023-12-13T14:17:26Z</time>
      </trkpt>
      <trkpt lat="43.82015" lon="1.67207">
        <ele>133</ele>
        <time>2023-12-13T14:17:33Z</time>
      </trkpt>
      <trkpt lat="43.82085" lon="1.67207">
        <ele>131</ele>
        <time>2023-12-13T14:17:46Z</time>
      </trkpt>
      <trkpt lat="43.82151" lon="1.67198">
        <ele>130</ele>
        <time>2023-12-13T14:17:57Z</time>
      </trkpt>
      <trkpt lat="43.82247" lon="1.6717">
        <ele>133</ele>
        <time>2023-12-13T14:18:15Z</time>
      </trkpt>
      <trkpt lat="43.82357" lon="1.67157">
        <ele>133</ele>
        <time>2023-12-13T14:18:35Z</time>
      </trkpt>
      <trkpt lat="43.82446" lon="1.67118">
        <ele>135</ele>
        <time>2023-12-13T14:18:51Z</time>
      </trkpt>
      <trkpt lat="43.82546" lon="1.6709">
        <ele>134</ele>
        <time>2023-12-13T14:19:09Z</time>
      </trkpt>
      <trkpt lat="43.82654" lon="1.67102">
        <ele>132</ele>
        <time>2023-12-13T14:19:29Z</time>
      </trkpt>
      <trkpt lat="43.82691" lon="1.67103">
        <ele>133</ele>
        <time>2023-12-13T14:19:35Z</time>
      </trkpt>
      <trkpt lat="43.82732" lon="1.67097">
        <ele>135</ele>
        <time>2023-12-13T14:19:43Z</time>
      </trkpt>
      <trkpt lat="43.8278" lon="1.67065">
        <ele>138</ele>
        <time>2023-12-13T14:19:52Z</time>
      </trkpt>
      <trkpt lat="43.82815" lon="1.67065">
        <ele>140</ele>
        <time>2023-12-13T14:19:58Z</time>
      </trkpt>
      <trkpt lat="43.82937" lon="1.67071">
        <ele>141</ele>
        <time>2023-12-13T14:20:20Z</time>
      </trkpt>
      <trkpt lat="43.83071" lon="1.67128">
        <ele>136</ele>
        <time>2023-12-13T14:20:45Z</time>
      </trkpt>
      <trkpt lat="43.8309" lon="1.67134">
        <ele>135</ele>
        <time>2023-12-13T14:20:48Z</time>
      </trkpt>
      <trkpt lat="43.83164" lon="1.67147">
        <ele>134</ele>
        <time>2023-12-13T14:21:02Z</time>
      </trkpt>
      <trkpt lat="43.83202" lon="1.67156">
        <ele>134</ele>
        <time>2023-12-13T14:21:09Z</time>
      </trkpt>
      <trkpt lat="43.83241" lon="1.6717">
        <ele>134</ele>
        <time>2023-12-13T14:21:16Z</time>
      </trkpt>
      <trkpt lat="43.83319" lon="1.67213">
        <ele>137</ele>
        <time>2023-12-13T14:21:31Z</time>
      </trkpt>
      <trkpt lat="43.83342" lon="1.67229">
        <ele>138</ele>
        <time>2023-12-13T14:21:35Z</time>
      </trkpt>
      <trkpt lat="43.8336" lon="1.67247">
        <ele>140</ele>
        <time>2023-12-13T14:21:39Z</time>
      </trkpt>
      <trkpt lat="43.8338" lon="1.67271">
        <ele>141</ele>
        <time>2023-12-13T14:21:44Z</time>
      </trkpt>
      <trkpt lat="43.83418" lon="1.67338">
        <ele>143</ele>
        <time>2023-12-13T14:21:55Z</time>
      </trkpt>
      <trkpt lat="43.83454" lon="1.67397">
        <ele>139</ele>
        <time>2023-12-13T14:22:05Z</time>
      </trkpt>
      <trkpt lat="43.83473" lon="1.67422">
        <ele>137</ele>
        <time>2023-12-13T14:22:09Z</time>
      </trkpt>
      <trkpt lat="43.83503" lon="1.67449">
        <ele>137</ele>
        <time>2023-12-13T14:22:16Z</time>
      </trkpt>
      <trkpt lat="43.83545" lon="1.6747">
        <ele>136</ele>
        <time>2023-12-13T14:22:24Z</time>
      </trkpt>
      <trkpt lat="43.83576" lon="1.67481">
        <ele>136</ele>
        <time>2023-12-13T14:22:29Z</time>
      </trkpt>
      <trkpt lat="43.83648" lon="1.67483">
        <ele>136</ele>
        <time>2023-12-13T14:22:42Z</time>
      </trkpt>
      <trkpt lat="43.83676" lon="1.6749">
        <ele>136</ele>
        <time>2023-12-13T14:22:47Z</time>
      </trkpt>
      <trkpt lat="43.83764" lon="1.67522">
        <ele>137</ele>
        <time>2023-12-13T14:23:03Z</time>
      </trkpt>
      <trkpt lat="43.83788" lon="1.67523">
        <ele>137</ele>
        <time>2023-12-13T14:23:08Z</time>
      </trkpt>
      <trkpt lat="43.83832" lon="1.67519">
        <ele>138</ele>
        <time>2023-12-13T14:23:16Z</time>
      </trkpt>
      <trkpt lat="43.83859" lon="1.6753">
        <ele>138</ele>
        <time>2023-12-13T14:23:21Z</time>
      </trkpt>
      <trkpt lat="43.83929" lon="1.67575">
        <ele>137</ele>
        <time>2023-12-13T14:23:34Z</time>
      </trkpt>
      <trkpt lat="43.83979" lon="1.67599">
        <ele>138</ele>
        <time>2023-12-13T14:23:44Z</time>
      </trkpt>
      <trkpt lat="43.84005" lon="1.67604">
        <ele>138</ele>
        <time>2023-12-13T14:23:48Z</time>
      </trkpt>
      <trkpt lat="43.84036" lon="1.67603">
        <ele>138</ele>
        <time>2023-12-13T14:23:54Z</time>
      </trkpt>
      <trkpt lat="43.84082" lon="1.67597">
        <ele>138</ele>
        <time>2023-12-13T14:24:02Z</time>
      </trkpt>
      <trkpt lat="43.84107" lon="1.676">
        <ele>138</ele>
        <time>2023-12-13T14:24:07Z</time>
      </trkpt>
      <trkpt lat="43.84126" lon="1.67609">
        <ele>138</ele>
        <time>2023-12-13T14:24:10Z</time>
      </trkpt>
      <trkpt lat="43.84148" lon="1.67629">
        <ele>138</ele>
        <time>2023-12-13T14:24:15Z</time>
      </trkpt>
      <trkpt lat="43.84171" lon="1.67654">
        <ele>138</ele>
        <time>2023-12-13T14:24:20Z</time>
      </trkpt>
      <trkpt lat="43.84199" lon="1.67673">
        <ele>139</ele>
        <time>2023-12-13T14:24:26Z</time>
      </trkpt>
      <trkpt lat="43.8423" lon="1.67684">
        <ele>140</ele>
        <time>2023-12-13T14:24:31Z</time>
      </trkpt>
      <trkpt lat="43.84402" lon="1.67696">
        <ele>141</ele>
        <time>2023-12-13T14:25:02Z</time>
      </trkpt>
      <trkpt lat="43.84436" lon="1.67694">
        <ele>142</ele>
        <time>2023-12-13T14:25:08Z</time>
      </trkpt>
      <trkpt lat="43.84535" lon="1.6767">
        <ele>143</ele>
        <time>2023-12-13T14:25:26Z</time>
      </trkpt>
      <trkpt lat="43.84608" lon="1.67659">
        <ele>142</ele>
        <time>2023-12-13T14:25:39Z</time>
      </trkpt>
      <trkpt lat="43.84621" lon="1.67662">
        <ele>141</ele>
        <time>2023-12-13T14:25:41Z</time>
      </trkpt>
      <trkpt lat="43.84645" lon="1.67644">
        <ele>142</ele>
        <time>2023-12-13T14:25:46Z</time>
      </trkpt>
      <trkpt lat="43.8468" lon="1.67623">
        <ele>142</ele>
        <time>2023-12-13T14:25:53Z</time>
      </trkpt>
      <trkpt lat="43.84703" lon="1.67609">
        <ele>142</ele>
        <time>2023-12-13T14:25:57Z</time>
      </trkpt>
      <trkpt lat="43.84724" lon="1.67592">
        <ele>142</ele>
        <time>2023-12-13T14:26:02Z</time>
      </trkpt>
      <trkpt lat="43.84747" lon="1.67563">
        <ele>144</ele>
        <time>2023-12-13T14:26:07Z</time>
      </trkpt>
      <trkpt lat="43.84846" lon="1.67448">
        <ele>146</ele>
        <time>2023-12-13T14:26:30Z</time>
      </trkpt>
      <trkpt lat="43.84947" lon="1.67348">
        <ele>143</ele>
        <time>2023-12-13T14:26:52Z</time>
      </trkpt>
      <trkpt lat="43.85037" lon="1.67304">
        <ele>143</ele>
        <time>2023-12-13T14:27:09Z</time>
      </trkpt>
      <trkpt lat="43.85102" lon="1.67253">
        <ele>143</ele>
        <time>2023-12-13T14:27:23Z</time>
      </trkpt>
      <trkpt lat="43.85172" lon="1.67221">
        <ele>143</ele>
        <time>2023-12-13T14:27:36Z</time>
      </trkpt>
      <trkpt lat="43.85216" lon="1.67216">
        <ele>144</ele>
        <time>2023-12-13T14:27:44Z</time>
      </trkpt>
      <trkpt lat="43.85257" lon="1.67221">
        <ele>144</ele>
        <time>2023-12-13T14:27:51Z</time>
      </trkpt>
      <trkpt lat="43.85325" lon="1.67215">
        <ele>144</ele>
        <time>2023-12-13T14:28:03Z</time>
      </trkpt>
      <trkpt lat="43.85358" lon="1.67206">
        <ele>144</ele>
        <time>2023-12-13T14:28:09Z</time>
      </trkpt>
      <trkpt lat="43.85384" lon="1.67191">
        <ele>144</ele>
        <time>2023-12-13T14:28:14Z</time>
      </trkpt>
      <trkpt lat="43.85415" lon="1.67142">
        <ele>146</ele>
        <time>2023-12-13T14:28:22Z</time>
      </trkpt>
      <trkpt lat="43.8545" lon="1.671">
        <ele>152</ele>
        <time>2023-12-13T14:28:31Z</time>
      </trkpt>
      <trkpt lat="43.85517" lon="1.67056">
        <ele>157</ele>
        <time>2023-12-13T14:28:44Z</time>
      </trkpt>
      <trkpt lat="43.85551" lon="1.67045">
        <ele>158</ele>
        <time>2023-12-13T14:28:50Z</time>
      </trkpt>
      <trkpt lat="43.85577" lon="1.67044">
        <ele>159</ele>
        <time>2023-12-13T14:28:55Z</time>
      </trkpt>
      <trkpt lat="43.85654" lon="1.67066">
        <ele>154</ele>
        <time>2023-12-13T14:29:09Z</time>
      </trkpt>
      <trkpt lat="43.85705" lon="1.67073">
        <ele>153</ele>
        <time>2023-12-13T14:29:18Z</time>
      </trkpt>
      <trkpt lat="43.85749" lon="1.67072">
        <ele>152</ele>
        <time>2023-12-13T14:29:26Z</time>
      </trkpt>
      <trkpt lat="43.85829" lon="1.67059">
        <ele>154</ele>
        <time>2023-12-13T14:29:40Z</time>
      </trkpt>
      <trkpt lat="43.85866" lon="1.67047">
        <ele>153</ele>
        <time>2023-12-13T14:29:47Z</time>
      </trkpt>
      <trkpt lat="43.85917" lon="1.67014">
        <ele>152</ele>
        <time>2023-12-13T14:29:57Z</time>
      </trkpt>
      <trkpt lat="43.85975" lon="1.66967">
        <ele>152</ele>
        <time>2023-12-13T14:30:09Z</time>
      </trkpt>
      <trkpt lat="43.86095" lon="1.66881">
        <ele>155</ele>
        <time>2023-12-13T14:30:33Z</time>
      </trkpt>
      <trkpt lat="43.86213" lon="1.66838">
        <ele>153</ele>
        <time>2023-12-13T14:30:54Z</time>
      </trkpt>
      <trkpt lat="43.86259" lon="1.66774">
        <ele>155</ele>
        <time>2023-12-13T14:31:06Z</time>
      </trkpt>
      <trkpt lat="43.86309" lon="1.66696">
        <ele>163</ele>
        <time>2023-12-13T14:31:19Z</time>
      </trkpt>
      <trkpt lat="43.86336" lon="1.66671">
        <ele>168</ele>
        <time>2023-12-13T14:31:25Z</time>
      </trkpt>
      <trkpt lat="43.86392" lon="1.66631">
        <ele>173</ele>
        <time>2023-12-13T14:31:36Z</time>
      </trkpt>
      <trkpt lat="43.86447" lon="1.66613">
        <ele>181</ele>
        <time>2023-12-13T14:31:46Z</time>
      </trkpt>
      <trkpt lat="43.8648" lon="1.66608">
        <ele>185</ele>
        <time>2023-12-13T14:31:52Z</time>
      </trkpt>
      <trkpt lat="43.8651" lon="1.66611">
        <ele>187</ele>
        <time>2023-12-13T14:31:58Z</time>
      </trkpt>
      <trkpt lat="43.8652" lon="1.66603">
        <ele>186</ele>
        <time>2023-12-13T14:32:00Z</time>
      </trkpt>
      <trkpt lat="43.86532" lon="1.66582">
        <ele>187</ele>
        <time>2023-12-13T14:32:03Z</time>
      </trkpt>
      <trkpt lat="43.86554" lon="1.66534">
        <ele>190</ele>
        <time>2023-12-13T14:32:10Z</time>
      </trkpt>
      <trkpt lat="43.86566" lon="1.6647">
        <ele>194</ele>
        <time>2023-12-13T14:32:19Z</time>
      </trkpt>
      <trkpt lat="43.86578" lon="1.66432">
        <ele>197</ele>
        <time>2023-12-13T14:32:24Z</time>
      </trkpt>
      <trkpt lat="43.86598" lon="1.66404">
        <ele>199</ele>
        <time>2023-12-13T14:32:29Z</time>
      </trkpt>
      <trkpt lat="43.86611" lon="1.66363">
        <ele>202</ele>
        <time>2023-12-13T14:32:35Z</time>
      </trkpt>
      <trkpt lat="43.86616" lon="1.66306">
        <ele>203</ele>
        <time>2023-12-13T14:32:42Z</time>
      </trkpt>
      <trkpt lat="43.86629" lon="1.66272">
        <ele>204</ele>
        <time>2023-12-13T14:32:47Z</time>
      </trkpt>
      <trkpt lat="43.86653" lon="1.66247">
        <ele>206</ele>
        <time>2023-12-13T14:32:53Z</time>
      </trkpt>
      <trkpt lat="43.86678" lon="1.66243">
        <ele>208</ele>
        <time>2023-12-13T14:32:57Z</time>
      </trkpt>
      <trkpt lat="43.86733" lon="1.66256">
        <ele>211</ele>
        <time>2023-12-13T14:33:07Z</time>
      </trkpt>
      <trkpt lat="43.86757" lon="1.66255">
        <ele>212</ele>
        <time>2023-12-13T14:33:11Z</time>
      </trkpt>
      <trkpt lat="43.86787" lon="1.66242">
        <ele>211</ele>
        <time>2023-12-13T14:33:17Z</time>
      </trkpt>
      <trkpt lat="43.8686" lon="1.66175">
        <ele>214</ele>
        <time>2023-12-13T14:33:32Z</time>
      </trkpt>
      <trkpt lat="43.86887" lon="1.66164">
        <ele>217</ele>
        <time>2023-12-13T14:33:38Z</time>
      </trkpt>
      <trkpt lat="43.86924" lon="1.66161">
        <ele>220</ele>
        <time>2023-12-13T14:33:44Z</time>
      </trkpt>
      <trkpt lat="43.86952" lon="1.66165">
        <ele>220</ele>
        <time>2023-12-13T14:33:49Z</time>
      </trkpt>
      <trkpt lat="43.86975" lon="1.66185">
        <ele>220</ele>
        <time>2023-12-13T14:33:54Z</time>
      </trkpt>
      <trkpt lat="43.87033" lon="1.66245">
        <ele>223</ele>
        <time>2023-12-13T14:34:07Z</time>
      </trkpt>
      <trkpt lat="43.87054" lon="1.66259">
        <ele>224</ele>
        <time>2023-12-13T14:34:11Z</time>
      </trkpt>
      <trkpt lat="43.87079" lon="1.66252">
        <ele>224</ele>
        <time>2023-12-13T14:34:15Z</time>
      </trkpt>
      <trkpt lat="43.87149" lon="1.66182">
        <ele>220</ele>
        <time>2023-12-13T14:34:31Z</time>
      </trkpt>
      <trkpt lat="43.87177" lon="1.66151">
        <ele>219</ele>
        <time>2023-12-13T14:34:37Z</time>
      </trkpt>
      <trkpt lat="43.87217" lon="1.66073">
        <ele>218</ele>
        <time>2023-12-13T14:34:50Z</time>
      </trkpt>
      <trkpt lat="43.8728" lon="1.65934">
        <ele>219</ele>
        <time>2023-12-13T14:35:11Z</time>
      </trkpt>
      <trkpt lat="43.87293" lon="1.65894">
        <ele>220</ele>
        <time>2023-12-13T14:35:16Z</time>
      </trkpt>
      <trkpt lat="43.87323" lon="1.65743">
        <ele>223</ele>
        <time>2023-12-13T14:35:36Z</time>
      </trkpt>
      <trkpt lat="43.87339" lon="1.65678">
        <ele>225</ele>
        <time>2023-12-13T14:35:45Z</time>
      </trkpt>
      <trkpt lat="43.87358" lon="1.65633">
        <ele>224</ele>
        <time>2023-12-13T14:35:52Z</time>
      </trkpt>
      <trkpt lat="43.87595" lon="1.65274">
        <ele>227</ele>
        <time>2023-12-13T14:36:54Z</time>
      </trkpt>
      <trkpt lat="43.87689" lon="1.65183">
        <ele>230</ele>
        <time>2023-12-13T14:37:15Z</time>
      </trkpt>
      <trkpt lat="43.87748" lon="1.65135">
        <ele>231</ele>
        <time>2023-12-13T14:37:27Z</time>
      </trkpt>
      <trkpt lat="43.87817" lon="1.65093">
        <ele>233</ele>
        <time>2023-12-13T14:37:40Z</time>
      </trkpt>
      <trkpt lat="43.87849" lon="1.65064">
        <ele>233</ele>
        <time>2023-12-13T14:37:47Z</time>
      </trkpt>
      <trkpt lat="43.87867" lon="1.65035">
        <ele>233</ele>
        <time>2023-12-13T14:37:52Z</time>
      </trkpt>
      <trkpt lat="43.87868" lon="1.65031">
        <ele>233</ele>
        <time>2023-12-13T14:37:52Z</time>
      </trkpt>
      <trkpt lat="43.87871" lon="1.65021">
        <ele>233</ele>
        <time>2023-12-13T14:37:54Z</time>
      </trkpt>
      <trkpt lat="43.87899" lon="1.65007">
        <ele>234</ele>
        <time>2023-12-13T14:37:59Z</time>
      </trkpt>
      <trkpt lat="43.87982" lon="1.6501">
        <ele>231</ele>
        <time>2023-12-13T14:38:14Z</time>
      </trkpt>
      <trkpt lat="43.88156" lon="1.64948">
        <ele>231</ele>
        <time>2023-12-13T14:38:46Z</time>
      </trkpt>
      <trkpt lat="43.88226" lon="1.64914">
        <ele>233</ele>
        <time>2023-12-13T14:38:59Z</time>
      </trkpt>
      <trkpt lat="43.88283" lon="1.64899">
        <ele>235</ele>
        <time>2023-12-13T14:39:09Z</time>
      </trkpt>
      <trkpt lat="43.88403" lon="1.64874">
        <ele>231</ele>
        <time>2023-12-13T14:39:31Z</time>
      </trkpt>
      <trkpt lat="43.88463" lon="1.64876">
        <ele>228</ele>
        <time>2023-12-13T14:39:42Z</time>
      </trkpt>
      <trkpt lat="43.88525" lon="1.64894">
        <ele>226</ele>
        <time>2023-12-13T14:39:53Z</time>
      </trkpt>
      <trkpt lat="43.88644" lon="1.64921">
        <ele>228</ele>
        <time>2023-12-13T14:40:14Z</time>
      </trkpt>
      <trkpt lat="43.88782" lon="1.64969">
        <ele>232</ele>
        <time>2023-12-13T14:40:40Z</time>
      </trkpt>
      <trkpt lat="43.88974" lon="1.65076">
        <ele>235</ele>
        <time>2023-12-13T14:41:17Z</time>
      </trkpt>
      <trkpt lat="43.89044" lon="1.65137">
        <ele>237</ele>
        <time>2023-12-13T14:41:31Z</time>
      </trkpt>
      <trkpt lat="43.89079" lon="1.6518">
        <ele>238</ele>
        <time>2023-12-13T14:41:40Z</time>
      </trkpt>
      <trkpt lat="43.89112" lon="1.65146">
        <ele>238</ele>
        <time>2023-12-13T14:41:47Z</time>
      </trkpt>
      <trkpt lat="43.89156" lon="1.65093">
        <ele>241</ele>
        <time>2023-12-13T14:41:57Z</time>
      </trkpt>
      <trkpt lat="43.89176" lon="1.65058">
        <ele>242</ele>
        <time>2023-12-13T14:42:03Z</time>
      </trkpt>
      <trkpt lat="43.89213" lon="1.64982">
        <ele>241</ele>
        <time>2023-12-13T14:42:15Z</time>
      </trkpt>
      <trkpt lat="43.89269" lon="1.6474">
        <ele>233</ele>
        <time>2023-12-13T14:42:47Z</time>
      </trkpt>
      <trkpt lat="43.89271" lon="1.64723">
        <ele>233</ele>
        <time>2023-12-13T14:42:49Z</time>
      </trkpt>
      <trkpt lat="43.8928" lon="1.64676">
        <ele>233</ele>
        <time>2023-12-13T14:42:56Z</time>
      </trkpt>
      <trkpt lat="43.89282" lon="1.6462">
        <ele>233</ele>
        <time>2023-12-13T14:43:03Z</time>
      </trkpt>
      <trkpt lat="43.8928" lon="1.64502">
        <ele>232</ele>
        <time>2023-12-13T14:43:18Z</time>
      </trkpt>
      <trkpt lat="43.89288" lon="1.64386">
        <ele>234</ele>
        <time>2023-12-13T14:43:33Z</time>
      </trkpt>
      <trkpt lat="43.89301" lon="1.64264">
        <ele>235</ele>
        <time>2023-12-13T14:43:49Z</time>
      </trkpt>
      <trkpt lat="43.89316" lon="1.64225">
        <ele>237</ele>
        <time>2023-12-13T14:43:54Z</time>
      </trkpt>
      <trkpt lat="43.89346" lon="1.64188">
        <ele>237</ele>
        <time>2023-12-13T14:44:02Z</time>
      </trkpt>
      <trkpt lat="43.89381" lon="1.64163">
        <ele>236</ele>
        <time>2023-12-13T14:44:09Z</time>
      </trkpt>
      <trkpt lat="43.89464" lon="1.64188">
        <ele>232</ele>
        <time>2023-12-13T14:44:24Z</time>
      </trkpt>
      <trkpt lat="43.89488" lon="1.64179">
        <ele>232</ele>
        <time>2023-12-13T14:44:28Z</time>
      </trkpt>
      <trkpt lat="43.89536" lon="1.64134">
        <ele>233</ele>
        <time>2023-12-13T14:44:38Z</time>
      </trkpt>
      <trkpt lat="43.89567" lon="1.64102">
        <ele>234</ele>
        <time>2023-12-13T14:44:45Z</time>
      </trkpt>
      <trkpt lat="43.89738" lon="1.63952">
        <ele>235</ele>
        <time>2023-12-13T14:45:21Z</time>
      </trkpt>
      <trkpt lat="43.89782" lon="1.63904">
        <ele>234</ele>
        <time>2023-12-13T14:45:31Z</time>
      </trkpt>
      <trkpt lat="43.89822" lon="1.63845">
        <ele>236</ele>
        <time>2023-12-13T14:45:42Z</time>
      </trkpt>
      <trkpt lat="43.89844" lon="1.63818">
        <ele>236</ele>
        <time>2023-12-13T14:45:47Z</time>
      </trkpt>
      <trkpt lat="43.89902" lon="1.63764">
        <ele>234</ele>
        <time>2023-12-13T14:45:59Z</time>
      </trkpt>
      <trkpt lat="43.89934" lon="1.63727">
        <ele>232</ele>
        <time>2023-12-13T14:46:07Z</time>
      </trkpt>
      <trkpt lat="43.89966" lon="1.63685">
        <ele>231</ele>
        <time>2023-12-13T14:46:15Z</time>
      </trkpt>
      <trkpt lat="43.8999" lon="1.63656">
        <ele>232</ele>
        <time>2023-12-13T14:46:20Z</time>
      </trkpt>
      <trkpt lat="43.90009" lon="1.63642">
        <ele>233</ele>
        <time>2023-12-13T14:46:24Z</time>
      </trkpt>
      <trkpt lat="43.90014" lon="1.63636">
        <ele>232</ele>
        <time>2023-12-13T14:46:25Z</time>
      </trkpt>
      <trkpt lat="43.90013" lon="1.63626">
        <ele>233</ele>
        <time>2023-12-13T14:46:27Z</time>
      </trkpt>
      <trkpt lat="43.90004" lon="1.63603">
        <ele>234</ele>
        <time>2023-12-13T14:46:30Z</time>
      </trkpt>
      <trkpt lat="43.89994" lon="1.6359">
        <ele>233</ele>
        <time>2023-12-13T14:46:32Z</time>
      </trkpt>
      <trkpt lat="43.89974" lon="1.63572">
        <ele>230</ele>
        <time>2023-12-13T14:46:37Z</time>
      </trkpt>
      <trkpt lat="43.89965" lon="1.63557">
        <ele>229</ele>
        <time>2023-12-13T14:46:39Z</time>
      </trkpt>
      <trkpt lat="43.89958" lon="1.6353">
        <ele>227</ele>
        <time>2023-12-13T14:46:43Z</time>
      </trkpt>
      <trkpt lat="43.89946" lon="1.6343">
        <ele>224</ele>
        <time>2023-12-13T14:46:56Z</time>
      </trkpt>
      <trkpt lat="43.89933" lon="1.63343">
        <ele>223</ele>
        <time>2023-12-13T14:47:07Z</time>
      </trkpt>
      <trkpt lat="43.89933" lon="1.63299">
        <ele>222</ele>
        <time>2023-12-13T14:47:13Z</time>
      </trkpt>
      <trkpt lat="43.89955" lon="1.63141">
        <ele>221</ele>
        <time>2023-12-13T14:47:33Z</time>
      </trkpt>
      <trkpt lat="43.89989" lon="1.62994">
        <ele>218</ele>
        <time>2023-12-13T14:47:53Z</time>
      </trkpt>
      <trkpt lat="43.9" lon="1.62933">
        <ele>217</ele>
        <time>2023-12-13T14:48:01Z</time>
      </trkpt>
      <trkpt lat="43.90006" lon="1.62874">
        <ele>216</ele>
        <time>2023-12-13T14:48:09Z</time>
      </trkpt>
      <trkpt lat="43.90046" lon="1.62741">
        <ele>217</ele>
        <time>2023-12-13T14:48:27Z</time>
      </trkpt>
      <trkpt lat="43.90082" lon="1.62579">
        <ele>216</ele>
        <time>2023-12-13T14:48:49Z</time>
      </trkpt>
      <trkpt lat="43.90112" lon="1.62475">
        <ele>215</ele>
        <time>2023-12-13T14:49:03Z</time>
      </trkpt>
      <trkpt lat="43.90214" lon="1.62281">
        <ele>212</ele>
        <time>2023-12-13T14:49:34Z</time>
      </trkpt>
      <trkpt lat="43.90234" lon="1.62235">
        <ele>213</ele>
        <time>2023-12-13T14:49:41Z</time>
      </trkpt>
      <trkpt lat="43.90252" lon="1.62181">
        <ele>214</ele>
        <time>2023-12-13T14:49:49Z</time>
      </trkpt>
      <trkpt lat="43.90269" lon="1.62125">
        <ele>212</ele>
        <time>2023-12-13T14:49:57Z</time>
      </trkpt>
      <trkpt lat="43.9029" lon="1.62037">
        <ele>209</ele>
        <time>2023-12-13T14:50:08Z</time>
      </trkpt>
      <trkpt lat="43.90311" lon="1.61966">
        <ele>209</ele>
        <time>2023-12-13T14:50:18Z</time>
      </trkpt>
      <trkpt lat="43.90348" lon="1.61878">
        <ele>211</ele>
        <time>2023-12-13T14:50:31Z</time>
      </trkpt>
      <trkpt lat="43.90404" lon="1.61767">
        <ele>211</ele>
        <time>2023-12-13T14:50:49Z</time>
      </trkpt>
      <trkpt lat="43.90421" lon="1.61727">
        <ele>213</ele>
        <time>2023-12-13T14:50:55Z</time>
      </trkpt>
      <trkpt lat="43.90443" lon="1.61663">
        <ele>213</ele>
        <time>2023-12-13T14:51:04Z</time>
      </trkpt>
      <trkpt lat="43.90454" lon="1.61605">
        <ele>214</ele>
        <time>2023-12-13T14:51:11Z</time>
      </trkpt>
      <trkpt lat="43.90467" lon="1.61572">
        <ele>215</ele>
        <time>2023-12-13T14:51:16Z</time>
      </trkpt>
      <trkpt lat="43.90499" lon="1.61524">
        <ele>216</ele>
        <time>2023-12-13T14:51:25Z</time>
      </trkpt>
      <trkpt lat="43.90541" lon="1.61446">
        <ele>213</ele>
        <time>2023-12-13T14:51:37Z</time>
      </trkpt>
      <trkpt lat="43.90559" lon="1.61428">
        <ele>212</ele>
        <time>2023-12-13T14:51:41Z</time>
      </trkpt>
      <trkpt lat="43.90609" lon="1.614">
        <ele>212</ele>
        <time>2023-12-13T14:51:51Z</time>
      </trkpt>
      <trkpt lat="43.90637" lon="1.61378">
        <ele>210</ele>
        <time>2023-12-13T14:51:56Z</time>
      </trkpt>
      <trkpt lat="43.90657" lon="1.61344">
        <ele>208</ele>
        <time>2023-12-13T14:52:02Z</time>
      </trkpt>
      <trkpt lat="43.90674" lon="1.61293">
        <ele>203</ele>
        <time>2023-12-13T14:52:09Z</time>
      </trkpt>
      <trkpt lat="43.90682" lon="1.61152">
        <ele>201</ele>
        <time>2023-12-13T14:52:27Z</time>
      </trkpt>
      <trkpt lat="43.9068" lon="1.61066">
        <ele>205</ele>
        <time>2023-12-13T14:52:38Z</time>
      </trkpt>
      <trkpt lat="43.90672" lon="1.61016">
        <ele>208</ele>
        <time>2023-12-13T14:52:45Z</time>
      </trkpt>
      <trkpt lat="43.90673" lon="1.60999">
        <ele>209</ele>
        <time>2023-12-13T14:52:47Z</time>
      </trkpt>
      <trkpt lat="43.90689" lon="1.60935">
        <ele>212</ele>
        <time>2023-12-13T14:52:56Z</time>
      </trkpt>
      <trkpt lat="43.90691" lon="1.60906">
        <ele>213</ele>
        <time>2023-12-13T14:53:00Z</time>
      </trkpt>
      <trkpt lat="43.90682" lon="1.60827">
        <ele>216</ele>
        <time>2023-12-13T14:53:10Z</time>
      </trkpt>
      <trkpt lat="43.90667" lon="1.60762">
        <ele>217</ele>
        <time>2023-12-13T14:53:19Z</time>
      </trkpt>
      <trkpt lat="43.90647" lon="1.60694">
        <ele>209</ele>
        <time>2023-12-13T14:53:28Z</time>
      </trkpt>
      <trkpt lat="43.90626" lon="1.60607">
        <ele>201</ele>
        <time>2023-12-13T14:53:40Z</time>
      </trkpt>
      <trkpt lat="43.90615" lon="1.60505">
        <ele>196</ele>
        <time>2023-12-13T14:53:53Z</time>
      </trkpt>
      <trkpt lat="43.90613" lon="1.60454">
        <ele>193</ele>
        <time>2023-12-13T14:54:00Z</time>
      </trkpt>
      <trkpt lat="43.90619" lon="1.60405">
        <ele>191</ele>
        <time>2023-12-13T14:54:06Z</time>
      </trkpt>
      <trkpt lat="43.90631" lon="1.60341">
        <ele>189</ele>
        <time>2023-12-13T14:54:14Z</time>
      </trkpt>
      <trkpt lat="43.90643" lon="1.60251">
        <ele>190</ele>
        <time>2023-12-13T14:54:26Z</time>
      </trkpt>
      <trkpt lat="43.90658" lon="1.60163">
        <ele>191</ele>
        <time>2023-12-13T14:54:38Z</time>
      </trkpt>
      <trkpt lat="43.90672" lon="1.60063">
        <ele>188</ele>
        <time>2023-12-13T14:54:51Z</time>
      </trkpt>
      <trkpt lat="43.90683" lon="1.59933">
        <ele>189</ele>
        <time>2023-12-13T14:55:08Z</time>
      </trkpt>
      <trkpt lat="43.90706" lon="1.59865">
        <ele>188</ele>
        <time>2023-12-13T14:55:17Z</time>
      </trkpt>
      <trkpt lat="43.90728" lon="1.59806">
        <ele>187</ele>
        <time>2023-12-13T14:55:26Z</time>
      </trkpt>
      <trkpt lat="43.90747" lon="1.59773">
        <ele>187</ele>
        <time>2023-12-13T14:55:31Z</time>
      </trkpt>
      <trkpt lat="43.90801" lon="1.59724">
        <ele>184</ele>
        <time>2023-12-13T14:55:43Z</time>
      </trkpt>
      <trkpt lat="43.90849" lon="1.59687">
        <ele>183</ele>
        <time>2023-12-13T14:55:52Z</time>
      </trkpt>
      <trkpt lat="43.90899" lon="1.59642">
        <ele>180</ele>
        <time>2023-12-13T14:56:03Z</time>
      </trkpt>
      <trkpt lat="43.90926" lon="1.59603">
        <ele>177</ele>
        <time>2023-12-13T14:56:10Z</time>
      </trkpt>
      <trkpt lat="43.90936" lon="1.59586">
        <ele>175</ele>
        <time>2023-12-13T14:56:13Z</time>
      </trkpt>
      <trkpt lat="43.90971" lon="1.59532">
        <ele>174</ele>
        <time>2023-12-13T14:56:22Z</time>
      </trkpt>
      <trkpt lat="43.90994" lon="1.59503">
        <ele>175</ele>
        <time>2023-12-13T14:56:28Z</time>
      </trkpt>
      <trkpt lat="43.91011" lon="1.59478">
        <ele>173</ele>
        <time>2023-12-13T14:56:32Z</time>
      </trkpt>
      <trkpt lat="43.91018" lon="1.59452">
        <ele>173</ele>
        <time>2023-12-13T14:56:36Z</time>
      </trkpt>
      <trkpt lat="43.91026" lon="1.59412">
        <ele>172</ele>
        <time>2023-12-13T14:56:41Z</time>
      </trkpt>
      <trkpt lat="43.91036" lon="1.59382">
        <ele>170</ele>
        <time>2023-12-13T14:56:45Z</time>
      </trkpt>
      <trkpt lat="43.91044" lon="1.5937">
        <ele>169</ele>
        <time>2023-12-13T14:56:47Z</time>
      </trkpt>
      <trkpt lat="43.91052" lon="1.59364">
        <ele>169</ele>
        <time>2023-12-13T14:56:49Z</time>
      </trkpt>
      <trkpt lat="43.91061" lon="1.59359">
        <ele>169</ele>
        <time>2023-12-13T14:56:51Z</time>
      </trkpt>
      <trkpt lat="43.91083" lon="1.59352">
        <ele>170</ele>
        <time>2023-12-13T14:56:55Z</time>
      </trkpt>
      <trkpt lat="43.91135" lon="1.59352">
        <ele>166</ele>
        <time>2023-12-13T14:57:04Z</time>
      </trkpt>
      <trkpt lat="43.91164" lon="1.5935">
        <ele>164</ele>
        <time>2023-12-13T14:57:09Z</time>
      </trkpt>
      <trkpt lat="43.91181" lon="1.59346">
        <ele>163</ele>
        <time>2023-12-13T14:57:12Z</time>
      </trkpt>
      <trkpt lat="43.91253" lon="1.59306">
        <ele>159</ele>
        <time>2023-12-13T14:57:26Z</time>
      </trkpt>
      <trkpt lat="43.9131" lon="1.59282">
        <ele>150</ele>
        <time>2023-12-13T14:57:36Z</time>
      </trkpt>
      <trkpt lat="43.91385" lon="1.59263">
        <ele>140</ele>
        <time>2023-12-13T14:57:50Z</time>
      </trkpt>
      <trkpt lat="43.91478" lon="1.59258">
        <ele>132</ele>
        <time>2023-12-13T14:58:07Z</time>
      </trkpt>
      <trkpt lat="43.91515" lon="1.59277">
        <ele>131</ele>
        <time>2023-12-13T14:58:14Z</time>
      </trkpt>
      <trkpt lat="43.91523" lon="1.59278">
        <ele>131</ele>
        <time>2023-12-13T14:58:15Z</time>
      </trkpt>
      <trkpt lat="43.91531" lon="1.59281">
        <ele>131</ele>
        <time>2023-12-13T14:58:16Z</time>
      </trkpt>
      <trkpt lat="43.91545" lon="1.59281">
        <ele>131</ele>
        <time>2023-12-13T14:58:19Z</time>
      </trkpt>
      <trkpt lat="43.9155" lon="1.59286">
        <ele>131</ele>
        <time>2023-12-13T14:58:20Z</time>
      </trkpt>
      <trkpt lat="43.91557" lon="1.59288">
        <ele>131</ele>
        <time>2023-12-13T14:58:21Z</time>
      </trkpt>
      <trkpt lat="43.91563" lon="1.59286">
        <ele>130</ele>
        <time>2023-12-13T14:58:22Z</time>
      </trkpt>
      <trkpt lat="43.91569" lon="1.59282">
        <ele>130</ele>
        <time>2023-12-13T14:58:24Z</time>
      </trkpt>
      <trkpt lat="43.91574" lon="1.59275">
        <ele>130</ele>
        <time>2023-12-13T14:58:25Z</time>
      </trkpt>
      <trkpt lat="43.91576" lon="1.59268">
        <ele>130</ele>
        <time>2023-12-13T14:58:26Z</time>
      </trkpt>
      <trkpt lat="43.91576" lon="1.59253">
        <ele>130</ele>
        <time>2023-12-13T14:58:28Z</time>
      </trkpt>
      <trkpt lat="43.91586" lon="1.59239">
        <ele>130</ele>
        <time>2023-12-13T14:58:30Z</time>
      </trkpt>
      <trkpt lat="43.91595" lon="1.59232">
        <ele>131</ele>
        <time>2023-12-13T14:58:32Z</time>
      </trkpt>
      <trkpt lat="43.9161" lon="1.59237">
        <ele>131</ele>
        <time>2023-12-13T14:58:35Z</time>
      </trkpt>
      <trkpt lat="43.91636" lon="1.59262">
        <ele>132</ele>
        <time>2023-12-13T14:58:40Z</time>
      </trkpt>
      <trkpt lat="43.91644" lon="1.59264">
        <ele>132</ele>
        <time>2023-12-13T14:58:42Z</time>
      </trkpt>
      <trkpt lat="43.91665" lon="1.59261">
        <ele>133</ele>
        <time>2023-12-13T14:58:46Z</time>
      </trkpt>
      <trkpt lat="43.91712" lon="1.59259">
        <ele>134</ele>
        <time>2023-12-13T14:58:54Z</time>
      </trkpt>
      <trkpt lat="43.91761" lon="1.59264">
        <ele>135</ele>
        <time>2023-12-13T14:59:03Z</time>
      </trkpt>
      <trkpt lat="43.91814" lon="1.59258">
        <ele>134</ele>
        <time>2023-12-13T14:59:12Z</time>
      </trkpt>
      <trkpt lat="43.91822" lon="1.59256">
        <ele>134</ele>
        <time>2023-12-13T14:59:14Z</time>
      </trkpt>
      <trkpt lat="43.91833" lon="1.59255">
        <ele>134</ele>
        <time>2023-12-13T14:59:16Z</time>
      </trkpt>
      <trkpt lat="43.91872" lon="1.59242">
        <ele>136</ele>
        <time>2023-12-13T14:59:23Z</time>
      </trkpt>
      <trkpt lat="43.91948" lon="1.59192">
        <ele>141</ele>
        <time>2023-12-13T14:59:38Z</time>
      </trkpt>
      <trkpt lat="43.91988" lon="1.59158">
        <ele>141</ele>
        <time>2023-12-13T14:59:46Z</time>
      </trkpt>
      <trkpt lat="43.9206" lon="1.59094">
        <ele>141</ele>
        <time>2023-12-13T15:00:01Z</time>
      </trkpt>
      <trkpt lat="43.92098" lon="1.59069">
        <ele>141</ele>
        <time>2023-12-13T15:00:09Z</time>
      </trkpt>
      <trkpt lat="43.92168" lon="1.59038">
        <ele>140</ele>
        <time>2023-12-13T15:00:22Z</time>
      </trkpt>
      <trkpt lat="43.92207" lon="1.59031">
        <ele>141</ele>
        <time>2023-12-13T15:00:29Z</time>
      </trkpt>
      <trkpt lat="43.92239" lon="1.59015">
        <ele>141</ele>
        <time>2023-12-13T15:00:35Z</time>
      </trkpt>
      <trkpt lat="43.92285" lon="1.58988">
        <ele>143</ele>
        <time>2023-12-13T15:00:44Z</time>
      </trkpt>
      <trkpt lat="43.92315" lon="1.58959">
        <ele>143</ele>
        <time>2023-12-13T15:00:50Z</time>
      </trkpt>
      <trkpt lat="43.92353" lon="1.58916">
        <ele>142</ele>
        <time>2023-12-13T15:00:59Z</time>
      </trkpt>
      <trkpt lat="43.92409" lon="1.58835">
        <ele>144</ele>
        <time>2023-12-13T15:01:13Z</time>
      </trkpt>
      <trkpt lat="43.92484" lon="1.58703">
        <ele>151</ele>
        <time>2023-12-13T15:01:35Z</time>
      </trkpt>
      <trkpt lat="43.9252" lon="1.58644">
        <ele>153</ele>
        <time>2023-12-13T15:01:45Z</time>
      </trkpt>
      <trkpt lat="43.92549" lon="1.58609">
        <ele>155</ele>
        <time>2023-12-13T15:01:52Z</time>
      </trkpt>
      <trkpt lat="43.92578" lon="1.58582">
        <ele>156</ele>
        <time>2023-12-13T15:01:58Z</time>
      </trkpt>
      <trkpt lat="43.92635" lon="1.58545">
        <ele>158</ele>
        <time>2023-12-13T15:02:09Z</time>
      </trkpt>
      <trkpt lat="43.92719" lon="1.58478">
        <ele>161</ele>
        <time>2023-12-13T15:02:26Z</time>
      </trkpt>
      <trkpt lat="43.92815" lon="1.58421">
        <ele>166</ele>
        <time>2023-12-13T15:02:45Z</time>
      </trkpt>
      <trkpt lat="43.92912" lon="1.58368">
        <ele>171</ele>
        <time>2023-12-13T15:03:03Z</time>
      </trkpt>
      <trkpt lat="43.93044" lon="1.58306">
        <ele>180</ele>
        <time>2023-12-13T15:03:28Z</time>
      </trkpt>
      <trkpt lat="43.93116" lon="1.58269">
        <ele>185</ele>
        <time>2023-12-13T15:03:42Z</time>
      </trkpt>
      <trkpt lat="43.93188" lon="1.58189">
        <ele>186</ele>
        <time>2023-12-13T15:03:58Z</time>
      </trkpt>
      <trkpt lat="43.93206" lon="1.58177">
        <ele>186</ele>
        <time>2023-12-13T15:04:02Z</time>
      </trkpt>
      <trkpt lat="43.9323" lon="1.58165">
        <ele>187</ele>
        <time>2023-12-13T15:04:06Z</time>
      </trkpt>
      <trkpt lat="43.93256" lon="1.58166">
        <ele>189</ele>
        <time>2023-12-13T15:04:11Z</time>
      </trkpt>
      <trkpt lat="43.93279" lon="1.58175">
        <ele>189</ele>
        <time>2023-12-13T15:04:15Z</time>
      </trkpt>
      <trkpt lat="43.93297" lon="1.58187">
        <ele>190</ele>
        <time>2023-12-13T15:04:19Z</time>
      </trkpt>
      <trkpt lat="43.93318" lon="1.58207">
        <ele>192</ele>
        <time>2023-12-13T15:04:23Z</time>
      </trkpt>
      <trkpt lat="43.93339" lon="1.58237">
        <ele>195</ele>
        <time>2023-12-13T15:04:29Z</time>
      </trkpt>
      <trkpt lat="43.9338" lon="1.58309">
        <ele>199</ele>
        <time>2023-12-13T15:04:41Z</time>
      </trkpt>
      <trkpt lat="43.93399" lon="1.58334">
        <ele>201</ele>
        <time>2023-12-13T15:04:45Z</time>
      </trkpt>
      <trkpt lat="43.9342" lon="1.58351">
        <ele>201</ele>
        <time>2023-12-13T15:04:50Z</time>
      </trkpt>
      <trkpt lat="43.93442" lon="1.58361">
        <ele>202</ele>
        <time>2023-12-13T15:04:54Z</time>
      </trkpt>
      <trkpt lat="43.93473" lon="1.58364">
        <ele>202</ele>
        <time>2023-12-13T15:04:59Z</time>
      </trkpt>
      <trkpt lat="43.93495" lon="1.58358">
        <ele>202</ele>
        <time>2023-12-13T15:05:03Z</time>
      </trkpt>
      <trkpt lat="43.93563" lon="1.58316">
        <ele>201</ele>
        <time>2023-12-13T15:05:16Z</time>
      </trkpt>
      <trkpt lat="43.93733" lon="1.58188">
        <ele>210</ele>
        <time>2023-12-13T15:05:51Z</time>
      </trkpt>
      <trkpt lat="43.93781" lon="1.58144">
        <ele>213</ele>
        <time>2023-12-13T15:06:01Z</time>
      </trkpt>
      <trkpt lat="43.93801" lon="1.58121">
        <ele>213</ele>
        <time>2023-12-13T15:06:06Z</time>
      </trkpt>
      <trkpt lat="43.93871" lon="1.58009">
        <ele>215</ele>
        <time>2023-12-13T15:06:25Z</time>
      </trkpt>
      <trkpt lat="43.93941" lon="1.57913">
        <ele>213</ele>
        <time>2023-12-13T15:06:42Z</time>
      </trkpt>
      <trkpt lat="43.94028" lon="1.57851">
        <ele>210</ele>
        <time>2023-12-13T15:07:00Z</time>
      </trkpt>
      <trkpt lat="43.94087" lon="1.57832">
        <ele>208</ele>
        <time>2023-12-13T15:07:10Z</time>
      </trkpt>
      <trkpt lat="43.9412" lon="1.57838">
        <ele>208</ele>
        <time>2023-12-13T15:07:16Z</time>
      </trkpt>
      <trkpt lat="43.94148" lon="1.5784">
        <ele>209</ele>
        <time>2023-12-13T15:07:21Z</time>
      </trkpt>
      <trkpt lat="43.94247" lon="1.57863">
        <ele>210</ele>
        <time>2023-12-13T15:07:39Z</time>
      </trkpt>
      <trkpt lat="43.94317" lon="1.57886">
        <ele>213</ele>
        <time>2023-12-13T15:07:52Z</time>
      </trkpt>
      <trkpt lat="43.94397" lon="1.57917">
        <ele>216</ele>
        <time>2023-12-13T15:08:07Z</time>
      </trkpt>
      <trkpt lat="43.94432" lon="1.57918">
        <ele>216</ele>
        <time>2023-12-13T15:08:13Z</time>
      </trkpt>
      <trkpt lat="43.94669" lon="1.57941">
        <ele>217</ele>
        <time>2023-12-13T15:08:55Z</time>
      </trkpt>
      <trkpt lat="43.94695" lon="1.5794">
        <ele>217</ele>
        <time>2023-12-13T15:09:00Z</time>
      </trkpt>
      <trkpt lat="43.94712" lon="1.57934">
        <ele>217</ele>
        <time>2023-12-13T15:09:03Z</time>
      </trkpt>
      <trkpt lat="43.94771" lon="1.57898">
        <ele>216</ele>
        <time>2023-12-13T15:09:14Z</time>
      </trkpt>
      <trkpt lat="43.94879" lon="1.5785">
        <ele>215</ele>
        <time>2023-12-13T15:09:35Z</time>
      </trkpt>
      <trkpt lat="43.94914" lon="1.5785">
        <ele>215</ele>
        <time>2023-12-13T15:09:41Z</time>
      </trkpt>
      <trkpt lat="43.94935" lon="1.57856">
        <ele>215</ele>
        <time>2023-12-13T15:09:45Z</time>
      </trkpt>
      <trkpt lat="43.9496" lon="1.57868">
        <ele>215</ele>
        <time>2023-12-13T15:09:49Z</time>
      </trkpt>
      <trkpt lat="43.94988" lon="1.57901">
        <ele>213</ele>
        <time>2023-12-13T15:09:56Z</time>
      </trkpt>
      <trkpt lat="43.95011" lon="1.57936">
        <ele>212</ele>
        <time>2023-12-13T15:10:02Z</time>
      </trkpt>
      <trkpt lat="43.95024" lon="1.57964">
        <ele>211</ele>
        <time>2023-12-13T15:10:06Z</time>
      </trkpt>
      <trkpt lat="43.95044" lon="1.58012">
        <ele>211</ele>
        <time>2023-12-13T15:10:13Z</time>
      </trkpt>
      <trkpt lat="43.95063" lon="1.58077">
        <ele>211</ele>
        <time>2023-12-13T15:10:22Z</time>
      </trkpt>
      <trkpt lat="43.95066" lon="1.58116">
        <ele>210</ele>
        <time>2023-12-13T15:10:27Z</time>
      </trkpt>
      <trkpt lat="43.95067" lon="1.58159">
        <ele>208</ele>
        <time>2023-12-13T15:10:33Z</time>
      </trkpt>
      <trkpt lat="43.95065" lon="1.58198">
        <ele>207</ele>
        <time>2023-12-13T15:10:38Z</time>
      </trkpt>
      <trkpt lat="43.95053" lon="1.58254">
        <ele>203</ele>
        <time>2023-12-13T15:10:45Z</time>
      </trkpt>
      <trkpt lat="43.95039" lon="1.58326">
        <ele>202</ele>
        <time>2023-12-13T15:10:55Z</time>
      </trkpt>
      <trkpt lat="43.95037" lon="1.5836">
        <ele>201</ele>
        <time>2023-12-13T15:10:59Z</time>
      </trkpt>
      <trkpt lat="43.95044" lon="1.58388">
        <ele>201</ele>
        <time>2023-12-13T15:11:03Z</time>
      </trkpt>
      <trkpt lat="43.95054" lon="1.58418">
        <ele>201</ele>
        <time>2023-12-13T15:11:07Z</time>
      </trkpt>
      <trkpt lat="43.95086" lon="1.58481">
        <ele>198</ele>
        <time>2023-12-13T15:11:17Z</time>
      </trkpt>
      <trkpt lat="43.95107" lon="1.58519">
        <ele>193</ele>
        <time>2023-12-13T15:11:23Z</time>
      </trkpt>
      <trkpt lat="43.95127" lon="1.58535">
        <ele>192</ele>
        <time>2023-12-13T15:11:27Z</time>
      </trkpt>
      <trkpt lat="43.95144" lon="1.58542">
        <ele>192</ele>
        <time>2023-12-13T15:11:31Z</time>
      </trkpt>
      <trkpt lat="43.95172" lon="1.58543">
        <ele>193</ele>
        <time>2023-12-13T15:11:36Z</time>
      </trkpt>
      <trkpt lat="43.95266" lon="1.58539">
        <ele>189</ele>
        <time>2023-12-13T15:11:52Z</time>
      </trkpt>
      <trkpt lat="43.95285" lon="1.58541">
        <ele>189</ele>
        <time>2023-12-13T15:11:56Z</time>
      </trkpt>
      <trkpt lat="43.95308" lon="1.58551">
        <ele>187</ele>
        <time>2023-12-13T15:12:00Z</time>
      </trkpt>
      <trkpt lat="43.95347" lon="1.58586">
        <ele>183</ele>
        <time>2023-12-13T15:12:08Z</time>
      </trkpt>
      <trkpt lat="43.95366" lon="1.58597">
        <ele>182</ele>
        <time>2023-12-13T15:12:12Z</time>
      </trkpt>
      <trkpt lat="43.95384" lon="1.58599">
        <ele>181</ele>
        <time>2023-12-13T15:12:15Z</time>
      </trkpt>
      <trkpt lat="43.95403" lon="1.58597">
        <ele>181</ele>
        <time>2023-12-13T15:12:18Z</time>
      </trkpt>
      <trkpt lat="43.95477" lon="1.58564">
        <ele>179</ele>
        <time>2023-12-13T15:12:32Z</time>
      </trkpt>
      <trkpt lat="43.95517" lon="1.58536">
        <ele>176</ele>
        <time>2023-12-13T15:12:40Z</time>
      </trkpt>
      <trkpt lat="43.95556" lon="1.58515">
        <ele>175</ele>
        <time>2023-12-13T15:12:48Z</time>
      </trkpt>
      <trkpt lat="43.95605" lon="1.58504">
        <ele>173</ele>
        <time>2023-12-13T15:12:57Z</time>
      </trkpt>
      <trkpt lat="43.95643" lon="1.58502">
        <ele>170</ele>
        <time>2023-12-13T15:13:03Z</time>
      </trkpt>
      <trkpt lat="43.95682" lon="1.58507">
        <ele>167</ele>
        <time>2023-12-13T15:13:10Z</time>
      </trkpt>
      <trkpt lat="43.95701" lon="1.58512">
        <ele>166</ele>
        <time>2023-12-13T15:13:14Z</time>
      </trkpt>
      <trkpt lat="43.95844" lon="1.58579">
        <ele>157</ele>
        <time>2023-12-13T15:13:41Z</time>
      </trkpt>
      <trkpt lat="43.95866" lon="1.58588">
        <ele>157</ele>
        <time>2023-12-13T15:13:45Z</time>
      </trkpt>
      <trkpt lat="43.95888" lon="1.58591">
        <ele>157</ele>
        <time>2023-12-13T15:13:49Z</time>
      </trkpt>
      <trkpt lat="43.95905" lon="1.58591">
        <ele>158</ele>
        <time>2023-12-13T15:13:52Z</time>
      </trkpt>
      <trkpt lat="43.9592" lon="1.58586">
        <ele>158</ele>
        <time>2023-12-13T15:13:54Z</time>
      </trkpt>
      <trkpt lat="43.95983" lon="1.58541">
        <ele>151</ele>
        <time>2023-12-13T15:14:07Z</time>
      </trkpt>
      <trkpt lat="43.96012" lon="1.58531">
        <ele>147</ele>
        <time>2023-12-13T15:14:12Z</time>
      </trkpt>
      <trkpt lat="43.96116" lon="1.58507">
        <ele>140</ele>
        <time>2023-12-13T15:14:31Z</time>
      </trkpt>
      <trkpt lat="43.96125" lon="1.58505">
        <ele>140</ele>
        <time>2023-12-13T15:14:33Z</time>
      </trkpt>
      <trkpt lat="43.96327" lon="1.58458">
        <ele>145</ele>
        <time>2023-12-13T15:15:09Z</time>
      </trkpt>
      <trkpt lat="43.96389" lon="1.58432">
        <ele>151</ele>
        <time>2023-12-13T15:15:21Z</time>
      </trkpt>
      <trkpt lat="43.96478" lon="1.58385">
        <ele>158</ele>
        <time>2023-12-13T15:15:38Z</time>
      </trkpt>
      <trkpt lat="43.96496" lon="1.58362">
        <ele>159</ele>
        <time>2023-12-13T15:15:42Z</time>
      </trkpt>
      <trkpt lat="43.96535" lon="1.58225">
        <ele>158</ele>
        <time>2023-12-13T15:16:01Z</time>
      </trkpt>
      <trkpt lat="43.96555" lon="1.58198">
        <ele>159</ele>
        <time>2023-12-13T15:16:06Z</time>
      </trkpt>
      <trkpt lat="43.96589" lon="1.58194">
        <ele>163</ele>
        <time>2023-12-13T15:16:12Z</time>
      </trkpt>
      <trkpt lat="43.96642" lon="1.58216">
        <ele>168</ele>
        <time>2023-12-13T15:16:22Z</time>
      </trkpt>
      <trkpt lat="43.96664" lon="1.58211">
        <ele>169</ele>
        <time>2023-12-13T15:16:26Z</time>
      </trkpt>
      <trkpt lat="43.96675" lon="1.58212">
        <ele>170</ele>
        <time>2023-12-13T15:16:28Z</time>
      </trkpt>
      <trkpt lat="43.96674" lon="1.58218">
        <ele>170</ele>
        <time>2023-12-13T15:16:28Z</time>
      </trkpt>
      <trkpt lat="43.96676" lon="1.58223">
        <ele>171</ele>
        <time>2023-12-13T15:16:29Z</time>
      </trkpt>
      <trkpt lat="43.96681" lon="1.58227">
        <ele>171</ele>
        <time>2023-12-13T15:16:30Z</time>
      </trkpt>
      <trkpt lat="43.96686" lon="1.58225">
        <ele>171</ele>
        <time>2023-12-13T15:16:31Z</time>
      </trkpt>
      <trkpt lat="43.96689" lon="1.58218">
        <ele>171</ele>
        <time>2023-12-13T15:16:32Z</time>
      </trkpt>
      <trkpt lat="43.96689" lon="1.58213">
        <ele>171</ele>
        <time>2023-12-13T15:16:33Z</time>
      </trkpt>
      <trkpt lat="43.96687" lon="1.58208">
        <ele>170</ele>
        <time>2023-12-13T15:16:33Z</time>
      </trkpt>
      <trkpt lat="43.96705" lon="1.5817">
        <ele>168</ele>
        <time>2023-12-13T15:16:39Z</time>
      </trkpt>
      <trkpt lat="43.96721" lon="1.58156">
        <ele>167</ele>
        <time>2023-12-13T15:16:43Z</time>
      </trkpt>
      <trkpt lat="43.96762" lon="1.58122">
        <ele>161</ele>
        <time>2023-12-13T15:16:51Z</time>
      </trkpt>
      <trkpt lat="43.96786" lon="1.58115">
        <ele>157</ele>
        <time>2023-12-13T15:16:56Z</time>
      </trkpt>
      <trkpt lat="43.96801" lon="1.58117">
        <ele>156</ele>
        <time>2023-12-13T15:16:58Z</time>
      </trkpt>
      <trkpt lat="43.9682" lon="1.58137">
        <ele>156</ele>
        <time>2023-12-13T15:17:02Z</time>
      </trkpt>
      <trkpt lat="43.96832" lon="1.58165">
        <ele>158</ele>
        <time>2023-12-13T15:17:07Z</time>
      </trkpt>
      <trkpt lat="43.96845" lon="1.58214">
        <ele>159</ele>
        <time>2023-12-13T15:17:13Z</time>
      </trkpt>
      <trkpt lat="43.96857" lon="1.58241">
        <ele>159</ele>
        <time>2023-12-13T15:17:17Z</time>
      </trkpt>
      <trkpt lat="43.96874" lon="1.58267">
        <ele>158</ele>
        <time>2023-12-13T15:17:22Z</time>
      </trkpt>
      <trkpt lat="43.96964" lon="1.58358">
        <ele>153</ele>
        <time>2023-12-13T15:17:42Z</time>
      </trkpt>
      <trkpt lat="43.96984" lon="1.58374">
        <ele>152</ele>
        <time>2023-12-13T15:17:46Z</time>
      </trkpt>
      <trkpt lat="43.97007" lon="1.58377">
        <ele>151</ele>
        <time>2023-12-13T15:17:50Z</time>
      </trkpt>
      <trkpt lat="43.97488" lon="1.58169">
        <ele>144</ele>
        <time>2023-12-13T15:19:20Z</time>
      </trkpt>
      <trkpt lat="43.97503" lon="1.58167">
        <ele>144</ele>
        <time>2023-12-13T15:19:22Z</time>
      </trkpt>
      <trkpt lat="43.97511" lon="1.58168">
        <ele>144</ele>
        <time>2023-12-13T15:19:24Z</time>
      </trkpt>
      <trkpt lat="43.97523" lon="1.58175">
        <ele>144</ele>
        <time>2023-12-13T15:19:26Z</time>
      </trkpt>
      <trkpt lat="43.97535" lon="1.58187">
        <ele>145</ele>
        <time>2023-12-13T15:19:29Z</time>
      </trkpt>
      <trkpt lat="43.97654" lon="1.58377">
        <ele>149</ele>
        <time>2023-12-13T15:20:01Z</time>
      </trkpt>
      <trkpt lat="43.97664" lon="1.58396">
        <ele>148</ele>
        <time>2023-12-13T15:20:04Z</time>
      </trkpt>
      <trkpt lat="43.9767" lon="1.58415">
        <ele>148</ele>
        <time>2023-12-13T15:20:06Z</time>
      </trkpt>
      <trkpt lat="43.97673" lon="1.58442">
        <ele>148</ele>
        <time>2023-12-13T15:20:10Z</time>
      </trkpt>
      <trkpt lat="43.97681" lon="1.58577">
        <ele>148</ele>
        <time>2023-12-13T15:20:27Z</time>
      </trkpt>
      <trkpt lat="43.97686" lon="1.58612">
        <ele>148</ele>
        <time>2023-12-13T15:20:32Z</time>
      </trkpt>
      <trkpt lat="43.97693" lon="1.58626">
        <ele>148</ele>
        <time>2023-12-13T15:20:34Z</time>
      </trkpt>
      <trkpt lat="43.97701" lon="1.58632">
        <ele>148</ele>
        <time>2023-12-13T15:20:36Z</time>
      </trkpt>
      <trkpt lat="43.97739" lon="1.5863">
        <ele>146</ele>
        <time>2023-12-13T15:20:42Z</time>
      </trkpt>
      <trkpt lat="43.9775" lon="1.58634">
        <ele>145</ele>
        <time>2023-12-13T15:20:44Z</time>
      </trkpt>
      <trkpt lat="43.97762" lon="1.58643">
        <ele>145</ele>
        <time>2023-12-13T15:20:47Z</time>
      </trkpt>
      <trkpt lat="43.97934" lon="1.58884">
        <ele>148</ele>
        <time>2023-12-13T15:21:30Z</time>
      </trkpt>
      <trkpt lat="43.9795" lon="1.589">
        <ele>148</ele>
        <time>2023-12-13T15:21:34Z</time>
      </trkpt>
      <trkpt lat="43.98317" lon="1.59197">
        <ele>154</ele>
        <time>2023-12-13T15:22:49Z</time>
      </trkpt>
      <trkpt lat="43.9834" lon="1.59221">
        <ele>156</ele>
        <time>2023-12-13T15:22:55Z</time>
      </trkpt>
      <trkpt lat="43.98355" lon="1.59252">
        <ele>158</ele>
        <time>2023-12-13T15:22:59Z</time>
      </trkpt>
      <trkpt lat="43.98372" lon="1.59293">
        <ele>158</ele>
        <time>2023-12-13T15:23:05Z</time>
      </trkpt>
      <trkpt lat="43.9839" lon="1.59329">
        <ele>159</ele>
        <time>2023-12-13T15:23:11Z</time>
      </trkpt>
      <trkpt lat="43.9841" lon="1.59355">
        <ele>159</ele>
        <time>2023-12-13T15:23:16Z</time>
      </trkpt>
      <trkpt lat="43.98434" lon="1.59373">
        <ele>158</ele>
        <time>2023-12-13T15:23:21Z</time>
      </trkpt>
      <trkpt lat="43.9847" lon="1.5939">
        <ele>156</ele>
        <time>2023-12-13T15:23:28Z</time>
      </trkpt>
      <trkpt lat="43.98483" lon="1.59405">
        <ele>155</ele>
        <time>2023-12-13T15:23:31Z</time>
      </trkpt>
      <trkpt lat="43.98561" lon="1.59515">
        <ele>156</ele>
        <time>2023-12-13T15:23:50Z</time>
      </trkpt>
      <trkpt lat="43.98576" lon="1.59524">
        <ele>156</ele>
        <time>2023-12-13T15:23:53Z</time>
      </trkpt>
      <trkpt lat="43.98696" lon="1.59533">
        <ele>158</ele>
        <time>2023-12-13T15:24:15Z</time>
      </trkpt>
      <trkpt lat="43.98725" lon="1.59539">
        <ele>160</ele>
        <time>2023-12-13T15:24:20Z</time>
      </trkpt>
      <trkpt lat="43.98739" lon="1.59545">
        <ele>160</ele>
        <time>2023-12-13T15:24:22Z</time>
      </trkpt>
      <trkpt lat="43.98752" lon="1.59557">
        <ele>161</ele>
        <time>2023-12-13T15:24:25Z</time>
      </trkpt>
      <trkpt lat="43.98868" lon="1.59688">
        <ele>163</ele>
        <time>2023-12-13T15:24:52Z</time>
      </trkpt>
      <trkpt lat="43.98885" lon="1.597">
        <ele>164</ele>
        <time>2023-12-13T15:24:55Z</time>
      </trkpt>
      <trkpt lat="43.98897" lon="1.59699">
        <ele>165</ele>
        <time>2023-12-13T15:24:57Z</time>
      </trkpt>
      <trkpt lat="43.9891" lon="1.59694">
        <ele>166</ele>
        <time>2023-12-13T15:25:00Z</time>
      </trkpt>
      <trkpt lat="43.9902" lon="1.59599">
        <ele>171</ele>
        <time>2023-12-13T15:25:23Z</time>
      </trkpt>
      <trkpt lat="43.99052" lon="1.59576">
        <ele>172</ele>
        <time>2023-12-13T15:25:29Z</time>
      </trkpt>
      <trkpt lat="43.99083" lon="1.59562">
        <ele>173</ele>
        <time>2023-12-13T15:25:35Z</time>
      </trkpt>
      <trkpt lat="43.99112" lon="1.59565">
        <ele>175</ele>
        <time>2023-12-13T15:25:40Z</time>
      </trkpt>
      <trkpt lat="43.99169" lon="1.59579">
        <ele>179</ele>
        <time>2023-12-13T15:25:50Z</time>
      </trkpt>
      <trkpt lat="43.99201" lon="1.59581">
        <ele>181</ele>
        <time>2023-12-13T15:25:56Z</time>
      </trkpt>
      <trkpt lat="43.99229" lon="1.5957">
        <ele>183</ele>
        <time>2023-12-13T15:26:01Z</time>
      </trkpt>
      <trkpt lat="43.9927" lon="1.59546">
        <ele>187</ele>
        <time>2023-12-13T15:26:09Z</time>
      </trkpt>
      <trkpt lat="43.99349" lon="1.59488">
        <ele>197</ele>
        <time>2023-12-13T15:26:25Z</time>
      </trkpt>
      <trkpt lat="43.99408" lon="1.59428">
        <ele>205</ele>
        <time>2023-12-13T15:26:38Z</time>
      </trkpt>
      <trkpt lat="43.99427" lon="1.59419">
        <ele>208</ele>
        <time>2023-12-13T15:26:42Z</time>
      </trkpt>
      <trkpt lat="43.99446" lon="1.59424">
        <ele>208</ele>
        <time>2023-12-13T15:26:45Z</time>
      </trkpt>
      <trkpt lat="43.99483" lon="1.59445">
        <ele>208</ele>
        <time>2023-12-13T15:26:52Z</time>
      </trkpt>
      <trkpt lat="43.99499" lon="1.59444">
        <ele>209</ele>
        <time>2023-12-13T15:26:55Z</time>
      </trkpt>
      <trkpt lat="43.99509" lon="1.59436">
        <ele>209</ele>
        <time>2023-12-13T15:26:57Z</time>
      </trkpt>
      <trkpt lat="43.99605" lon="1.59219">
        <ele>214</ele>
        <time>2023-12-13T15:27:30Z</time>
      </trkpt>
      <trkpt lat="43.99641" lon="1.59118">
        <ele>212</ele>
        <time>2023-12-13T15:27:44Z</time>
      </trkpt>
      <trkpt lat="43.99662" lon="1.5907">
        <ele>212</ele>
        <time>2023-12-13T15:27:51Z</time>
      </trkpt>
      <trkpt lat="43.99771" lon="1.58934">
        <ele>218</ele>
        <time>2023-12-13T15:28:17Z</time>
      </trkpt>
      <trkpt lat="43.99797" lon="1.58917">
        <ele>219</ele>
        <time>2023-12-13T15:28:23Z</time>
      </trkpt>
      <trkpt lat="43.99846" lon="1.58895">
        <ele>219</ele>
        <time>2023-12-13T15:28:32Z</time>
      </trkpt>
      <trkpt lat="43.9989" lon="1.58879">
        <ele>219</ele>
        <time>2023-12-13T15:28:40Z</time>
      </trkpt>
      <trkpt lat="43.99997" lon="1.58881">
        <ele>221</ele>
        <time>2023-12-13T15:28:59Z</time>
      </trkpt>
      <trkpt lat="44.00035" lon="1.58858">
        <ele>219</ele>
        <time>2023-12-13T15:29:06Z</time>
      </trkpt>
      <trkpt lat="44.0015" lon="1.58772">
        <ele>222</ele>
        <time>2023-12-13T15:29:29Z</time>
      </trkpt>
      <trkpt lat="44.00171" lon="1.58761">
        <ele>223</ele>
        <time>2023-12-13T15:29:33Z</time>
      </trkpt>
      <trkpt lat="44.00184" lon="1.58758">
        <ele>223</ele>
        <time>2023-12-13T15:29:36Z</time>
      </trkpt>
      <trkpt lat="44.00229" lon="1.5876">
        <ele>224</ele>
        <time>2023-12-13T15:29:44Z</time>
      </trkpt>
      <trkpt lat="44.00248" lon="1.58758">
        <ele>224</ele>
        <time>2023-12-13T15:29:47Z</time>
      </trkpt>
      <trkpt lat="44.00266" lon="1.58753">
        <ele>223</ele>
        <time>2023-12-13T15:29:50Z</time>
      </trkpt>
      <trkpt lat="44.00297" lon="1.58729">
        <ele>222</ele>
        <time>2023-12-13T15:29:57Z</time>
      </trkpt>
      <trkpt lat="44.0072" lon="1.58371">
        <ele>214</ele>
        <time>2023-12-13T15:31:25Z</time>
      </trkpt>
      <trkpt lat="44.00736" lon="1.58354">
        <ele>212</ele>
        <time>2023-12-13T15:31:28Z</time>
      </trkpt>
      <trkpt lat="44.00754" lon="1.58329">
        <ele>210</ele>
        <time>2023-12-13T15:31:33Z</time>
      </trkpt>
      <trkpt lat="44.00907" lon="1.58091">
        <ele>207</ele>
        <time>2023-12-13T15:32:14Z</time>
      </trkpt>
      <trkpt lat="44.0093" lon="1.58061">
        <ele>209</ele>
        <time>2023-12-13T15:32:19Z</time>
      </trkpt>
      <trkpt lat="44.00969" lon="1.5803">
        <ele>212</ele>
        <time>2023-12-13T15:32:27Z</time>
      </trkpt>
      <trkpt lat="44.00994" lon="1.58023">
        <ele>214</ele>
        <time>2023-12-13T15:32:32Z</time>
      </trkpt>
      <trkpt lat="44.0102" lon="1.58027">
        <ele>213</ele>
        <time>2023-12-13T15:32:37Z</time>
      </trkpt>
      <trkpt lat="44.01285" lon="1.58125">
        <ele>212</ele>
        <time>2023-12-13T15:33:25Z</time>
      </trkpt>
      <trkpt lat="44.01311" lon="1.58137">
        <ele>212</ele>
        <time>2023-12-13T15:33:30Z</time>
      </trkpt>
      <trkpt lat="44.0134" lon="1.58157">
        <ele>212</ele>
        <time>2023-12-13T15:33:36Z</time>
      </trkpt>
      <trkpt lat="44.01515" lon="1.58323">
        <ele>195</ele>
        <time>2023-12-13T15:34:14Z</time>
      </trkpt>
      <trkpt lat="44.01544" lon="1.58352">
        <ele>194</ele>
        <time>2023-12-13T15:34:20Z</time>
      </trkpt>
      <trkpt lat="44.01569" lon="1.58367">
        <ele>194</ele>
        <time>2023-12-13T15:34:25Z</time>
      </trkpt>
      <trkpt lat="44.01591" lon="1.5837">
        <ele>194</ele>
        <time>2023-12-13T15:34:29Z</time>
      </trkpt>
      <trkpt lat="44.01641" lon="1.58355">
        <ele>192</ele>
        <time>2023-12-13T15:34:38Z</time>
      </trkpt>
      <trkpt lat="44.01665" lon="1.58352">
        <ele>191</ele>
        <time>2023-12-13T15:34:42Z</time>
      </trkpt>
      <trkpt lat="44.01686" lon="1.58358">
        <ele>190</ele>
        <time>2023-12-13T15:34:46Z</time>
      </trkpt>
      <trkpt lat="44.01708" lon="1.58375">
        <ele>189</ele>
        <time>2023-12-13T15:34:51Z</time>
      </trkpt>
      <trkpt lat="44.01745" lon="1.58415">
        <ele>186</ele>
        <time>2023-12-13T15:34:59Z</time>
      </trkpt>
      <trkpt lat="44.01767" lon="1.58429">
        <ele>184</ele>
        <time>2023-12-13T15:35:03Z</time>
      </trkpt>
      <trkpt lat="44.01791" lon="1.58431">
        <ele>182</ele>
        <time>2023-12-13T15:35:07Z</time>
      </trkpt>
      <trkpt lat="44.01915" lon="1.58373">
        <ele>175</ele>
        <time>2023-12-13T15:35:31Z</time>
      </trkpt>
      <trkpt lat="44.02103" lon="1.58306">
        <ele>162</ele>
        <time>2023-12-13T15:36:05Z</time>
      </trkpt>
      <trkpt lat="44.02127" lon="1.58293">
        <ele>162</ele>
        <time>2023-12-13T15:36:10Z</time>
      </trkpt>
      <trkpt lat="44.02148" lon="1.58274">
        <ele>162</ele>
        <time>2023-12-13T15:36:14Z</time>
      </trkpt>
      <trkpt lat="44.0218" lon="1.58238">
        <ele>162</ele>
        <time>2023-12-13T15:36:22Z</time>
      </trkpt>
      <trkpt lat="44.02477" lon="1.57827">
        <ele>159</ele>
        <time>2023-12-13T15:37:36Z</time>
      </trkpt>
      <trkpt lat="44.03058" lon="1.57036">
        <ele>149</ele>
        <time>2023-12-13T15:40:01Z</time>
      </trkpt>
      <trkpt lat="44.03111" lon="1.56975">
        <ele>149</ele>
        <time>2023-12-13T15:40:13Z</time>
      </trkpt>
      <trkpt lat="44.03164" lon="1.56943">
        <ele>147</ele>
        <time>2023-12-13T15:40:23Z</time>
      </trkpt>
      <trkpt lat="44.03262" lon="1.56903">
        <ele>144</ele>
        <time>2023-12-13T15:40:42Z</time>
      </trkpt>
      <trkpt lat="44.03275" lon="1.56895">
        <ele>143</ele>
        <time>2023-12-13T15:40:44Z</time>
      </trkpt>
      <trkpt lat="44.03279" lon="1.56866">
        <ele>143</ele>
        <time>2023-12-13T15:40:48Z</time>
      </trkpt>
      <trkpt lat="44.03274" lon="1.56827">
        <ele>144</ele>
        <time>2023-12-13T15:40:53Z</time>
      </trkpt>
      <trkpt lat="44.03274" lon="1.56816">
        <ele>144</ele>
        <time>2023-12-13T15:40:54Z</time>
      </trkpt>
      <trkpt lat="44.03317" lon="1.56693">
        <ele>146</ele>
        <time>2023-12-13T15:41:12Z</time>
      </trkpt>
      <trkpt lat="44.03334" lon="1.56655">
        <ele>145</ele>
        <time>2023-12-13T15:41:18Z</time>
      </trkpt>
      <trkpt lat="44.03351" lon="1.56638">
        <ele>144</ele>
        <time>2023-12-13T15:41:21Z</time>
      </trkpt>
      <trkpt lat="44.03359" lon="1.5662">
        <ele>143</ele>
        <time>2023-12-13T15:41:24Z</time>
      </trkpt>
      <trkpt lat="44.03963" lon="1.55764">
        <ele>134</ele>
        <time>2023-12-13T15:43:57Z</time>
      </trkpt>
      <trkpt lat="44.04014" lon="1.55686">
        <ele>133</ele>
        <time>2023-12-13T15:44:11Z</time>
      </trkpt>
      <trkpt lat="44.04034" lon="1.55644">
        <ele>133</ele>
        <time>2023-12-13T15:44:17Z</time>
      </trkpt>
      <trkpt lat="44.04065" lon="1.55555">
        <ele>133</ele>
        <time>2023-12-13T15:44:30Z</time>
      </trkpt>
      <trkpt lat="44.04083" lon="1.55516">
        <ele>133</ele>
        <time>2023-12-13T15:44:36Z</time>
      </trkpt>
      <trkpt lat="44.04198" lon="1.5536">
        <ele>129</ele>
        <time>2023-12-13T15:45:05Z</time>
      </trkpt>
      <trkpt lat="44.04223" lon="1.55324">
        <ele>129</ele>
        <time>2023-12-13T15:45:11Z</time>
      </trkpt>
      <trkpt lat="44.04337" lon="1.55045">
        <ele>130</ele>
        <time>2023-12-13T15:45:52Z</time>
      </trkpt>
      <trkpt lat="44.04345" lon="1.55022">
        <ele>130</ele>
        <time>2023-12-13T15:45:55Z</time>
      </trkpt>
      <trkpt lat="44.04385" lon="1.54849">
        <ele>129</ele>
        <time>2023-12-13T15:46:18Z</time>
      </trkpt>
      <trkpt lat="44.04392" lon="1.54829">
        <ele>129</ele>
        <time>2023-12-13T15:46:21Z</time>
      </trkpt>
      <trkpt lat="44.04412" lon="1.54792">
        <ele>129</ele>
        <time>2023-12-13T15:46:27Z</time>
      </trkpt>
      <trkpt lat="44.04436" lon="1.54761">
        <ele>129</ele>
        <time>2023-12-13T15:46:33Z</time>
      </trkpt>
      <trkpt lat="44.04562" lon="1.5461">
        <ele>126</ele>
        <time>2023-12-13T15:47:03Z</time>
      </trkpt>
      <trkpt lat="44.04615" lon="1.54558">
        <ele>126</ele>
        <time>2023-12-13T15:47:14Z</time>
      </trkpt>
      <trkpt lat="44.04668" lon="1.54518">
        <ele>125</ele>
        <time>2023-12-13T15:47:25Z</time>
      </trkpt>
      <trkpt lat="44.05014" lon="1.54276">
        <ele>121</ele>
        <time>2023-12-13T15:48:34Z</time>
      </trkpt>
      <trkpt lat="44.05031" lon="1.54265">
        <ele>121</ele>
        <time>2023-12-13T15:48:37Z</time>
      </trkpt>
      <trkpt lat="44.0514" lon="1.54215">
        <ele>122</ele>
        <time>2023-12-13T15:48:58Z</time>
      </trkpt>
      <trkpt lat="44.05163" lon="1.54201">
        <ele>122</ele>
        <time>2023-12-13T15:49:02Z</time>
      </trkpt>
      <trkpt lat="44.05179" lon="1.54188">
        <ele>122</ele>
        <time>2023-12-13T15:49:05Z</time>
      </trkpt>
      <trkpt lat="44.05192" lon="1.54173">
        <ele>121</ele>
        <time>2023-12-13T15:49:08Z</time>
      </trkpt>
      <trkpt lat="44.05207" lon="1.5415">
        <ele>121</ele>
        <time>2023-12-13T15:49:12Z</time>
      </trkpt>
      <trkpt lat="44.05341" lon="1.53866">
        <ele>119</ele>
        <time>2023-12-13T15:49:56Z</time>
      </trkpt>
      <trkpt lat="44.05495" lon="1.53699">
        <ele>119</ele>
        <time>2023-12-13T15:50:31Z</time>
      </trkpt>
      <trkpt lat="44.05513" lon="1.53688">
        <ele>119</ele>
        <time>2023-12-13T15:50:34Z</time>
      </trkpt>
      <trkpt lat="44.05529" lon="1.53681">
        <ele>119</ele>
        <time>2023-12-13T15:50:37Z</time>
      </trkpt>
      <trkpt lat="44.05771" lon="1.53607">
        <ele>117</ele>
        <time>2023-12-13T15:51:21Z</time>
      </trkpt>
      <trkpt lat="44.058" lon="1.53592">
        <ele>116</ele>
        <time>2023-12-13T15:51:27Z</time>
      </trkpt>
      <trkpt lat="44.05869" lon="1.53547">
        <ele>116</ele>
        <time>2023-12-13T15:51:40Z</time>
      </trkpt>
      <trkpt lat="44.05996" lon="1.53455">
        <ele>114</ele>
        <time>2023-12-13T15:52:06Z</time>
      </trkpt>
      <trkpt lat="44.06281" lon="1.53179">
        <ele>114</ele>
        <time>2023-12-13T15:53:07Z</time>
      </trkpt>
      <trkpt lat="44.06381" lon="1.53123">
        <ele>112</ele>
        <time>2023-12-13T15:53:27Z</time>
      </trkpt>
      <trkpt lat="44.064" lon="1.531">
        <ele>112</ele>
        <time>2023-12-13T15:53:31Z</time>
      </trkpt>
      <trkpt lat="44.0642" lon="1.53068">
        <ele>110</ele>
        <time>2023-12-13T15:53:36Z</time>
      </trkpt>
      <trkpt lat="44.06435" lon="1.53035">
        <ele>109</ele>
        <time>2023-12-13T15:53:41Z</time>
      </trkpt>
      <trkpt lat="44.06455" lon="1.52982">
        <ele>109</ele>
        <time>2023-12-13T15:53:49Z</time>
      </trkpt>
      <trkpt lat="44.06482" lon="1.52903">
        <ele>109</ele>
        <time>2023-12-13T15:54:00Z</time>
      </trkpt>
      <trkpt lat="44.06502" lon="1.52853">
        <ele>108</ele>
        <time>2023-12-13T15:54:08Z</time>
      </trkpt>
      <trkpt lat="44.06661" lon="1.52609">
        <ele>105</ele>
        <time>2023-12-13T15:54:50Z</time>
      </trkpt>
      <trkpt lat="44.06685" lon="1.52592">
        <ele>105</ele>
        <time>2023-12-13T15:54:55Z</time>
      </trkpt>
      <trkpt lat="44.0683" lon="1.52516">
        <ele>106</ele>
        <time>2023-12-13T15:55:22Z</time>
      </trkpt>
      <trkpt lat="44.07016" lon="1.52422">
        <ele>105</ele>
        <time>2023-12-13T15:55:57Z</time>
      </trkpt>
      <trkpt lat="44.07081" lon="1.52386">
        <ele>104</ele>
        <time>2023-12-13T15:56:10Z</time>
      </trkpt>
      <trkpt lat="44.07148" lon="1.52351">
        <ele>106</ele>
        <time>2023-12-13T15:56:22Z</time>
      </trkpt>
      <trkpt lat="44.07157" lon="1.5235">
        <ele>106</ele>
        <time>2023-12-13T15:56:24Z</time>
      </trkpt>
      <trkpt lat="44.0717" lon="1.52345">
        <ele>106</ele>
        <time>2023-12-13T15:56:26Z</time>
      </trkpt>
      <trkpt lat="44.07176" lon="1.52346">
        <ele>106</ele>
        <time>2023-12-13T15:56:28Z</time>
      </trkpt>
      <trkpt lat="44.07182" lon="1.52349">
        <ele>106</ele>
        <time>2023-12-13T15:56:29Z</time>
      </trkpt>
      <trkpt lat="44.07186" lon="1.52353">
        <ele>106</ele>
        <time>2023-12-13T15:56:30Z</time>
      </trkpt>
      <trkpt lat="44.07189" lon="1.52409">
        <ele>105</ele>
        <time>2023-12-13T15:56:37Z</time>
      </trkpt>
      <trkpt lat="44.07197" lon="1.52505">
        <ele>105</ele>
        <time>2023-12-13T15:56:49Z</time>
      </trkpt>
      <trkpt lat="44.07203" lon="1.5264">
        <ele>103</ele>
        <time>2023-12-13T15:57:06Z</time>
      </trkpt>
      <trkpt lat="44.07206" lon="1.52769">
        <ele>103</ele>
        <time>2023-12-13T15:57:23Z</time>
      </trkpt>
      <trkpt lat="44.07207" lon="1.52809">
        <ele>103</ele>
        <time>2023-12-13T15:57:28Z</time>
      </trkpt>
      <trkpt lat="44.07232" lon="1.53578">
        <ele>104</ele>
        <time>2023-12-13T15:59:06Z</time>
      </trkpt>
      <trkpt lat="44.07231" lon="1.5359">
        <ele>104</ele>
        <time>2023-12-13T15:59:08Z</time>
      </trkpt>
      <trkpt lat="44.07231" lon="1.53627">
        <ele>103</ele>
        <time>2023-12-13T15:59:13Z</time>
      </trkpt>
      <trkpt lat="44.07228" lon="1.53645">
        <ele>103</ele>
        <time>2023-12-13T15:59:15Z</time>
      </trkpt>
      <trkpt lat="44.07223" lon="1.53648">
        <ele>103</ele>
        <time>2023-12-13T15:59:16Z</time>
      </trkpt>
      <trkpt lat="44.07218" lon="1.53657">
        <ele>103</ele>
        <time>2023-12-13T15:59:17Z</time>
      </trkpt>
      <trkpt lat="44.07216" lon="1.53669">
        <ele>103</ele>
        <time>2023-12-13T15:59:19Z</time>
      </trkpt>
      <trkpt lat="44.07218" lon="1.5368">
        <ele>102</ele>
        <time>2023-12-13T15:59:21Z</time>
      </trkpt>
      <trkpt lat="44.07223" lon="1.53688">
        <ele>102</ele>
        <time>2023-12-13T15:59:22Z</time>
      </trkpt>
      <trkpt lat="44.07227" lon="1.53693">
        <ele>102</ele>
        <time>2023-12-13T15:59:23Z</time>
      </trkpt>
      <trkpt lat="44.07236" lon="1.53695">
        <ele>102</ele>
        <time>2023-12-13T15:59:24Z</time>
      </trkpt>
      <trkpt lat="44.07245" lon="1.53691">
        <ele>102</ele>
        <time>2023-12-13T15:59:26Z</time>
      </trkpt>
      <trkpt lat="44.07252" lon="1.5368">
        <ele>103</ele>
        <time>2023-12-13T15:59:28Z</time>
      </trkpt>
      <trkpt lat="44.07258" lon="1.53687">
        <ele>102</ele>
        <time>2023-12-13T15:59:29Z</time>
      </trkpt>
      <trkpt lat="44.07267" lon="1.53704">
        <ele>102</ele>
        <time>2023-12-13T15:59:32Z</time>
      </trkpt>
      <trkpt lat="44.07256" lon="1.53866">
        <ele>102</ele>
        <time>2023-12-13T15:59:53Z</time>
      </trkpt>
      <trkpt lat="44.07264" lon="1.54231">
        <ele>102</ele>
        <time>2023-12-13T16:00:40Z</time>
      </trkpt>
      <trkpt lat="44.07278" lon="1.54431">
        <ele>101</ele>
        <time>2023-12-13T16:01:05Z</time>
      </trkpt>
      <trkpt lat="44.07282" lon="1.54549">
        <ele>101</ele>
        <time>2023-12-13T16:01:20Z</time>
      </trkpt>
      <trkpt lat="44.07286" lon="1.54592">
        <ele>100</ele>
        <time>2023-12-13T16:01:26Z</time>
      </trkpt>
      <trkpt lat="44.07294" lon="1.54643">
        <ele>100</ele>
        <time>2023-12-13T16:01:33Z</time>
      </trkpt>
      <trkpt lat="44.07374" lon="1.55111">
        <ele>100</ele>
        <time>2023-12-13T16:02:34Z</time>
      </trkpt>
      <trkpt lat="44.074" lon="1.55409">
        <ele>102</ele>
        <time>2023-12-13T16:03:12Z</time>
      </trkpt>
      <trkpt lat="44.07447" lon="1.55738">
        <ele>103</ele>
        <time>2023-12-13T16:03:55Z</time>
      </trkpt>
      <trkpt lat="44.0747" lon="1.55861">
        <ele>103</ele>
        <time>2023-12-13T16:04:12Z</time>
      </trkpt>
      <trkpt lat="44.07489" lon="1.55995">
        <ele>102</ele>
        <time>2023-12-13T16:04:29Z</time>
      </trkpt>
      <trkpt lat="44.07497" lon="1.56068">
        <ele>102</ele>
        <time>2023-12-13T16:04:38Z</time>
      </trkpt>
      <trkpt lat="44.07521" lon="1.56206">
        <ele>102</ele>
        <time>2023-12-13T16:04:57Z</time>
      </trkpt>
      <trkpt lat="44.07577" lon="1.565">
        <ele>100</ele>
        <time>2023-12-13T16:05:36Z</time>
      </trkpt>
      <trkpt lat="44.07658" lon="1.56951">
        <ele>102</ele>
        <time>2023-12-13T16:06:35Z</time>
      </trkpt>
      <trkpt lat="44.0772" lon="1.5728">
        <ele>101</ele>
        <time>2023-12-13T16:07:18Z</time>
      </trkpt>
      <trkpt lat="44.07775" lon="1.57587">
        <ele>101</ele>
        <time>2023-12-13T16:07:59Z</time>
      </trkpt>
      <trkpt lat="44.07786" lon="1.57643">
        <ele>102</ele>
        <time>2023-12-13T16:08:06Z</time>
      </trkpt>
      <trkpt lat="44.07808" lon="1.57734">
        <ele>102</ele>
        <time>2023-12-13T16:08:19Z</time>
      </trkpt>
      <trkpt lat="44.07858" lon="1.57907">
        <ele>101</ele>
        <time>2023-12-13T16:08:42Z</time>
      </trkpt>
      <trkpt lat="44.07871" lon="1.57963">
        <ele>101</ele>
        <time>2023-12-13T16:08:50Z</time>
      </trkpt>
      <trkpt lat="44.07878" lon="1.58015">
        <ele>101</ele>
        <time>2023-12-13T16:08:57Z</time>
      </trkpt>
      <trkpt lat="44.07882" lon="1.58058">
        <ele>101</ele>
        <time>2023-12-13T16:09:02Z</time>
      </trkpt>
      <trkpt lat="44.0788" lon="1.58092">
        <ele>101</ele>
        <time>2023-12-13T16:09:07Z</time>
      </trkpt>
      <trkpt lat="44.0787" lon="1.58193">
        <ele>102</ele>
        <time>2023-12-13T16:09:20Z</time>
      </trkpt>
      <trkpt lat="44.0787" lon="1.58242">
        <ele>102</ele>
        <time>2023-12-13T16:09:26Z</time>
      </trkpt>
      <trkpt lat="44.07878" lon="1.58314">
        <ele>102</ele>
        <time>2023-12-13T16:09:35Z</time>
      </trkpt>
      <trkpt lat="44.07905" lon="1.58462">
        <ele>102</ele>
        <time>2023-12-13T16:09:55Z</time>
      </trkpt>
      <trkpt lat="44.07954" lon="1.58647">
        <ele>102</ele>
        <time>2023-12-13T16:10:20Z</time>
      </trkpt>
      <trkpt lat="44.07962" lon="1.58754">
        <ele>102</ele>
        <time>2023-12-13T16:10:34Z</time>
      </trkpt>
      <trkpt lat="44.07979" lon="1.58901">
        <ele>102</ele>
        <time>2023-12-13T16:10:53Z</time>
      </trkpt>
      <trkpt lat="44.07996" lon="1.58993">
        <ele>101</ele>
        <time>2023-12-13T16:11:05Z</time>
      </trkpt>
      <trkpt lat="44.07998" lon="1.59017">
        <ele>101</ele>
        <time>2023-12-13T16:11:08Z</time>
      </trkpt>
      <trkpt lat="44.07995" lon="1.59039">
        <ele>101</ele>
        <time>2023-12-13T16:11:11Z</time>
      </trkpt>
      <trkpt lat="44.07861" lon="1.59342">
        <ele>103</ele>
        <time>2023-12-13T16:11:56Z</time>
      </trkpt>
      <trkpt lat="44.07842" lon="1.59397">
        <ele>104</ele>
        <time>2023-12-13T16:12:04Z</time>
      </trkpt>
      <trkpt lat="44.07832" lon="1.59433">
        <ele>104</ele>
        <time>2023-12-13T16:12:09Z</time>
      </trkpt>
      <trkpt lat="44.07825" lon="1.59469">
        <ele>105</ele>
        <time>2023-12-13T16:12:14Z</time>
      </trkpt>
      <trkpt lat="44.07814" lon="1.59551">
        <ele>105</ele>
        <time>2023-12-13T16:12:24Z</time>
      </trkpt>
      <trkpt lat="44.07808" lon="1.59611">
        <ele>104</ele>
        <time>2023-12-13T16:12:32Z</time>
      </trkpt>
      <trkpt lat="44.078" lon="1.59666">
        <ele>103</ele>
        <time>2023-12-13T16:12:39Z</time>
      </trkpt>
      <trkpt lat="44.07783" lon="1.59752">
        <ele>102</ele>
        <time>2023-12-13T16:12:51Z</time>
      </trkpt>
      <trkpt lat="44.07766" lon="1.59828">
        <ele>103</ele>
        <time>2023-12-13T16:13:01Z</time>
      </trkpt>
      <trkpt lat="44.07729" lon="1.59959">
        <ele>103</ele>
        <time>2023-12-13T16:13:19Z</time>
      </trkpt>
      <trkpt lat="44.07688" lon="1.60086">
        <ele>104</ele>
        <time>2023-12-13T16:13:37Z</time>
      </trkpt>
      <trkpt lat="44.07664" lon="1.60201">
        <ele>104</ele>
        <time>2023-12-13T16:13:52Z</time>
      </trkpt>
      <trkpt lat="44.07655" lon="1.60254">
        <ele>105</ele>
        <time>2023-12-13T16:13:59Z</time>
      </trkpt>
      <trkpt lat="44.07629" lon="1.60315">
        <ele>105</ele>
        <time>2023-12-13T16:14:08Z</time>
      </trkpt>
      <trkpt lat="44.07618" lon="1.60334">
        <ele>106</ele>
        <time>2023-12-13T16:14:11Z</time>
      </trkpt>
      <trkpt lat="44.07522" lon="1.60487">
        <ele>106</ele>
        <time>2023-12-13T16:14:37Z</time>
      </trkpt>
      <trkpt lat="44.07507" lon="1.60534">
        <ele>106</ele>
        <time>2023-12-13T16:14:44Z</time>
      </trkpt>
      <trkpt lat="44.07497" lon="1.60557">
        <ele>106</ele>
        <time>2023-12-13T16:14:47Z</time>
      </trkpt>
      <trkpt lat="44.07486" lon="1.60568">
        <ele>105</ele>
        <time>2023-12-13T16:14:50Z</time>
      </trkpt>
      <trkpt lat="44.07469" lon="1.6057">
        <ele>106</ele>
        <time>2023-12-13T16:14:53Z</time>
      </trkpt>
      <trkpt lat="44.07451" lon="1.60565">
        <ele>106</ele>
        <time>2023-12-13T16:14:56Z</time>
      </trkpt>
      <trkpt lat="44.0745" lon="1.60615">
        <ele>105</ele>
        <time>2023-12-13T16:15:02Z</time>
      </trkpt>
      <trkpt lat="44.07438" lon="1.60746">
        <ele>105</ele>
        <time>2023-12-13T16:15:19Z</time>
      </trkpt>
      <trkpt lat="44.07421" lon="1.6085">
        <ele>106</ele>
        <time>2023-12-13T16:15:33Z</time>
      </trkpt>
      <trkpt lat="44.07399" lon="1.60967">
        <ele>106</ele>
        <time>2023-12-13T16:15:48Z</time>
      </trkpt>
      <trkpt lat="44.07392" lon="1.60997">
        <ele>106</ele>
        <time>2023-12-13T16:15:52Z</time>
      </trkpt>
      <trkpt lat="44.0736" lon="1.61165">
        <ele>109</ele>
        <time>2023-12-13T16:16:14Z</time>
      </trkpt>
      <trkpt lat="44.07307" lon="1.61425">
        <ele>108</ele>
        <time>2023-12-13T16:16:49Z</time>
      </trkpt>
      <trkpt lat="44.07292" lon="1.61456">
        <ele>109</ele>
        <time>2023-12-13T16:16:54Z</time>
      </trkpt>
      <trkpt lat="44.07279" lon="1.61467">
        <ele>109</ele>
        <time>2023-12-13T16:16:57Z</time>
      </trkpt>
      <trkpt lat="44.07275" lon="1.61473">
        <ele>109</ele>
        <time>2023-12-13T16:16:58Z</time>
      </trkpt>
      <trkpt lat="44.07269" lon="1.61475">
        <ele>110</ele>
        <time>2023-12-13T16:16:59Z</time>
      </trkpt>
      <trkpt lat="44.07261" lon="1.61486">
        <ele>110</ele>
        <time>2023-12-13T16:17:01Z</time>
      </trkpt>
      <trkpt lat="44.07259" lon="1.61498">
        <ele>110</ele>
        <time>2023-12-13T16:17:02Z</time>
      </trkpt>
      <trkpt lat="44.07262" lon="1.61512">
        <ele>110</ele>
        <time>2023-12-13T16:17:04Z</time>
      </trkpt>
      <trkpt lat="44.07269" lon="1.6152">
        <ele>109</ele>
        <time>2023-12-13T16:17:06Z</time>
      </trkpt>
      <trkpt lat="44.07274" lon="1.61522">
        <ele>109</ele>
        <time>2023-12-13T16:17:07Z</time>
      </trkpt>
      <trkpt lat="44.07282" lon="1.61539">
        <ele>108</ele>
        <time>2023-12-13T16:17:09Z</time>
      </trkpt>
      <trkpt lat="44.07283" lon="1.61547">
        <ele>108</ele>
        <time>2023-12-13T16:17:10Z</time>
      </trkpt>
      <trkpt lat="44.07266" lon="1.61648">
        <ele>108</ele>
        <time>2023-12-13T16:17:24Z</time>
      </trkpt>
      <trkpt lat="44.0726" lon="1.61675">
        <ele>109</ele>
        <time>2023-12-13T16:17:27Z</time>
      </trkpt>
      <trkpt lat="44.07247" lon="1.61763">
        <ele>110</ele>
        <time>2023-12-13T16:17:39Z</time>
      </trkpt>
      <trkpt lat="44.07242" lon="1.61832">
        <ele>110</ele>
        <time>2023-12-13T16:17:47Z</time>
      </trkpt>
      <trkpt lat="44.07242" lon="1.61871">
        <ele>110</ele>
        <time>2023-12-13T16:17:52Z</time>
      </trkpt>
      <trkpt lat="44.07267" lon="1.62287">
        <ele>110</ele>
        <time>2023-12-13T16:18:46Z</time>
      </trkpt>
      <trkpt lat="44.07268" lon="1.62329">
        <ele>109</ele>
        <time>2023-12-13T16:18:51Z</time>
      </trkpt>
      <trkpt lat="44.07266" lon="1.6238">
        <ele>112</ele>
        <time>2023-12-13T16:18:58Z</time>
      </trkpt>
      <trkpt lat="44.07261" lon="1.6244">
        <ele>114</ele>
        <time>2023-12-13T16:19:05Z</time>
      </trkpt>
      <trkpt lat="44.07257" lon="1.6247">
        <ele>114</ele>
        <time>2023-12-13T16:19:09Z</time>
      </trkpt>
      <trkpt lat="44.07249" lon="1.62505">
        <ele>114</ele>
        <time>2023-12-13T16:19:14Z</time>
      </trkpt>
      <trkpt lat="44.07232" lon="1.62568">
        <ele>115</ele>
        <time>2023-12-13T16:19:23Z</time>
      </trkpt>
      <trkpt lat="44.07211" lon="1.6266">
        <ele>117</ele>
        <time>2023-12-13T16:19:35Z</time>
      </trkpt>
      <trkpt lat="44.07194" lon="1.6274">
        <ele>121</ele>
        <time>2023-12-13T16:19:46Z</time>
      </trkpt>
      <trkpt lat="44.0719" lon="1.62778">
        <ele>121</ele>
        <time>2023-12-13T16:19:51Z</time>
      </trkpt>
      <trkpt lat="44.07187" lon="1.62812">
        <ele>121</ele>
        <time>2023-12-13T16:19:55Z</time>
      </trkpt>
      <trkpt lat="44.07186" lon="1.62858">
        <ele>121</ele>
        <time>2023-12-13T16:20:01Z</time>
      </trkpt>
      <trkpt lat="44.07186" lon="1.62906">
        <ele>122</ele>
        <time>2023-12-13T16:20:07Z</time>
      </trkpt>
      <trkpt lat="44.07195" lon="1.62979">
        <ele>120</ele>
        <time>2023-12-13T16:20:16Z</time>
      </trkpt>
      <trkpt lat="44.07301" lon="1.635">
        <ele>110</ele>
        <time>2023-12-13T16:21:26Z</time>
      </trkpt>
      <trkpt lat="44.07319" lon="1.63594">
        <ele>109</ele>
        <time>2023-12-13T16:21:38Z</time>
      </trkpt>
      <trkpt lat="44.0733" lon="1.63678">
        <ele>108</ele>
        <time>2023-12-13T16:21:49Z</time>
      </trkpt>
      <trkpt lat="44.07337" lon="1.63743">
        <ele>109</ele>
        <time>2023-12-13T16:21:57Z</time>
      </trkpt>
      <trkpt lat="44.07343" lon="1.6385">
        <ele>109</ele>
        <time>2023-12-13T16:22:11Z</time>
      </trkpt>
      <trkpt lat="44.07345" lon="1.63965">
        <ele>110</ele>
        <time>2023-12-13T16:22:26Z</time>
      </trkpt>
      <trkpt lat="44.07341" lon="1.64058">
        <ele>111</ele>
        <time>2023-12-13T16:22:38Z</time>
      </trkpt>
      <trkpt lat="44.07332" lon="1.64156">
        <ele>112</ele>
        <time>2023-12-13T16:22:50Z</time>
      </trkpt>
      <trkpt lat="44.07326" lon="1.64192">
        <ele>112</ele>
        <time>2023-12-13T16:22:55Z</time>
      </trkpt>
      <trkpt lat="44.07318" lon="1.64252">
        <ele>111</ele>
        <time>2023-12-13T16:23:03Z</time>
      </trkpt>
      <trkpt lat="44.07311" lon="1.64295">
        <ele>112</ele>
        <time>2023-12-13T16:23:09Z</time>
      </trkpt>
      <trkpt lat="44.07293" lon="1.64378">
        <ele>112</ele>
        <time>2023-12-13T16:23:20Z</time>
      </trkpt>
      <trkpt lat="44.07277" lon="1.64441">
        <ele>112</ele>
        <time>2023-12-13T16:23:28Z</time>
      </trkpt>
      <trkpt lat="44.07242" lon="1.64558">
        <ele>110</ele>
        <time>2023-12-13T16:23:44Z</time>
      </trkpt>
      <trkpt lat="44.07211" lon="1.64643">
        <ele>110</ele>
        <time>2023-12-13T16:23:57Z</time>
      </trkpt>
      <trkpt lat="44.07184" lon="1.64707">
        <ele>112</ele>
        <time>2023-12-13T16:24:06Z</time>
      </trkpt>
      <trkpt lat="44.0705" lon="1.64977">
        <ele>114</ele>
        <time>2023-12-13T16:24:48Z</time>
      </trkpt>
      <trkpt lat="44.06668" lon="1.6574">
        <ele>114</ele>
        <time>2023-12-13T16:26:47Z</time>
      </trkpt>
      <trkpt lat="44.06611" lon="1.65833">
        <ele>116</ele>
        <time>2023-12-13T16:27:03Z</time>
      </trkpt>
      <trkpt lat="44.06318" lon="1.66279">
        <ele>121</ele>
        <time>2023-12-13T16:28:20Z</time>
      </trkpt>
      <trkpt lat="44.06291" lon="1.66317">
        <ele>121</ele>
        <time>2023-12-13T16:28:27Z</time>
      </trkpt>
      <trkpt lat="44.0625" lon="1.66366">
        <ele>120</ele>
        <time>2023-12-13T16:28:36Z</time>
      </trkpt>
      <trkpt lat="44.06222" lon="1.66394">
        <ele>120</ele>
        <time>2023-12-13T16:28:42Z</time>
      </trkpt>
      <trkpt lat="44.06185" lon="1.66428">
        <ele>120</ele>
        <time>2023-12-13T16:28:50Z</time>
      </trkpt>
      <trkpt lat="44.06144" lon="1.6646">
        <ele>121</ele>
        <time>2023-12-13T16:28:59Z</time>
      </trkpt>
      <trkpt lat="44.06103" lon="1.66486">
        <ele>120</ele>
        <time>2023-12-13T16:29:07Z</time>
      </trkpt>
      <trkpt lat="44.06072" lon="1.66502">
        <ele>118</ele>
        <time>2023-12-13T16:29:13Z</time>
      </trkpt>
      <trkpt lat="44.06044" lon="1.66515">
        <ele>120</ele>
        <time>2023-12-13T16:29:18Z</time>
      </trkpt>
      <trkpt lat="44.06034" lon="1.66519">
        <ele>121</ele>
        <time>2023-12-13T16:29:20Z</time>
      </trkpt>
      <trkpt lat="44.05828" lon="1.66594">
        <ele>132</ele>
        <time>2023-12-13T16:29:57Z</time>
      </trkpt>
      <trkpt lat="44.05811" lon="1.66601">
        <ele>134</ele>
        <time>2023-12-13T16:30:01Z</time>
      </trkpt>
      <trkpt lat="44.05778" lon="1.6662">
        <ele>135</ele>
        <time>2023-12-13T16:30:07Z</time>
      </trkpt>
      <trkpt lat="44.05737" lon="1.66654">
        <ele>130</ele>
        <time>2023-12-13T16:30:15Z</time>
      </trkpt>
      <trkpt lat="44.05712" lon="1.66683">
        <ele>128</ele>
        <time>2023-12-13T16:30:21Z</time>
      </trkpt>
      <trkpt lat="44.05687" lon="1.66721">
        <ele>120</ele>
        <time>2023-12-13T16:30:28Z</time>
      </trkpt>
      <trkpt lat="44.05673" lon="1.66746">
        <ele>111</ele>
        <time>2023-12-13T16:30:32Z</time>
      </trkpt>
      <trkpt lat="44.05661" lon="1.66772">
        <ele>109</ele>
        <time>2023-12-13T16:30:36Z</time>
      </trkpt>
      <trkpt lat="44.05648" lon="1.66808">
        <ele>109</ele>
        <time>2023-12-13T16:30:41Z</time>
      </trkpt>
      <trkpt lat="44.05638" lon="1.66845">
        <ele>106</ele>
        <time>2023-12-13T16:30:46Z</time>
      </trkpt>
      <trkpt lat="44.05633" lon="1.66875">
        <ele>105</ele>
        <time>2023-12-13T16:30:50Z</time>
      </trkpt>
      <trkpt lat="44.0563" lon="1.66909">
        <ele>104</ele>
        <time>2023-12-13T16:30:54Z</time>
      </trkpt>
      <trkpt lat="44.05628" lon="1.66943">
        <ele>103</ele>
        <time>2023-12-13T16:30:59Z</time>
      </trkpt>
      <trkpt lat="44.05627" lon="1.66956">
        <ele>103</ele>
        <time>2023-12-13T16:31:00Z</time>
      </trkpt>
      <trkpt lat="44.05629" lon="1.67002">
        <ele>104</ele>
        <time>2023-12-13T16:31:06Z</time>
      </trkpt>
      <trkpt lat="44.05633" lon="1.67038">
        <ele>105</ele>
        <time>2023-12-13T16:31:11Z</time>
      </trkpt>
      <trkpt lat="44.05645" lon="1.6709">
        <ele>109</ele>
        <time>2023-12-13T16:31:18Z</time>
      </trkpt>
      <trkpt lat="44.05657" lon="1.67128">
        <ele>115</ele>
        <time>2023-12-13T16:31:23Z</time>
      </trkpt>
      <trkpt lat="44.05672" lon="1.67162">
        <ele>118</ele>
        <time>2023-12-13T16:31:28Z</time>
      </trkpt>
      <trkpt lat="44.05696" lon="1.67209">
        <ele>130</ele>
        <time>2023-12-13T16:31:36Z</time>
      </trkpt>
      <trkpt lat="44.05715" lon="1.67236">
        <ele>132</ele>
        <time>2023-12-13T16:31:41Z</time>
      </trkpt>
      <trkpt lat="44.05758" lon="1.6728">
        <ele>132</ele>
        <time>2023-12-13T16:31:50Z</time>
      </trkpt>
      <trkpt lat="44.05781" lon="1.67299">
        <ele>132</ele>
        <time>2023-12-13T16:31:55Z</time>
      </trkpt>
      <trkpt lat="44.05813" lon="1.67318">
        <ele>125</ele>
        <time>2023-12-13T16:32:01Z</time>
      </trkpt>
      <trkpt lat="44.05847" lon="1.67334">
        <ele>116</ele>
        <time>2023-12-13T16:32:07Z</time>
      </trkpt>
      <trkpt lat="44.05884" lon="1.67347">
        <ele>115</ele>
        <time>2023-12-13T16:32:14Z</time>
      </trkpt>
      <trkpt lat="44.06096" lon="1.67408">
        <ele>114</ele>
        <time>2023-12-13T16:32:53Z</time>
      </trkpt>
      <trkpt lat="44.06224" lon="1.67447">
        <ele>116</ele>
        <time>2023-12-13T16:33:16Z</time>
      </trkpt>
      <trkpt lat="44.06265" lon="1.67463">
        <ele>114</ele>
        <time>2023-12-13T16:33:24Z</time>
      </trkpt>
      <trkpt lat="44.06293" lon="1.67479">
        <ele>115</ele>
        <time>2023-12-13T16:33:29Z</time>
      </trkpt>
      <trkpt lat="44.06321" lon="1.675">
        <ele>116</ele>
        <time>2023-12-13T16:33:35Z</time>
      </trkpt>
      <trkpt lat="44.0636" lon="1.6754">
        <ele>120</ele>
        <time>2023-12-13T16:33:43Z</time>
      </trkpt>
      <trkpt lat="44.06393" lon="1.67587">
        <ele>123</ele>
        <time>2023-12-13T16:33:52Z</time>
      </trkpt>
      <trkpt lat="44.06422" lon="1.6764">
        <ele>132</ele>
        <time>2023-12-13T16:34:00Z</time>
      </trkpt>
      <trkpt lat="44.06436" lon="1.67671">
        <ele>138</ele>
        <time>2023-12-13T16:34:05Z</time>
      </trkpt>
      <trkpt lat="44.06452" lon="1.67711">
        <ele>137</ele>
        <time>2023-12-13T16:34:11Z</time>
      </trkpt>
      <trkpt lat="44.06464" lon="1.6775">
        <ele>132</ele>
        <time>2023-12-13T16:34:16Z</time>
      </trkpt>
      <trkpt lat="44.06476" lon="1.67806">
        <ele>125</ele>
        <time>2023-12-13T16:34:24Z</time>
      </trkpt>
      <trkpt lat="44.06479" lon="1.67825">
        <ele>123</ele>
        <time>2023-12-13T16:34:26Z</time>
      </trkpt>
      <trkpt lat="44.06482" lon="1.67865">
        <ele>120</ele>
        <time>2023-12-13T16:34:31Z</time>
      </trkpt>
      <trkpt lat="44.06482" lon="1.67907">
        <ele>118</ele>
        <time>2023-12-13T16:34:37Z</time>
      </trkpt>
      <trkpt lat="44.06479" lon="1.67944">
        <ele>116</ele>
        <time>2023-12-13T16:34:41Z</time>
      </trkpt>
      <trkpt lat="44.06475" lon="1.67974">
        <ele>115</ele>
        <time>2023-12-13T16:34:45Z</time>
      </trkpt>
      <trkpt lat="44.06466" lon="1.68018">
        <ele>114</ele>
        <time>2023-12-13T16:34:51Z</time>
      </trkpt>
      <trkpt lat="44.06455" lon="1.68055">
        <ele>114</ele>
        <time>2023-12-13T16:34:56Z</time>
      </trkpt>
      <trkpt lat="44.06442" lon="1.6809">
        <ele>114</ele>
        <time>2023-12-13T16:35:01Z</time>
      </trkpt>
      <trkpt lat="44.06428" lon="1.68121">
        <ele>113</ele>
        <time>2023-12-13T16:35:06Z</time>
      </trkpt>
      <trkpt lat="44.06306" lon="1.6833">
        <ele>130</ele>
        <time>2023-12-13T16:35:40Z</time>
      </trkpt>
      <trkpt lat="44.06262" lon="1.68408">
        <ele>134</ele>
        <time>2023-12-13T16:35:53Z</time>
      </trkpt>
      <trkpt lat="44.06236" lon="1.6846">
        <ele>134</ele>
        <time>2023-12-13T16:36:01Z</time>
      </trkpt>
      <trkpt lat="44.06221" lon="1.68501">
        <ele>133</ele>
        <time>2023-12-13T16:36:07Z</time>
      </trkpt>
      <trkpt lat="44.0621" lon="1.68536">
        <ele>133</ele>
        <time>2023-12-13T16:36:12Z</time>
      </trkpt>
      <trkpt lat="44.06192" lon="1.68606">
        <ele>134</ele>
        <time>2023-12-13T16:36:21Z</time>
      </trkpt>
      <trkpt lat="44.06182" lon="1.68661">
        <ele>135</ele>
        <time>2023-12-13T16:36:29Z</time>
      </trkpt>
      <trkpt lat="44.06176" lon="1.68723">
        <ele>135</ele>
        <time>2023-12-13T16:36:37Z</time>
      </trkpt>
      <trkpt lat="44.06175" lon="1.68822">
        <ele>134</ele>
        <time>2023-12-13T16:36:49Z</time>
      </trkpt>
      <trkpt lat="44.06183" lon="1.68934">
        <ele>133</ele>
        <time>2023-12-13T16:37:04Z</time>
      </trkpt>
      <trkpt lat="44.06191" lon="1.69002">
        <ele>132</ele>
        <time>2023-12-13T16:37:13Z</time>
      </trkpt>
      <trkpt lat="44.06206" lon="1.69078">
        <ele>130</ele>
        <time>2023-12-13T16:37:23Z</time>
      </trkpt>
      <trkpt lat="44.06224" lon="1.69153">
        <ele>125</ele>
        <time>2023-12-13T16:37:33Z</time>
      </trkpt>
      <trkpt lat="44.06249" lon="1.69235">
        <ele>116</ele>
        <time>2023-12-13T16:37:44Z</time>
      </trkpt>
      <trkpt lat="44.06327" lon="1.69404">
        <ele>115</ele>
        <time>2023-12-13T16:38:10Z</time>
      </trkpt>
      <trkpt lat="44.06341" lon="1.6944">
        <ele>115</ele>
        <time>2023-12-13T16:38:15Z</time>
      </trkpt>
      <trkpt lat="44.0635" lon="1.69469">
        <ele>115</ele>
        <time>2023-12-13T16:38:19Z</time>
      </trkpt>
      <trkpt lat="44.06392" lon="1.69633">
        <ele>116</ele>
        <time>2023-12-13T16:38:41Z</time>
      </trkpt>
      <trkpt lat="44.06418" lon="1.69699">
        <ele>120</ele>
        <time>2023-12-13T16:38:51Z</time>
      </trkpt>
      <trkpt lat="44.06431" lon="1.69727">
        <ele>122</ele>
        <time>2023-12-13T16:38:55Z</time>
      </trkpt>
      <trkpt lat="44.06456" lon="1.69768">
        <ele>124</ele>
        <time>2023-12-13T16:39:02Z</time>
      </trkpt>
      <trkpt lat="44.06483" lon="1.69806">
        <ele>125</ele>
        <time>2023-12-13T16:39:09Z</time>
      </trkpt>
      <trkpt lat="44.06563" lon="1.69909">
        <ele>121</ele>
        <time>2023-12-13T16:39:28Z</time>
      </trkpt>
      <trkpt lat="44.06591" lon="1.6994">
        <ele>116</ele>
        <time>2023-12-13T16:39:35Z</time>
      </trkpt>
      <trkpt lat="44.06619" lon="1.69965">
        <ele>117</ele>
        <time>2023-12-13T16:39:41Z</time>
      </trkpt>
      <trkpt lat="44.06639" lon="1.69978">
        <ele>116</ele>
        <time>2023-12-13T16:39:45Z</time>
      </trkpt>
      <trkpt lat="44.06673" lon="1.69998">
        <ele>115</ele>
        <time>2023-12-13T16:39:51Z</time>
      </trkpt>
      <trkpt lat="44.06697" lon="1.70009">
        <ele>117</ele>
        <time>2023-12-13T16:39:56Z</time>
      </trkpt>
      <trkpt lat="44.06749" lon="1.70025">
        <ele>118</ele>
        <time>2023-12-13T16:40:05Z</time>
      </trkpt>
      <trkpt lat="44.06783" lon="1.70028">
        <ele>118</ele>
        <time>2023-12-13T16:40:11Z</time>
      </trkpt>
      <trkpt lat="44.06839" lon="1.70025">
        <ele>116</ele>
        <time>2023-12-13T16:40:21Z</time>
      </trkpt>
      <trkpt lat="44.06882" lon="1.70015">
        <ele>115</ele>
        <time>2023-12-13T16:40:29Z</time>
      </trkpt>
      <trkpt lat="44.06992" lon="1.69979">
        <ele>114</ele>
        <time>2023-12-13T16:40:49Z</time>
      </trkpt>
      <trkpt lat="44.07015" lon="1.69974">
        <ele>114</ele>
        <time>2023-12-13T16:40:53Z</time>
      </trkpt>
      <trkpt lat="44.07069" lon="1.69979">
        <ele>115</ele>
        <time>2023-12-13T16:41:03Z</time>
      </trkpt>
      <trkpt lat="44.07096" lon="1.69986">
        <ele>116</ele>
        <time>2023-12-13T16:41:08Z</time>
      </trkpt>
      <trkpt lat="44.0713" lon="1.70002">
        <ele>116</ele>
        <time>2023-12-13T16:41:14Z</time>
      </trkpt>
      <trkpt lat="44.07151" lon="1.70015">
        <ele>118</ele>
        <time>2023-12-13T16:41:18Z</time>
      </trkpt>
      <trkpt lat="44.0719" lon="1.70048">
        <ele>121</ele>
        <time>2023-12-13T16:41:26Z</time>
      </trkpt>
      <trkpt lat="44.07208" lon="1.70068">
        <ele>122</ele>
        <time>2023-12-13T16:41:30Z</time>
      </trkpt>
      <trkpt lat="44.07235" lon="1.70107">
        <ele>122</ele>
        <time>2023-12-13T16:41:37Z</time>
      </trkpt>
      <trkpt lat="44.07253" lon="1.70138">
        <ele>123</ele>
        <time>2023-12-13T16:41:42Z</time>
      </trkpt>
      <trkpt lat="44.07275" lon="1.70195">
        <ele>126</ele>
        <time>2023-12-13T16:41:51Z</time>
      </trkpt>
      <trkpt lat="44.07291" lon="1.70253">
        <ele>127</ele>
        <time>2023-12-13T16:41:59Z</time>
      </trkpt>
      <trkpt lat="44.07302" lon="1.70311">
        <ele>127</ele>
        <time>2023-12-13T16:42:06Z</time>
      </trkpt>
      <trkpt lat="44.07308" lon="1.70385">
        <ele>126</ele>
        <time>2023-12-13T16:42:16Z</time>
      </trkpt>
      <trkpt lat="44.07309" lon="1.70451">
        <ele>126</ele>
        <time>2023-12-13T16:42:24Z</time>
      </trkpt>
      <trkpt lat="44.07307" lon="1.705">
        <ele>127</ele>
        <time>2023-12-13T16:42:30Z</time>
      </trkpt>
      <trkpt lat="44.07298" lon="1.70581">
        <ele>129</ele>
        <time>2023-12-13T16:42:41Z</time>
      </trkpt>
      <trkpt lat="44.07282" lon="1.70663">
        <ele>129</ele>
        <time>2023-12-13T16:42:52Z</time>
      </trkpt>
      <trkpt lat="44.07271" lon="1.70705">
        <ele>130</ele>
        <time>2023-12-13T16:42:58Z</time>
      </trkpt>
      <trkpt lat="44.07248" lon="1.7077">
        <ele>129</ele>
        <time>2023-12-13T16:43:07Z</time>
      </trkpt>
      <trkpt lat="44.07208" lon="1.70861">
        <ele>132</ele>
        <time>2023-12-13T16:43:20Z</time>
      </trkpt>
      <trkpt lat="44.07081" lon="1.71127">
        <ele>118</ele>
        <time>2023-12-13T16:44:01Z</time>
      </trkpt>
      <trkpt lat="44.07065" lon="1.71174">
        <ele>120</ele>
        <time>2023-12-13T16:44:08Z</time>
      </trkpt>
      <trkpt lat="44.07051" lon="1.7122">
        <ele>121</ele>
        <time>2023-12-13T16:44:14Z</time>
      </trkpt>
      <trkpt lat="44.07043" lon="1.71265">
        <ele>121</ele>
        <time>2023-12-13T16:44:20Z</time>
      </trkpt>
      <trkpt lat="44.0704" lon="1.71307">
        <ele>121</ele>
        <time>2023-12-13T16:44:26Z</time>
      </trkpt>
      <trkpt lat="44.07038" lon="1.71345">
        <ele>122</ele>
        <time>2023-12-13T16:44:30Z</time>
      </trkpt>
      <trkpt lat="44.07042" lon="1.71397">
        <ele>121</ele>
        <time>2023-12-13T16:44:37Z</time>
      </trkpt>
      <trkpt lat="44.07051" lon="1.71448">
        <ele>120</ele>
        <time>2023-12-13T16:44:44Z</time>
      </trkpt>
      <trkpt lat="44.07063" lon="1.71489">
        <ele>120</ele>
        <time>2023-12-13T16:44:50Z</time>
      </trkpt>
      <trkpt lat="44.07085" lon="1.71546">
        <ele>118</ele>
        <time>2023-12-13T16:44:58Z</time>
      </trkpt>
      <trkpt lat="44.07098" lon="1.71571">
        <ele>117</ele>
        <time>2023-12-13T16:45:02Z</time>
      </trkpt>
      <trkpt lat="44.07113" lon="1.71597">
        <ele>117</ele>
        <time>2023-12-13T16:45:06Z</time>
      </trkpt>
      <trkpt lat="44.07145" lon="1.7164">
        <ele>118</ele>
        <time>2023-12-13T16:45:14Z</time>
      </trkpt>
      <trkpt lat="44.07157" lon="1.71654">
        <ele>118</ele>
        <time>2023-12-13T16:45:17Z</time>
      </trkpt>
      <trkpt lat="44.07211" lon="1.71695">
        <ele>117</ele>
        <time>2023-12-13T16:45:28Z</time>
      </trkpt>
      <trkpt lat="44.07239" lon="1.71712">
        <ele>116</ele>
        <time>2023-12-13T16:45:33Z</time>
      </trkpt>
      <trkpt lat="44.07301" lon="1.7174">
        <ele>115</ele>
        <time>2023-12-13T16:45:45Z</time>
      </trkpt>
      <trkpt lat="44.07334" lon="1.71752">
        <ele>113</ele>
        <time>2023-12-13T16:45:51Z</time>
      </trkpt>
      <trkpt lat="44.0739" lon="1.7176">
        <ele>114</ele>
        <time>2023-12-13T16:46:01Z</time>
      </trkpt>
      <trkpt lat="44.07563" lon="1.71773">
        <ele>114</ele>
        <time>2023-12-13T16:46:32Z</time>
      </trkpt>
      <trkpt lat="44.0762" lon="1.71781">
        <ele>115</ele>
        <time>2023-12-13T16:46:42Z</time>
      </trkpt>
      <trkpt lat="44.07655" lon="1.71794">
        <ele>117</ele>
        <time>2023-12-13T16:46:48Z</time>
      </trkpt>
      <trkpt lat="44.07686" lon="1.7181">
        <ele>117</ele>
        <time>2023-12-13T16:46:54Z</time>
      </trkpt>
      <trkpt lat="44.07726" lon="1.71837">
        <ele>116</ele>
        <time>2023-12-13T16:47:02Z</time>
      </trkpt>
      <trkpt lat="44.07756" lon="1.71863">
        <ele>118</ele>
        <time>2023-12-13T16:47:08Z</time>
      </trkpt>
      <trkpt lat="44.07798" lon="1.71908">
        <ele>121</ele>
        <time>2023-12-13T16:47:18Z</time>
      </trkpt>
      <trkpt lat="44.0782" lon="1.71938">
        <ele>122</ele>
        <time>2023-12-13T16:47:23Z</time>
      </trkpt>
      <trkpt lat="44.07875" lon="1.72036">
        <ele>124</ele>
        <time>2023-12-13T16:47:39Z</time>
      </trkpt>
      <trkpt lat="44.07908" lon="1.72099">
        <ele>123</ele>
        <time>2023-12-13T16:47:49Z</time>
      </trkpt>
      <trkpt lat="44.07928" lon="1.72153">
        <ele>125</ele>
        <time>2023-12-13T16:47:57Z</time>
      </trkpt>
      <trkpt lat="44.07941" lon="1.72196">
        <ele>125</ele>
        <time>2023-12-13T16:48:03Z</time>
      </trkpt>
      <trkpt lat="44.07949" lon="1.72236">
        <ele>124</ele>
        <time>2023-12-13T16:48:08Z</time>
      </trkpt>
      <trkpt lat="44.07954" lon="1.72271">
        <ele>124</ele>
        <time>2023-12-13T16:48:13Z</time>
      </trkpt>
      <trkpt lat="44.07975" lon="1.72459">
        <ele>120</ele>
        <time>2023-12-13T16:48:37Z</time>
      </trkpt>
      <trkpt lat="44.07978" lon="1.72497">
        <ele>120</ele>
        <time>2023-12-13T16:48:42Z</time>
      </trkpt>
      <trkpt lat="44.07979" lon="1.72525">
        <ele>121</ele>
        <time>2023-12-13T16:48:45Z</time>
      </trkpt>
      <trkpt lat="44.07975" lon="1.72595">
        <ele>124</ele>
        <time>2023-12-13T16:48:54Z</time>
      </trkpt>
      <trkpt lat="44.07971" lon="1.72635">
        <ele>126</ele>
        <time>2023-12-13T16:49:00Z</time>
      </trkpt>
      <trkpt lat="44.07964" lon="1.72669">
        <ele>129</ele>
        <time>2023-12-13T16:49:04Z</time>
      </trkpt>
      <trkpt lat="44.07948" lon="1.72728">
        <ele>131</ele>
        <time>2023-12-13T16:49:12Z</time>
      </trkpt>
      <trkpt lat="44.07937" lon="1.7276">
        <ele>132</ele>
        <time>2023-12-13T16:49:17Z</time>
      </trkpt>
      <trkpt lat="44.07857" lon="1.72954">
        <ele>127</ele>
        <time>2023-12-13T16:49:45Z</time>
      </trkpt>
      <trkpt lat="44.07838" lon="1.73014">
        <ele>123</ele>
        <time>2023-12-13T16:49:54Z</time>
      </trkpt>
      <trkpt lat="44.07831" lon="1.73049">
        <ele>122</ele>
        <time>2023-12-13T16:49:58Z</time>
      </trkpt>
      <trkpt lat="44.07827" lon="1.73082">
        <ele>121</ele>
        <time>2023-12-13T16:50:03Z</time>
      </trkpt>
      <trkpt lat="44.07825" lon="1.73117">
        <ele>121</ele>
        <time>2023-12-13T16:50:07Z</time>
      </trkpt>
      <trkpt lat="44.07826" lon="1.73154">
        <ele>121</ele>
        <time>2023-12-13T16:50:12Z</time>
      </trkpt>
      <trkpt lat="44.07829" lon="1.73188">
        <ele>121</ele>
        <time>2023-12-13T16:50:16Z</time>
      </trkpt>
      <trkpt lat="44.07834" lon="1.73219">
        <ele>122</ele>
        <time>2023-12-13T16:50:20Z</time>
      </trkpt>
      <trkpt lat="44.07842" lon="1.73254">
        <ele>123</ele>
        <time>2023-12-13T16:50:25Z</time>
      </trkpt>
      <trkpt lat="44.07852" lon="1.73285">
        <ele>123</ele>
        <time>2023-12-13T16:50:29Z</time>
      </trkpt>
      <trkpt lat="44.07879" lon="1.73349">
        <ele>124</ele>
        <time>2023-12-13T16:50:39Z</time>
      </trkpt>
      <trkpt lat="44.0804" lon="1.73673">
        <ele>121</ele>
        <time>2023-12-13T16:51:29Z</time>
      </trkpt>
      <trkpt lat="44.08061" lon="1.73708">
        <ele>123</ele>
        <time>2023-12-13T16:51:35Z</time>
      </trkpt>
      <trkpt lat="44.0808" lon="1.73733">
        <ele>122</ele>
        <time>2023-12-13T16:51:40Z</time>
      </trkpt>
      <trkpt lat="44.08099" lon="1.73753">
        <ele>122</ele>
        <time>2023-12-13T16:51:44Z</time>
      </trkpt>
      <trkpt lat="44.08129" lon="1.73781">
        <ele>123</ele>
        <time>2023-12-13T16:51:50Z</time>
      </trkpt>
      <trkpt lat="44.08168" lon="1.73808">
        <ele>121</ele>
        <time>2023-12-13T16:51:58Z</time>
      </trkpt>
      <trkpt lat="44.08187" lon="1.73818">
        <ele>120</ele>
        <time>2023-12-13T16:52:02Z</time>
      </trkpt>
      <trkpt lat="44.08229" lon="1.73831">
        <ele>118</ele>
        <time>2023-12-13T16:52:09Z</time>
      </trkpt>
      <trkpt lat="44.08258" lon="1.73835">
        <ele>117</ele>
        <time>2023-12-13T16:52:15Z</time>
      </trkpt>
      <trkpt lat="44.08296" lon="1.73835">
        <ele>117</ele>
        <time>2023-12-13T16:52:21Z</time>
      </trkpt>
      <trkpt lat="44.08317" lon="1.73832">
        <ele>116</ele>
        <time>2023-12-13T16:52:25Z</time>
      </trkpt>
      <trkpt lat="44.08354" lon="1.7382">
        <ele>119</ele>
        <time>2023-12-13T16:52:32Z</time>
      </trkpt>
      <trkpt lat="44.08391" lon="1.73802">
        <ele>122</ele>
        <time>2023-12-13T16:52:39Z</time>
      </trkpt>
      <trkpt lat="44.08558" lon="1.73681">
        <ele>128</ele>
        <time>2023-12-13T16:53:12Z</time>
      </trkpt>
      <trkpt lat="44.08614" lon="1.73633">
        <ele>131</ele>
        <time>2023-12-13T16:53:24Z</time>
      </trkpt>
      <trkpt lat="44.08648" lon="1.73599">
        <ele>133</ele>
        <time>2023-12-13T16:53:31Z</time>
      </trkpt>
      <trkpt lat="44.08683" lon="1.73559">
        <ele>133</ele>
        <time>2023-12-13T16:53:39Z</time>
      </trkpt>
      <trkpt lat="44.08718" lon="1.73515">
        <ele>132</ele>
        <time>2023-12-13T16:53:48Z</time>
      </trkpt>
      <trkpt lat="44.08781" lon="1.73419">
        <ele>127</ele>
        <time>2023-12-13T16:54:04Z</time>
      </trkpt>
      <trkpt lat="44.08865" lon="1.73283">
        <ele>124</ele>
        <time>2023-12-13T16:54:27Z</time>
      </trkpt>
      <trkpt lat="44.089" lon="1.73215">
        <ele>125</ele>
        <time>2023-12-13T16:54:38Z</time>
      </trkpt>
      <trkpt lat="44.08912" lon="1.73186">
        <ele>123</ele>
        <time>2023-12-13T16:54:42Z</time>
      </trkpt>
      <trkpt lat="44.08936" lon="1.73119">
        <ele>122</ele>
        <time>2023-12-13T16:54:52Z</time>
      </trkpt>
      <trkpt lat="44.08973" lon="1.73013">
        <ele>121</ele>
        <time>2023-12-13T16:55:07Z</time>
      </trkpt>
      <trkpt lat="44.08994" lon="1.72943">
        <ele>118</ele>
        <time>2023-12-13T16:55:17Z</time>
      </trkpt>
      <trkpt lat="44.09098" lon="1.72569">
        <ele>114</ele>
        <time>2023-12-13T16:56:08Z</time>
      </trkpt>
      <trkpt lat="44.09111" lon="1.72532">
        <ele>115</ele>
        <time>2023-12-13T16:56:13Z</time>
      </trkpt>
      <trkpt lat="44.09138" lon="1.72475">
        <ele>115</ele>
        <time>2023-12-13T16:56:22Z</time>
      </trkpt>
      <trkpt lat="44.09152" lon="1.72453">
        <ele>115</ele>
        <time>2023-12-13T16:56:26Z</time>
      </trkpt>
      <trkpt lat="44.09169" lon="1.72431">
        <ele>115</ele>
        <time>2023-12-13T16:56:30Z</time>
      </trkpt>
      <trkpt lat="44.09191" lon="1.72407">
        <ele>115</ele>
        <time>2023-12-13T16:56:35Z</time>
      </trkpt>
      <trkpt lat="44.09216" lon="1.72386">
        <ele>114</ele>
        <time>2023-12-13T16:56:40Z</time>
      </trkpt>
      <trkpt lat="44.09237" lon="1.72371">
        <ele>114</ele>
        <time>2023-12-13T16:56:44Z</time>
      </trkpt>
      <trkpt lat="44.09268" lon="1.72355">
        <ele>114</ele>
        <time>2023-12-13T16:56:50Z</time>
      </trkpt>
      <trkpt lat="44.09298" lon="1.72345">
        <ele>114</ele>
        <time>2023-12-13T16:56:56Z</time>
      </trkpt>
      <trkpt lat="44.09351" lon="1.72338">
        <ele>115</ele>
        <time>2023-12-13T16:57:05Z</time>
      </trkpt>
      <trkpt lat="44.09393" lon="1.72343">
        <ele>117</ele>
        <time>2023-12-13T16:57:13Z</time>
      </trkpt>
      <trkpt lat="44.09434" lon="1.72358">
        <ele>119</ele>
        <time>2023-12-13T16:57:20Z</time>
      </trkpt>
      <trkpt lat="44.09449" lon="1.72366">
        <ele>119</ele>
        <time>2023-12-13T16:57:23Z</time>
      </trkpt>
      <trkpt lat="44.09494" lon="1.72399">
        <ele>123</ele>
        <time>2023-12-13T16:57:32Z</time>
      </trkpt>
      <trkpt lat="44.09527" lon="1.72433">
        <ele>126</ele>
        <time>2023-12-13T16:57:39Z</time>
      </trkpt>
      <trkpt lat="44.09541" lon="1.72452">
        <ele>129</ele>
        <time>2023-12-13T16:57:43Z</time>
      </trkpt>
      <trkpt lat="44.09626" lon="1.7259">
        <ele>152</ele>
        <time>2023-12-13T16:58:06Z</time>
      </trkpt>
      <trkpt lat="44.09647" lon="1.72622">
        <ele>167</ele>
        <time>2023-12-13T16:58:12Z</time>
      </trkpt>
      <trkpt lat="44.09685" lon="1.72672">
        <ele>197</ele>
        <time>2023-12-13T16:58:21Z</time>
      </trkpt>
      <trkpt lat="44.09725" lon="1.72715">
        <ele>221</ele>
        <time>2023-12-13T16:58:30Z</time>
      </trkpt>
      <trkpt lat="44.09749" lon="1.72732">
        <ele>236</ele>
        <time>2023-12-13T16:58:35Z</time>
      </trkpt>
      <trkpt lat="44.09774" lon="1.72746">
        <ele>241</ele>
        <time>2023-12-13T16:58:39Z</time>
      </trkpt>
      <trkpt lat="44.09801" lon="1.72756">
        <ele>236</ele>
        <time>2023-12-13T16:58:44Z</time>
      </trkpt>
      <trkpt lat="44.09829" lon="1.72763">
        <ele>228</ele>
        <time>2023-12-13T16:58:49Z</time>
      </trkpt>
      <trkpt lat="44.09855" lon="1.72766">
        <ele>214</ele>
        <time>2023-12-13T16:58:54Z</time>
      </trkpt>
      <trkpt lat="44.09881" lon="1.72764">
        <ele>196</ele>
        <time>2023-12-13T16:58:59Z</time>
      </trkpt>
      <trkpt lat="44.09905" lon="1.7276">
        <ele>176</ele>
        <time>2023-12-13T16:59:03Z</time>
      </trkpt>
      <trkpt lat="44.09932" lon="1.72752">
        <ele>160</ele>
        <time>2023-12-13T16:59:08Z</time>
      </trkpt>
      <trkpt lat="44.09969" lon="1.72734">
        <ele>152</ele>
        <time>2023-12-13T16:59:15Z</time>
      </trkpt>
      <trkpt lat="44.09985" lon="1.72723">
        <ele>147</ele>
        <time>2023-12-13T16:59:18Z</time>
      </trkpt>
      <trkpt lat="44.10021" lon="1.72692">
        <ele>138</ele>
        <time>2023-12-13T16:59:26Z</time>
      </trkpt>
      <trkpt lat="44.10039" lon="1.72672">
        <ele>133</ele>
        <time>2023-12-13T16:59:30Z</time>
      </trkpt>
      <trkpt lat="44.10225" lon="1.72422">
        <ele>141</ele>
        <time>2023-12-13T17:00:16Z</time>
      </trkpt>
      <trkpt lat="44.10295" lon="1.7233">
        <ele>138</ele>
        <time>2023-12-13T17:00:33Z</time>
      </trkpt>
      <trkpt lat="44.10338" lon="1.72268">
        <ele>129</ele>
        <time>2023-12-13T17:00:44Z</time>
      </trkpt>
      <trkpt lat="44.10353" lon="1.72241">
        <ele>127</ele>
        <time>2023-12-13T17:00:48Z</time>
      </trkpt>
      <trkpt lat="44.10367" lon="1.72215">
        <ele>127</ele>
        <time>2023-12-13T17:00:52Z</time>
      </trkpt>
      <trkpt lat="44.10379" lon="1.72186">
        <ele>126</ele>
        <time>2023-12-13T17:00:57Z</time>
      </trkpt>
      <trkpt lat="44.10389" lon="1.72154">
        <ele>124</ele>
        <time>2023-12-13T17:01:01Z</time>
      </trkpt>
      <trkpt lat="44.10398" lon="1.72117">
        <ele>122</ele>
        <time>2023-12-13T17:01:06Z</time>
      </trkpt>
      <trkpt lat="44.10416" lon="1.72033">
        <ele>117</ele>
        <time>2023-12-13T17:01:17Z</time>
      </trkpt>
      <trkpt lat="44.10425" lon="1.71998">
        <ele>117</ele>
        <time>2023-12-13T17:01:22Z</time>
      </trkpt>
      <trkpt lat="44.10435" lon="1.71967">
        <ele>117</ele>
        <time>2023-12-13T17:01:26Z</time>
      </trkpt>
      <trkpt lat="44.1046" lon="1.7191">
        <ele>119</ele>
        <time>2023-12-13T17:01:35Z</time>
      </trkpt>
      <trkpt lat="44.10477" lon="1.7188">
        <ele>119</ele>
        <time>2023-12-13T17:01:40Z</time>
      </trkpt>
      <trkpt lat="44.10495" lon="1.71853">
        <ele>119</ele>
        <time>2023-12-13T17:01:45Z</time>
      </trkpt>
      <trkpt lat="44.10527" lon="1.71818">
        <ele>120</ele>
        <time>2023-12-13T17:01:52Z</time>
      </trkpt>
      <trkpt lat="44.10554" lon="1.71796">
        <ele>120</ele>
        <time>2023-12-13T17:01:57Z</time>
      </trkpt>
      <trkpt lat="44.10585" lon="1.71778">
        <ele>120</ele>
        <time>2023-12-13T17:02:03Z</time>
      </trkpt>
      <trkpt lat="44.10613" lon="1.71766">
        <ele>120</ele>
        <time>2023-12-13T17:02:09Z</time>
      </trkpt>
      <trkpt lat="44.10642" lon="1.71759">
        <ele>119</ele>
        <time>2023-12-13T17:02:14Z</time>
      </trkpt>
      <trkpt lat="44.10688" lon="1.71758">
        <ele>119</ele>
        <time>2023-12-13T17:02:22Z</time>
      </trkpt>
      <trkpt lat="44.10709" lon="1.7176">
        <ele>118</ele>
        <time>2023-12-13T17:02:26Z</time>
      </trkpt>
      <trkpt lat="44.10746" lon="1.7177">
        <ele>117</ele>
        <time>2023-12-13T17:02:32Z</time>
      </trkpt>
      <trkpt lat="44.1077" lon="1.7178">
        <ele>117</ele>
        <time>2023-12-13T17:02:37Z</time>
      </trkpt>
      <trkpt lat="44.10807" lon="1.71803">
        <ele>116</ele>
        <time>2023-12-13T17:02:44Z</time>
      </trkpt>
      <trkpt lat="44.1083" lon="1.71821">
        <ele>116</ele>
        <time>2023-12-13T17:02:49Z</time>
      </trkpt>
      <trkpt lat="44.10846" lon="1.71837">
        <ele>116</ele>
        <time>2023-12-13T17:02:52Z</time>
      </trkpt>
      <trkpt lat="44.10873" lon="1.71872">
        <ele>117</ele>
        <time>2023-12-13T17:02:59Z</time>
      </trkpt>
      <trkpt lat="44.10902" lon="1.7192">
        <ele>117</ele>
        <time>2023-12-13T17:03:07Z</time>
      </trkpt>
      <trkpt lat="44.10924" lon="1.71975">
        <ele>117</ele>
        <time>2023-12-13T17:03:15Z</time>
      </trkpt>
      <trkpt lat="44.10938" lon="1.72025">
        <ele>118</ele>
        <time>2023-12-13T17:03:22Z</time>
      </trkpt>
      <trkpt lat="44.10948" lon="1.72095">
        <ele>117</ele>
        <time>2023-12-13T17:03:31Z</time>
      </trkpt>
      <trkpt lat="44.10956" lon="1.72199">
        <ele>119</ele>
        <time>2023-12-13T17:03:44Z</time>
      </trkpt>
      <trkpt lat="44.10964" lon="1.7226">
        <ele>121</ele>
        <time>2023-12-13T17:03:52Z</time>
      </trkpt>
      <trkpt lat="44.10976" lon="1.72317">
        <ele>124</ele>
        <time>2023-12-13T17:04:00Z</time>
      </trkpt>
      <trkpt lat="44.10988" lon="1.72354">
        <ele>125</ele>
        <time>2023-12-13T17:04:05Z</time>
      </trkpt>
      <trkpt lat="44.11008" lon="1.72401">
        <ele>128</ele>
        <time>2023-12-13T17:04:12Z</time>
      </trkpt>
      <trkpt lat="44.11022" lon="1.72428">
        <ele>130</ele>
        <time>2023-12-13T17:04:16Z</time>
      </trkpt>
      <trkpt lat="44.11159" lon="1.72639">
        <ele>140</ele>
        <time>2023-12-13T17:04:52Z</time>
      </trkpt>
      <trkpt lat="44.11177" lon="1.72663">
        <ele>140</ele>
        <time>2023-12-13T17:04:57Z</time>
      </trkpt>
      <trkpt lat="44.11206" lon="1.72691">
        <ele>140</ele>
        <time>2023-12-13T17:05:03Z</time>
      </trkpt>
      <trkpt lat="44.1124" lon="1.72717">
        <ele>133</ele>
        <time>2023-12-13T17:05:10Z</time>
      </trkpt>
      <trkpt lat="44.11271" lon="1.72734">
        <ele>130</ele>
        <time>2023-12-13T17:05:16Z</time>
      </trkpt>
      <trkpt lat="44.11297" lon="1.72744">
        <ele>128</ele>
        <time>2023-12-13T17:05:21Z</time>
      </trkpt>
      <trkpt lat="44.11326" lon="1.7275">
        <ele>124</ele>
        <time>2023-12-13T17:05:26Z</time>
      </trkpt>
      <trkpt lat="44.11368" lon="1.7275">
        <ele>125</ele>
        <time>2023-12-13T17:05:34Z</time>
      </trkpt>
      <trkpt lat="44.11406" lon="1.72743">
        <ele>126</ele>
        <time>2023-12-13T17:05:40Z</time>
      </trkpt>
      <trkpt lat="44.11447" lon="1.72725">
        <ele>125</ele>
        <time>2023-12-13T17:05:48Z</time>
      </trkpt>
      <trkpt lat="44.11468" lon="1.72712">
        <ele>125</ele>
        <time>2023-12-13T17:05:52Z</time>
      </trkpt>
      <trkpt lat="44.11501" lon="1.72686">
        <ele>124</ele>
        <time>2023-12-13T17:05:59Z</time>
      </trkpt>
      <trkpt lat="44.11526" lon="1.72659">
        <ele>123</ele>
        <time>2023-12-13T17:06:04Z</time>
      </trkpt>
      <trkpt lat="44.11751" lon="1.7238">
        <ele>123</ele>
        <time>2023-12-13T17:06:58Z</time>
      </trkpt>
      <trkpt lat="44.1179" lon="1.72338">
        <ele>126</ele>
        <time>2023-12-13T17:07:07Z</time>
      </trkpt>
      <trkpt lat="44.1181" lon="1.72319">
        <ele>127</ele>
        <time>2023-12-13T17:07:11Z</time>
      </trkpt>
      <trkpt lat="44.11853" lon="1.72287">
        <ele>129</ele>
        <time>2023-12-13T17:07:20Z</time>
      </trkpt>
      <trkpt lat="44.11885" lon="1.72268">
        <ele>128</ele>
        <time>2023-12-13T17:07:26Z</time>
      </trkpt>
      <trkpt lat="44.11929" lon="1.72249">
        <ele>126</ele>
        <time>2023-12-13T17:07:34Z</time>
      </trkpt>
      <trkpt lat="44.11967" lon="1.72237">
        <ele>129</ele>
        <time>2023-12-13T17:07:41Z</time>
      </trkpt>
      <trkpt lat="44.12142" lon="1.72191">
        <ele>125</ele>
        <time>2023-12-13T17:08:13Z</time>
      </trkpt>
      <trkpt lat="44.122" lon="1.72169">
        <ele>125</ele>
        <time>2023-12-13T17:08:24Z</time>
      </trkpt>
      <trkpt lat="44.12242" lon="1.72145">
        <ele>127</ele>
        <time>2023-12-13T17:08:32Z</time>
      </trkpt>
      <trkpt lat="44.12423" lon="1.72015">
        <ele>131</ele>
        <time>2023-12-13T17:09:08Z</time>
      </trkpt>
      <trkpt lat="44.12454" lon="1.71989">
        <ele>134</ele>
        <time>2023-12-13T17:09:14Z</time>
      </trkpt>
      <trkpt lat="44.1248" lon="1.71964">
        <ele>134</ele>
        <time>2023-12-13T17:09:20Z</time>
      </trkpt>
      <trkpt lat="44.12512" lon="1.7193">
        <ele>132</ele>
        <time>2023-12-13T17:09:27Z</time>
      </trkpt>
      <trkpt lat="44.12556" lon="1.71875">
        <ele>132</ele>
        <time>2023-12-13T17:09:38Z</time>
      </trkpt>
      <trkpt lat="44.12746" lon="1.71622">
        <ele>133</ele>
        <time>2023-12-13T17:10:24Z</time>
      </trkpt>
      <trkpt lat="44.12769" lon="1.71585">
        <ele>132</ele>
        <time>2023-12-13T17:10:31Z</time>
      </trkpt>
      <trkpt lat="44.12799" lon="1.71529">
        <ele>133</ele>
        <time>2023-12-13T17:10:39Z</time>
      </trkpt>
      <trkpt lat="44.12868" lon="1.71372">
        <ele>130</ele>
        <time>2023-12-13T17:11:03Z</time>
      </trkpt>
      <trkpt lat="44.12895" lon="1.71316">
        <ele>128</ele>
        <time>2023-12-13T17:11:12Z</time>
      </trkpt>
      <trkpt lat="44.12931" lon="1.71262">
        <ele>127</ele>
        <time>2023-12-13T17:11:21Z</time>
      </trkpt>
      <trkpt lat="44.12944" lon="1.71248">
        <ele>130</ele>
        <time>2023-12-13T17:11:24Z</time>
      </trkpt>
      <trkpt lat="44.12973" lon="1.71223">
        <ele>138</ele>
        <time>2023-12-13T17:11:30Z</time>
      </trkpt>
      <trkpt lat="44.12984" lon="1.71216">
        <ele>141</ele>
        <time>2023-12-13T17:11:32Z</time>
      </trkpt>
      <trkpt lat="44.13053" lon="1.71185">
        <ele>158</ele>
        <time>2023-12-13T17:11:45Z</time>
      </trkpt>
      <trkpt lat="44.13113" lon="1.71174">
        <ele>169</ele>
        <time>2023-12-13T17:11:56Z</time>
      </trkpt>
      <trkpt lat="44.13171" lon="1.71185">
        <ele>171</ele>
        <time>2023-12-13T17:12:06Z</time>
      </trkpt>
      <trkpt lat="44.13209" lon="1.71201">
        <ele>153</ele>
        <time>2023-12-13T17:12:13Z</time>
      </trkpt>
      <trkpt lat="44.13258" lon="1.71242">
        <ele>131</ele>
        <time>2023-12-13T17:12:23Z</time>
      </trkpt>
      <trkpt lat="44.13293" lon="1.71283">
        <ele>126</ele>
        <time>2023-12-13T17:12:32Z</time>
      </trkpt>
      <trkpt lat="44.13369" lon="1.71395">
        <ele>124</ele>
        <time>2023-12-13T17:12:51Z</time>
      </trkpt>
      <trkpt lat="44.13405" lon="1.71445">
        <ele>124</ele>
        <time>2023-12-13T17:13:00Z</time>
      </trkpt>
      <trkpt lat="44.13432" lon="1.71474">
        <ele>125</ele>
        <time>2023-12-13T17:13:06Z</time>
      </trkpt>
      <trkpt lat="44.13453" lon="1.71493">
        <ele>127</ele>
        <time>2023-12-13T17:13:11Z</time>
      </trkpt>
      <trkpt lat="44.13484" lon="1.71516">
        <ele>129</ele>
        <time>2023-12-13T17:13:17Z</time>
      </trkpt>
      <trkpt lat="44.13512" lon="1.71532">
        <ele>129</ele>
        <time>2023-12-13T17:13:23Z</time>
      </trkpt>
      <trkpt lat="44.1356" lon="1.7155">
        <ele>130</ele>
        <time>2023-12-13T17:13:31Z</time>
      </trkpt>
      <trkpt lat="44.13608" lon="1.71554">
        <ele>132</ele>
        <time>2023-12-13T17:13:40Z</time>
      </trkpt>
      <trkpt lat="44.13629" lon="1.71553">
        <ele>132</ele>
        <time>2023-12-13T17:13:44Z</time>
      </trkpt>
      <trkpt lat="44.13683" lon="1.71544">
        <ele>133</ele>
        <time>2023-12-13T17:13:53Z</time>
      </trkpt>
      <trkpt lat="44.1405" lon="1.71407">
        <ele>134</ele>
        <time>2023-12-13T17:15:01Z</time>
      </trkpt>
      <trkpt lat="44.141" lon="1.71392">
        <ele>136</ele>
        <time>2023-12-13T17:15:10Z</time>
      </trkpt>
      <trkpt lat="44.14131" lon="1.71387">
        <ele>136</ele>
        <time>2023-12-13T17:15:16Z</time>
      </trkpt>
      <trkpt lat="44.14179" lon="1.71386">
        <ele>134</ele>
        <time>2023-12-13T17:15:24Z</time>
      </trkpt>
      <trkpt lat="44.14432" lon="1.71405">
        <ele>133</ele>
        <time>2023-12-13T17:16:09Z</time>
      </trkpt>
      <trkpt lat="44.14599" lon="1.71411">
        <ele>138</ele>
        <time>2023-12-13T17:16:39Z</time>
      </trkpt>
      <trkpt lat="44.14738" lon="1.7141">
        <ele>150</ele>
        <time>2023-12-13T17:17:04Z</time>
      </trkpt>
      <trkpt lat="44.14778" lon="1.71418">
        <ele>147</ele>
        <time>2023-12-13T17:17:11Z</time>
      </trkpt>
      <trkpt lat="44.14811" lon="1.71432">
        <ele>145</ele>
        <time>2023-12-13T17:17:17Z</time>
      </trkpt>
      <trkpt lat="44.14838" lon="1.71448">
        <ele>144</ele>
        <time>2023-12-13T17:17:22Z</time>
      </trkpt>
      <trkpt lat="44.14864" lon="1.71469">
        <ele>149</ele>
        <time>2023-12-13T17:17:28Z</time>
      </trkpt>
      <trkpt lat="44.14892" lon="1.71497">
        <ele>149</ele>
        <time>2023-12-13T17:17:34Z</time>
      </trkpt>
      <trkpt lat="44.14919" lon="1.71534">
        <ele>149</ele>
        <time>2023-12-13T17:17:40Z</time>
      </trkpt>
      <trkpt lat="44.14996" lon="1.71662">
        <ele>170</ele>
        <time>2023-12-13T17:18:02Z</time>
      </trkpt>
      <trkpt lat="44.15098" lon="1.7184">
        <ele>156</ele>
        <time>2023-12-13T17:18:31Z</time>
      </trkpt>
      <trkpt lat="44.15125" lon="1.71887">
        <ele>138</ele>
        <time>2023-12-13T17:18:39Z</time>
      </trkpt>
      <trkpt lat="44.15173" lon="1.71968">
        <ele>122</ele>
        <time>2023-12-13T17:18:52Z</time>
      </trkpt>
      <trkpt lat="44.1522" lon="1.72053">
        <ele>129</ele>
        <time>2023-12-13T17:19:06Z</time>
      </trkpt>
      <trkpt lat="44.15237" lon="1.72093">
        <ele>133</ele>
        <time>2023-12-13T17:19:12Z</time>
      </trkpt>
      <trkpt lat="44.15247" lon="1.72123">
        <ele>136</ele>
        <time>2023-12-13T17:19:16Z</time>
      </trkpt>
      <trkpt lat="44.15255" lon="1.72154">
        <ele>139</ele>
        <time>2023-12-13T17:19:20Z</time>
      </trkpt>
      <trkpt lat="44.15263" lon="1.72205">
        <ele>140</ele>
        <time>2023-12-13T17:19:27Z</time>
      </trkpt>
      <trkpt lat="44.15266" lon="1.72235">
        <ele>140</ele>
        <time>2023-12-13T17:19:31Z</time>
      </trkpt>
      <trkpt lat="44.15266" lon="1.72285">
        <ele>138</ele>
        <time>2023-12-13T17:19:37Z</time>
      </trkpt>
      <trkpt lat="44.15263" lon="1.72336">
        <ele>136</ele>
        <time>2023-12-13T17:19:43Z</time>
      </trkpt>
      <trkpt lat="44.1525" lon="1.72398">
        <ele>135</ele>
        <time>2023-12-13T17:19:52Z</time>
      </trkpt>
      <trkpt lat="44.1524" lon="1.72429">
        <ele>136</ele>
        <time>2023-12-13T17:19:56Z</time>
      </trkpt>
      <trkpt lat="44.1522" lon="1.72477">
        <ele>136</ele>
        <time>2023-12-13T17:20:03Z</time>
      </trkpt>
      <trkpt lat="44.15057" lon="1.72767">
        <ele>138</ele>
        <time>2023-12-13T17:20:50Z</time>
      </trkpt>
      <trkpt lat="44.15004" lon="1.72851">
        <ele>140</ele>
        <time>2023-12-13T17:21:04Z</time>
      </trkpt>
      <trkpt lat="44.14944" lon="1.72938">
        <ele>147</ele>
        <time>2023-12-13T17:21:20Z</time>
      </trkpt>
      <trkpt lat="44.14785" lon="1.73161">
        <ele>157</ele>
        <time>2023-12-13T17:22:00Z</time>
      </trkpt>
      <trkpt lat="44.14755" lon="1.73214">
        <ele>157</ele>
        <time>2023-12-13T17:22:09Z</time>
      </trkpt>
      <trkpt lat="44.14735" lon="1.73265">
        <ele>162</ele>
        <time>2023-12-13T17:22:16Z</time>
      </trkpt>
      <trkpt lat="44.14724" lon="1.73307">
        <ele>165</ele>
        <time>2023-12-13T17:22:22Z</time>
      </trkpt>
      <trkpt lat="44.1472" lon="1.73348">
        <ele>160</ele>
        <time>2023-12-13T17:22:27Z</time>
      </trkpt>
      <trkpt lat="44.14713" lon="1.73484">
        <ele>154</ele>
        <time>2023-12-13T17:22:44Z</time>
      </trkpt>
      <trkpt lat="44.14715" lon="1.73536">
        <ele>151</ele>
        <time>2023-12-13T17:22:51Z</time>
      </trkpt>
      <trkpt lat="44.14721" lon="1.73586">
        <ele>146</ele>
        <time>2023-12-13T17:22:58Z</time>
      </trkpt>
      <trkpt lat="44.14728" lon="1.73632">
        <ele>146</ele>
        <time>2023-12-13T17:23:04Z</time>
      </trkpt>
      <trkpt lat="44.14834" lon="1.74118">
        <ele>140</ele>
        <time>2023-12-13T17:24:08Z</time>
      </trkpt>
      <trkpt lat="44.14848" lon="1.74191">
        <ele>142</ele>
        <time>2023-12-13T17:24:18Z</time>
      </trkpt>
      <trkpt lat="44.14951" lon="1.75002">
        <ele>137</ele>
        <time>2023-12-13T17:26:03Z</time>
      </trkpt>
      <trkpt lat="44.14957" lon="1.7506">
        <ele>138</ele>
        <time>2023-12-13T17:26:11Z</time>
      </trkpt>
      <trkpt lat="44.1496" lon="1.75123">
        <ele>140</ele>
        <time>2023-12-13T17:26:19Z</time>
      </trkpt>
      <trkpt lat="44.1496" lon="1.75152">
        <ele>141</ele>
        <time>2023-12-13T17:26:22Z</time>
      </trkpt>
      <trkpt lat="44.1496" lon="1.75213">
        <ele>142</ele>
        <time>2023-12-13T17:26:30Z</time>
      </trkpt>
      <trkpt lat="44.14956" lon="1.75289">
        <ele>142</ele>
        <time>2023-12-13T17:26:40Z</time>
      </trkpt>
      <trkpt lat="44.14949" lon="1.75348">
        <ele>142</ele>
        <time>2023-12-13T17:26:48Z</time>
      </trkpt>
      <trkpt lat="44.14939" lon="1.75405">
        <ele>143</ele>
        <time>2023-12-13T17:26:55Z</time>
      </trkpt>
      <trkpt lat="44.1492" lon="1.75476">
        <ele>144</ele>
        <time>2023-12-13T17:27:05Z</time>
      </trkpt>
      <trkpt lat="44.14931" lon="1.75483">
        <ele>141</ele>
        <time>2023-12-13T17:27:07Z</time>
      </trkpt>
      <trkpt lat="44.14948" lon="1.75486">
        <ele>137</ele>
        <time>2023-12-13T17:27:10Z</time>
      </trkpt>
      <trkpt lat="44.15027" lon="1.75523">
        <ele>127</ele>
        <time>2023-12-13T17:27:25Z</time>
      </trkpt>
      <trkpt lat="44.15033" lon="1.75523">
        <ele>127</ele>
        <time>2023-12-13T17:27:26Z</time>
      </trkpt>
      <trkpt lat="44.15044" lon="1.75514">
        <ele>128</ele>
        <time>2023-12-13T17:27:28Z</time>
      </trkpt>
      <trkpt lat="44.15068" lon="1.75439">
        <ele>128</ele>
        <time>2023-12-13T17:27:39Z</time>
      </trkpt>
      <trkpt lat="44.1509" lon="1.75387">
        <ele>127</ele>
        <time>2023-12-13T17:27:46Z</time>
      </trkpt>
      <trkpt lat="44.15112" lon="1.75357">
        <ele>126</ele>
        <time>2023-12-13T17:27:52Z</time>
      </trkpt>
      <trkpt lat="44.15146" lon="1.75318">
        <ele>125</ele>
        <time>2023-12-13T17:28:00Z</time>
      </trkpt>
      <trkpt lat="44.15157" lon="1.75313">
        <ele>125</ele>
        <time>2023-12-13T17:28:02Z</time>
      </trkpt>
      <trkpt lat="44.15183" lon="1.7531">
        <ele>124</ele>
        <time>2023-12-13T17:28:06Z</time>
      </trkpt>
      <trkpt lat="44.15241" lon="1.7532">
        <ele>123</ele>
        <time>2023-12-13T17:28:17Z</time>
      </trkpt>
      <trkpt lat="44.15254" lon="1.7532">
        <ele>123</ele>
        <time>2023-12-13T17:28:19Z</time>
      </trkpt>
      <trkpt lat="44.15281" lon="1.75338">
        <ele>123</ele>
        <time>2023-12-13T17:28:24Z</time>
      </trkpt>
      <trkpt lat="44.15306" lon="1.75361">
        <ele>124</ele>
        <time>2023-12-13T17:28:30Z</time>
      </trkpt>
      <trkpt lat="44.15324" lon="1.75385">
        <ele>125</ele>
        <time>2023-12-13T17:28:34Z</time>
      </trkpt>
      <trkpt lat="44.15329" lon="1.75388">
        <ele>125</ele>
        <time>2023-12-13T17:28:35Z</time>
      </trkpt>
      <trkpt lat="44.15301" lon="1.75657">
        <ele>135</ele>
        <time>2023-12-13T17:29:10Z</time>
      </trkpt>
      <trkpt lat="44.15312" lon="1.75659">
        <ele>134</ele>
        <time>2023-12-13T17:29:12Z</time>
      </trkpt>
      <trkpt lat="44.15452" lon="1.75727">
        <ele>131</ele>
        <time>2023-12-13T17:29:38Z</time>
      </trkpt>
      <trkpt lat="44.15493" lon="1.75745">
        <ele>132</ele>
        <time>2023-12-13T17:29:46Z</time>
      </trkpt>
      <trkpt lat="44.15508" lon="1.75748">
        <ele>132</ele>
        <time>2023-12-13T17:29:48Z</time>
      </trkpt>
      <trkpt lat="44.15528" lon="1.75747">
        <ele>131</ele>
        <time>2023-12-13T17:29:52Z</time>
      </trkpt>
      <trkpt lat="44.15637" lon="1.75729">
        <ele>131</ele>
        <time>2023-12-13T17:30:12Z</time>
      </trkpt>
      <trkpt lat="44.1571" lon="1.75715">
        <ele>132</ele>
        <time>2023-12-13T17:30:25Z</time>
      </trkpt>
      <trkpt lat="44.15797" lon="1.75706">
        <ele>132</ele>
        <time>2023-12-13T17:30:40Z</time>
      </trkpt>
      <trkpt lat="44.15949" lon="1.75681">
        <ele>133</ele>
        <time>2023-12-13T17:31:07Z</time>
      </trkpt>
      <trkpt lat="44.15955" lon="1.75679">
        <ele>133</ele>
        <time>2023-12-13T17:31:09Z</time>
      </trkpt>
      <trkpt lat="44.15969" lon="1.75675">
        <ele>133</ele>
        <time>2023-12-13T17:31:11Z</time>
      </trkpt>
      <trkpt lat="44.15988" lon="1.75665">
        <ele>133</ele>
        <time>2023-12-13T17:31:15Z</time>
      </trkpt>
      <trkpt lat="44.16054" lon="1.7561">
        <ele>132</ele>
        <time>2023-12-13T17:31:28Z</time>
      </trkpt>
      <trkpt lat="44.16073" lon="1.75591">
        <ele>132</ele>
        <time>2023-12-13T17:31:33Z</time>
      </trkpt>
      <trkpt lat="44.16083" lon="1.75573">
        <ele>132</ele>
        <time>2023-12-13T17:31:35Z</time>
      </trkpt>
      <trkpt lat="44.16119" lon="1.75478">
        <ele>133</ele>
        <time>2023-12-13T17:31:49Z</time>
      </trkpt>
      <trkpt lat="44.16132" lon="1.75443">
        <ele>135</ele>
        <time>2023-12-13T17:31:54Z</time>
      </trkpt>
      <trkpt lat="44.16144" lon="1.75423">
        <ele>135</ele>
        <time>2023-12-13T17:31:58Z</time>
      </trkpt>
      <trkpt lat="44.16239" lon="1.75318">
        <ele>140</ele>
        <time>2023-12-13T17:32:19Z</time>
      </trkpt>
      <trkpt lat="44.16278" lon="1.75278">
        <ele>142</ele>
        <time>2023-12-13T17:32:28Z</time>
      </trkpt>
      <trkpt lat="44.16294" lon="1.75244">
        <ele>144</ele>
        <time>2023-12-13T17:32:33Z</time>
      </trkpt>
      <trkpt lat="44.16317" lon="1.75186">
        <ele>147</ele>
        <time>2023-12-13T17:32:41Z</time>
      </trkpt>
      <trkpt lat="44.16349" lon="1.75135">
        <ele>151</ele>
        <time>2023-12-13T17:32:50Z</time>
      </trkpt>
      <trkpt lat="44.16503" lon="1.74909">
        <ele>146</ele>
        <time>2023-12-13T17:33:30Z</time>
      </trkpt>
      <trkpt lat="44.16553" lon="1.74843">
        <ele>153</ele>
        <time>2023-12-13T17:33:42Z</time>
      </trkpt>
      <trkpt lat="44.16602" lon="1.748">
        <ele>151</ele>
        <time>2023-12-13T17:33:52Z</time>
      </trkpt>
      <trkpt lat="44.1666" lon="1.74762">
        <ele>146</ele>
        <time>2023-12-13T17:34:04Z</time>
      </trkpt>
      <trkpt lat="44.16729" lon="1.74729">
        <ele>148</ele>
        <time>2023-12-13T17:34:17Z</time>
      </trkpt>
      <trkpt lat="44.168" lon="1.74709">
        <ele>145</ele>
        <time>2023-12-13T17:34:30Z</time>
      </trkpt>
      <trkpt lat="44.17043" lon="1.74706">
        <ele>137</ele>
        <time>2023-12-13T17:35:13Z</time>
      </trkpt>
      <trkpt lat="44.1708" lon="1.74714">
        <ele>138</ele>
        <time>2023-12-13T17:35:19Z</time>
      </trkpt>
      <trkpt lat="44.17188" lon="1.74752">
        <ele>142</ele>
        <time>2023-12-13T17:35:39Z</time>
      </trkpt>
      <trkpt lat="44.17276" lon="1.74788">
        <ele>147</ele>
        <time>2023-12-13T17:35:56Z</time>
      </trkpt>
      <trkpt lat="44.1737" lon="1.74831">
        <ele>147</ele>
        <time>2023-12-13T17:36:13Z</time>
      </trkpt>
      <trkpt lat="44.17402" lon="1.74841">
        <ele>148</ele>
        <time>2023-12-13T17:36:19Z</time>
      </trkpt>
      <trkpt lat="44.1753" lon="1.74853">
        <ele>150</ele>
        <time>2023-12-13T17:36:42Z</time>
      </trkpt>
      <trkpt lat="44.17552" lon="1.74861">
        <ele>151</ele>
        <time>2023-12-13T17:36:46Z</time>
      </trkpt>
      <trkpt lat="44.17573" lon="1.74873">
        <ele>151</ele>
        <time>2023-12-13T17:36:50Z</time>
      </trkpt>
      <trkpt lat="44.17588" lon="1.74888">
        <ele>149</ele>
        <time>2023-12-13T17:36:53Z</time>
      </trkpt>
      <trkpt lat="44.1762" lon="1.74928">
        <ele>146</ele>
        <time>2023-12-13T17:37:01Z</time>
      </trkpt>
      <trkpt lat="44.17633" lon="1.74942">
        <ele>147</ele>
        <time>2023-12-13T17:37:04Z</time>
      </trkpt>
      <trkpt lat="44.17791" lon="1.75054">
        <ele>151</ele>
        <time>2023-12-13T17:37:35Z</time>
      </trkpt>
      <trkpt lat="44.17816" lon="1.75071">
        <ele>150</ele>
        <time>2023-12-13T17:37:40Z</time>
      </trkpt>
      <trkpt lat="44.17848" lon="1.75093">
        <ele>149</ele>
        <time>2023-12-13T17:37:47Z</time>
      </trkpt>
      <trkpt lat="44.17862" lon="1.75097">
        <ele>150</ele>
        <time>2023-12-13T17:37:49Z</time>
      </trkpt>
      <trkpt lat="44.17876" lon="1.75098">
        <ele>150</ele>
        <time>2023-12-13T17:37:52Z</time>
      </trkpt>
      <trkpt lat="44.17903" lon="1.75091">
        <ele>152</ele>
        <time>2023-12-13T17:37:57Z</time>
      </trkpt>
      <trkpt lat="44.17921" lon="1.7509">
        <ele>154</ele>
        <time>2023-12-13T17:38:00Z</time>
      </trkpt>
      <trkpt lat="44.17954" lon="1.75093">
        <ele>160</ele>
        <time>2023-12-13T17:38:06Z</time>
      </trkpt>
      <trkpt lat="44.17984" lon="1.75106">
        <ele>163</ele>
        <time>2023-12-13T17:38:11Z</time>
      </trkpt>
      <trkpt lat="44.18058" lon="1.75151">
        <ele>168</ele>
        <time>2023-12-13T17:38:26Z</time>
      </trkpt>
      <trkpt lat="44.18215" lon="1.75241">
        <ele>173</ele>
        <time>2023-12-13T17:38:56Z</time>
      </trkpt>
      <trkpt lat="44.18307" lon="1.75287">
        <ele>178</ele>
        <time>2023-12-13T17:39:13Z</time>
      </trkpt>
      <trkpt lat="44.1834" lon="1.75307">
        <ele>176</ele>
        <time>2023-12-13T17:39:20Z</time>
      </trkpt>
      <trkpt lat="44.18437" lon="1.75388">
        <ele>174</ele>
        <time>2023-12-13T17:39:40Z</time>
      </trkpt>
      <trkpt lat="44.18454" lon="1.75407">
        <ele>172</ele>
        <time>2023-12-13T17:39:44Z</time>
      </trkpt>
      <trkpt lat="44.18499" lon="1.75483">
        <ele>166</ele>
        <time>2023-12-13T17:39:56Z</time>
      </trkpt>
      <trkpt lat="44.18535" lon="1.75542">
        <ele>165</ele>
        <time>2023-12-13T17:40:06Z</time>
      </trkpt>
      <trkpt lat="44.18556" lon="1.75564">
        <ele>165</ele>
        <time>2023-12-13T17:40:11Z</time>
      </trkpt>
      <trkpt lat="44.18588" lon="1.75582">
        <ele>166</ele>
        <time>2023-12-13T17:40:17Z</time>
      </trkpt>
      <trkpt lat="44.18607" lon="1.75587">
        <ele>167</ele>
        <time>2023-12-13T17:40:20Z</time>
      </trkpt>
      <trkpt lat="44.18629" lon="1.75586">
        <ele>168</ele>
        <time>2023-12-13T17:40:24Z</time>
      </trkpt>
      <trkpt lat="44.18648" lon="1.7558">
        <ele>170</ele>
        <time>2023-12-13T17:40:28Z</time>
      </trkpt>
      <trkpt lat="44.18719" lon="1.75544">
        <ele>177</ele>
        <time>2023-12-13T17:40:41Z</time>
      </trkpt>
      <trkpt lat="44.18752" lon="1.75534">
        <ele>179</ele>
        <time>2023-12-13T17:40:47Z</time>
      </trkpt>
      <trkpt lat="44.18777" lon="1.75536">
        <ele>180</ele>
        <time>2023-12-13T17:40:52Z</time>
      </trkpt>
      <trkpt lat="44.18807" lon="1.7555">
        <ele>178</ele>
        <time>2023-12-13T17:40:57Z</time>
      </trkpt>
      <trkpt lat="44.18831" lon="1.75566">
        <ele>176</ele>
        <time>2023-12-13T17:41:02Z</time>
      </trkpt>
      <trkpt lat="44.18848" lon="1.75586">
        <ele>174</ele>
        <time>2023-12-13T17:41:06Z</time>
      </trkpt>
      <trkpt lat="44.18863" lon="1.75609">
        <ele>173</ele>
        <time>2023-12-13T17:41:10Z</time>
      </trkpt>
      <trkpt lat="44.18892" lon="1.75679">
        <ele>168</ele>
        <time>2023-12-13T17:41:20Z</time>
      </trkpt>
      <trkpt lat="44.18911" lon="1.75702">
        <ele>168</ele>
        <time>2023-12-13T17:41:25Z</time>
      </trkpt>
      <trkpt lat="44.1893" lon="1.75718">
        <ele>168</ele>
        <time>2023-12-13T17:41:29Z</time>
      </trkpt>
      <trkpt lat="44.19033" lon="1.75791">
        <ele>170</ele>
        <time>2023-12-13T17:41:49Z</time>
      </trkpt>
      <trkpt lat="44.19086" lon="1.75824">
        <ele>171</ele>
        <time>2023-12-13T17:42:00Z</time>
      </trkpt>
      <trkpt lat="44.19119" lon="1.75853">
        <ele>171</ele>
        <time>2023-12-13T17:42:06Z</time>
      </trkpt>
      <trkpt lat="44.1917" lon="1.7592">
        <ele>168</ele>
        <time>2023-12-13T17:42:19Z</time>
      </trkpt>
      <trkpt lat="44.19204" lon="1.75958">
        <ele>169</ele>
        <time>2023-12-13T17:42:27Z</time>
      </trkpt>
      <trkpt lat="44.19333" lon="1.7608">
        <ele>169</ele>
        <time>2023-12-13T17:42:54Z</time>
      </trkpt>
      <trkpt lat="44.19396" lon="1.76143">
        <ele>173</ele>
        <time>2023-12-13T17:43:08Z</time>
      </trkpt>
      <trkpt lat="44.19407" lon="1.76159">
        <ele>172</ele>
        <time>2023-12-13T17:43:11Z</time>
      </trkpt>
      <trkpt lat="44.19459" lon="1.76221">
        <ele>172</ele>
        <time>2023-12-13T17:43:23Z</time>
      </trkpt>
      <trkpt lat="44.1949" lon="1.76249">
        <ele>171</ele>
        <time>2023-12-13T17:43:30Z</time>
      </trkpt>
      <trkpt lat="44.19571" lon="1.76294">
        <ele>169</ele>
        <time>2023-12-13T17:43:45Z</time>
      </trkpt>
      <trkpt lat="44.19616" lon="1.76303">
        <ele>171</ele>
        <time>2023-12-13T17:43:53Z</time>
      </trkpt>
      <trkpt lat="44.19648" lon="1.76317">
        <ele>171</ele>
        <time>2023-12-13T17:43:59Z</time>
      </trkpt>
      <trkpt lat="44.19714" lon="1.76371">
        <ele>170</ele>
        <time>2023-12-13T17:44:13Z</time>
      </trkpt>
      <trkpt lat="44.19807" lon="1.76417">
        <ele>171</ele>
        <time>2023-12-13T17:44:31Z</time>
      </trkpt>
      <trkpt lat="44.19836" lon="1.76441">
        <ele>170</ele>
        <time>2023-12-13T17:44:37Z</time>
      </trkpt>
      <trkpt lat="44.19883" lon="1.76487">
        <ele>168</ele>
        <time>2023-12-13T17:44:47Z</time>
      </trkpt>
      <trkpt lat="44.19942" lon="1.76569">
        <ele>165</ele>
        <time>2023-12-13T17:45:02Z</time>
      </trkpt>
      <trkpt lat="44.20036" lon="1.76681">
        <ele>167</ele>
        <time>2023-12-13T17:45:24Z</time>
      </trkpt>
      <trkpt lat="44.2007" lon="1.76712">
        <ele>167</ele>
        <time>2023-12-13T17:45:31Z</time>
      </trkpt>
      <trkpt lat="44.20113" lon="1.76743">
        <ele>166</ele>
        <time>2023-12-13T17:45:39Z</time>
      </trkpt>
      <trkpt lat="44.20169" lon="1.76772">
        <ele>167</ele>
        <time>2023-12-13T17:45:50Z</time>
      </trkpt>
      <trkpt lat="44.20214" lon="1.76784">
        <ele>170</ele>
        <time>2023-12-13T17:45:58Z</time>
      </trkpt>
      <trkpt lat="44.20239" lon="1.76795">
        <ele>171</ele>
        <time>2023-12-13T17:46:03Z</time>
      </trkpt>
      <trkpt lat="44.2025" lon="1.76807">
        <ele>171</ele>
        <time>2023-12-13T17:46:05Z</time>
      </trkpt>
      <trkpt lat="44.20262" lon="1.76826">
        <ele>173</ele>
        <time>2023-12-13T17:46:09Z</time>
      </trkpt>
      <trkpt lat="44.20274" lon="1.76867">
        <ele>173</ele>
        <time>2023-12-13T17:46:14Z</time>
      </trkpt>
      <trkpt lat="44.20286" lon="1.76936">
        <ele>172</ele>
        <time>2023-12-13T17:46:23Z</time>
      </trkpt>
      <trkpt lat="44.20301" lon="1.77043">
        <ele>172</ele>
        <time>2023-12-13T17:46:37Z</time>
      </trkpt>
      <trkpt lat="44.20309" lon="1.77069">
        <ele>172</ele>
        <time>2023-12-13T17:46:41Z</time>
      </trkpt>
      <trkpt lat="44.20366" lon="1.77197">
        <ele>175</ele>
        <time>2023-12-13T17:47:00Z</time>
      </trkpt>
      <trkpt lat="44.20372" lon="1.77216">
        <ele>175</ele>
        <time>2023-12-13T17:47:03Z</time>
      </trkpt>
      <trkpt lat="44.20374" lon="1.77235">
        <ele>174</ele>
        <time>2023-12-13T17:47:05Z</time>
      </trkpt>
      <trkpt lat="44.20375" lon="1.7729">
        <ele>173</ele>
        <time>2023-12-13T17:47:12Z</time>
      </trkpt>
      <trkpt lat="44.20377" lon="1.77315">
        <ele>173</ele>
        <time>2023-12-13T17:47:15Z</time>
      </trkpt>
      <trkpt lat="44.20402" lon="1.77449">
        <ele>173</ele>
        <time>2023-12-13T17:47:33Z</time>
      </trkpt>
      <trkpt lat="44.20409" lon="1.77471">
        <ele>172</ele>
        <time>2023-12-13T17:47:36Z</time>
      </trkpt>
      <trkpt lat="44.20421" lon="1.77493">
        <ele>172</ele>
        <time>2023-12-13T17:47:40Z</time>
      </trkpt>
      <trkpt lat="44.20442" lon="1.7752">
        <ele>174</ele>
        <time>2023-12-13T17:47:45Z</time>
      </trkpt>
      <trkpt lat="44.20504" lon="1.77589">
        <ele>173</ele>
        <time>2023-12-13T17:47:59Z</time>
      </trkpt>
      <trkpt lat="44.2053" lon="1.77612">
        <ele>176</ele>
        <time>2023-12-13T17:48:04Z</time>
      </trkpt>
      <trkpt lat="44.20542" lon="1.77626">
        <ele>176</ele>
        <time>2023-12-13T17:48:07Z</time>
      </trkpt>
      <trkpt lat="44.20559" lon="1.77648">
        <ele>175</ele>
        <time>2023-12-13T17:48:11Z</time>
      </trkpt>
      <trkpt lat="44.20628" lon="1.77766">
        <ele>177</ele>
        <time>2023-12-13T17:48:31Z</time>
      </trkpt>
      <trkpt lat="44.20652" lon="1.77793">
        <ele>177</ele>
        <time>2023-12-13T17:48:36Z</time>
      </trkpt>
      <trkpt lat="44.20737" lon="1.77861">
        <ele>178</ele>
        <time>2023-12-13T17:48:54Z</time>
      </trkpt>
      <trkpt lat="44.20847" lon="1.77963">
        <ele>178</ele>
        <time>2023-12-13T17:49:17Z</time>
      </trkpt>
      <trkpt lat="44.20863" lon="1.77974">
        <ele>178</ele>
        <time>2023-12-13T17:49:20Z</time>
      </trkpt>
      <trkpt lat="44.20902" lon="1.77994">
        <ele>179</ele>
        <time>2023-12-13T17:49:28Z</time>
      </trkpt>
      <trkpt lat="44.20992" lon="1.78038">
        <ele>182</ele>
        <time>2023-12-13T17:49:45Z</time>
      </trkpt>
      <trkpt lat="44.21104" lon="1.78086">
        <ele>180</ele>
        <time>2023-12-13T17:50:05Z</time>
      </trkpt>
      <trkpt lat="44.21152" lon="1.78096">
        <ele>181</ele>
        <time>2023-12-13T17:50:14Z</time>
      </trkpt>
      <trkpt lat="44.21213" lon="1.78095">
        <ele>183</ele>
        <time>2023-12-13T17:50:25Z</time>
      </trkpt>
      <trkpt lat="44.21255" lon="1.78102">
        <ele>183</ele>
        <time>2023-12-13T17:50:32Z</time>
      </trkpt>
      <trkpt lat="44.21297" lon="1.78112">
        <ele>183</ele>
        <time>2023-12-13T17:50:40Z</time>
      </trkpt>
      <trkpt lat="44.21353" lon="1.78121">
        <ele>183</ele>
        <time>2023-12-13T17:50:50Z</time>
      </trkpt>
      <trkpt lat="44.21405" lon="1.78123">
        <ele>184</ele>
        <time>2023-12-13T17:50:59Z</time>
      </trkpt>
      <trkpt lat="44.21478" lon="1.78117">
        <ele>184</ele>
        <time>2023-12-13T17:51:12Z</time>
      </trkpt>
      <trkpt lat="44.21552" lon="1.78098">
        <ele>183</ele>
        <time>2023-12-13T17:51:26Z</time>
      </trkpt>
      <trkpt lat="44.21579" lon="1.78087">
        <ele>182</ele>
        <time>2023-12-13T17:51:31Z</time>
      </trkpt>
      <trkpt lat="44.21662" lon="1.78036">
        <ele>185</ele>
        <time>2023-12-13T17:51:47Z</time>
      </trkpt>
      <trkpt lat="44.2169" lon="1.78007">
        <ele>185</ele>
        <time>2023-12-13T17:51:53Z</time>
      </trkpt>
      <trkpt lat="44.21704" lon="1.77987">
        <ele>186</ele>
        <time>2023-12-13T17:51:57Z</time>
      </trkpt>
      <trkpt lat="44.21727" lon="1.77958">
        <ele>186</ele>
        <time>2023-12-13T17:52:02Z</time>
      </trkpt>
      <trkpt lat="44.21742" lon="1.77945">
        <ele>186</ele>
        <time>2023-12-13T17:52:05Z</time>
      </trkpt>
      <trkpt lat="44.21893" lon="1.77847">
        <ele>183</ele>
        <time>2023-12-13T17:52:35Z</time>
      </trkpt>
      <trkpt lat="44.21935" lon="1.77813">
        <ele>184</ele>
        <time>2023-12-13T17:52:44Z</time>
      </trkpt>
      <trkpt lat="44.22031" lon="1.77693">
        <ele>191</ele>
        <time>2023-12-13T17:53:06Z</time>
      </trkpt>
      <trkpt lat="44.2205" lon="1.77672">
        <ele>191</ele>
        <time>2023-12-13T17:53:11Z</time>
      </trkpt>
      <trkpt lat="44.22075" lon="1.77655">
        <ele>190</ele>
        <time>2023-12-13T17:53:16Z</time>
      </trkpt>
      <trkpt lat="44.2209" lon="1.77655">
        <ele>189</ele>
        <time>2023-12-13T17:53:18Z</time>
      </trkpt>
      <trkpt lat="44.22339" lon="1.77698">
        <ele>185</ele>
        <time>2023-12-13T17:54:03Z</time>
      </trkpt>
      <trkpt lat="44.22467" lon="1.777">
        <ele>188</ele>
        <time>2023-12-13T17:54:26Z</time>
      </trkpt>
      <trkpt lat="44.2256" lon="1.77689">
        <ele>192</ele>
        <time>2023-12-13T17:54:42Z</time>
      </trkpt>
      <trkpt lat="44.22594" lon="1.77692">
        <ele>193</ele>
        <time>2023-12-13T17:54:48Z</time>
      </trkpt>
      <trkpt lat="44.22613" lon="1.777">
        <ele>194</ele>
        <time>2023-12-13T17:54:52Z</time>
      </trkpt>
      <trkpt lat="44.22636" lon="1.77719">
        <ele>195</ele>
        <time>2023-12-13T17:54:57Z</time>
      </trkpt>
      <trkpt lat="44.22723" lon="1.77825">
        <ele>193</ele>
        <time>2023-12-13T17:55:17Z</time>
      </trkpt>
      <trkpt lat="44.22767" lon="1.77868">
        <ele>193</ele>
        <time>2023-12-13T17:55:27Z</time>
      </trkpt>
      <trkpt lat="44.22789" lon="1.77879">
        <ele>194</ele>
        <time>2023-12-13T17:55:31Z</time>
      </trkpt>
      <trkpt lat="44.22813" lon="1.77884">
        <ele>195</ele>
        <time>2023-12-13T17:55:35Z</time>
      </trkpt>
      <trkpt lat="44.23025" lon="1.77895">
        <ele>199</ele>
        <time>2023-12-13T17:56:13Z</time>
      </trkpt>
      <trkpt lat="44.23072" lon="1.77887">
        <ele>199</ele>
        <time>2023-12-13T17:56:22Z</time>
      </trkpt>
      <trkpt lat="44.23107" lon="1.7787">
        <ele>200</ele>
        <time>2023-12-13T17:56:28Z</time>
      </trkpt>
      <trkpt lat="44.23207" lon="1.7779">
        <ele>200</ele>
        <time>2023-12-13T17:56:49Z</time>
      </trkpt>
      <trkpt lat="44.23235" lon="1.7777">
        <ele>199</ele>
        <time>2023-12-13T17:56:54Z</time>
      </trkpt>
      <trkpt lat="44.23255" lon="1.77747">
        <ele>198</ele>
        <time>2023-12-13T17:56:59Z</time>
      </trkpt>
      <trkpt lat="44.23267" lon="1.7772">
        <ele>199</ele>
        <time>2023-12-13T17:57:03Z</time>
      </trkpt>
      <trkpt lat="44.2328" lon="1.77677">
        <ele>201</ele>
        <time>2023-12-13T17:57:09Z</time>
      </trkpt>
      <trkpt lat="44.23284" lon="1.7765">
        <ele>201</ele>
        <time>2023-12-13T17:57:12Z</time>
      </trkpt>
      <trkpt lat="44.23287" lon="1.77614">
        <ele>201</ele>
        <time>2023-12-13T17:57:17Z</time>
      </trkpt>
      <trkpt lat="44.23288" lon="1.77532">
        <ele>204</ele>
        <time>2023-12-13T17:57:27Z</time>
      </trkpt>
      <trkpt lat="44.23307" lon="1.77435">
        <ele>206</ele>
        <time>2023-12-13T17:57:40Z</time>
      </trkpt>
      <trkpt lat="44.23328" lon="1.77343">
        <ele>204</ele>
        <time>2023-12-13T17:57:53Z</time>
      </trkpt>
      <trkpt lat="44.23334" lon="1.77294">
        <ele>206</ele>
        <time>2023-12-13T17:57:59Z</time>
      </trkpt>
      <trkpt lat="44.23343" lon="1.77168">
        <ele>208</ele>
        <time>2023-12-13T17:58:15Z</time>
      </trkpt>
      <trkpt lat="44.23346" lon="1.7716">
        <ele>209</ele>
        <time>2023-12-13T17:58:16Z</time>
      </trkpt>
      <trkpt lat="44.2336" lon="1.77133">
        <ele>210</ele>
        <time>2023-12-13T17:58:20Z</time>
      </trkpt>
      <trkpt lat="44.23376" lon="1.77123">
        <ele>211</ele>
        <time>2023-12-13T17:58:24Z</time>
      </trkpt>
      <trkpt lat="44.23384" lon="1.77121">
        <ele>212</ele>
        <time>2023-12-13T17:58:25Z</time>
      </trkpt>
      <trkpt lat="44.23397" lon="1.77121">
        <ele>213</ele>
        <time>2023-12-13T17:58:27Z</time>
      </trkpt>
      <trkpt lat="44.2341" lon="1.77128">
        <ele>214</ele>
        <time>2023-12-13T17:58:30Z</time>
      </trkpt>
      <trkpt lat="44.23428" lon="1.77151">
        <ele>216</ele>
        <time>2023-12-13T17:58:34Z</time>
      </trkpt>
      <trkpt lat="44.23444" lon="1.7719">
        <ele>216</ele>
        <time>2023-12-13T17:58:40Z</time>
      </trkpt>
      <trkpt lat="44.23457" lon="1.77236">
        <ele>213</ele>
        <time>2023-12-13T17:58:46Z</time>
      </trkpt>
      <trkpt lat="44.23471" lon="1.7726">
        <ele>211</ele>
        <time>2023-12-13T17:58:50Z</time>
      </trkpt>
      <trkpt lat="44.23493" lon="1.77276">
        <ele>211</ele>
        <time>2023-12-13T17:58:55Z</time>
      </trkpt>
      <trkpt lat="44.23503" lon="1.77275">
        <ele>212</ele>
        <time>2023-12-13T17:58:56Z</time>
      </trkpt>
      <trkpt lat="44.23525" lon="1.77262">
        <ele>216</ele>
        <time>2023-12-13T17:59:01Z</time>
      </trkpt>
      <trkpt lat="44.23557" lon="1.7722">
        <ele>224</ele>
        <time>2023-12-13T17:59:08Z</time>
      </trkpt>
      <trkpt lat="44.23568" lon="1.77211">
        <ele>225</ele>
        <time>2023-12-13T17:59:11Z</time>
      </trkpt>
      <trkpt lat="44.23582" lon="1.77214">
        <ele>225</ele>
        <time>2023-12-13T17:59:13Z</time>
      </trkpt>
      <trkpt lat="44.2359" lon="1.77222">
        <ele>224</ele>
        <time>2023-12-13T17:59:15Z</time>
      </trkpt>
      <trkpt lat="44.23628" lon="1.77321">
        <ele>218</ele>
        <time>2023-12-13T17:59:29Z</time>
      </trkpt>
      <trkpt lat="44.23636" lon="1.77335">
        <ele>217</ele>
        <time>2023-12-13T17:59:32Z</time>
      </trkpt>
      <trkpt lat="44.23644" lon="1.77337">
        <ele>218</ele>
        <time>2023-12-13T17:59:33Z</time>
      </trkpt>
      <trkpt lat="44.23653" lon="1.77334">
        <ele>219</ele>
        <time>2023-12-13T17:59:35Z</time>
      </trkpt>
      <trkpt lat="44.23669" lon="1.7732">
        <ele>223</ele>
        <time>2023-12-13T17:59:38Z</time>
      </trkpt>
      <trkpt lat="44.23681" lon="1.77316">
        <ele>224</ele>
        <time>2023-12-13T17:59:40Z</time>
      </trkpt>
      <trkpt lat="44.2369" lon="1.7733">
        <ele>223</ele>
        <time>2023-12-13T17:59:43Z</time>
      </trkpt>
      <trkpt lat="44.23694" lon="1.77328">
        <ele>224</ele>
        <time>2023-12-13T17:59:43Z</time>
      </trkpt>
      <trkpt lat="44.23701" lon="1.77328">
        <ele>224</ele>
        <time>2023-12-13T17:59:45Z</time>
      </trkpt>
      <trkpt lat="44.23972" lon="1.77417">
        <ele>228</ele>
        <time>2023-12-13T18:00:34Z</time>
      </trkpt>
      <trkpt lat="44.24067" lon="1.7745">
        <ele>229</ele>
        <time>2023-12-13T18:00:52Z</time>
      </trkpt>
      <trkpt lat="44.24123" lon="1.77459">
        <ele>230</ele>
        <time>2023-12-13T18:01:02Z</time>
      </trkpt>
      <trkpt lat="44.24157" lon="1.7746">
        <ele>232</ele>
        <time>2023-12-13T18:01:08Z</time>
      </trkpt>
      <trkpt lat="44.24167" lon="1.77458">
        <ele>234</ele>
        <time>2023-12-13T18:01:09Z</time>
      </trkpt>
      <trkpt lat="44.24192" lon="1.77455">
        <ele>234</ele>
        <time>2023-12-13T18:01:14Z</time>
      </trkpt>
      <trkpt lat="44.24233" lon="1.7744">
        <ele>238</ele>
        <time>2023-12-13T18:01:21Z</time>
      </trkpt>
      <trkpt lat="44.24257" lon="1.77426">
        <ele>241</ele>
        <time>2023-12-13T18:01:26Z</time>
      </trkpt>
      <trkpt lat="44.24287" lon="1.77401">
        <ele>243</ele>
        <time>2023-12-13T18:01:32Z</time>
      </trkpt>
      <trkpt lat="44.24311" lon="1.77375">
        <ele>246</ele>
        <time>2023-12-13T18:01:38Z</time>
      </trkpt>
      <trkpt lat="44.2433" lon="1.77362">
        <ele>246</ele>
        <time>2023-12-13T18:01:41Z</time>
      </trkpt>
      <trkpt lat="44.2437" lon="1.77349">
        <ele>243</ele>
        <time>2023-12-13T18:01:49Z</time>
      </trkpt>
      <trkpt lat="44.24382" lon="1.77341">
        <ele>244</ele>
        <time>2023-12-13T18:01:51Z</time>
      </trkpt>
      <trkpt lat="44.24418" lon="1.77307">
        <ele>246</ele>
        <time>2023-12-13T18:01:59Z</time>
      </trkpt>
      <trkpt lat="44.24431" lon="1.77301">
        <ele>247</ele>
        <time>2023-12-13T18:02:01Z</time>
      </trkpt>
      <trkpt lat="44.24442" lon="1.77299">
        <ele>247</ele>
        <time>2023-12-13T18:02:03Z</time>
      </trkpt>
      <trkpt lat="44.24501" lon="1.773">
        <ele>244</ele>
        <time>2023-12-13T18:02:14Z</time>
      </trkpt>
      <trkpt lat="44.24529" lon="1.77296">
        <ele>245</ele>
        <time>2023-12-13T18:02:19Z</time>
      </trkpt>
      <trkpt lat="44.24621" lon="1.77264">
        <ele>253</ele>
        <time>2023-12-13T18:02:36Z</time>
      </trkpt>
      <trkpt lat="44.2466" lon="1.77256">
        <ele>254</ele>
        <time>2023-12-13T18:02:43Z</time>
      </trkpt>
      <trkpt lat="44.24672" lon="1.77256">
        <ele>253</ele>
        <time>2023-12-13T18:02:45Z</time>
      </trkpt>
      <trkpt lat="44.24688" lon="1.7726">
        <ele>252</ele>
        <time>2023-12-13T18:02:48Z</time>
      </trkpt>
      <trkpt lat="44.24791" lon="1.773">
        <ele>245</ele>
        <time>2023-12-13T18:03:07Z</time>
      </trkpt>
      <trkpt lat="44.24808" lon="1.77303">
        <ele>246</ele>
        <time>2023-12-13T18:03:10Z</time>
      </trkpt>
      <trkpt lat="44.24834" lon="1.77301">
        <ele>248</ele>
        <time>2023-12-13T18:03:14Z</time>
      </trkpt>
      <trkpt lat="44.24859" lon="1.77293">
        <ele>248</ele>
        <time>2023-12-13T18:03:19Z</time>
      </trkpt>
      <trkpt lat="44.2507" lon="1.772">
        <ele>251</ele>
        <time>2023-12-13T18:03:58Z</time>
      </trkpt>
      <trkpt lat="44.25097" lon="1.7719">
        <ele>254</ele>
        <time>2023-12-13T18:04:03Z</time>
      </trkpt>
      <trkpt lat="44.2511" lon="1.77188">
        <ele>257</ele>
        <time>2023-12-13T18:04:06Z</time>
      </trkpt>
      <trkpt lat="44.25122" lon="1.77191">
        <ele>259</ele>
        <time>2023-12-13T18:04:08Z</time>
      </trkpt>
      <trkpt lat="44.25134" lon="1.77199">
        <ele>260</ele>
        <time>2023-12-13T18:04:10Z</time>
      </trkpt>
      <trkpt lat="44.25178" lon="1.77236">
        <ele>262</ele>
        <time>2023-12-13T18:04:19Z</time>
      </trkpt>
      <trkpt lat="44.25229" lon="1.77268">
        <ele>267</ele>
        <time>2023-12-13T18:04:29Z</time>
      </trkpt>
      <trkpt lat="44.25307" lon="1.77339">
        <ele>265</ele>
        <time>2023-12-13T18:04:46Z</time>
      </trkpt>
      <trkpt lat="44.25308" lon="1.77328">
        <ele>267</ele>
        <time>2023-12-13T18:04:47Z</time>
      </trkpt>
      <trkpt lat="44.25304" lon="1.77317">
        <ele>269</ele>
        <time>2023-12-13T18:04:49Z</time>
      </trkpt>
      <trkpt lat="44.25215" lon="1.77193">
        <ele>280</ele>
        <time>2023-12-13T18:05:11Z</time>
      </trkpt>
      <trkpt lat="44.25186" lon="1.77149">
        <ele>279</ele>
        <time>2023-12-13T18:05:19Z</time>
      </trkpt>
      <trkpt lat="44.25171" lon="1.77114">
        <ele>280</ele>
        <time>2023-12-13T18:05:24Z</time>
      </trkpt>
      <trkpt lat="44.25163" lon="1.77068">
        <ele>282</ele>
        <time>2023-12-13T18:05:30Z</time>
      </trkpt>
      <trkpt lat="44.25164" lon="1.76993">
        <ele>285</ele>
        <time>2023-12-13T18:05:40Z</time>
      </trkpt>
      <trkpt lat="44.25162" lon="1.76971">
        <ele>286</ele>
        <time>2023-12-13T18:05:42Z</time>
      </trkpt>
      <trkpt lat="44.25153" lon="1.76918">
        <ele>285</ele>
        <time>2023-12-13T18:05:49Z</time>
      </trkpt>
      <trkpt lat="44.25151" lon="1.76852">
        <ele>290</ele>
        <time>2023-12-13T18:05:58Z</time>
      </trkpt>
      <trkpt lat="44.25144" lon="1.76772">
        <ele>291</ele>
        <time>2023-12-13T18:06:08Z</time>
      </trkpt>
      <trkpt lat="44.25144" lon="1.76745">
        <ele>291</ele>
        <time>2023-12-13T18:06:11Z</time>
      </trkpt>
      <trkpt lat="44.25146" lon="1.76719">
        <ele>289</ele>
        <time>2023-12-13T18:06:15Z</time>
      </trkpt>
      <trkpt lat="44.25149" lon="1.76697">
        <ele>288</ele>
        <time>2023-12-13T18:06:18Z</time>
      </trkpt>
      <trkpt lat="44.25157" lon="1.76679">
        <ele>290</ele>
        <time>2023-12-13T18:06:20Z</time>
      </trkpt>
      <trkpt lat="44.25178" lon="1.7665">
        <ele>293</ele>
        <time>2023-12-13T18:06:26Z</time>
      </trkpt>
      <trkpt lat="44.25186" lon="1.76634">
        <ele>293</ele>
        <time>2023-12-13T18:06:28Z</time>
      </trkpt>
      <trkpt lat="44.25204" lon="1.76577">
        <ele>294</ele>
        <time>2023-12-13T18:06:36Z</time>
      </trkpt>
      <trkpt lat="44.25214" lon="1.76565">
        <ele>297</ele>
        <time>2023-12-13T18:06:38Z</time>
      </trkpt>
      <trkpt lat="44.25228" lon="1.76558">
        <ele>301</ele>
        <time>2023-12-13T18:06:41Z</time>
      </trkpt>
      <trkpt lat="44.25301" lon="1.7656">
        <ele>310</ele>
        <time>2023-12-13T18:06:54Z</time>
      </trkpt>
      <trkpt lat="44.25316" lon="1.76549">
        <ele>311</ele>
        <time>2023-12-13T18:06:57Z</time>
      </trkpt>
      <trkpt lat="44.25377" lon="1.76471">
        <ele>314</ele>
        <time>2023-12-13T18:07:12Z</time>
      </trkpt>
      <trkpt lat="44.25469" lon="1.76412">
        <ele>319</ele>
        <time>2023-12-13T18:07:30Z</time>
      </trkpt>
      <trkpt lat="44.25482" lon="1.76397">
        <ele>320</ele>
        <time>2023-12-13T18:07:33Z</time>
      </trkpt>
      <trkpt lat="44.25492" lon="1.7638">
        <ele>320</ele>
        <time>2023-12-13T18:07:36Z</time>
      </trkpt>
      <trkpt lat="44.25514" lon="1.76279">
        <ele>321</ele>
        <time>2023-12-13T18:07:49Z</time>
      </trkpt>
      <trkpt lat="44.25546" lon="1.76198">
        <ele>320</ele>
        <time>2023-12-13T18:08:01Z</time>
      </trkpt>
      <trkpt lat="44.25586" lon="1.76106">
        <ele>318</ele>
        <time>2023-12-13T18:08:14Z</time>
      </trkpt>
      <trkpt lat="44.25695" lon="1.75928">
        <ele>321</ele>
        <time>2023-12-13T18:08:44Z</time>
      </trkpt>
      <trkpt lat="44.25729" lon="1.75833">
        <ele>319</ele>
        <time>2023-12-13T18:08:58Z</time>
      </trkpt>
      <trkpt lat="44.25793" lon="1.75644">
        <ele>323</ele>
        <time>2023-12-13T18:09:25Z</time>
      </trkpt>
      <trkpt lat="44.25807" lon="1.75624">
        <ele>323</ele>
        <time>2023-12-13T18:09:28Z</time>
      </trkpt>
      <trkpt lat="44.2605" lon="1.75314">
        <ele>332</ele>
        <time>2023-12-13T18:10:27Z</time>
      </trkpt>
      <trkpt lat="44.26063" lon="1.75305">
        <ele>332</ele>
        <time>2023-12-13T18:10:29Z</time>
      </trkpt>
      <trkpt lat="44.26084" lon="1.75305">
        <ele>334</ele>
        <time>2023-12-13T18:10:33Z</time>
      </trkpt>
      <trkpt lat="44.26137" lon="1.75327">
        <ele>335</ele>
        <time>2023-12-13T18:10:43Z</time>
      </trkpt>
      <trkpt lat="44.26183" lon="1.75333">
        <ele>336</ele>
        <time>2023-12-13T18:10:51Z</time>
      </trkpt>
      <trkpt lat="44.26264" lon="1.75307">
        <ele>338</ele>
        <time>2023-12-13T18:11:06Z</time>
      </trkpt>
      <trkpt lat="44.26271" lon="1.7531">
        <ele>338</ele>
        <time>2023-12-13T18:11:07Z</time>
      </trkpt>
      <trkpt lat="44.26299" lon="1.75301">
        <ele>339</ele>
        <time>2023-12-13T18:11:12Z</time>
      </trkpt>
      <trkpt lat="44.2632" lon="1.75284">
        <ele>340</ele>
        <time>2023-12-13T18:11:17Z</time>
      </trkpt>
      <trkpt lat="44.26458" lon="1.75146">
        <ele>342</ele>
        <time>2023-12-13T18:11:47Z</time>
      </trkpt>
      <trkpt lat="44.26616" lon="1.7492">
        <ele>340</ele>
        <time>2023-12-13T18:12:27Z</time>
      </trkpt>
      <trkpt lat="44.26709" lon="1.74807">
        <ele>339</ele>
        <time>2023-12-13T18:12:49Z</time>
      </trkpt>
      <trkpt lat="44.26811" lon="1.74697">
        <ele>342</ele>
        <time>2023-12-13T18:13:12Z</time>
      </trkpt>
      <trkpt lat="44.26865" lon="1.7467">
        <ele>344</ele>
        <time>2023-12-13T18:13:22Z</time>
      </trkpt>
      <trkpt lat="44.26985" lon="1.74603">
        <ele>351</ele>
        <time>2023-12-13T18:13:45Z</time>
      </trkpt>
      <trkpt lat="44.27021" lon="1.74578">
        <ele>352</ele>
        <time>2023-12-13T18:13:52Z</time>
      </trkpt>
      <trkpt lat="44.27159" lon="1.7449">
        <ele>347</ele>
        <time>2023-12-13T18:14:19Z</time>
      </trkpt>
      <trkpt lat="44.27319" lon="1.7439">
        <ele>345</ele>
        <time>2023-12-13T18:14:50Z</time>
      </trkpt>
      <trkpt lat="44.27336" lon="1.74383">
        <ele>345</ele>
        <time>2023-12-13T18:14:54Z</time>
      </trkpt>
      <trkpt lat="44.27353" lon="1.74384">
        <ele>346</ele>
        <time>2023-12-13T18:14:57Z</time>
      </trkpt>
      <trkpt lat="44.2737" lon="1.74392">
        <ele>346</ele>
        <time>2023-12-13T18:15:00Z</time>
      </trkpt>
      <trkpt lat="44.27512" lon="1.74497">
        <ele>349</ele>
        <time>2023-12-13T18:15:28Z</time>
      </trkpt>
      <trkpt lat="44.27533" lon="1.74495">
        <ele>349</ele>
        <time>2023-12-13T18:15:32Z</time>
      </trkpt>
      <trkpt lat="44.27564" lon="1.74475">
        <ele>350</ele>
        <time>2023-12-13T18:15:38Z</time>
      </trkpt>
      <trkpt lat="44.27607" lon="1.7445">
        <ele>351</ele>
        <time>2023-12-13T18:15:46Z</time>
      </trkpt>
      <trkpt lat="44.27629" lon="1.74445">
        <ele>350</ele>
        <time>2023-12-13T18:15:50Z</time>
      </trkpt>
      <trkpt lat="44.27726" lon="1.74441">
        <ele>350</ele>
        <time>2023-12-13T18:16:08Z</time>
      </trkpt>
      <trkpt lat="44.27828" lon="1.74429">
        <ele>354</ele>
        <time>2023-12-13T18:16:26Z</time>
      </trkpt>
      <trkpt lat="44.27911" lon="1.74423">
        <ele>359</ele>
        <time>2023-12-13T18:16:41Z</time>
      </trkpt>
      <trkpt lat="44.27968" lon="1.74432">
        <ele>359</ele>
        <time>2023-12-13T18:16:51Z</time>
      </trkpt>
      <trkpt lat="44.28005" lon="1.74436">
        <ele>359</ele>
        <time>2023-12-13T18:16:57Z</time>
      </trkpt>
      <trkpt lat="44.28122" lon="1.74441">
        <ele>362</ele>
        <time>2023-12-13T18:17:18Z</time>
      </trkpt>
      <trkpt lat="44.28187" lon="1.74429">
        <ele>362</ele>
        <time>2023-12-13T18:17:30Z</time>
      </trkpt>
      <trkpt lat="44.28208" lon="1.74434">
        <ele>363</ele>
        <time>2023-12-13T18:17:34Z</time>
      </trkpt>
      <trkpt lat="44.28236" lon="1.74458">
        <ele>364</ele>
        <time>2023-12-13T18:17:40Z</time>
      </trkpt>
      <trkpt lat="44.28284" lon="1.74532">
        <ele>366</ele>
        <time>2023-12-13T18:17:52Z</time>
      </trkpt>
      <trkpt lat="44.28302" lon="1.74549">
        <ele>366</ele>
        <time>2023-12-13T18:17:56Z</time>
      </trkpt>
      <trkpt lat="44.2838" lon="1.74596">
        <ele>369</ele>
        <time>2023-12-13T18:18:11Z</time>
      </trkpt>
      <trkpt lat="44.28413" lon="1.74622">
        <ele>371</ele>
        <time>2023-12-13T18:18:18Z</time>
      </trkpt>
      <trkpt lat="44.28459" lon="1.74649">
        <ele>371</ele>
        <time>2023-12-13T18:18:27Z</time>
      </trkpt>
      <trkpt lat="44.28584" lon="1.74709">
        <ele>365</ele>
        <time>2023-12-13T18:18:50Z</time>
      </trkpt>
      <trkpt lat="44.28604" lon="1.74721">
        <ele>364</ele>
        <time>2023-12-13T18:18:54Z</time>
      </trkpt>
      <trkpt lat="44.28621" lon="1.74735">
        <ele>364</ele>
        <time>2023-12-13T18:18:58Z</time>
      </trkpt>
      <trkpt lat="44.2886" lon="1.74976">
        <ele>363</ele>
        <time>2023-12-13T18:19:50Z</time>
      </trkpt>
      <trkpt lat="44.28937" lon="1.75073">
        <ele>370</ele>
        <time>2023-12-13T18:20:09Z</time>
      </trkpt>
      <trkpt lat="44.29303" lon="1.75704">
        <ele>387</ele>
        <time>2023-12-13T18:21:52Z</time>
      </trkpt>
      <trkpt lat="44.29331" lon="1.75747">
        <ele>390</ele>
        <time>2023-12-13T18:22:00Z</time>
      </trkpt>
      <trkpt lat="44.29365" lon="1.75781">
        <ele>389</ele>
        <time>2023-12-13T18:22:07Z</time>
      </trkpt>
      <trkpt lat="44.29406" lon="1.75811">
        <ele>390</ele>
        <time>2023-12-13T18:22:15Z</time>
      </trkpt>
      <trkpt lat="44.29445" lon="1.75827">
        <ele>390</ele>
        <time>2023-12-13T18:22:22Z</time>
      </trkpt>
      <trkpt lat="44.29489" lon="1.75833">
        <ele>391</ele>
        <time>2023-12-13T18:22:30Z</time>
      </trkpt>
      <trkpt lat="44.29521" lon="1.75831">
        <ele>390</ele>
        <time>2023-12-13T18:22:36Z</time>
      </trkpt>
      <trkpt lat="44.29544" lon="1.75826">
        <ele>388</ele>
        <time>2023-12-13T18:22:40Z</time>
      </trkpt>
      <trkpt lat="44.29579" lon="1.7581">
        <ele>385</ele>
        <time>2023-12-13T18:22:47Z</time>
      </trkpt>
      <trkpt lat="44.29586" lon="1.75805">
        <ele>384</ele>
        <time>2023-12-13T18:22:48Z</time>
      </trkpt>
      <trkpt lat="44.29605" lon="1.75792">
        <ele>382</ele>
        <time>2023-12-13T18:22:52Z</time>
      </trkpt>
      <trkpt lat="44.29666" lon="1.7574">
        <ele>374</ele>
        <time>2023-12-13T18:23:05Z</time>
      </trkpt>
      <trkpt lat="44.29701" lon="1.75721">
        <ele>373</ele>
        <time>2023-12-13T18:23:11Z</time>
      </trkpt>
      <trkpt lat="44.29979" lon="1.75639">
        <ele>372</ele>
        <time>2023-12-13T18:24:02Z</time>
      </trkpt>
      <trkpt lat="44.30027" lon="1.75635">
        <ele>373</ele>
        <time>2023-12-13T18:24:10Z</time>
      </trkpt>
      <trkpt lat="44.3056" lon="1.75612">
        <ele>369</ele>
        <time>2023-12-13T18:25:45Z</time>
      </trkpt>
      <trkpt lat="44.30635" lon="1.75595">
        <ele>369</ele>
        <time>2023-12-13T18:25:59Z</time>
      </trkpt>
      <trkpt lat="44.30725" lon="1.75549">
        <ele>371</ele>
        <time>2023-12-13T18:26:16Z</time>
      </trkpt>
      <trkpt lat="44.30778" lon="1.75505">
        <ele>372</ele>
        <time>2023-12-13T18:26:27Z</time>
      </trkpt>
      <trkpt lat="44.30856" lon="1.75427">
        <ele>371</ele>
        <time>2023-12-13T18:26:44Z</time>
      </trkpt>
      <trkpt lat="44.3097" lon="1.75325">
        <ele>368</ele>
        <time>2023-12-13T18:27:08Z</time>
      </trkpt>
      <trkpt lat="44.31031" lon="1.75261">
        <ele>365</ele>
        <time>2023-12-13T18:27:22Z</time>
      </trkpt>
      <trkpt lat="44.31078" lon="1.75194">
        <ele>360</ele>
        <time>2023-12-13T18:27:34Z</time>
      </trkpt>
      <trkpt lat="44.31105" lon="1.75135">
        <ele>357</ele>
        <time>2023-12-13T18:27:42Z</time>
      </trkpt>
      <trkpt lat="44.31131" lon="1.75067">
        <ele>354</ele>
        <time>2023-12-13T18:27:52Z</time>
      </trkpt>
      <trkpt lat="44.31151" lon="1.74974">
        <ele>352</ele>
        <time>2023-12-13T18:28:05Z</time>
      </trkpt>
      <trkpt lat="44.31218" lon="1.74505">
        <ele>350</ele>
        <time>2023-12-13T18:29:05Z</time>
      </trkpt>
      <trkpt lat="44.31361" lon="1.73542">
        <ele>342</ele>
        <time>2023-12-13T18:31:11Z</time>
      </trkpt>
      <trkpt lat="44.31427" lon="1.73045">
        <ele>312</ele>
        <time>2023-12-13T18:32:15Z</time>
      </trkpt>
      <trkpt lat="44.31466" lon="1.72891">
        <ele>309</ele>
        <time>2023-12-13T18:32:36Z</time>
      </trkpt>
      <trkpt lat="44.31488" lon="1.7285">
        <ele>308</ele>
        <time>2023-12-13T18:32:42Z</time>
      </trkpt>
      <trkpt lat="44.31525" lon="1.728">
        <ele>309</ele>
        <time>2023-12-13T18:32:52Z</time>
      </trkpt>
      <trkpt lat="44.31576" lon="1.72751">
        <ele>307</ele>
        <time>2023-12-13T18:33:03Z</time>
      </trkpt>
      <trkpt lat="44.31687" lon="1.72659">
        <ele>302</ele>
        <time>2023-12-13T18:33:26Z</time>
      </trkpt>
      <trkpt lat="44.31707" lon="1.72638">
        <ele>303</ele>
        <time>2023-12-13T18:33:30Z</time>
      </trkpt>
      <trkpt lat="44.31711" lon="1.72626">
        <ele>304</ele>
        <time>2023-12-13T18:33:32Z</time>
      </trkpt>
      <trkpt lat="44.31713" lon="1.72611">
        <ele>304</ele>
        <time>2023-12-13T18:33:34Z</time>
      </trkpt>
      <trkpt lat="44.31712" lon="1.72596">
        <ele>305</ele>
        <time>2023-12-13T18:33:36Z</time>
      </trkpt>
      <trkpt lat="44.31709" lon="1.72581">
        <ele>305</ele>
        <time>2023-12-13T18:33:37Z</time>
      </trkpt>
      <trkpt lat="44.31697" lon="1.72551">
        <ele>304</ele>
        <time>2023-12-13T18:33:42Z</time>
      </trkpt>
      <trkpt lat="44.31684" lon="1.72526">
        <ele>303</ele>
        <time>2023-12-13T18:33:46Z</time>
      </trkpt>
      <trkpt lat="44.31679" lon="1.72511">
        <ele>303</ele>
        <time>2023-12-13T18:33:48Z</time>
      </trkpt>
      <trkpt lat="44.31677" lon="1.7249">
        <ele>302</ele>
        <time>2023-12-13T18:33:51Z</time>
      </trkpt>
      <trkpt lat="44.31681" lon="1.72469">
        <ele>301</ele>
        <time>2023-12-13T18:33:53Z</time>
      </trkpt>
      <trkpt lat="44.31689" lon="1.72452">
        <ele>302</ele>
        <time>2023-12-13T18:33:56Z</time>
      </trkpt>
      <trkpt lat="44.317" lon="1.72433">
        <ele>302</ele>
        <time>2023-12-13T18:33:59Z</time>
      </trkpt>
      <trkpt lat="44.31716" lon="1.72418">
        <ele>304</ele>
        <time>2023-12-13T18:34:03Z</time>
      </trkpt>
      <trkpt lat="44.31737" lon="1.72401">
        <ele>306</ele>
        <time>2023-12-13T18:34:07Z</time>
      </trkpt>
      <trkpt lat="44.31761" lon="1.7238">
        <ele>308</ele>
        <time>2023-12-13T18:34:12Z</time>
      </trkpt>
      <trkpt lat="44.3179" lon="1.72346">
        <ele>310</ele>
        <time>2023-12-13T18:34:19Z</time>
      </trkpt>
      <trkpt lat="44.31846" lon="1.72267">
        <ele>317</ele>
        <time>2023-12-13T18:34:33Z</time>
      </trkpt>
      <trkpt lat="44.31871" lon="1.72238">
        <ele>319</ele>
        <time>2023-12-13T18:34:39Z</time>
      </trkpt>
      <trkpt lat="44.31889" lon="1.7222">
        <ele>320</ele>
        <time>2023-12-13T18:34:42Z</time>
      </trkpt>
      <trkpt lat="44.31935" lon="1.72186">
        <ele>322</ele>
        <time>2023-12-13T18:34:52Z</time>
      </trkpt>
      <trkpt lat="44.32017" lon="1.72129">
        <ele>321</ele>
        <time>2023-12-13T18:35:08Z</time>
      </trkpt>
      <trkpt lat="44.3203" lon="1.72125">
        <ele>320</ele>
        <time>2023-12-13T18:35:10Z</time>
      </trkpt>
      <trkpt lat="44.32077" lon="1.72122">
        <ele>319</ele>
        <time>2023-12-13T18:35:19Z</time>
      </trkpt>
      <trkpt lat="44.3215" lon="1.72093">
        <ele>315</ele>
        <time>2023-12-13T18:35:32Z</time>
      </trkpt>
      <trkpt lat="44.32163" lon="1.72092">
        <ele>314</ele>
        <time>2023-12-13T18:35:35Z</time>
      </trkpt>
      <trkpt lat="44.32205" lon="1.72099">
        <ele>312</ele>
        <time>2023-12-13T18:35:42Z</time>
      </trkpt>
      <trkpt lat="44.32234" lon="1.72097">
        <ele>310</ele>
        <time>2023-12-13T18:35:47Z</time>
      </trkpt>
      <trkpt lat="44.32293" lon="1.72083">
        <ele>307</ele>
        <time>2023-12-13T18:35:58Z</time>
      </trkpt>
      <trkpt lat="44.3231" lon="1.72076">
        <ele>306</ele>
        <time>2023-12-13T18:36:01Z</time>
      </trkpt>
      <trkpt lat="44.32323" lon="1.72064">
        <ele>306</ele>
        <time>2023-12-13T18:36:04Z</time>
      </trkpt>
      <trkpt lat="44.32332" lon="1.72051">
        <ele>305</ele>
        <time>2023-12-13T18:36:06Z</time>
      </trkpt>
      <trkpt lat="44.32338" lon="1.7204">
        <ele>305</ele>
        <time>2023-12-13T18:36:08Z</time>
      </trkpt>
      <trkpt lat="44.32345" lon="1.72013">
        <ele>305</ele>
        <time>2023-12-13T18:36:12Z</time>
      </trkpt>
      <trkpt lat="44.32351" lon="1.71966">
        <ele>304</ele>
        <time>2023-12-13T18:36:18Z</time>
      </trkpt>
      <trkpt lat="44.32359" lon="1.71939">
        <ele>303</ele>
        <time>2023-12-13T18:36:21Z</time>
      </trkpt>
      <trkpt lat="44.32384" lon="1.71884">
        <ele>302</ele>
        <time>2023-12-13T18:36:30Z</time>
      </trkpt>
      <trkpt lat="44.324" lon="1.71855">
        <ele>301</ele>
        <time>2023-12-13T18:36:34Z</time>
      </trkpt>
      <trkpt lat="44.32459" lon="1.7177">
        <ele>297</ele>
        <time>2023-12-13T18:36:49Z</time>
      </trkpt>
      <trkpt lat="44.32478" lon="1.71747">
        <ele>295</ele>
        <time>2023-12-13T18:36:54Z</time>
      </trkpt>
      <trkpt lat="44.32488" lon="1.71744">
        <ele>295</ele>
        <time>2023-12-13T18:36:56Z</time>
      </trkpt>
      <trkpt lat="44.32503" lon="1.71745">
        <ele>296</ele>
        <time>2023-12-13T18:36:58Z</time>
      </trkpt>
      <trkpt lat="44.32537" lon="1.71769">
        <ele>296</ele>
        <time>2023-12-13T18:37:05Z</time>
      </trkpt>
      <trkpt lat="44.32555" lon="1.71777">
        <ele>296</ele>
        <time>2023-12-13T18:37:09Z</time>
      </trkpt>
      <trkpt lat="44.32565" lon="1.7178">
        <ele>296</ele>
        <time>2023-12-13T18:37:10Z</time>
      </trkpt>
      <trkpt lat="44.32571" lon="1.71789">
        <ele>297</ele>
        <time>2023-12-13T18:37:12Z</time>
      </trkpt>
      <trkpt lat="44.3262" lon="1.71827">
        <ele>297</ele>
        <time>2023-12-13T18:37:22Z</time>
      </trkpt>
      <trkpt lat="44.32699" lon="1.71906">
        <ele>299</ele>
        <time>2023-12-13T18:37:39Z</time>
      </trkpt>
      <trkpt lat="44.32767" lon="1.71993">
        <ele>300</ele>
        <time>2023-12-13T18:37:56Z</time>
      </trkpt>
      <trkpt lat="44.32818" lon="1.72101">
        <ele>301</ele>
        <time>2023-12-13T18:38:12Z</time>
      </trkpt>
      <trkpt lat="44.32962" lon="1.72303">
        <ele>303</ele>
        <time>2023-12-13T18:38:48Z</time>
      </trkpt>
      <trkpt lat="44.3301" lon="1.72363">
        <ele>303</ele>
        <time>2023-12-13T18:39:00Z</time>
      </trkpt>
      <trkpt lat="44.33135" lon="1.72466">
        <ele>308</ele>
        <time>2023-12-13T18:39:26Z</time>
      </trkpt>
      <trkpt lat="44.33166" lon="1.7251">
        <ele>312</ele>
        <time>2023-12-13T18:39:33Z</time>
      </trkpt>
      <trkpt lat="44.33233" lon="1.72645">
        <ele>321</ele>
        <time>2023-12-13T18:39:54Z</time>
      </trkpt>
      <trkpt lat="44.33254" lon="1.72673">
        <ele>323</ele>
        <time>2023-12-13T18:40:00Z</time>
      </trkpt>
      <trkpt lat="44.33274" lon="1.72692">
        <ele>324</ele>
        <time>2023-12-13T18:40:04Z</time>
      </trkpt>
      <trkpt lat="44.33294" lon="1.72699">
        <ele>326</ele>
        <time>2023-12-13T18:40:07Z</time>
      </trkpt>
      <trkpt lat="44.33316" lon="1.72696">
        <ele>329</ele>
        <time>2023-12-13T18:40:11Z</time>
      </trkpt>
      <trkpt lat="44.33498" lon="1.72627">
        <ele>343</ele>
        <time>2023-12-13T18:40:45Z</time>
      </trkpt>
      <trkpt lat="44.33623" lon="1.72565">
        <ele>344</ele>
        <time>2023-12-13T18:41:09Z</time>
      </trkpt>
      <trkpt lat="44.33649" lon="1.72555">
        <ele>344</ele>
        <time>2023-12-13T18:41:13Z</time>
      </trkpt>
      <trkpt lat="44.33735" lon="1.72537">
        <ele>345</ele>
        <time>2023-12-13T18:41:29Z</time>
      </trkpt>
      <trkpt lat="44.33786" lon="1.725">
        <ele>347</ele>
        <time>2023-12-13T18:41:39Z</time>
      </trkpt>
      <trkpt lat="44.33805" lon="1.72492">
        <ele>347</ele>
        <time>2023-12-13T18:41:43Z</time>
      </trkpt>
      <trkpt lat="44.33874" lon="1.72497">
        <ele>348</ele>
        <time>2023-12-13T18:41:55Z</time>
      </trkpt>
      <trkpt lat="44.33901" lon="1.72488">
        <ele>348</ele>
        <time>2023-12-13T18:42:00Z</time>
      </trkpt>
      <trkpt lat="44.34063" lon="1.72408">
        <ele>352</ele>
        <time>2023-12-13T18:42:30Z</time>
      </trkpt>
      <trkpt lat="44.34084" lon="1.72404">
        <ele>353</ele>
        <time>2023-12-13T18:42:34Z</time>
      </trkpt>
      <trkpt lat="44.34209" lon="1.72417">
        <ele>355</ele>
        <time>2023-12-13T18:42:56Z</time>
      </trkpt>
      <trkpt lat="44.34289" lon="1.72415">
        <ele>356</ele>
        <time>2023-12-13T18:43:11Z</time>
      </trkpt>
      <trkpt lat="44.34423" lon="1.72381">
        <ele>355</ele>
        <time>2023-12-13T18:43:35Z</time>
      </trkpt>
      <trkpt lat="44.34461" lon="1.72379">
        <ele>355</ele>
        <time>2023-12-13T18:43:42Z</time>
      </trkpt>
      <trkpt lat="44.34531" lon="1.72391">
        <ele>354</ele>
        <time>2023-12-13T18:43:54Z</time>
      </trkpt>
      <trkpt lat="44.34745" lon="1.72388">
        <ele>349</ele>
        <time>2023-12-13T18:44:32Z</time>
      </trkpt>
      <trkpt lat="44.35029" lon="1.72442">
        <ele>348</ele>
        <time>2023-12-13T18:45:23Z</time>
      </trkpt>
      <trkpt lat="44.35102" lon="1.72454">
        <ele>352</ele>
        <time>2023-12-13T18:45:36Z</time>
      </trkpt>
      <trkpt lat="44.35127" lon="1.72447">
        <ele>352</ele>
        <time>2023-12-13T18:45:41Z</time>
      </trkpt>
      <trkpt lat="44.35222" lon="1.72387">
        <ele>352</ele>
        <time>2023-12-13T18:45:59Z</time>
      </trkpt>
      <trkpt lat="44.35393" lon="1.72349">
        <ele>340</ele>
        <time>2023-12-13T18:46:30Z</time>
      </trkpt>
      <trkpt lat="44.35419" lon="1.72348">
        <ele>338</ele>
        <time>2023-12-13T18:46:35Z</time>
      </trkpt>
      <trkpt lat="44.35432" lon="1.72346">
        <ele>337</ele>
        <time>2023-12-13T18:46:37Z</time>
      </trkpt>
      <trkpt lat="44.35493" lon="1.72309">
        <ele>331</ele>
        <time>2023-12-13T18:46:49Z</time>
      </trkpt>
      <trkpt lat="44.35539" lon="1.72298">
        <ele>329</ele>
        <time>2023-12-13T18:46:57Z</time>
      </trkpt>
      <trkpt lat="44.35594" lon="1.72269">
        <ele>328</ele>
        <time>2023-12-13T18:47:08Z</time>
      </trkpt>
      <trkpt lat="44.35615" lon="1.72266">
        <ele>329</ele>
        <time>2023-12-13T18:47:12Z</time>
      </trkpt>
      <trkpt lat="44.35681" lon="1.72272">
        <ele>328</ele>
        <time>2023-12-13T18:47:23Z</time>
      </trkpt>
      <trkpt lat="44.35702" lon="1.72277">
        <ele>328</ele>
        <time>2023-12-13T18:47:27Z</time>
      </trkpt>
      <trkpt lat="44.35712" lon="1.72288">
        <ele>327</ele>
        <time>2023-12-13T18:47:29Z</time>
      </trkpt>
      <trkpt lat="44.35729" lon="1.7232">
        <ele>326</ele>
        <time>2023-12-13T18:47:34Z</time>
      </trkpt>
      <trkpt lat="44.35743" lon="1.72355">
        <ele>324</ele>
        <time>2023-12-13T18:47:40Z</time>
      </trkpt>
      <trkpt lat="44.35747" lon="1.72372">
        <ele>323</ele>
        <time>2023-12-13T18:47:42Z</time>
      </trkpt>
      <trkpt lat="44.35762" lon="1.72383">
        <ele>322</ele>
        <time>2023-12-13T18:47:45Z</time>
      </trkpt>
      <trkpt lat="44.35765" lon="1.7238">
        <ele>322</ele>
        <time>2023-12-13T18:47:46Z</time>
      </trkpt>
      <trkpt lat="44.35768" lon="1.72375">
        <ele>322</ele>
        <time>2023-12-13T18:47:46Z</time>
      </trkpt>
      <trkpt lat="44.35762" lon="1.72383">
        <ele>322</ele>
        <time>2023-12-13T18:47:48Z</time>
      </trkpt>
      <trkpt lat="44.35761" lon="1.724">
        <ele>321</ele>
        <time>2023-12-13T18:47:50Z</time>
      </trkpt>
      <trkpt lat="44.35747" lon="1.72434">
        <ele>321</ele>
        <time>2023-12-13T18:47:55Z</time>
      </trkpt>
      <trkpt lat="44.35736" lon="1.72443">
        <ele>321</ele>
        <time>2023-12-13T18:47:57Z</time>
      </trkpt>
      <trkpt lat="44.35741" lon="1.72463">
        <ele>321</ele>
        <time>2023-12-13T18:48:00Z</time>
      </trkpt>
      <trkpt lat="44.3567" lon="1.72501">
        <ele>325</ele>
        <time>2023-12-13T18:48:14Z</time>
      </trkpt>
      <trkpt lat="44.35646" lon="1.72525">
        <ele>326</ele>
        <time>2023-12-13T18:48:19Z</time>
      </trkpt>
      <trkpt lat="44.35613" lon="1.72586">
        <ele>327</ele>
        <time>2023-12-13T18:48:28Z</time>
      </trkpt>
      <trkpt lat="44.35585" lon="1.7263">
        <ele>328</ele>
        <time>2023-12-13T18:48:36Z</time>
      </trkpt>
      <trkpt lat="44.35567" lon="1.72654">
        <ele>330</ele>
        <time>2023-12-13T18:48:40Z</time>
      </trkpt>
      <trkpt lat="44.35556" lon="1.7269">
        <ele>331</ele>
        <time>2023-12-13T18:48:45Z</time>
      </trkpt>
      <trkpt lat="44.35545" lon="1.7277">
        <ele>335</ele>
        <time>2023-12-13T18:48:56Z</time>
      </trkpt>
      <trkpt lat="44.3554" lon="1.72799">
        <ele>337</ele>
        <time>2023-12-13T18:49:00Z</time>
      </trkpt>
      <trkpt lat="44.35532" lon="1.72823">
        <ele>339</ele>
        <time>2023-12-13T18:49:03Z</time>
      </trkpt>
      <trkpt lat="44.35508" lon="1.72853">
        <ele>342</ele>
        <time>2023-12-13T18:49:09Z</time>
      </trkpt>
      <trkpt lat="44.35479" lon="1.72879">
        <ele>344</ele>
        <time>2023-12-13T18:49:15Z</time>
      </trkpt>
      <trkpt lat="44.35453" lon="1.72906">
        <ele>347</ele>
        <time>2023-12-13T18:49:21Z</time>
      </trkpt>
      <trkpt lat="44.35438" lon="1.72922">
        <ele>347</ele>
        <time>2023-12-13T18:49:24Z</time>
      </trkpt>
      <trkpt lat="44.35397" lon="1.72986">
        <ele>351</ele>
        <time>2023-12-13T18:49:35Z</time>
      </trkpt>
      <trkpt lat="44.35374" lon="1.73009">
        <ele>352</ele>
        <time>2023-12-13T18:49:40Z</time>
      </trkpt>
      <trkpt lat="44.35343" lon="1.73046">
        <ele>353</ele>
        <time>2023-12-13T18:49:47Z</time>
      </trkpt>
      <trkpt lat="44.3531" lon="1.73101">
        <ele>357</ele>
        <time>2023-12-13T18:49:56Z</time>
      </trkpt>
      <trkpt lat="44.3526" lon="1.732">
        <ele>362</ele>
        <time>2023-12-13T18:50:12Z</time>
      </trkpt>
      <trkpt lat="44.35229" lon="1.7327">
        <ele>364</ele>
        <time>2023-12-13T18:50:22Z</time>
      </trkpt>
      <trkpt lat="44.35206" lon="1.73332">
        <ele>362</ele>
        <time>2023-12-13T18:50:31Z</time>
      </trkpt>
      <trkpt lat="44.35193" lon="1.73358">
        <ele>360</ele>
        <time>2023-12-13T18:50:35Z</time>
      </trkpt>
      <trkpt lat="44.35168" lon="1.73399">
        <ele>356</ele>
        <time>2023-12-13T18:50:42Z</time>
      </trkpt>
      <trkpt lat="44.35158" lon="1.7342">
        <ele>355</ele>
        <time>2023-12-13T18:50:45Z</time>
      </trkpt>
      <trkpt lat="44.35156" lon="1.73426">
        <ele>355</ele>
        <time>2023-12-13T18:50:46Z</time>
      </trkpt>
      <trkpt lat="44.35137" lon="1.73428">
        <ele>355</ele>
        <time>2023-12-13T18:50:49Z</time>
      </trkpt>
      <trkpt lat="44.35072" lon="1.73447">
        <ele>356</ele>
        <time>2023-12-13T18:51:01Z</time>
      </trkpt>
      <trkpt lat="44.3505" lon="1.7345">
        <ele>355</ele>
        <time>2023-12-13T18:51:05Z</time>
      </trkpt>
      <trkpt lat="44.35036" lon="1.73446">
        <ele>355</ele>
        <time>2023-12-13T18:51:08Z</time>
      </trkpt>
      <trkpt lat="44.35023" lon="1.73435">
        <ele>355</ele>
        <time>2023-12-13T18:51:10Z</time>
      </trkpt>
      <trkpt lat="44.34996" lon="1.73389">
        <ele>358</ele>
        <time>2023-12-13T18:51:18Z</time>
      </trkpt>
      <trkpt lat="44.34968" lon="1.73362">
        <ele>359</ele>
        <time>2023-12-13T18:51:24Z</time>
      </trkpt>
      <trkpt lat="44.34946" lon="1.73344">
        <ele>359</ele>
        <time>2023-12-13T18:51:29Z</time>
      </trkpt>
      <trkpt lat="44.34924" lon="1.73337">
        <ele>359</ele>
        <time>2023-12-13T18:51:33Z</time>
      </trkpt>
      <trkpt lat="44.34906" lon="1.73336">
        <ele>359</ele>
        <time>2023-12-13T18:51:36Z</time>
      </trkpt>
      <trkpt lat="44.34887" lon="1.73339">
        <ele>360</ele>
        <time>2023-12-13T18:51:39Z</time>
      </trkpt>
      <trkpt lat="44.34858" lon="1.73351">
        <ele>361</ele>
        <time>2023-12-13T18:51:45Z</time>
      </trkpt>
      <trkpt lat="44.34676" lon="1.73458">
        <ele>364</ele>
        <time>2023-12-13T18:52:20Z</time>
      </trkpt>
      <trkpt lat="44.34648" lon="1.73466">
        <ele>365</ele>
        <time>2023-12-13T18:52:25Z</time>
      </trkpt>
      <trkpt lat="44.3456" lon="1.73476">
        <ele>367</ele>
        <time>2023-12-13T18:52:40Z</time>
      </trkpt>
      <trkpt lat="44.34536" lon="1.73487">
        <ele>366</ele>
        <time>2023-12-13T18:52:45Z</time>
      </trkpt>
      <trkpt lat="44.34516" lon="1.735">
        <ele>366</ele>
        <time>2023-12-13T18:52:49Z</time>
      </trkpt>
      <trkpt lat="44.34403" lon="1.7361">
        <ele>366</ele>
        <time>2023-12-13T18:53:13Z</time>
      </trkpt>
      <trkpt lat="44.34369" lon="1.73655">
        <ele>365</ele>
        <time>2023-12-13T18:53:22Z</time>
      </trkpt>
      <trkpt lat="44.34341" lon="1.73706">
        <ele>365</ele>
        <time>2023-12-13T18:53:30Z</time>
      </trkpt>
      <trkpt lat="44.34309" lon="1.73779">
        <ele>367</ele>
        <time>2023-12-13T18:53:41Z</time>
      </trkpt>
      <trkpt lat="44.34265" lon="1.73891">
        <ele>369</ele>
        <time>2023-12-13T18:53:57Z</time>
      </trkpt>
      <trkpt lat="44.34257" lon="1.73932">
        <ele>369</ele>
        <time>2023-12-13T18:54:02Z</time>
      </trkpt>
      <trkpt lat="44.34254" lon="1.73972">
        <ele>369</ele>
        <time>2023-12-13T18:54:08Z</time>
      </trkpt>
      <trkpt lat="44.34256" lon="1.74003">
        <ele>369</ele>
        <time>2023-12-13T18:54:12Z</time>
      </trkpt>
      <trkpt lat="44.34305" lon="1.74169">
        <ele>370</ele>
        <time>2023-12-13T18:54:34Z</time>
      </trkpt>
      <trkpt lat="44.34312" lon="1.74205">
        <ele>371</ele>
        <time>2023-12-13T18:54:39Z</time>
      </trkpt>
      <trkpt lat="44.34317" lon="1.74245">
        <ele>372</ele>
        <time>2023-12-13T18:54:44Z</time>
      </trkpt>
      <trkpt lat="44.34322" lon="1.74327">
        <ele>371</ele>
        <time>2023-12-13T18:54:55Z</time>
      </trkpt>
      <trkpt lat="44.34321" lon="1.74364">
        <ele>371</ele>
        <time>2023-12-13T18:54:59Z</time>
      </trkpt>
      <trkpt lat="44.34315" lon="1.74402">
        <ele>372</ele>
        <time>2023-12-13T18:55:04Z</time>
      </trkpt>
      <trkpt lat="44.34276" lon="1.7452">
        <ele>377</ele>
        <time>2023-12-13T18:55:21Z</time>
      </trkpt>
      <trkpt lat="44.34261" lon="1.74554">
        <ele>378</ele>
        <time>2023-12-13T18:55:26Z</time>
      </trkpt>
      <trkpt lat="44.34224" lon="1.74585">
        <ele>381</ele>
        <time>2023-12-13T18:55:34Z</time>
      </trkpt>
      <trkpt lat="44.3418" lon="1.74608">
        <ele>382</ele>
        <time>2023-12-13T18:55:42Z</time>
      </trkpt>
      <trkpt lat="44.34156" lon="1.7463">
        <ele>383</ele>
        <time>2023-12-13T18:55:47Z</time>
      </trkpt>
      <trkpt lat="44.34127" lon="1.74673">
        <ele>383</ele>
        <time>2023-12-13T18:55:55Z</time>
      </trkpt>
      <trkpt lat="44.34002" lon="1.74917">
        <ele>387</ele>
        <time>2023-12-13T18:56:33Z</time>
      </trkpt>
      <trkpt lat="44.3399" lon="1.74949">
        <ele>387</ele>
        <time>2023-12-13T18:56:37Z</time>
      </trkpt>
      <trkpt lat="44.33982" lon="1.74981">
        <ele>387</ele>
        <time>2023-12-13T18:56:42Z</time>
      </trkpt>
      <trkpt lat="44.33979" lon="1.75005">
        <ele>387</ele>
        <time>2023-12-13T18:56:45Z</time>
      </trkpt>
      <trkpt lat="44.3398" lon="1.75033">
        <ele>387</ele>
        <time>2023-12-13T18:56:48Z</time>
      </trkpt>
      <trkpt lat="44.33986" lon="1.7506">
        <ele>388</ele>
        <time>2023-12-13T18:56:52Z</time>
      </trkpt>
      <trkpt lat="44.3402" lon="1.75151">
        <ele>389</ele>
        <time>2023-12-13T18:57:05Z</time>
      </trkpt>
      <trkpt lat="44.34023" lon="1.7517">
        <ele>390</ele>
        <time>2023-12-13T18:57:08Z</time>
      </trkpt>
      <trkpt lat="44.34023" lon="1.75206">
        <ele>389</ele>
        <time>2023-12-13T18:57:12Z</time>
      </trkpt>
      <trkpt lat="44.34008" lon="1.75321">
        <ele>386</ele>
        <time>2023-12-13T18:57:27Z</time>
      </trkpt>
      <trkpt lat="44.33998" lon="1.75355">
        <ele>386</ele>
        <time>2023-12-13T18:57:32Z</time>
      </trkpt>
      <trkpt lat="44.33985" lon="1.75391">
        <ele>385</ele>
        <time>2023-12-13T18:57:37Z</time>
      </trkpt>
      <trkpt lat="44.33943" lon="1.75453">
        <ele>385</ele>
        <time>2023-12-13T18:57:48Z</time>
      </trkpt>
      <trkpt lat="44.33922" lon="1.75495">
        <ele>383</ele>
        <time>2023-12-13T18:57:54Z</time>
      </trkpt>
      <trkpt lat="44.33914" lon="1.75528">
        <ele>382</ele>
        <time>2023-12-13T18:57:59Z</time>
      </trkpt>
      <trkpt lat="44.33912" lon="1.75586">
        <ele>381</ele>
        <time>2023-12-13T18:58:06Z</time>
      </trkpt>
      <trkpt lat="44.33907" lon="1.75606">
        <ele>381</ele>
        <time>2023-12-13T18:58:09Z</time>
      </trkpt>
      <trkpt lat="44.33897" lon="1.75626">
        <ele>381</ele>
        <time>2023-12-13T18:58:12Z</time>
      </trkpt>
      <trkpt lat="44.33839" lon="1.75685">
        <ele>379</ele>
        <time>2023-12-13T18:58:25Z</time>
      </trkpt>
      <trkpt lat="44.3369" lon="1.75909">
        <ele>373</ele>
        <time>2023-12-13T18:59:04Z</time>
      </trkpt>
      <trkpt lat="44.3368" lon="1.7592">
        <ele>372</ele>
        <time>2023-12-13T18:59:06Z</time>
      </trkpt>
      <trkpt lat="44.33667" lon="1.75927">
        <ele>372</ele>
        <time>2023-12-13T18:59:08Z</time>
      </trkpt>
      <trkpt lat="44.33635" lon="1.75934">
        <ele>370</ele>
        <time>2023-12-13T18:59:14Z</time>
      </trkpt>
      <trkpt lat="44.33607" lon="1.75948">
        <ele>369</ele>
        <time>2023-12-13T18:59:19Z</time>
      </trkpt>
      <trkpt lat="44.33507" lon="1.7601">
        <ele>368</ele>
        <time>2023-12-13T18:59:39Z</time>
      </trkpt>
      <trkpt lat="44.33479" lon="1.76034">
        <ele>367</ele>
        <time>2023-12-13T18:59:45Z</time>
      </trkpt>
      <trkpt lat="44.33469" lon="1.7605">
        <ele>367</ele>
        <time>2023-12-13T18:59:47Z</time>
      </trkpt>
      <trkpt lat="44.33461" lon="1.76065">
        <ele>366</ele>
        <time>2023-12-13T18:59:50Z</time>
      </trkpt>
      <trkpt lat="44.33386" lon="1.7624">
        <ele>364</ele>
        <time>2023-12-13T19:00:16Z</time>
      </trkpt>
      <trkpt lat="44.33303" lon="1.76424">
        <ele>361</ele>
        <time>2023-12-13T19:00:43Z</time>
      </trkpt>
      <trkpt lat="44.33291" lon="1.76457">
        <ele>360</ele>
        <time>2023-12-13T19:00:48Z</time>
      </trkpt>
      <trkpt lat="44.33284" lon="1.7647">
        <ele>360</ele>
        <time>2023-12-13T19:00:50Z</time>
      </trkpt>
      <trkpt lat="44.33275" lon="1.76483">
        <ele>359</ele>
        <time>2023-12-13T19:00:52Z</time>
      </trkpt>
      <trkpt lat="44.33252" lon="1.76508">
        <ele>358</ele>
        <time>2023-12-13T19:00:58Z</time>
      </trkpt>
      <trkpt lat="44.33198" lon="1.76543">
        <ele>357</ele>
        <time>2023-12-13T19:01:08Z</time>
      </trkpt>
      <trkpt lat="44.33185" lon="1.76556">
        <ele>357</ele>
        <time>2023-12-13T19:01:11Z</time>
      </trkpt>
      <trkpt lat="44.33176" lon="1.7657">
        <ele>356</ele>
        <time>2023-12-13T19:01:14Z</time>
      </trkpt>
      <trkpt lat="44.33166" lon="1.76596">
        <ele>356</ele>
        <time>2023-12-13T19:01:17Z</time>
      </trkpt>
      <trkpt lat="44.32792" lon="1.77887">
        <ele>346</ele>
        <time>2023-12-13T19:04:15Z</time>
      </trkpt>
      <trkpt lat="44.32756" lon="1.78007">
        <ele>346</ele>
        <time>2023-12-13T19:04:31Z</time>
      </trkpt>
      <trkpt lat="44.32743" lon="1.78038">
        <ele>346</ele>
        <time>2023-12-13T19:04:36Z</time>
      </trkpt>
      <trkpt lat="44.32728" lon="1.78065">
        <ele>347</ele>
        <time>2023-12-13T19:04:40Z</time>
      </trkpt>
      <trkpt lat="44.32713" lon="1.78083">
        <ele>347</ele>
        <time>2023-12-13T19:04:44Z</time>
      </trkpt>
      <trkpt lat="44.32688" lon="1.78109">
        <ele>347</ele>
        <time>2023-12-13T19:04:49Z</time>
      </trkpt>
      <trkpt lat="44.32651" lon="1.78135">
        <ele>346</ele>
        <time>2023-12-13T19:04:56Z</time>
      </trkpt>
      <trkpt lat="44.32276" lon="1.7829">
        <ele>333</ele>
        <time>2023-12-13T19:06:06Z</time>
      </trkpt>
      <trkpt lat="44.32266" lon="1.78293">
        <ele>333</ele>
        <time>2023-12-13T19:06:08Z</time>
      </trkpt>
      <trkpt lat="44.32216" lon="1.78306">
        <ele>336</ele>
        <time>2023-12-13T19:06:17Z</time>
      </trkpt>
      <trkpt lat="44.32184" lon="1.78306">
        <ele>337</ele>
        <time>2023-12-13T19:06:23Z</time>
      </trkpt>
      <trkpt lat="44.32141" lon="1.78288">
        <ele>339</ele>
        <time>2023-12-13T19:06:31Z</time>
      </trkpt>
      <trkpt lat="44.32106" lon="1.78258">
        <ele>340</ele>
        <time>2023-12-13T19:06:38Z</time>
      </trkpt>
      <trkpt lat="44.32083" lon="1.78216">
        <ele>340</ele>
        <time>2023-12-13T19:06:45Z</time>
      </trkpt>
      <trkpt lat="44.32076" lon="1.78199">
        <ele>340</ele>
        <time>2023-12-13T19:06:47Z</time>
      </trkpt>
      <trkpt lat="44.32061" lon="1.78122">
        <ele>340</ele>
        <time>2023-12-13T19:06:57Z</time>
      </trkpt>
      <trkpt lat="44.32053" lon="1.78098">
        <ele>341</ele>
        <time>2023-12-13T19:07:01Z</time>
      </trkpt>
      <trkpt lat="44.32017" lon="1.78053">
        <ele>342</ele>
        <time>2023-12-13T19:07:09Z</time>
      </trkpt>
      <trkpt lat="44.32006" lon="1.78043">
        <ele>342</ele>
        <time>2023-12-13T19:07:12Z</time>
      </trkpt>
      <trkpt lat="44.31991" lon="1.78034">
        <ele>342</ele>
        <time>2023-12-13T19:07:14Z</time>
      </trkpt>
      <trkpt lat="44.31977" lon="1.78033">
        <ele>342</ele>
        <time>2023-12-13T19:07:17Z</time>
      </trkpt>
      <trkpt lat="44.31968" lon="1.78036">
        <ele>342</ele>
        <time>2023-12-13T19:07:19Z</time>
      </trkpt>
      <trkpt lat="44.31959" lon="1.78042">
        <ele>343</ele>
        <time>2023-12-13T19:07:20Z</time>
      </trkpt>
      <trkpt lat="44.31942" lon="1.78065">
        <ele>343</ele>
        <time>2023-12-13T19:07:25Z</time>
      </trkpt>
      <trkpt lat="44.31672" lon="1.78497">
        <ele>347</ele>
        <time>2023-12-13T19:08:38Z</time>
      </trkpt>
      <trkpt lat="44.31648" lon="1.78525">
        <ele>348</ele>
        <time>2023-12-13T19:08:43Z</time>
      </trkpt>
      <trkpt lat="44.31546" lon="1.78588">
        <ele>349</ele>
        <time>2023-12-13T19:09:03Z</time>
      </trkpt>
      <trkpt lat="44.31417" lon="1.78637">
        <ele>348</ele>
        <time>2023-12-13T19:09:27Z</time>
      </trkpt>
      <trkpt lat="44.31136" lon="1.78737">
        <ele>354</ele>
        <time>2023-12-13T19:10:18Z</time>
      </trkpt>
      <trkpt lat="44.31055" lon="1.78772">
        <ele>353</ele>
        <time>2023-12-13T19:10:34Z</time>
      </trkpt>
      <trkpt lat="44.30751" lon="1.78936">
        <ele>346</ele>
        <time>2023-12-13T19:11:31Z</time>
      </trkpt>
      <trkpt lat="44.30715" lon="1.78954">
        <ele>344</ele>
        <time>2023-12-13T19:11:38Z</time>
      </trkpt>
      <trkpt lat="44.30517" lon="1.79026">
        <ele>335</ele>
        <time>2023-12-13T19:12:15Z</time>
      </trkpt>
      <trkpt lat="44.30497" lon="1.79017">
        <ele>335</ele>
        <time>2023-12-13T19:12:18Z</time>
      </trkpt>
      <trkpt lat="44.30492" lon="1.79008">
        <ele>335</ele>
        <time>2023-12-13T19:12:20Z</time>
      </trkpt>
      <trkpt lat="44.30484" lon="1.79007">
        <ele>334</ele>
        <time>2023-12-13T19:12:21Z</time>
      </trkpt>
      <trkpt lat="44.30479" lon="1.79011">
        <ele>334</ele>
        <time>2023-12-13T19:12:22Z</time>
      </trkpt>
      <trkpt lat="44.30477" lon="1.79016">
        <ele>334</ele>
        <time>2023-12-13T19:12:23Z</time>
      </trkpt>
      <trkpt lat="44.30476" lon="1.79024">
        <ele>334</ele>
        <time>2023-12-13T19:12:24Z</time>
      </trkpt>
      <trkpt lat="44.30469" lon="1.79039">
        <ele>334</ele>
        <time>2023-12-13T19:12:26Z</time>
      </trkpt>
      <trkpt lat="44.30459" lon="1.79049">
        <ele>334</ele>
        <time>2023-12-13T19:12:29Z</time>
      </trkpt>
      <trkpt lat="44.30463" lon="1.79085">
        <ele>334</ele>
        <time>2023-12-13T19:12:33Z</time>
      </trkpt>
      <trkpt lat="44.30472" lon="1.79122">
        <ele>335</ele>
        <time>2023-12-13T19:12:38Z</time>
      </trkpt>
      <trkpt lat="44.30472" lon="1.79141">
        <ele>336</ele>
        <time>2023-12-13T19:12:41Z</time>
      </trkpt>
      <trkpt lat="44.30444" lon="1.79268">
        <ele>343</ele>
        <time>2023-12-13T19:12:58Z</time>
      </trkpt>
      <trkpt lat="44.3044" lon="1.79322">
        <ele>346</ele>
        <time>2023-12-13T19:13:04Z</time>
      </trkpt>
      <trkpt lat="44.30436" lon="1.79346">
        <ele>346</ele>
        <time>2023-12-13T19:13:08Z</time>
      </trkpt>
      <trkpt lat="44.30438" lon="1.79365">
        <ele>346</ele>
        <time>2023-12-13T19:13:10Z</time>
      </trkpt>
      <trkpt lat="44.30452" lon="1.79442">
        <ele>345</ele>
        <time>2023-12-13T19:13:20Z</time>
      </trkpt>
      <trkpt lat="44.30464" lon="1.79475">
        <ele>343</ele>
        <time>2023-12-13T19:13:25Z</time>
      </trkpt>
      <trkpt lat="44.30486" lon="1.79499">
        <ele>342</ele>
        <time>2023-12-13T19:13:30Z</time>
      </trkpt>
      <trkpt lat="44.30484" lon="1.79571">
        <ele>332</ele>
        <time>2023-12-13T19:13:39Z</time>
      </trkpt>
      <trkpt lat="44.30482" lon="1.79579">
        <ele>331</ele>
        <time>2023-12-13T19:13:40Z</time>
      </trkpt>
      <trkpt lat="44.30469" lon="1.79607">
        <ele>328</ele>
        <time>2023-12-13T19:13:44Z</time>
      </trkpt>
      <trkpt lat="44.30469" lon="1.79616">
        <ele>327</ele>
        <time>2023-12-13T19:13:45Z</time>
      </trkpt>
      <trkpt lat="44.3048" lon="1.7971">
        <ele>323</ele>
        <time>2023-12-13T19:13:58Z</time>
      </trkpt>
      <trkpt lat="44.3048" lon="1.79779">
        <ele>323</ele>
        <time>2023-12-13T19:14:06Z</time>
      </trkpt>
      <trkpt lat="44.30459" lon="1.79793">
        <ele>323</ele>
        <time>2023-12-13T19:14:11Z</time>
      </trkpt>
      <trkpt lat="44.30453" lon="1.798">
        <ele>322</ele>
        <time>2023-12-13T19:14:12Z</time>
      </trkpt>
      <trkpt lat="44.30412" lon="1.79845">
        <ele>323</ele>
        <time>2023-12-13T19:14:21Z</time>
      </trkpt>
      <trkpt lat="44.3038" lon="1.79907">
        <ele>325</ele>
        <time>2023-12-13T19:14:31Z</time>
      </trkpt>
      <trkpt lat="44.30346" lon="1.8003">
        <ele>329</ele>
        <time>2023-12-13T19:14:48Z</time>
      </trkpt>
      <trkpt lat="44.30313" lon="1.80122">
        <ele>334</ele>
        <time>2023-12-13T19:15:01Z</time>
      </trkpt>
      <trkpt lat="44.30292" lon="1.80162">
        <ele>336</ele>
        <time>2023-12-13T19:15:07Z</time>
      </trkpt>
      <trkpt lat="44.30205" lon="1.80291">
        <ele>338</ele>
        <time>2023-12-13T19:15:30Z</time>
      </trkpt>
      <trkpt lat="44.30133" lon="1.80375">
        <ele>341</ele>
        <time>2023-12-13T19:15:46Z</time>
      </trkpt>
      <trkpt lat="44.3011" lon="1.80413">
        <ele>341</ele>
        <time>2023-12-13T19:15:53Z</time>
      </trkpt>
      <trkpt lat="44.30087" lon="1.80476">
        <ele>341</ele>
        <time>2023-12-13T19:16:02Z</time>
      </trkpt>
      <trkpt lat="44.29962" lon="1.80861">
        <ele>350</ele>
        <time>2023-12-13T19:16:56Z</time>
      </trkpt>
      <trkpt lat="44.29957" lon="1.80965">
        <ele>352</ele>
        <time>2023-12-13T19:17:09Z</time>
      </trkpt>
      <trkpt lat="44.29923" lon="1.81171">
        <ele>356</ele>
        <time>2023-12-13T19:17:36Z</time>
      </trkpt>
      <trkpt lat="44.29905" lon="1.81261">
        <ele>358</ele>
        <time>2023-12-13T19:17:48Z</time>
      </trkpt>
      <trkpt lat="44.29884" lon="1.81341">
        <ele>360</ele>
        <time>2023-12-13T19:17:59Z</time>
      </trkpt>
      <trkpt lat="44.29863" lon="1.81379">
        <ele>360</ele>
        <time>2023-12-13T19:18:05Z</time>
      </trkpt>
      <trkpt lat="44.29806" lon="1.81458">
        <ele>362</ele>
        <time>2023-12-13T19:18:19Z</time>
      </trkpt>
      <trkpt lat="44.2979" lon="1.81493">
        <ele>362</ele>
        <time>2023-12-13T19:18:24Z</time>
      </trkpt>
      <trkpt lat="44.29785" lon="1.81529">
        <ele>362</ele>
        <time>2023-12-13T19:18:29Z</time>
      </trkpt>
      <trkpt lat="44.29781" lon="1.816">
        <ele>361</ele>
        <time>2023-12-13T19:18:38Z</time>
      </trkpt>
      <trkpt lat="44.29775" lon="1.81635">
        <ele>359</ele>
        <time>2023-12-13T19:18:43Z</time>
      </trkpt>
      <trkpt lat="44.29763" lon="1.81665">
        <ele>358</ele>
        <time>2023-12-13T19:18:47Z</time>
      </trkpt>
      <trkpt lat="44.29734" lon="1.81714">
        <ele>357</ele>
        <time>2023-12-13T19:18:55Z</time>
      </trkpt>
      <trkpt lat="44.29707" lon="1.81769">
        <ele>357</ele>
        <time>2023-12-13T19:19:03Z</time>
      </trkpt>
      <trkpt lat="44.29686" lon="1.81823">
        <ele>357</ele>
        <time>2023-12-13T19:19:11Z</time>
      </trkpt>
      <trkpt lat="44.29645" lon="1.81912">
        <ele>355</ele>
        <time>2023-12-13T19:19:25Z</time>
      </trkpt>
      <trkpt lat="44.29636" lon="1.81954">
        <ele>354</ele>
        <time>2023-12-13T19:19:30Z</time>
      </trkpt>
      <trkpt lat="44.29639" lon="1.81977">
        <ele>354</ele>
        <time>2023-12-13T19:19:33Z</time>
      </trkpt>
      <trkpt lat="44.29666" lon="1.821">
        <ele>355</ele>
        <time>2023-12-13T19:19:50Z</time>
      </trkpt>
      <trkpt lat="44.29668" lon="1.82109">
        <ele>355</ele>
        <time>2023-12-13T19:19:51Z</time>
      </trkpt>
      <trkpt lat="44.29669" lon="1.82153">
        <ele>354</ele>
        <time>2023-12-13T19:19:57Z</time>
      </trkpt>
      <trkpt lat="44.29662" lon="1.82189">
        <ele>355</ele>
        <time>2023-12-13T19:20:01Z</time>
      </trkpt>
      <trkpt lat="44.29627" lon="1.82283">
        <ele>359</ele>
        <time>2023-12-13T19:20:15Z</time>
      </trkpt>
      <trkpt lat="44.29612" lon="1.82338">
        <ele>361</ele>
        <time>2023-12-13T19:20:22Z</time>
      </trkpt>
      <trkpt lat="44.29592" lon="1.82511">
        <ele>365</ele>
        <time>2023-12-13T19:20:45Z</time>
      </trkpt>
      <trkpt lat="44.29591" lon="1.82598">
        <ele>370</ele>
        <time>2023-12-13T19:20:56Z</time>
      </trkpt>
      <trkpt lat="44.29601" lon="1.82686">
        <ele>374</ele>
        <time>2023-12-13T19:21:07Z</time>
      </trkpt>
      <trkpt lat="44.29594" lon="1.8283">
        <ele>382</ele>
        <time>2023-12-13T19:21:25Z</time>
      </trkpt>
      <trkpt lat="44.29564" lon="1.83012">
        <ele>388</ele>
        <time>2023-12-13T19:21:49Z</time>
      </trkpt>
      <trkpt lat="44.29529" lon="1.83198">
        <ele>395</ele>
        <time>2023-12-13T19:22:14Z</time>
      </trkpt>
      <trkpt lat="44.29525" lon="1.83257">
        <ele>395</ele>
        <time>2023-12-13T19:22:21Z</time>
      </trkpt>
      <trkpt lat="44.29535" lon="1.833">
        <ele>396</ele>
        <time>2023-12-13T19:22:27Z</time>
      </trkpt>
      <trkpt lat="44.29561" lon="1.83349">
        <ele>400</ele>
        <time>2023-12-13T19:22:35Z</time>
      </trkpt>
      <trkpt lat="44.29588" lon="1.83387">
        <ele>402</ele>
        <time>2023-12-13T19:22:42Z</time>
      </trkpt>
      <trkpt lat="44.29599" lon="1.83422">
        <ele>400</ele>
        <time>2023-12-13T19:22:46Z</time>
      </trkpt>
      <trkpt lat="44.29602" lon="1.83452">
        <ele>401</ele>
        <time>2023-12-13T19:22:50Z</time>
      </trkpt>
      <trkpt lat="44.29607" lon="1.83644">
        <ele>412</ele>
        <time>2023-12-13T19:23:15Z</time>
      </trkpt>
      <trkpt lat="44.29609" lon="1.83668">
        <ele>413</ele>
        <time>2023-12-13T19:23:18Z</time>
      </trkpt>
      <trkpt lat="44.29626" lon="1.83772">
        <ele>419</ele>
        <time>2023-12-13T19:23:31Z</time>
      </trkpt>
      <trkpt lat="44.29625" lon="1.83801">
        <ele>421</ele>
        <time>2023-12-13T19:23:35Z</time>
      </trkpt>
      <trkpt lat="44.29618" lon="1.83834">
        <ele>423</ele>
        <time>2023-12-13T19:23:40Z</time>
      </trkpt>
      <trkpt lat="44.29576" lon="1.83996">
        <ele>413</ele>
        <time>2023-12-13T19:24:01Z</time>
      </trkpt>
      <trkpt lat="44.29563" lon="1.84062">
        <ele>411</ele>
        <time>2023-12-13T19:24:10Z</time>
      </trkpt>
      <trkpt lat="44.29545" lon="1.84206">
        <ele>408</ele>
        <time>2023-12-13T19:24:29Z</time>
      </trkpt>
      <trkpt lat="44.29538" lon="1.84237">
        <ele>408</ele>
        <time>2023-12-13T19:24:33Z</time>
      </trkpt>
      <trkpt lat="44.29529" lon="1.84258">
        <ele>408</ele>
        <time>2023-12-13T19:24:36Z</time>
      </trkpt>
      <trkpt lat="44.29513" lon="1.84276">
        <ele>408</ele>
        <time>2023-12-13T19:24:40Z</time>
      </trkpt>
      <trkpt lat="44.29425" lon="1.84322">
        <ele>409</ele>
        <time>2023-12-13T19:24:56Z</time>
      </trkpt>
      <trkpt lat="44.29406" lon="1.84339">
        <ele>410</ele>
        <time>2023-12-13T19:25:00Z</time>
      </trkpt>
      <trkpt lat="44.29363" lon="1.84385">
        <ele>411</ele>
        <time>2023-12-13T19:25:10Z</time>
      </trkpt>
      <trkpt lat="44.29349" lon="1.84395">
        <ele>412</ele>
        <time>2023-12-13T19:25:13Z</time>
      </trkpt>
      <trkpt lat="44.29323" lon="1.84412">
        <ele>415</ele>
        <time>2023-12-13T19:25:18Z</time>
      </trkpt>
      <trkpt lat="44.29221" lon="1.84463">
        <ele>416</ele>
        <time>2023-12-13T19:25:37Z</time>
      </trkpt>
      <trkpt lat="44.29056" lon="1.84479">
        <ele>415</ele>
        <time>2023-12-13T19:26:07Z</time>
      </trkpt>
      <trkpt lat="44.28984" lon="1.84469">
        <ele>415</ele>
        <time>2023-12-13T19:26:20Z</time>
      </trkpt>
      <trkpt lat="44.28921" lon="1.84457">
        <ele>416</ele>
        <time>2023-12-13T19:26:31Z</time>
      </trkpt>
      <trkpt lat="44.28893" lon="1.84459">
        <ele>415</ele>
        <time>2023-12-13T19:26:36Z</time>
      </trkpt>
      <trkpt lat="44.28875" lon="1.84466">
        <ele>414</ele>
        <time>2023-12-13T19:26:39Z</time>
      </trkpt>
      <trkpt lat="44.28847" lon="1.84481">
        <ele>413</ele>
        <time>2023-12-13T19:26:45Z</time>
      </trkpt>
      <trkpt lat="44.28823" lon="1.84499">
        <ele>412</ele>
        <time>2023-12-13T19:26:49Z</time>
      </trkpt>
      <trkpt lat="44.28799" lon="1.84529">
        <ele>412</ele>
        <time>2023-12-13T19:26:55Z</time>
      </trkpt>
      <trkpt lat="44.28751" lon="1.84607">
        <ele>414</ele>
        <time>2023-12-13T19:27:08Z</time>
      </trkpt>
      <trkpt lat="44.28709" lon="1.84688">
        <ele>417</ele>
        <time>2023-12-13T19:27:21Z</time>
      </trkpt>
      <trkpt lat="44.2862" lon="1.84897">
        <ele>411</ele>
        <time>2023-12-13T19:27:52Z</time>
      </trkpt>
      <trkpt lat="44.28603" lon="1.84925">
        <ele>409</ele>
        <time>2023-12-13T19:27:57Z</time>
      </trkpt>
      <trkpt lat="44.28582" lon="1.84948">
        <ele>408</ele>
        <time>2023-12-13T19:28:01Z</time>
      </trkpt>
      <trkpt lat="44.2838" lon="1.85127">
        <ele>408</ele>
        <time>2023-12-13T19:28:44Z</time>
      </trkpt>
      <trkpt lat="44.28358" lon="1.85157">
        <ele>409</ele>
        <time>2023-12-13T19:28:49Z</time>
      </trkpt>
      <trkpt lat="44.2834" lon="1.85193">
        <ele>409</ele>
        <time>2023-12-13T19:28:55Z</time>
      </trkpt>
      <trkpt lat="44.2832" lon="1.85237">
        <ele>408</ele>
        <time>2023-12-13T19:29:02Z</time>
      </trkpt>
      <trkpt lat="44.28312" lon="1.8527">
        <ele>408</ele>
        <time>2023-12-13T19:29:06Z</time>
      </trkpt>
      <trkpt lat="44.28204" lon="1.85847">
        <ele>398</ele>
        <time>2023-12-13T19:30:22Z</time>
      </trkpt>
      <trkpt lat="44.28191" lon="1.85837">
        <ele>398</ele>
        <time>2023-12-13T19:30:25Z</time>
      </trkpt>
      <trkpt lat="44.28152" lon="1.85813">
        <ele>397</ele>
        <time>2023-12-13T19:30:32Z</time>
      </trkpt>
      <trkpt lat="44.28103" lon="1.85801">
        <ele>394</ele>
        <time>2023-12-13T19:30:41Z</time>
      </trkpt>
      <trkpt lat="44.27568" lon="1.85717">
        <ele>384</ele>
        <time>2023-12-13T19:32:17Z</time>
      </trkpt>
      <trkpt lat="44.27116" lon="1.85644">
        <ele>393</ele>
        <time>2023-12-13T19:33:38Z</time>
      </trkpt>
      <trkpt lat="44.26948" lon="1.85613">
        <ele>399</ele>
        <time>2023-12-13T19:34:08Z</time>
      </trkpt>
      <trkpt lat="44.26923" lon="1.85603">
        <ele>400</ele>
        <time>2023-12-13T19:34:13Z</time>
      </trkpt>
      <trkpt lat="44.26927" lon="1.85614">
        <ele>400</ele>
        <time>2023-12-13T19:34:14Z</time>
      </trkpt>
      <trkpt lat="44.26926" lon="1.85625">
        <ele>400</ele>
        <time>2023-12-13T19:34:16Z</time>
      </trkpt>
      <trkpt lat="44.26915" lon="1.85666">
        <ele>400</ele>
        <time>2023-12-13T19:34:21Z</time>
      </trkpt>
      <trkpt lat="44.26901" lon="1.8568">
        <ele>400</ele>
        <time>2023-12-13T19:34:24Z</time>
      </trkpt>
      <trkpt lat="44.26874" lon="1.85697">
        <ele>399</ele>
        <time>2023-12-13T19:34:30Z</time>
      </trkpt>
      <trkpt lat="44.26842" lon="1.85711">
        <ele>398</ele>
        <time>2023-12-13T19:34:35Z</time>
      </trkpt>
      <trkpt lat="44.26823" lon="1.85723">
        <ele>397</ele>
        <time>2023-12-13T19:34:39Z</time>
      </trkpt>
      <trkpt lat="44.26798" lon="1.85745">
        <ele>395</ele>
        <time>2023-12-13T19:34:44Z</time>
      </trkpt>
      <trkpt lat="44.26757" lon="1.85786">
        <ele>390</ele>
        <time>2023-12-13T19:34:53Z</time>
      </trkpt>
      <trkpt lat="44.26736" lon="1.85802">
        <ele>386</ele>
        <time>2023-12-13T19:34:58Z</time>
      </trkpt>
      <trkpt lat="44.26723" lon="1.85807">
        <ele>384</ele>
        <time>2023-12-13T19:35:00Z</time>
      </trkpt>
      <trkpt lat="44.2671" lon="1.85805">
        <ele>383</ele>
        <time>2023-12-13T19:35:02Z</time>
      </trkpt>
      <trkpt lat="44.26703" lon="1.85796">
        <ele>383</ele>
        <time>2023-12-13T19:35:04Z</time>
      </trkpt>
      <trkpt lat="44.26687" lon="1.85747">
        <ele>386</ele>
        <time>2023-12-13T19:35:11Z</time>
      </trkpt>
      <trkpt lat="44.26679" lon="1.85731">
        <ele>386</ele>
        <time>2023-12-13T19:35:13Z</time>
      </trkpt>
      <trkpt lat="44.26666" lon="1.8572">
        <ele>385</ele>
        <time>2023-12-13T19:35:16Z</time>
      </trkpt>
      <trkpt lat="44.26652" lon="1.85714">
        <ele>384</ele>
        <time>2023-12-13T19:35:19Z</time>
      </trkpt>
      <trkpt lat="44.26591" lon="1.85712">
        <ele>377</ele>
        <time>2023-12-13T19:35:30Z</time>
      </trkpt>
      <trkpt lat="44.26574" lon="1.85714">
        <ele>376</ele>
        <time>2023-12-13T19:35:33Z</time>
      </trkpt>
      <trkpt lat="44.26546" lon="1.85737">
        <ele>375</ele>
        <time>2023-12-13T19:35:38Z</time>
      </trkpt>
      <trkpt lat="44.26538" lon="1.8575">
        <ele>375</ele>
        <time>2023-12-13T19:35:41Z</time>
      </trkpt>
      <trkpt lat="44.26534" lon="1.85759">
        <ele>374</ele>
        <time>2023-12-13T19:35:42Z</time>
      </trkpt>
      <trkpt lat="44.26532" lon="1.85785">
        <ele>371</ele>
        <time>2023-12-13T19:35:45Z</time>
      </trkpt>
      <trkpt lat="44.26544" lon="1.85858">
        <ele>364</ele>
        <time>2023-12-13T19:35:55Z</time>
      </trkpt>
      <trkpt lat="44.26545" lon="1.85882">
        <ele>362</ele>
        <time>2023-12-13T19:35:58Z</time>
      </trkpt>
      <trkpt lat="44.2654" lon="1.85917">
        <ele>360</ele>
        <time>2023-12-13T19:36:02Z</time>
      </trkpt>
      <trkpt lat="44.26533" lon="1.85949">
        <ele>358</ele>
        <time>2023-12-13T19:36:07Z</time>
      </trkpt>
      <trkpt lat="44.26526" lon="1.85964">
        <ele>358</ele>
        <time>2023-12-13T19:36:09Z</time>
      </trkpt>
      <trkpt lat="44.26515" lon="1.85977">
        <ele>357</ele>
        <time>2023-12-13T19:36:12Z</time>
      </trkpt>
      <trkpt lat="44.26498" lon="1.85983">
        <ele>357</ele>
        <time>2023-12-13T19:36:15Z</time>
      </trkpt>
      <trkpt lat="44.26488" lon="1.85984">
        <ele>356</ele>
        <time>2023-12-13T19:36:16Z</time>
      </trkpt>
      <trkpt lat="44.26471" lon="1.85977">
        <ele>356</ele>
        <time>2023-12-13T19:36:20Z</time>
      </trkpt>
      <trkpt lat="44.26401" lon="1.8593">
        <ele>353</ele>
        <time>2023-12-13T19:36:33Z</time>
      </trkpt>
      <trkpt lat="44.26372" lon="1.85916">
        <ele>352</ele>
        <time>2023-12-13T19:36:39Z</time>
      </trkpt>
      <trkpt lat="44.26309" lon="1.85897">
        <ele>348</ele>
        <time>2023-12-13T19:36:50Z</time>
      </trkpt>
      <trkpt lat="44.26277" lon="1.85881">
        <ele>345</ele>
        <time>2023-12-13T19:36:56Z</time>
      </trkpt>
      <trkpt lat="44.26261" lon="1.85865">
        <ele>344</ele>
        <time>2023-12-13T19:37:00Z</time>
      </trkpt>
      <trkpt lat="44.26247" lon="1.85844">
        <ele>344</ele>
        <time>2023-12-13T19:37:04Z</time>
      </trkpt>
      <trkpt lat="44.26231" lon="1.85823">
        <ele>344</ele>
        <time>2023-12-13T19:37:07Z</time>
      </trkpt>
      <trkpt lat="44.26222" lon="1.85814">
        <ele>343</ele>
        <time>2023-12-13T19:37:09Z</time>
      </trkpt>
      <trkpt lat="44.26211" lon="1.85811">
        <ele>342</ele>
        <time>2023-12-13T19:37:11Z</time>
      </trkpt>
      <trkpt lat="44.26198" lon="1.85814">
        <ele>341</ele>
        <time>2023-12-13T19:37:14Z</time>
      </trkpt>
      <trkpt lat="44.26166" lon="1.85831">
        <ele>336</ele>
        <time>2023-12-13T19:37:20Z</time>
      </trkpt>
      <trkpt lat="44.26151" lon="1.85832">
        <ele>334</ele>
        <time>2023-12-13T19:37:23Z</time>
      </trkpt>
      <trkpt lat="44.26136" lon="1.85827">
        <ele>333</ele>
        <time>2023-12-13T19:37:25Z</time>
      </trkpt>
      <trkpt lat="44.2612" lon="1.85817">
        <ele>332</ele>
        <time>2023-12-13T19:37:28Z</time>
      </trkpt>
      <trkpt lat="44.2607" lon="1.85761">
        <ele>333</ele>
        <time>2023-12-13T19:37:40Z</time>
      </trkpt>
      <trkpt lat="44.26042" lon="1.85745">
        <ele>333</ele>
        <time>2023-12-13T19:37:45Z</time>
      </trkpt>
      <trkpt lat="44.26024" lon="1.85743">
        <ele>332</ele>
        <time>2023-12-13T19:37:48Z</time>
      </trkpt>
      <trkpt lat="44.25988" lon="1.85744">
        <ele>329</ele>
        <time>2023-12-13T19:37:55Z</time>
      </trkpt>
      <trkpt lat="44.25879" lon="1.85752">
        <ele>320</ele>
        <time>2023-12-13T19:38:14Z</time>
      </trkpt>
      <trkpt lat="44.25826" lon="1.8575">
        <ele>316</ele>
        <time>2023-12-13T19:38:24Z</time>
      </trkpt>
      <trkpt lat="44.25812" lon="1.85747">
        <ele>315</ele>
        <time>2023-12-13T19:38:26Z</time>
      </trkpt>
      <trkpt lat="44.25648" lon="1.85688">
        <ele>306</ele>
        <time>2023-12-13T19:38:56Z</time>
      </trkpt>
      <trkpt lat="44.25631" lon="1.85684">
        <ele>306</ele>
        <time>2023-12-13T19:38:59Z</time>
      </trkpt>
      <trkpt lat="44.25611" lon="1.85684">
        <ele>306</ele>
        <time>2023-12-13T19:39:03Z</time>
      </trkpt>
      <trkpt lat="44.25461" lon="1.857">
        <ele>311</ele>
        <time>2023-12-13T19:39:30Z</time>
      </trkpt>
      <trkpt lat="44.25405" lon="1.85713">
        <ele>312</ele>
        <time>2023-12-13T19:39:40Z</time>
      </trkpt>
      <trkpt lat="44.2538" lon="1.85715">
        <ele>314</ele>
        <time>2023-12-13T19:39:44Z</time>
      </trkpt>
      <trkpt lat="44.25355" lon="1.85712">
        <ele>315</ele>
        <time>2023-12-13T19:39:49Z</time>
      </trkpt>
      <trkpt lat="44.25332" lon="1.85704">
        <ele>316</ele>
        <time>2023-12-13T19:39:53Z</time>
      </trkpt>
      <trkpt lat="44.25306" lon="1.85688">
        <ele>318</ele>
        <time>2023-12-13T19:39:58Z</time>
      </trkpt>
      <trkpt lat="44.25281" lon="1.85667">
        <ele>320</ele>
        <time>2023-12-13T19:40:03Z</time>
      </trkpt>
      <trkpt lat="44.2524" lon="1.8561">
        <ele>323</ele>
        <time>2023-12-13T19:40:13Z</time>
      </trkpt>
      <trkpt lat="44.25223" lon="1.85588">
        <ele>324</ele>
        <time>2023-12-13T19:40:18Z</time>
      </trkpt>
      <trkpt lat="44.25209" lon="1.85575">
        <ele>324</ele>
        <time>2023-12-13T19:40:21Z</time>
      </trkpt>
      <trkpt lat="44.2517" lon="1.85551">
        <ele>325</ele>
        <time>2023-12-13T19:40:28Z</time>
      </trkpt>
      <trkpt lat="44.25152" lon="1.85535">
        <ele>326</ele>
        <time>2023-12-13T19:40:32Z</time>
      </trkpt>
      <trkpt lat="44.25134" lon="1.85511">
        <ele>327</ele>
        <time>2023-12-13T19:40:36Z</time>
      </trkpt>
      <trkpt lat="44.25122" lon="1.85483">
        <ele>330</ele>
        <time>2023-12-13T19:40:41Z</time>
      </trkpt>
      <trkpt lat="44.25099" lon="1.85401">
        <ele>335</ele>
        <time>2023-12-13T19:40:52Z</time>
      </trkpt>
      <trkpt lat="44.25087" lon="1.85371">
        <ele>337</ele>
        <time>2023-12-13T19:40:56Z</time>
      </trkpt>
      <trkpt lat="44.25067" lon="1.85343">
        <ele>337</ele>
        <time>2023-12-13T19:41:01Z</time>
      </trkpt>
      <trkpt lat="44.25045" lon="1.85322">
        <ele>337</ele>
        <time>2023-12-13T19:41:06Z</time>
      </trkpt>
      <trkpt lat="44.2503" lon="1.85314">
        <ele>337</ele>
        <time>2023-12-13T19:41:09Z</time>
      </trkpt>
      <trkpt lat="44.25012" lon="1.8531">
        <ele>338</ele>
        <time>2023-12-13T19:41:12Z</time>
      </trkpt>
      <trkpt lat="44.24988" lon="1.85308">
        <ele>337</ele>
        <time>2023-12-13T19:41:16Z</time>
      </trkpt>
      <trkpt lat="44.24934" lon="1.85312">
        <ele>336</ele>
        <time>2023-12-13T19:41:26Z</time>
      </trkpt>
      <trkpt lat="44.24905" lon="1.85317">
        <ele>336</ele>
        <time>2023-12-13T19:41:31Z</time>
      </trkpt>
      <trkpt lat="44.24859" lon="1.85327">
        <ele>337</ele>
        <time>2023-12-13T19:41:39Z</time>
      </trkpt>
      <trkpt lat="44.2481" lon="1.85342">
        <ele>337</ele>
        <time>2023-12-13T19:41:48Z</time>
      </trkpt>
      <trkpt lat="44.24713" lon="1.85364">
        <ele>334</ele>
        <time>2023-12-13T19:42:06Z</time>
      </trkpt>
      <trkpt lat="44.24628" lon="1.85396">
        <ele>330</ele>
        <time>2023-12-13T19:42:22Z</time>
      </trkpt>
      <trkpt lat="44.24606" lon="1.85396">
        <ele>328</ele>
        <time>2023-12-13T19:42:25Z</time>
      </trkpt>
      <trkpt lat="44.24584" lon="1.85388">
        <ele>327</ele>
        <time>2023-12-13T19:42:29Z</time>
      </trkpt>
      <trkpt lat="44.24509" lon="1.85335">
        <ele>322</ele>
        <time>2023-12-13T19:42:44Z</time>
      </trkpt>
      <trkpt lat="44.24485" lon="1.85311">
        <ele>320</ele>
        <time>2023-12-13T19:42:50Z</time>
      </trkpt>
      <trkpt lat="44.24423" lon="1.85241">
        <ele>316</ele>
        <time>2023-12-13T19:43:04Z</time>
      </trkpt>
      <trkpt lat="44.2438" lon="1.85201">
        <ele>314</ele>
        <time>2023-12-13T19:43:13Z</time>
      </trkpt>
      <trkpt lat="44.24363" lon="1.85182">
        <ele>313</ele>
        <time>2023-12-13T19:43:17Z</time>
      </trkpt>
      <trkpt lat="44.24339" lon="1.85146">
        <ele>314</ele>
        <time>2023-12-13T19:43:23Z</time>
      </trkpt>
      <trkpt lat="44.24286" lon="1.85058">
        <ele>315</ele>
        <time>2023-12-13T19:43:38Z</time>
      </trkpt>
      <trkpt lat="44.2426" lon="1.85019">
        <ele>314</ele>
        <time>2023-12-13T19:43:45Z</time>
      </trkpt>
      <trkpt lat="44.24203" lon="1.84944">
        <ele>313</ele>
        <time>2023-12-13T19:43:59Z</time>
      </trkpt>
      <trkpt lat="44.24173" lon="1.84915">
        <ele>311</ele>
        <time>2023-12-13T19:44:05Z</time>
      </trkpt>
      <trkpt lat="44.24144" lon="1.8489">
        <ele>309</ele>
        <time>2023-12-13T19:44:11Z</time>
      </trkpt>
      <trkpt lat="44.24103" lon="1.84859">
        <ele>307</ele>
        <time>2023-12-13T19:44:19Z</time>
      </trkpt>
      <trkpt lat="44.2406" lon="1.8482">
        <ele>307</ele>
        <time>2023-12-13T19:44:29Z</time>
      </trkpt>
      <trkpt lat="44.24037" lon="1.84797">
        <ele>306</ele>
        <time>2023-12-13T19:44:34Z</time>
      </trkpt>
      <trkpt lat="44.23992" lon="1.84743">
        <ele>304</ele>
        <time>2023-12-13T19:44:44Z</time>
      </trkpt>
      <trkpt lat="44.23973" lon="1.84729">
        <ele>302</ele>
        <time>2023-12-13T19:44:48Z</time>
      </trkpt>
      <trkpt lat="44.23949" lon="1.84723">
        <ele>301</ele>
        <time>2023-12-13T19:44:52Z</time>
      </trkpt>
      <trkpt lat="44.23929" lon="1.84724">
        <ele>300</ele>
        <time>2023-12-13T19:44:56Z</time>
      </trkpt>
      <trkpt lat="44.23905" lon="1.84729">
        <ele>299</ele>
        <time>2023-12-13T19:45:00Z</time>
      </trkpt>
      <trkpt lat="44.23888" lon="1.84742">
        <ele>298</ele>
        <time>2023-12-13T19:45:04Z</time>
      </trkpt>
      <trkpt lat="44.23869" lon="1.84769">
        <ele>297</ele>
        <time>2023-12-13T19:45:08Z</time>
      </trkpt>
      <trkpt lat="44.23852" lon="1.84786">
        <ele>296</ele>
        <time>2023-12-13T19:45:12Z</time>
      </trkpt>
      <trkpt lat="44.23835" lon="1.84799">
        <ele>295</ele>
        <time>2023-12-13T19:45:16Z</time>
      </trkpt>
      <trkpt lat="44.23784" lon="1.84815">
        <ele>292</ele>
        <time>2023-12-13T19:45:25Z</time>
      </trkpt>
      <trkpt lat="44.2375" lon="1.8482">
        <ele>289</ele>
        <time>2023-12-13T19:45:31Z</time>
      </trkpt>
      <trkpt lat="44.2372" lon="1.84822">
        <ele>285</ele>
        <time>2023-12-13T19:45:36Z</time>
      </trkpt>
      <trkpt lat="44.2369" lon="1.84816">
        <ele>282</ele>
        <time>2023-12-13T19:45:42Z</time>
      </trkpt>
      <trkpt lat="44.23644" lon="1.8479">
        <ele>282</ele>
        <time>2023-12-13T19:45:51Z</time>
      </trkpt>
      <trkpt lat="44.23575" lon="1.84724">
        <ele>287</ele>
        <time>2023-12-13T19:46:05Z</time>
      </trkpt>
      <trkpt lat="44.23551" lon="1.84713">
        <ele>287</ele>
        <time>2023-12-13T19:46:10Z</time>
      </trkpt>
      <trkpt lat="44.23404" lon="1.84678">
        <ele>275</ele>
        <time>2023-12-13T19:46:37Z</time>
      </trkpt>
      <trkpt lat="44.23384" lon="1.8467">
        <ele>273</ele>
        <time>2023-12-13T19:46:40Z</time>
      </trkpt>
      <trkpt lat="44.2324" lon="1.84588">
        <ele>265</ele>
        <time>2023-12-13T19:47:08Z</time>
      </trkpt>
      <trkpt lat="44.2311" lon="1.84536">
        <ele>253</ele>
        <time>2023-12-13T19:47:32Z</time>
      </trkpt>
      <trkpt lat="44.23072" lon="1.845">
        <ele>250</ele>
        <time>2023-12-13T19:47:40Z</time>
      </trkpt>
      <trkpt lat="44.23055" lon="1.84474">
        <ele>247</ele>
        <time>2023-12-13T19:47:45Z</time>
      </trkpt>
      <trkpt lat="44.23026" lon="1.84449">
        <ele>243</ele>
        <time>2023-12-13T19:47:51Z</time>
      </trkpt>
      <trkpt lat="44.23009" lon="1.84441">
        <ele>240</ele>
        <time>2023-12-13T19:47:54Z</time>
      </trkpt>
      <trkpt lat="44.22965" lon="1.84416">
        <ele>241</ele>
        <time>2023-12-13T19:48:02Z</time>
      </trkpt>
      <trkpt lat="44.22948" lon="1.84409">
        <ele>243</ele>
        <time>2023-12-13T19:48:05Z</time>
      </trkpt>
      <trkpt lat="44.22935" lon="1.84413">
        <ele>243</ele>
        <time>2023-12-13T19:48:08Z</time>
      </trkpt>
      <trkpt lat="44.2292" lon="1.84426">
        <ele>242</ele>
        <time>2023-12-13T19:48:11Z</time>
      </trkpt>
      <trkpt lat="44.22824" lon="1.84554">
        <ele>243</ele>
        <time>2023-12-13T19:48:35Z</time>
      </trkpt>
      <trkpt lat="44.22788" lon="1.84591">
        <ele>247</ele>
        <time>2023-12-13T19:48:43Z</time>
      </trkpt>
      <trkpt lat="44.22763" lon="1.84611">
        <ele>250</ele>
        <time>2023-12-13T19:48:48Z</time>
      </trkpt>
      <trkpt lat="44.22743" lon="1.84634">
        <ele>248</ele>
        <time>2023-12-13T19:48:52Z</time>
      </trkpt>
      <trkpt lat="44.22684" lon="1.84725">
        <ele>248</ele>
        <time>2023-12-13T19:49:08Z</time>
      </trkpt>
      <trkpt lat="44.22638" lon="1.84788">
        <ele>249</ele>
        <time>2023-12-13T19:49:19Z</time>
      </trkpt>
      <trkpt lat="44.22619" lon="1.84824">
        <ele>249</ele>
        <time>2023-12-13T19:49:25Z</time>
      </trkpt>
      <trkpt lat="44.22561" lon="1.84972">
        <ele>244</ele>
        <time>2023-12-13T19:49:47Z</time>
      </trkpt>
      <trkpt lat="44.22542" lon="1.85007">
        <ele>244</ele>
        <time>2023-12-13T19:49:52Z</time>
      </trkpt>
      <trkpt lat="44.22525" lon="1.85039">
        <ele>243</ele>
        <time>2023-12-13T19:49:57Z</time>
      </trkpt>
      <trkpt lat="44.22487" lon="1.85088">
        <ele>242</ele>
        <time>2023-12-13T19:50:07Z</time>
      </trkpt>
      <trkpt lat="44.22449" lon="1.85155">
        <ele>237</ele>
        <time>2023-12-13T19:50:17Z</time>
      </trkpt>
      <trkpt lat="44.2243" lon="1.85186">
        <ele>236</ele>
        <time>2023-12-13T19:50:23Z</time>
      </trkpt>
      <trkpt lat="44.22407" lon="1.85208">
        <ele>237</ele>
        <time>2023-12-13T19:50:28Z</time>
      </trkpt>
      <trkpt lat="44.22386" lon="1.85224">
        <ele>237</ele>
        <time>2023-12-13T19:50:32Z</time>
      </trkpt>
      <trkpt lat="44.22323" lon="1.85257">
        <ele>234</ele>
        <time>2023-12-13T19:50:44Z</time>
      </trkpt>
      <trkpt lat="44.22298" lon="1.85266">
        <ele>234</ele>
        <time>2023-12-13T19:50:48Z</time>
      </trkpt>
      <trkpt lat="44.22259" lon="1.85274">
        <ele>235</ele>
        <time>2023-12-13T19:50:55Z</time>
      </trkpt>
      <trkpt lat="44.22228" lon="1.85275">
        <ele>233</ele>
        <time>2023-12-13T19:51:01Z</time>
      </trkpt>
      <trkpt lat="44.22206" lon="1.85274">
        <ele>232</ele>
        <time>2023-12-13T19:51:05Z</time>
      </trkpt>
      <trkpt lat="44.22189" lon="1.85269">
        <ele>232</ele>
        <time>2023-12-13T19:51:08Z</time>
      </trkpt>
      <trkpt lat="44.22166" lon="1.85253">
        <ele>232</ele>
        <time>2023-12-13T19:51:13Z</time>
      </trkpt>
      <trkpt lat="44.22128" lon="1.85218">
        <ele>235</ele>
        <time>2023-12-13T19:51:21Z</time>
      </trkpt>
      <trkpt lat="44.22086" lon="1.85176">
        <ele>233</ele>
        <time>2023-12-13T19:51:30Z</time>
      </trkpt>
      <trkpt lat="44.22039" lon="1.85125">
        <ele>235</ele>
        <time>2023-12-13T19:51:40Z</time>
      </trkpt>
      <trkpt lat="44.21998" lon="1.85087">
        <ele>233</ele>
        <time>2023-12-13T19:51:49Z</time>
      </trkpt>
      <trkpt lat="44.21956" lon="1.85063">
        <ele>236</ele>
        <time>2023-12-13T19:51:57Z</time>
      </trkpt>
      <trkpt lat="44.2187" lon="1.85032">
        <ele>236</ele>
        <time>2023-12-13T19:52:13Z</time>
      </trkpt>
      <trkpt lat="44.21757" lon="1.85002">
        <ele>234</ele>
        <time>2023-12-13T19:52:33Z</time>
      </trkpt>
      <trkpt lat="44.21709" lon="1.84996">
        <ele>234</ele>
        <time>2023-12-13T19:52:42Z</time>
      </trkpt>
      <trkpt lat="44.21662" lon="1.84994">
        <ele>234</ele>
        <time>2023-12-13T19:52:50Z</time>
      </trkpt>
      <trkpt lat="44.21625" lon="1.84997">
        <ele>235</ele>
        <time>2023-12-13T19:52:57Z</time>
      </trkpt>
      <trkpt lat="44.21534" lon="1.85017">
        <ele>241</ele>
        <time>2023-12-13T19:53:13Z</time>
      </trkpt>
      <trkpt lat="44.21487" lon="1.85041">
        <ele>241</ele>
        <time>2023-12-13T19:53:22Z</time>
      </trkpt>
      <trkpt lat="44.21439" lon="1.85077">
        <ele>239</ele>
        <time>2023-12-13T19:53:32Z</time>
      </trkpt>
      <trkpt lat="44.21292" lon="1.85233">
        <ele>235</ele>
        <time>2023-12-13T19:54:05Z</time>
      </trkpt>
      <trkpt lat="44.21227" lon="1.8528">
        <ele>236</ele>
        <time>2023-12-13T19:54:18Z</time>
      </trkpt>
      <trkpt lat="44.211" lon="1.85352">
        <ele>230</ele>
        <time>2023-12-13T19:54:42Z</time>
      </trkpt>
      <trkpt lat="44.21083" lon="1.85357">
        <ele>229</ele>
        <time>2023-12-13T19:54:45Z</time>
      </trkpt>
      <trkpt lat="44.2107" lon="1.85355">
        <ele>228</ele>
        <time>2023-12-13T19:54:48Z</time>
      </trkpt>
      <trkpt lat="44.21047" lon="1.85338">
        <ele>226</ele>
        <time>2023-12-13T19:54:52Z</time>
      </trkpt>
      <trkpt lat="44.20969" lon="1.85272">
        <ele>233</ele>
        <time>2023-12-13T19:55:09Z</time>
      </trkpt>
      <trkpt lat="44.2095" lon="1.85265">
        <ele>235</ele>
        <time>2023-12-13T19:55:12Z</time>
      </trkpt>
      <trkpt lat="44.20933" lon="1.85266">
        <ele>235</ele>
        <time>2023-12-13T19:55:15Z</time>
      </trkpt>
      <trkpt lat="44.20916" lon="1.85278">
        <ele>232</ele>
        <time>2023-12-13T19:55:18Z</time>
      </trkpt>
      <trkpt lat="44.20888" lon="1.85305">
        <ele>231</ele>
        <time>2023-12-13T19:55:25Z</time>
      </trkpt>
      <trkpt lat="44.20864" lon="1.85335">
        <ele>230</ele>
        <time>2023-12-13T19:55:30Z</time>
      </trkpt>
      <trkpt lat="44.20815" lon="1.85416">
        <ele>219</ele>
        <time>2023-12-13T19:55:44Z</time>
      </trkpt>
      <trkpt lat="44.20799" lon="1.85432">
        <ele>219</ele>
        <time>2023-12-13T19:55:47Z</time>
      </trkpt>
      <trkpt lat="44.20784" lon="1.85442">
        <ele>219</ele>
        <time>2023-12-13T19:55:50Z</time>
      </trkpt>
      <trkpt lat="44.20746" lon="1.85459">
        <ele>218</ele>
        <time>2023-12-13T19:55:57Z</time>
      </trkpt>
      <trkpt lat="44.20698" lon="1.85507">
        <ele>215</ele>
        <time>2023-12-13T19:56:08Z</time>
      </trkpt>
      <trkpt lat="44.20688" lon="1.85518">
        <ele>217</ele>
        <time>2023-12-13T19:56:10Z</time>
      </trkpt>
      <trkpt lat="44.20683" lon="1.85523">
        <ele>218</ele>
        <time>2023-12-13T19:56:11Z</time>
      </trkpt>
      <trkpt lat="44.20675" lon="1.85525">
        <ele>218</ele>
        <time>2023-12-13T19:56:13Z</time>
      </trkpt>
      <trkpt lat="44.2066" lon="1.85525">
        <ele>219</ele>
        <time>2023-12-13T19:56:15Z</time>
      </trkpt>
      <trkpt lat="44.20648" lon="1.85519">
        <ele>220</ele>
        <time>2023-12-13T19:56:18Z</time>
      </trkpt>
      <trkpt lat="44.20635" lon="1.85505">
        <ele>219</ele>
        <time>2023-12-13T19:56:21Z</time>
      </trkpt>
      <trkpt lat="44.20606" lon="1.85465">
        <ele>219</ele>
        <time>2023-12-13T19:56:28Z</time>
      </trkpt>
      <trkpt lat="44.20589" lon="1.85445">
        <ele>217</ele>
        <time>2023-12-13T19:56:32Z</time>
      </trkpt>
      <trkpt lat="44.20575" lon="1.85432">
        <ele>214</ele>
        <time>2023-12-13T19:56:35Z</time>
      </trkpt>
      <trkpt lat="44.20562" lon="1.85426">
        <ele>212</ele>
        <time>2023-12-13T19:56:37Z</time>
      </trkpt>
      <trkpt lat="44.2055" lon="1.85426">
        <ele>211</ele>
        <time>2023-12-13T19:56:39Z</time>
      </trkpt>
      <trkpt lat="44.20537" lon="1.85431">
        <ele>211</ele>
        <time>2023-12-13T19:56:42Z</time>
      </trkpt>
      <trkpt lat="44.20519" lon="1.85448">
        <ele>212</ele>
        <time>2023-12-13T19:56:46Z</time>
      </trkpt>
      <trkpt lat="44.205" lon="1.85477">
        <ele>213</ele>
        <time>2023-12-13T19:56:51Z</time>
      </trkpt>
      <trkpt lat="44.20476" lon="1.85527">
        <ele>216</ele>
        <time>2023-12-13T19:56:58Z</time>
      </trkpt>
      <trkpt lat="44.20436" lon="1.85591">
        <ele>215</ele>
        <time>2023-12-13T19:57:09Z</time>
      </trkpt>
      <trkpt lat="44.20417" lon="1.85615">
        <ele>216</ele>
        <time>2023-12-13T19:57:14Z</time>
      </trkpt>
      <trkpt lat="44.20392" lon="1.85639">
        <ele>217</ele>
        <time>2023-12-13T19:57:19Z</time>
      </trkpt>
      <trkpt lat="44.20306" lon="1.85693">
        <ele>213</ele>
        <time>2023-12-13T19:57:36Z</time>
      </trkpt>
      <trkpt lat="44.20244" lon="1.85721">
        <ele>210</ele>
        <time>2023-12-13T19:57:47Z</time>
      </trkpt>
      <trkpt lat="44.20184" lon="1.8574">
        <ele>205</ele>
        <time>2023-12-13T19:57:58Z</time>
      </trkpt>
      <trkpt lat="44.20161" lon="1.85751">
        <ele>203</ele>
        <time>2023-12-13T19:58:03Z</time>
      </trkpt>
      <trkpt lat="44.20141" lon="1.8577">
        <ele>204</ele>
        <time>2023-12-13T19:58:07Z</time>
      </trkpt>
      <trkpt lat="44.20122" lon="1.85803">
        <ele>205</ele>
        <time>2023-12-13T19:58:12Z</time>
      </trkpt>
      <trkpt lat="44.2011" lon="1.85846">
        <ele>205</ele>
        <time>2023-12-13T19:58:18Z</time>
      </trkpt>
      <trkpt lat="44.20103" lon="1.85899">
        <ele>206</ele>
        <time>2023-12-13T19:58:25Z</time>
      </trkpt>
      <trkpt lat="44.20094" lon="1.85938">
        <ele>207</ele>
        <time>2023-12-13T19:58:30Z</time>
      </trkpt>
      <trkpt lat="44.2008" lon="1.85984">
        <ele>207</ele>
        <time>2023-12-13T19:58:37Z</time>
      </trkpt>
      <trkpt lat="44.20069" lon="1.86012">
        <ele>208</ele>
        <time>2023-12-13T19:58:41Z</time>
      </trkpt>
      <trkpt lat="44.2005" lon="1.86043">
        <ele>208</ele>
        <time>2023-12-13T19:58:46Z</time>
      </trkpt>
      <trkpt lat="44.19959" lon="1.86167">
        <ele>202</ele>
        <time>2023-12-13T19:59:09Z</time>
      </trkpt>
      <trkpt lat="44.19938" lon="1.86209">
        <ele>201</ele>
        <time>2023-12-13T19:59:15Z</time>
      </trkpt>
      <trkpt lat="44.19872" lon="1.86362">
        <ele>200</ele>
        <time>2023-12-13T19:59:38Z</time>
      </trkpt>
      <trkpt lat="44.1983" lon="1.86454">
        <ele>197</ele>
        <time>2023-12-13T19:59:52Z</time>
      </trkpt>
      <trkpt lat="44.19674" lon="1.86739">
        <ele>194</ele>
        <time>2023-12-13T20:00:38Z</time>
      </trkpt>
      <trkpt lat="44.19562" lon="1.86939">
        <ele>193</ele>
        <time>2023-12-13T20:01:10Z</time>
      </trkpt>
      <trkpt lat="44.19507" lon="1.87025">
        <ele>192</ele>
        <time>2023-12-13T20:01:25Z</time>
      </trkpt>
      <trkpt lat="44.19078" lon="1.87636">
        <ele>193</ele>
        <time>2023-12-13T20:03:14Z</time>
      </trkpt>
      <trkpt lat="44.19005" lon="1.87747">
        <ele>194</ele>
        <time>2023-12-13T20:03:33Z</time>
      </trkpt>
      <trkpt lat="44.18969" lon="1.87792">
        <ele>194</ele>
        <time>2023-12-13T20:03:42Z</time>
      </trkpt>
      <trkpt lat="44.18967" lon="1.87795">
        <ele>194</ele>
        <time>2023-12-13T20:03:42Z</time>
      </trkpt>
      <trkpt lat="44.18945" lon="1.87823">
        <ele>194</ele>
        <time>2023-12-13T20:03:47Z</time>
      </trkpt>
      <trkpt lat="44.18925" lon="1.87841">
        <ele>194</ele>
        <time>2023-12-13T20:03:52Z</time>
      </trkpt>
      <trkpt lat="44.18916" lon="1.87843">
        <ele>194</ele>
        <time>2023-12-13T20:03:53Z</time>
      </trkpt>
      <trkpt lat="44.18897" lon="1.87847">
        <ele>195</ele>
        <time>2023-12-13T20:03:57Z</time>
      </trkpt>
      <trkpt lat="44.18844" lon="1.87831">
        <ele>198</ele>
        <time>2023-12-13T20:04:06Z</time>
      </trkpt>
      <trkpt lat="44.18826" lon="1.87824">
        <ele>199</ele>
        <time>2023-12-13T20:04:10Z</time>
      </trkpt>
      <trkpt lat="44.18809" lon="1.8781">
        <ele>201</ele>
        <time>2023-12-13T20:04:13Z</time>
      </trkpt>
      <trkpt lat="44.18796" lon="1.87785">
        <ele>203</ele>
        <time>2023-12-13T20:04:17Z</time>
      </trkpt>
      <trkpt lat="44.18793" lon="1.87753">
        <ele>205</ele>
        <time>2023-12-13T20:04:21Z</time>
      </trkpt>
      <trkpt lat="44.18798" lon="1.87691">
        <ele>207</ele>
        <time>2023-12-13T20:04:29Z</time>
      </trkpt>
      <trkpt lat="44.18804" lon="1.8764">
        <ele>206</ele>
        <time>2023-12-13T20:04:36Z</time>
      </trkpt>
      <trkpt lat="44.18802" lon="1.87605">
        <ele>206</ele>
        <time>2023-12-13T20:04:40Z</time>
      </trkpt>
      <trkpt lat="44.18795" lon="1.87572">
        <ele>206</ele>
        <time>2023-12-13T20:04:45Z</time>
      </trkpt>
      <trkpt lat="44.18784" lon="1.87542">
        <ele>206</ele>
        <time>2023-12-13T20:04:49Z</time>
      </trkpt>
      <trkpt lat="44.1877" lon="1.87516">
        <ele>206</ele>
        <time>2023-12-13T20:04:53Z</time>
      </trkpt>
      <trkpt lat="44.18756" lon="1.875">
        <ele>208</ele>
        <time>2023-12-13T20:04:56Z</time>
      </trkpt>
      <trkpt lat="44.18739" lon="1.87486">
        <ele>206</ele>
        <time>2023-12-13T20:05:00Z</time>
      </trkpt>
      <trkpt lat="44.18724" lon="1.87485">
        <ele>206</ele>
        <time>2023-12-13T20:05:03Z</time>
      </trkpt>
      <trkpt lat="44.18715" lon="1.87492">
        <ele>207</ele>
        <time>2023-12-13T20:05:04Z</time>
      </trkpt>
      <trkpt lat="44.18707" lon="1.87508">
        <ele>209</ele>
        <time>2023-12-13T20:05:07Z</time>
      </trkpt>
      <trkpt lat="44.18692" lon="1.8755">
        <ele>212</ele>
        <time>2023-12-13T20:05:13Z</time>
      </trkpt>
      <trkpt lat="44.18616" lon="1.87496">
        <ele>205</ele>
        <time>2023-12-13T20:05:28Z</time>
      </trkpt>
      <trkpt lat="44.18566" lon="1.87477">
        <ele>204</ele>
        <time>2023-12-13T20:05:37Z</time>
      </trkpt>
      <trkpt lat="44.1856" lon="1.87458">
        <ele>202</ele>
        <time>2023-12-13T20:05:40Z</time>
      </trkpt>
      <trkpt lat="44.1855" lon="1.87438">
        <ele>201</ele>
        <time>2023-12-13T20:05:43Z</time>
      </trkpt>
      <trkpt lat="44.18465" lon="1.8733">
        <ele>197</ele>
        <time>2023-12-13T20:06:03Z</time>
      </trkpt>
      <trkpt lat="44.18452" lon="1.87308">
        <ele>196</ele>
        <time>2023-12-13T20:06:07Z</time>
      </trkpt>
      <trkpt lat="44.18426" lon="1.87257">
        <ele>194</ele>
        <time>2023-12-13T20:06:15Z</time>
      </trkpt>
      <trkpt lat="44.18383" lon="1.87158">
        <ele>186</ele>
        <time>2023-12-13T20:06:30Z</time>
      </trkpt>
      <trkpt lat="44.18363" lon="1.87123">
        <ele>184</ele>
        <time>2023-12-13T20:06:36Z</time>
      </trkpt>
      <trkpt lat="44.18353" lon="1.87113">
        <ele>184</ele>
        <time>2023-12-13T20:06:38Z</time>
      </trkpt>
      <trkpt lat="44.18341" lon="1.87104">
        <ele>184</ele>
        <time>2023-12-13T20:06:40Z</time>
      </trkpt>
      <trkpt lat="44.18324" lon="1.87096">
        <ele>183</ele>
        <time>2023-12-13T20:06:43Z</time>
      </trkpt>
      <trkpt lat="44.18248" lon="1.87072">
        <ele>181</ele>
        <time>2023-12-13T20:06:57Z</time>
      </trkpt>
      <trkpt lat="44.18227" lon="1.87064">
        <ele>181</ele>
        <time>2023-12-13T20:07:01Z</time>
      </trkpt>
      <trkpt lat="44.18157" lon="1.87011">
        <ele>177</ele>
        <time>2023-12-13T20:07:15Z</time>
      </trkpt>
      <trkpt lat="44.18148" lon="1.87004">
        <ele>176</ele>
        <time>2023-12-13T20:07:17Z</time>
      </trkpt>
      <trkpt lat="44.18002" lon="1.86886">
        <ele>173</ele>
        <time>2023-12-13T20:07:47Z</time>
      </trkpt>
      <trkpt lat="44.17986" lon="1.86868">
        <ele>173</ele>
        <time>2023-12-13T20:07:51Z</time>
      </trkpt>
      <trkpt lat="44.17969" lon="1.86844">
        <ele>173</ele>
        <time>2023-12-13T20:07:55Z</time>
      </trkpt>
      <trkpt lat="44.17954" lon="1.86816">
        <ele>172</ele>
        <time>2023-12-13T20:08:00Z</time>
      </trkpt>
      <trkpt lat="44.17898" lon="1.86691">
        <ele>173</ele>
        <time>2023-12-13T20:08:18Z</time>
      </trkpt>
      <trkpt lat="44.1789" lon="1.86679">
        <ele>173</ele>
        <time>2023-12-13T20:08:20Z</time>
      </trkpt>
      <trkpt lat="44.17882" lon="1.86673">
        <ele>174</ele>
        <time>2023-12-13T20:08:22Z</time>
      </trkpt>
      <trkpt lat="44.17872" lon="1.8667">
        <ele>174</ele>
        <time>2023-12-13T20:08:24Z</time>
      </trkpt>
      <trkpt lat="44.17835" lon="1.86678">
        <ele>174</ele>
        <time>2023-12-13T20:08:31Z</time>
      </trkpt>
      <trkpt lat="44.17821" lon="1.86678">
        <ele>173</ele>
        <time>2023-12-13T20:08:33Z</time>
      </trkpt>
      <trkpt lat="44.1781" lon="1.86672">
        <ele>172</ele>
        <time>2023-12-13T20:08:35Z</time>
      </trkpt>
      <trkpt lat="44.17777" lon="1.86651">
        <ele>171</ele>
        <time>2023-12-13T20:08:42Z</time>
      </trkpt>
      <trkpt lat="44.17766" lon="1.86647">
        <ele>171</ele>
        <time>2023-12-13T20:08:44Z</time>
      </trkpt>
      <trkpt lat="44.17752" lon="1.86645">
        <ele>170</ele>
        <time>2023-12-13T20:08:46Z</time>
      </trkpt>
      <trkpt lat="44.1774" lon="1.86646">
        <ele>169</ele>
        <time>2023-12-13T20:08:48Z</time>
      </trkpt>
      <trkpt lat="44.17639" lon="1.86679">
        <ele>168</ele>
        <time>2023-12-13T20:09:07Z</time>
      </trkpt>
      <trkpt lat="44.1762" lon="1.86681">
        <ele>168</ele>
        <time>2023-12-13T20:09:10Z</time>
      </trkpt>
      <trkpt lat="44.17597" lon="1.8668">
        <ele>167</ele>
        <time>2023-12-13T20:09:14Z</time>
      </trkpt>
      <trkpt lat="44.17481" lon="1.86647">
        <ele>168</ele>
        <time>2023-12-13T20:09:35Z</time>
      </trkpt>
      <trkpt lat="44.17456" lon="1.86645">
        <ele>168</ele>
        <time>2023-12-13T20:09:40Z</time>
      </trkpt>
      <trkpt lat="44.17419" lon="1.86652">
        <ele>168</ele>
        <time>2023-12-13T20:09:46Z</time>
      </trkpt>
      <trkpt lat="44.17329" lon="1.86679">
        <ele>169</ele>
        <time>2023-12-13T20:10:03Z</time>
      </trkpt>
      <trkpt lat="44.17276" lon="1.86692">
        <ele>169</ele>
        <time>2023-12-13T20:10:12Z</time>
      </trkpt>
      <trkpt lat="44.17233" lon="1.86695">
        <ele>169</ele>
        <time>2023-12-13T20:10:20Z</time>
      </trkpt>
      <trkpt lat="44.17205" lon="1.8669">
        <ele>168</ele>
        <time>2023-12-13T20:10:25Z</time>
      </trkpt>
      <trkpt lat="44.17185" lon="1.86682">
        <ele>168</ele>
        <time>2023-12-13T20:10:29Z</time>
      </trkpt>
      <trkpt lat="44.17126" lon="1.86653">
        <ele>170</ele>
        <time>2023-12-13T20:10:40Z</time>
      </trkpt>
      <trkpt lat="44.17015" lon="1.86605">
        <ele>167</ele>
        <time>2023-12-13T20:11:01Z</time>
      </trkpt>
      <trkpt lat="44.16998" lon="1.866">
        <ele>166</ele>
        <time>2023-12-13T20:11:04Z</time>
      </trkpt>
      <trkpt lat="44.16983" lon="1.86598">
        <ele>167</ele>
        <time>2023-12-13T20:11:06Z</time>
      </trkpt>
      <trkpt lat="44.16958" lon="1.866">
        <ele>169</ele>
        <time>2023-12-13T20:11:11Z</time>
      </trkpt>
      <trkpt lat="44.169" lon="1.86624">
        <ele>168</ele>
        <time>2023-12-13T20:11:22Z</time>
      </trkpt>
      <trkpt lat="44.1683" lon="1.86662">
        <ele>165</ele>
        <time>2023-12-13T20:11:35Z</time>
      </trkpt>
      <trkpt lat="44.16809" lon="1.86665">
        <ele>164</ele>
        <time>2023-12-13T20:11:39Z</time>
      </trkpt>
      <trkpt lat="44.16792" lon="1.86659">
        <ele>164</ele>
        <time>2023-12-13T20:11:42Z</time>
      </trkpt>
      <trkpt lat="44.16776" lon="1.86648">
        <ele>164</ele>
        <time>2023-12-13T20:11:45Z</time>
      </trkpt>
      <trkpt lat="44.16755" lon="1.86622">
        <ele>165</ele>
        <time>2023-12-13T20:11:50Z</time>
      </trkpt>
      <trkpt lat="44.16725" lon="1.86565">
        <ele>168</ele>
        <time>2023-12-13T20:11:59Z</time>
      </trkpt>
      <trkpt lat="44.16688" lon="1.86509">
        <ele>167</ele>
        <time>2023-12-13T20:12:09Z</time>
      </trkpt>
      <trkpt lat="44.16648" lon="1.86454">
        <ele>169</ele>
        <time>2023-12-13T20:12:19Z</time>
      </trkpt>
      <trkpt lat="44.16621" lon="1.86406">
        <ele>170</ele>
        <time>2023-12-13T20:12:26Z</time>
      </trkpt>
      <trkpt lat="44.16583" lon="1.86319">
        <ele>170</ele>
        <time>2023-12-13T20:12:39Z</time>
      </trkpt>
      <trkpt lat="44.16565" lon="1.86294">
        <ele>169</ele>
        <time>2023-12-13T20:12:44Z</time>
      </trkpt>
      <trkpt lat="44.16507" lon="1.86226">
        <ele>163</ele>
        <time>2023-12-13T20:12:57Z</time>
      </trkpt>
      <trkpt lat="44.16459" lon="1.86175">
        <ele>159</ele>
        <time>2023-12-13T20:13:08Z</time>
      </trkpt>
      <trkpt lat="44.16441" lon="1.86166">
        <ele>159</ele>
        <time>2023-12-13T20:13:12Z</time>
      </trkpt>
      <trkpt lat="44.16185" lon="1.86061">
        <ele>159</ele>
        <time>2023-12-13T20:13:59Z</time>
      </trkpt>
      <trkpt lat="44.16068" lon="1.86018">
        <ele>158</ele>
        <time>2023-12-13T20:14:21Z</time>
      </trkpt>
      <trkpt lat="44.16035" lon="1.85994">
        <ele>157</ele>
        <time>2023-12-13T20:14:27Z</time>
      </trkpt>
      <trkpt lat="44.16" lon="1.85946">
        <ele>157</ele>
        <time>2023-12-13T20:14:36Z</time>
      </trkpt>
      <trkpt lat="44.15979" lon="1.85926">
        <ele>158</ele>
        <time>2023-12-13T20:14:41Z</time>
      </trkpt>
      <trkpt lat="44.15967" lon="1.85921">
        <ele>158</ele>
        <time>2023-12-13T20:14:43Z</time>
      </trkpt>
      <trkpt lat="44.15952" lon="1.85919">
        <ele>158</ele>
        <time>2023-12-13T20:14:45Z</time>
      </trkpt>
      <trkpt lat="44.15819" lon="1.85949">
        <ele>157</ele>
        <time>2023-12-13T20:15:09Z</time>
      </trkpt>
      <trkpt lat="44.15799" lon="1.85948">
        <ele>157</ele>
        <time>2023-12-13T20:15:13Z</time>
      </trkpt>
      <trkpt lat="44.1557" lon="1.85894">
        <ele>156</ele>
        <time>2023-12-13T20:15:54Z</time>
      </trkpt>
      <trkpt lat="44.15526" lon="1.85899">
        <ele>152</ele>
        <time>2023-12-13T20:16:02Z</time>
      </trkpt>
      <trkpt lat="44.15435" lon="1.85941">
        <ele>149</ele>
        <time>2023-12-13T20:16:19Z</time>
      </trkpt>
      <trkpt lat="44.15347" lon="1.85988">
        <ele>148</ele>
        <time>2023-12-13T20:16:36Z</time>
      </trkpt>
      <trkpt lat="44.15339" lon="1.85993">
        <ele>148</ele>
        <time>2023-12-13T20:16:38Z</time>
      </trkpt>
      <trkpt lat="44.15216" lon="1.86055">
        <ele>144</ele>
        <time>2023-12-13T20:17:01Z</time>
      </trkpt>
      <trkpt lat="44.15188" lon="1.86063">
        <ele>144</ele>
        <time>2023-12-13T20:17:06Z</time>
      </trkpt>
      <trkpt lat="44.15165" lon="1.86064">
        <ele>144</ele>
        <time>2023-12-13T20:17:10Z</time>
      </trkpt>
      <trkpt lat="44.15133" lon="1.86059">
        <ele>142</ele>
        <time>2023-12-13T20:17:16Z</time>
      </trkpt>
      <trkpt lat="44.14795" lon="1.85876">
        <ele>136</ele>
        <time>2023-12-13T20:18:20Z</time>
      </trkpt>
      <trkpt lat="44.14785" lon="1.85873">
        <ele>136</ele>
        <time>2023-12-13T20:18:22Z</time>
      </trkpt>
      <trkpt lat="44.14779" lon="1.85873">
        <ele>136</ele>
        <time>2023-12-13T20:18:23Z</time>
      </trkpt>
      <trkpt lat="44.14775" lon="1.85876">
        <ele>136</ele>
        <time>2023-12-13T20:18:24Z</time>
      </trkpt>
      <trkpt lat="44.14769" lon="1.8589">
        <ele>137</ele>
        <time>2023-12-13T20:18:26Z</time>
      </trkpt>
      <trkpt lat="44.14759" lon="1.85981">
        <ele>137</ele>
        <time>2023-12-13T20:18:38Z</time>
      </trkpt>
      <trkpt lat="44.14754" lon="1.86011">
        <ele>137</ele>
        <time>2023-12-13T20:18:42Z</time>
      </trkpt>
      <trkpt lat="44.14737" lon="1.86148">
        <ele>137</ele>
        <time>2023-12-13T20:18:59Z</time>
      </trkpt>
      <trkpt lat="44.14722" lon="1.86186">
        <ele>139</ele>
        <time>2023-12-13T20:19:05Z</time>
      </trkpt>
      <trkpt lat="44.14589" lon="1.86324">
        <ele>143</ele>
        <time>2023-12-13T20:19:34Z</time>
      </trkpt>
      <trkpt lat="44.14524" lon="1.86404">
        <ele>144</ele>
        <time>2023-12-13T20:19:50Z</time>
      </trkpt>
      <trkpt lat="44.14479" lon="1.86477">
        <ele>141</ele>
        <time>2023-12-13T20:20:02Z</time>
      </trkpt>
      <trkpt lat="44.14465" lon="1.86489">
        <ele>140</ele>
        <time>2023-12-13T20:20:05Z</time>
      </trkpt>
      <trkpt lat="44.14455" lon="1.86494">
        <ele>138</ele>
        <time>2023-12-13T20:20:07Z</time>
      </trkpt>
      <trkpt lat="44.14431" lon="1.8649">
        <ele>135</ele>
        <time>2023-12-13T20:20:11Z</time>
      </trkpt>
      <trkpt lat="44.14423" lon="1.86564">
        <ele>135</ele>
        <time>2023-12-13T20:20:21Z</time>
      </trkpt>
      <trkpt lat="44.14315" lon="1.87487">
        <ele>142</ele>
        <time>2023-12-13T20:22:20Z</time>
      </trkpt>
      <trkpt lat="44.14291" lon="1.875">
        <ele>139</ele>
        <time>2023-12-13T20:22:25Z</time>
      </trkpt>
      <trkpt lat="44.14283" lon="1.8751">
        <ele>139</ele>
        <time>2023-12-13T20:22:27Z</time>
      </trkpt>
      <trkpt lat="44.1428" lon="1.87528">
        <ele>139</ele>
        <time>2023-12-13T20:22:29Z</time>
      </trkpt>
      <trkpt lat="44.14282" lon="1.87563">
        <ele>141</ele>
        <time>2023-12-13T20:22:34Z</time>
      </trkpt>
      <trkpt lat="44.14281" lon="1.8759">
        <ele>142</ele>
        <time>2023-12-13T20:22:37Z</time>
      </trkpt>
      <trkpt lat="44.14265" lon="1.87716">
        <ele>141</ele>
        <time>2023-12-13T20:22:53Z</time>
      </trkpt>
      <trkpt lat="44.14257" lon="1.8776">
        <ele>140</ele>
        <time>2023-12-13T20:22:59Z</time>
      </trkpt>
      <trkpt lat="44.14234" lon="1.87845">
        <ele>139</ele>
        <time>2023-12-13T20:23:11Z</time>
      </trkpt>
      <trkpt lat="44.14229" lon="1.87857">
        <ele>139</ele>
        <time>2023-12-13T20:23:13Z</time>
      </trkpt>
      <trkpt lat="44.14212" lon="1.87888">
        <ele>139</ele>
        <time>2023-12-13T20:23:18Z</time>
      </trkpt>
      <trkpt lat="44.14184" lon="1.87926">
        <ele>139</ele>
        <time>2023-12-13T20:23:25Z</time>
      </trkpt>
      <trkpt lat="44.14155" lon="1.8796">
        <ele>137</ele>
        <time>2023-12-13T20:23:31Z</time>
      </trkpt>
      <trkpt lat="44.14143" lon="1.87969">
        <ele>136</ele>
        <time>2023-12-13T20:23:34Z</time>
      </trkpt>
      <trkpt lat="44.1412" lon="1.87976">
        <ele>134</ele>
        <time>2023-12-13T20:23:38Z</time>
      </trkpt>
      <trkpt lat="44.14075" lon="1.87973">
        <ele>132</ele>
        <time>2023-12-13T20:23:46Z</time>
      </trkpt>
      <trkpt lat="44.13968" lon="1.87955">
        <ele>134</ele>
        <time>2023-12-13T20:24:05Z</time>
      </trkpt>
      <trkpt lat="44.13918" lon="1.87934">
        <ele>132</ele>
        <time>2023-12-13T20:24:14Z</time>
      </trkpt>
      <trkpt lat="44.13827" lon="1.8789">
        <ele>139</ele>
        <time>2023-12-13T20:24:31Z</time>
      </trkpt>
      <trkpt lat="44.13799" lon="1.87874">
        <ele>146</ele>
        <time>2023-12-13T20:24:37Z</time>
      </trkpt>
      <trkpt lat="44.13792" lon="1.87863">
        <ele>148</ele>
        <time>2023-12-13T20:24:39Z</time>
      </trkpt>
      <trkpt lat="44.13788" lon="1.87855">
        <ele>150</ele>
        <time>2023-12-13T20:24:40Z</time>
      </trkpt>
      <trkpt lat="44.13787" lon="1.87844">
        <ele>150</ele>
        <time>2023-12-13T20:24:41Z</time>
      </trkpt>
      <trkpt lat="44.13793" lon="1.87788">
        <ele>145</ele>
        <time>2023-12-13T20:24:49Z</time>
      </trkpt>
      <trkpt lat="44.13794" lon="1.87767">
        <ele>144</ele>
        <time>2023-12-13T20:24:51Z</time>
      </trkpt>
      <trkpt lat="44.13786" lon="1.87735">
        <ele>143</ele>
        <time>2023-12-13T20:24:56Z</time>
      </trkpt>
      <trkpt lat="44.13777" lon="1.87709">
        <ele>144</ele>
        <time>2023-12-13T20:24:59Z</time>
      </trkpt>
      <trkpt lat="44.1377" lon="1.87694">
        <ele>143</ele>
        <time>2023-12-13T20:25:02Z</time>
      </trkpt>
      <trkpt lat="44.1376" lon="1.87678">
        <ele>143</ele>
        <time>2023-12-13T20:25:04Z</time>
      </trkpt>
      <trkpt lat="44.1375" lon="1.87666">
        <ele>143</ele>
        <time>2023-12-13T20:25:07Z</time>
      </trkpt>
      <trkpt lat="44.13715" lon="1.87638">
        <ele>143</ele>
        <time>2023-12-13T20:25:14Z</time>
      </trkpt>
      <trkpt lat="44.13707" lon="1.87629">
        <ele>142</ele>
        <time>2023-12-13T20:25:16Z</time>
      </trkpt>
      <trkpt lat="44.13688" lon="1.87593">
        <ele>138</ele>
        <time>2023-12-13T20:25:21Z</time>
      </trkpt>
      <trkpt lat="44.13667" lon="1.87563">
        <ele>136</ele>
        <time>2023-12-13T20:25:27Z</time>
      </trkpt>
      <trkpt lat="44.13649" lon="1.87548">
        <ele>136</ele>
        <time>2023-12-13T20:25:30Z</time>
      </trkpt>
      <trkpt lat="44.13624" lon="1.87535">
        <ele>137</ele>
        <time>2023-12-13T20:25:35Z</time>
      </trkpt>
      <trkpt lat="44.13601" lon="1.87529">
        <ele>137</ele>
        <time>2023-12-13T20:25:39Z</time>
      </trkpt>
      <trkpt lat="44.13579" lon="1.87526">
        <ele>137</ele>
        <time>2023-12-13T20:25:43Z</time>
      </trkpt>
      <trkpt lat="44.13561" lon="1.87526">
        <ele>137</ele>
        <time>2023-12-13T20:25:47Z</time>
      </trkpt>
      <trkpt lat="44.13538" lon="1.87529">
        <ele>137</ele>
        <time>2023-12-13T20:25:51Z</time>
      </trkpt>
      <trkpt lat="44.13512" lon="1.87539">
        <ele>137</ele>
        <time>2023-12-13T20:25:55Z</time>
      </trkpt>
      <trkpt lat="44.13463" lon="1.87574">
        <ele>138</ele>
        <time>2023-12-13T20:26:05Z</time>
      </trkpt>
      <trkpt lat="44.13438" lon="1.87588">
        <ele>138</ele>
        <time>2023-12-13T20:26:10Z</time>
      </trkpt>
      <trkpt lat="44.1343" lon="1.87593">
        <ele>138</ele>
        <time>2023-12-13T20:26:12Z</time>
      </trkpt>
      <trkpt lat="44.13411" lon="1.87608">
        <ele>138</ele>
        <time>2023-12-13T20:26:15Z</time>
      </trkpt>
      <trkpt lat="44.13319" lon="1.87692">
        <ele>139</ele>
        <time>2023-12-13T20:26:35Z</time>
      </trkpt>
      <trkpt lat="44.13305" lon="1.87701">
        <ele>140</ele>
        <time>2023-12-13T20:26:38Z</time>
      </trkpt>
      <trkpt lat="44.13291" lon="1.87707">
        <ele>140</ele>
        <time>2023-12-13T20:26:40Z</time>
      </trkpt>
      <trkpt lat="44.13216" lon="1.87726">
        <ele>140</ele>
        <time>2023-12-13T20:26:54Z</time>
      </trkpt>
      <trkpt lat="44.13195" lon="1.87734">
        <ele>140</ele>
        <time>2023-12-13T20:26:58Z</time>
      </trkpt>
      <trkpt lat="44.13138" lon="1.87773">
        <ele>140</ele>
        <time>2023-12-13T20:27:09Z</time>
      </trkpt>
      <trkpt lat="44.13032" lon="1.87826">
        <ele>138</ele>
        <time>2023-12-13T20:27:29Z</time>
      </trkpt>
      <trkpt lat="44.13017" lon="1.87837">
        <ele>138</ele>
        <time>2023-12-13T20:27:32Z</time>
      </trkpt>
      <trkpt lat="44.13004" lon="1.87851">
        <ele>138</ele>
        <time>2023-12-13T20:27:35Z</time>
      </trkpt>
      <trkpt lat="44.12992" lon="1.87873">
        <ele>138</ele>
        <time>2023-12-13T20:27:39Z</time>
      </trkpt>
      <trkpt lat="44.12974" lon="1.87918">
        <ele>137</ele>
        <time>2023-12-13T20:27:45Z</time>
      </trkpt>
      <trkpt lat="44.1293" lon="1.88003">
        <ele>139</ele>
        <time>2023-12-13T20:27:59Z</time>
      </trkpt>
      <trkpt lat="44.12922" lon="1.88008">
        <ele>139</ele>
        <time>2023-12-13T20:28:00Z</time>
      </trkpt>
      <trkpt lat="44.12914" lon="1.88007">
        <ele>138</ele>
        <time>2023-12-13T20:28:02Z</time>
      </trkpt>
      <trkpt lat="44.12909" lon="1.88003">
        <ele>138</ele>
        <time>2023-12-13T20:28:03Z</time>
      </trkpt>
      <trkpt lat="44.1288" lon="1.87974">
        <ele>138</ele>
        <time>2023-12-13T20:28:09Z</time>
      </trkpt>
      <trkpt lat="44.12842" lon="1.87933">
        <ele>139</ele>
        <time>2023-12-13T20:28:18Z</time>
      </trkpt>
      <trkpt lat="44.12807" lon="1.87899">
        <ele>143</ele>
        <time>2023-12-13T20:28:25Z</time>
      </trkpt>
      <trkpt lat="44.1278" lon="1.8789">
        <ele>146</ele>
        <time>2023-12-13T20:28:30Z</time>
      </trkpt>
      <trkpt lat="44.12764" lon="1.8789">
        <ele>147</ele>
        <time>2023-12-13T20:28:33Z</time>
      </trkpt>
      <trkpt lat="44.1275" lon="1.87893">
        <ele>148</ele>
        <time>2023-12-13T20:28:35Z</time>
      </trkpt>
      <trkpt lat="44.12724" lon="1.87907">
        <ele>150</ele>
        <time>2023-12-13T20:28:40Z</time>
      </trkpt>
      <trkpt lat="44.12711" lon="1.87921">
        <ele>150</ele>
        <time>2023-12-13T20:28:43Z</time>
      </trkpt>
      <trkpt lat="44.12694" lon="1.87971">
        <ele>149</ele>
        <time>2023-12-13T20:28:50Z</time>
      </trkpt>
      <trkpt lat="44.12661" lon="1.8811">
        <ele>147</ele>
        <time>2023-12-13T20:29:09Z</time>
      </trkpt>
      <trkpt lat="44.12652" lon="1.88137">
        <ele>148</ele>
        <time>2023-12-13T20:29:13Z</time>
      </trkpt>
      <trkpt lat="44.12636" lon="1.88159">
        <ele>148</ele>
        <time>2023-12-13T20:29:17Z</time>
      </trkpt>
      <trkpt lat="44.12622" lon="1.8817">
        <ele>149</ele>
        <time>2023-12-13T20:29:20Z</time>
      </trkpt>
      <trkpt lat="44.12555" lon="1.8821">
        <ele>149</ele>
        <time>2023-12-13T20:29:33Z</time>
      </trkpt>
      <trkpt lat="44.12474" lon="1.88295">
        <ele>150</ele>
        <time>2023-12-13T20:29:51Z</time>
      </trkpt>
      <trkpt lat="44.12452" lon="1.88325">
        <ele>153</ele>
        <time>2023-12-13T20:29:56Z</time>
      </trkpt>
      <trkpt lat="44.12437" lon="1.88361">
        <ele>153</ele>
        <time>2023-12-13T20:30:02Z</time>
      </trkpt>
      <trkpt lat="44.12429" lon="1.88417">
        <ele>149</ele>
        <time>2023-12-13T20:30:09Z</time>
      </trkpt>
      <trkpt lat="44.1242" lon="1.88447">
        <ele>148</ele>
        <time>2023-12-13T20:30:13Z</time>
      </trkpt>
      <trkpt lat="44.12406" lon="1.88475">
        <ele>150</ele>
        <time>2023-12-13T20:30:17Z</time>
      </trkpt>
      <trkpt lat="44.12391" lon="1.88496">
        <ele>153</ele>
        <time>2023-12-13T20:30:21Z</time>
      </trkpt>
      <trkpt lat="44.12365" lon="1.88521">
        <ele>157</ele>
        <time>2023-12-13T20:30:27Z</time>
      </trkpt>
      <trkpt lat="44.12332" lon="1.88546">
        <ele>159</ele>
        <time>2023-12-13T20:30:33Z</time>
      </trkpt>
      <trkpt lat="44.12278" lon="1.88565">
        <ele>161</ele>
        <time>2023-12-13T20:30:43Z</time>
      </trkpt>
      <trkpt lat="44.12133" lon="1.88604">
        <ele>160</ele>
        <time>2023-12-13T20:31:10Z</time>
      </trkpt>
      <trkpt lat="44.12037" lon="1.88617">
        <ele>154</ele>
        <time>2023-12-13T20:31:27Z</time>
      </trkpt>
      <trkpt lat="44.12001" lon="1.88636">
        <ele>150</ele>
        <time>2023-12-13T20:31:34Z</time>
      </trkpt>
      <trkpt lat="44.11966" lon="1.88665">
        <ele>152</ele>
        <time>2023-12-13T20:31:41Z</time>
      </trkpt>
      <trkpt lat="44.11847" lon="1.88772">
        <ele>161</ele>
        <time>2023-12-13T20:32:06Z</time>
      </trkpt>
      <trkpt lat="44.11762" lon="1.88871">
        <ele>158</ele>
        <time>2023-12-13T20:32:26Z</time>
      </trkpt>
      <trkpt lat="44.11694" lon="1.88958">
        <ele>155</ele>
        <time>2023-12-13T20:32:42Z</time>
      </trkpt>
      <trkpt lat="44.1163" lon="1.89096">
        <ele>160</ele>
        <time>2023-12-13T20:33:03Z</time>
      </trkpt>
      <trkpt lat="44.11578" lon="1.89193">
        <ele>160</ele>
        <time>2023-12-13T20:33:19Z</time>
      </trkpt>
      <trkpt lat="44.11551" lon="1.89281">
        <ele>165</ele>
        <time>2023-12-13T20:33:31Z</time>
      </trkpt>
      <trkpt lat="44.11534" lon="1.89371">
        <ele>168</ele>
        <time>2023-12-13T20:33:43Z</time>
      </trkpt>
      <trkpt lat="44.11549" lon="1.8951">
        <ele>159</ele>
        <time>2023-12-13T20:34:01Z</time>
      </trkpt>
      <trkpt lat="44.11577" lon="1.89615">
        <ele>154</ele>
        <time>2023-12-13T20:34:15Z</time>
      </trkpt>
      <trkpt lat="44.11638" lon="1.8976">
        <ele>158</ele>
        <time>2023-12-13T20:34:37Z</time>
      </trkpt>
      <trkpt lat="44.11705" lon="1.89912">
        <ele>163</ele>
        <time>2023-12-13T20:34:59Z</time>
      </trkpt>
      <trkpt lat="44.11719" lon="1.89938">
        <ele>162</ele>
        <time>2023-12-13T20:35:03Z</time>
      </trkpt>
      <trkpt lat="44.11756" lon="1.89996">
        <ele>158</ele>
        <time>2023-12-13T20:35:13Z</time>
      </trkpt>
      <trkpt lat="44.11774" lon="1.90023">
        <ele>158</ele>
        <time>2023-12-13T20:35:18Z</time>
      </trkpt>
      <trkpt lat="44.11782" lon="1.90038">
        <ele>157</ele>
        <time>2023-12-13T20:35:20Z</time>
      </trkpt>
      <trkpt lat="44.11788" lon="1.90055">
        <ele>158</ele>
        <time>2023-12-13T20:35:23Z</time>
      </trkpt>
      <trkpt lat="44.11821" lon="1.90183">
        <ele>159</ele>
        <time>2023-12-13T20:35:40Z</time>
      </trkpt>
      <trkpt lat="44.11825" lon="1.90198">
        <ele>159</ele>
        <time>2023-12-13T20:35:42Z</time>
      </trkpt>
      <trkpt lat="44.11828" lon="1.90234">
        <ele>160</ele>
        <time>2023-12-13T20:35:47Z</time>
      </trkpt>
      <trkpt lat="44.11823" lon="1.9027">
        <ele>160</ele>
        <time>2023-12-13T20:35:52Z</time>
      </trkpt>
      <trkpt lat="44.11809" lon="1.903">
        <ele>160</ele>
        <time>2023-12-13T20:35:56Z</time>
      </trkpt>
      <trkpt lat="44.11792" lon="1.90319">
        <ele>160</ele>
        <time>2023-12-13T20:36:00Z</time>
      </trkpt>
      <trkpt lat="44.11773" lon="1.90332">
        <ele>159</ele>
        <time>2023-12-13T20:36:04Z</time>
      </trkpt>
      <trkpt lat="44.11746" lon="1.90338">
        <ele>159</ele>
        <time>2023-12-13T20:36:09Z</time>
      </trkpt>
      <trkpt lat="44.11723" lon="1.90332">
        <ele>158</ele>
        <time>2023-12-13T20:36:13Z</time>
      </trkpt>
      <trkpt lat="44.11658" lon="1.90285">
        <ele>162</ele>
        <time>2023-12-13T20:36:26Z</time>
      </trkpt>
      <trkpt lat="44.11629" lon="1.90277">
        <ele>162</ele>
        <time>2023-12-13T20:36:31Z</time>
      </trkpt>
      <trkpt lat="44.11604" lon="1.90274">
        <ele>161</ele>
        <time>2023-12-13T20:36:36Z</time>
      </trkpt>
      <trkpt lat="44.11472" lon="1.90273">
        <ele>156</ele>
        <time>2023-12-13T20:36:59Z</time>
      </trkpt>
      <trkpt lat="44.1134" lon="1.90229">
        <ele>157</ele>
        <time>2023-12-13T20:37:23Z</time>
      </trkpt>
      <trkpt lat="44.11301" lon="1.90212">
        <ele>158</ele>
        <time>2023-12-13T20:37:31Z</time>
      </trkpt>
      <trkpt lat="44.1124" lon="1.90171">
        <ele>158</ele>
        <time>2023-12-13T20:37:43Z</time>
      </trkpt>
      <trkpt lat="44.11226" lon="1.90164">
        <ele>158</ele>
        <time>2023-12-13T20:37:45Z</time>
      </trkpt>
      <trkpt lat="44.11138" lon="1.90133">
        <ele>157</ele>
        <time>2023-12-13T20:38:01Z</time>
      </trkpt>
      <trkpt lat="44.1106" lon="1.90098">
        <ele>159</ele>
        <time>2023-12-13T20:38:16Z</time>
      </trkpt>
      <trkpt lat="44.11023" lon="1.90079">
        <ele>159</ele>
        <time>2023-12-13T20:38:23Z</time>
      </trkpt>
      <trkpt lat="44.10703" lon="1.89935">
        <ele>153</ele>
        <time>2023-12-13T20:39:23Z</time>
      </trkpt>
      <trkpt lat="44.1068" lon="1.89916">
        <ele>153</ele>
        <time>2023-12-13T20:39:28Z</time>
      </trkpt>
      <trkpt lat="44.10522" lon="1.89744">
        <ele>157</ele>
        <time>2023-12-13T20:40:03Z</time>
      </trkpt>
      <trkpt lat="44.10504" lon="1.89714">
        <ele>157</ele>
        <time>2023-12-13T20:40:08Z</time>
      </trkpt>
      <trkpt lat="44.10454" lon="1.89573">
        <ele>161</ele>
        <time>2023-12-13T20:40:28Z</time>
      </trkpt>
      <trkpt lat="44.10445" lon="1.89539">
        <ele>160</ele>
        <time>2023-12-13T20:40:33Z</time>
      </trkpt>
      <trkpt lat="44.10443" lon="1.89505">
        <ele>161</ele>
        <time>2023-12-13T20:40:37Z</time>
      </trkpt>
      <trkpt lat="44.10445" lon="1.89433">
        <ele>163</ele>
        <time>2023-12-13T20:40:47Z</time>
      </trkpt>
      <trkpt lat="44.10449" lon="1.89376">
        <ele>165</ele>
        <time>2023-12-13T20:40:54Z</time>
      </trkpt>
      <trkpt lat="44.10457" lon="1.89335">
        <ele>166</ele>
        <time>2023-12-13T20:40:59Z</time>
      </trkpt>
      <trkpt lat="44.10487" lon="1.89238">
        <ele>165</ele>
        <time>2023-12-13T20:41:13Z</time>
      </trkpt>
      <trkpt lat="44.105" lon="1.89182">
        <ele>163</ele>
        <time>2023-12-13T20:41:20Z</time>
      </trkpt>
      <trkpt lat="44.10503" lon="1.89124">
        <ele>164</ele>
        <time>2023-12-13T20:41:28Z</time>
      </trkpt>
      <trkpt lat="44.10502" lon="1.89075">
        <ele>164</ele>
        <time>2023-12-13T20:41:34Z</time>
      </trkpt>
      <trkpt lat="44.10495" lon="1.89031">
        <ele>166</ele>
        <time>2023-12-13T20:41:40Z</time>
      </trkpt>
      <trkpt lat="44.10483" lon="1.8898">
        <ele>169</ele>
        <time>2023-12-13T20:41:47Z</time>
      </trkpt>
      <trkpt lat="44.10468" lon="1.8894">
        <ele>170</ele>
        <time>2023-12-13T20:41:52Z</time>
      </trkpt>
      <trkpt lat="44.10449" lon="1.88907">
        <ele>168</ele>
        <time>2023-12-13T20:41:58Z</time>
      </trkpt>
      <trkpt lat="44.1043" lon="1.88884">
        <ele>167</ele>
        <time>2023-12-13T20:42:02Z</time>
      </trkpt>
      <trkpt lat="44.10412" lon="1.88867">
        <ele>166</ele>
        <time>2023-12-13T20:42:06Z</time>
      </trkpt>
      <trkpt lat="44.10393" lon="1.88855">
        <ele>166</ele>
        <time>2023-12-13T20:42:10Z</time>
      </trkpt>
      <trkpt lat="44.10265" lon="1.88787">
        <ele>168</ele>
        <time>2023-12-13T20:42:34Z</time>
      </trkpt>
      <trkpt lat="44.10198" lon="1.88774">
        <ele>165</ele>
        <time>2023-12-13T20:42:46Z</time>
      </trkpt>
      <trkpt lat="44.1011" lon="1.88793">
        <ele>165</ele>
        <time>2023-12-13T20:43:02Z</time>
      </trkpt>
      <trkpt lat="44.1008" lon="1.8881">
        <ele>165</ele>
        <time>2023-12-13T20:43:08Z</time>
      </trkpt>
      <trkpt lat="44.1004" lon="1.88837">
        <ele>166</ele>
        <time>2023-12-13T20:43:16Z</time>
      </trkpt>
      <trkpt lat="44.10009" lon="1.88854">
        <ele>166</ele>
        <time>2023-12-13T20:43:22Z</time>
      </trkpt>
      <trkpt lat="44.09978" lon="1.88865">
        <ele>166</ele>
        <time>2023-12-13T20:43:27Z</time>
      </trkpt>
      <trkpt lat="44.09903" lon="1.8888">
        <ele>164</ele>
        <time>2023-12-13T20:43:41Z</time>
      </trkpt>
      <trkpt lat="44.09877" lon="1.8888">
        <ele>163</ele>
        <time>2023-12-13T20:43:45Z</time>
      </trkpt>
      <trkpt lat="44.09827" lon="1.88869">
        <ele>162</ele>
        <time>2023-12-13T20:43:54Z</time>
      </trkpt>
      <trkpt lat="44.09794" lon="1.88871">
        <ele>160</ele>
        <time>2023-12-13T20:44:00Z</time>
      </trkpt>
      <trkpt lat="44.09774" lon="1.88869">
        <ele>160</ele>
        <time>2023-12-13T20:44:04Z</time>
      </trkpt>
      <trkpt lat="44.09714" lon="1.88847">
        <ele>158</ele>
        <time>2023-12-13T20:44:15Z</time>
      </trkpt>
      <trkpt lat="44.09702" lon="1.8884">
        <ele>158</ele>
        <time>2023-12-13T20:44:17Z</time>
      </trkpt>
      <trkpt lat="44.09692" lon="1.88829">
        <ele>158</ele>
        <time>2023-12-13T20:44:20Z</time>
      </trkpt>
      <trkpt lat="44.09664" lon="1.8878">
        <ele>160</ele>
        <time>2023-12-13T20:44:28Z</time>
      </trkpt>
      <trkpt lat="44.09642" lon="1.88752">
        <ele>161</ele>
        <time>2023-12-13T20:44:33Z</time>
      </trkpt>
      <trkpt lat="44.09599" lon="1.88715">
        <ele>158</ele>
        <time>2023-12-13T20:44:42Z</time>
      </trkpt>
      <trkpt lat="44.09466" lon="1.88612">
        <ele>158</ele>
        <time>2023-12-13T20:45:09Z</time>
      </trkpt>
      <trkpt lat="44.094" lon="1.88571">
        <ele>157</ele>
        <time>2023-12-13T20:45:22Z</time>
      </trkpt>
      <trkpt lat="44.09361" lon="1.88558">
        <ele>159</ele>
        <time>2023-12-13T20:45:29Z</time>
      </trkpt>
      <trkpt lat="44.09345" lon="1.88557">
        <ele>159</ele>
        <time>2023-12-13T20:45:32Z</time>
      </trkpt>
      <trkpt lat="44.09334" lon="1.88556">
        <ele>159</ele>
        <time>2023-12-13T20:45:34Z</time>
      </trkpt>
      <trkpt lat="44.09314" lon="1.88558">
        <ele>159</ele>
        <time>2023-12-13T20:45:37Z</time>
      </trkpt>
      <trkpt lat="44.09292" lon="1.88563">
        <ele>159</ele>
        <time>2023-12-13T20:45:41Z</time>
      </trkpt>
      <trkpt lat="44.09267" lon="1.88573">
        <ele>159</ele>
        <time>2023-12-13T20:45:46Z</time>
      </trkpt>
      <trkpt lat="44.09223" lon="1.88596">
        <ele>159</ele>
        <time>2023-12-13T20:45:54Z</time>
      </trkpt>
      <trkpt lat="44.09201" lon="1.88613">
        <ele>159</ele>
        <time>2023-12-13T20:45:59Z</time>
      </trkpt>
      <trkpt lat="44.09148" lon="1.88663">
        <ele>157</ele>
        <time>2023-12-13T20:46:10Z</time>
      </trkpt>
      <trkpt lat="44.0891" lon="1.88901">
        <ele>159</ele>
        <time>2023-12-13T20:47:02Z</time>
      </trkpt>
      <trkpt lat="44.08882" lon="1.88923">
        <ele>159</ele>
        <time>2023-12-13T20:47:08Z</time>
      </trkpt>
      <trkpt lat="44.0885" lon="1.88935">
        <ele>159</ele>
        <time>2023-12-13T20:47:14Z</time>
      </trkpt>
      <trkpt lat="44.08455" lon="1.89023">
        <ele>158</ele>
        <time>2023-12-13T20:48:25Z</time>
      </trkpt>
      <trkpt lat="44.08301" lon="1.89054">
        <ele>163</ele>
        <time>2023-12-13T20:48:53Z</time>
      </trkpt>
      <trkpt lat="44.08246" lon="1.89071">
        <ele>165</ele>
        <time>2023-12-13T20:49:03Z</time>
      </trkpt>
      <trkpt lat="44.08211" lon="1.89087">
        <ele>165</ele>
        <time>2023-12-13T20:49:09Z</time>
      </trkpt>
      <trkpt lat="44.08171" lon="1.89111">
        <ele>167</ele>
        <time>2023-12-13T20:49:17Z</time>
      </trkpt>
      <trkpt lat="44.08135" lon="1.89135">
        <ele>167</ele>
        <time>2023-12-13T20:49:24Z</time>
      </trkpt>
      <trkpt lat="44.07405" lon="1.89653">
        <ele>169</ele>
        <time>2023-12-13T20:51:50Z</time>
      </trkpt>
      <trkpt lat="44.07366" lon="1.89675">
        <ele>168</ele>
        <time>2023-12-13T20:51:57Z</time>
      </trkpt>
      <trkpt lat="44.07352" lon="1.89681">
        <ele>167</ele>
        <time>2023-12-13T20:52:00Z</time>
      </trkpt>
      <trkpt lat="44.07259" lon="1.89712">
        <ele>170</ele>
        <time>2023-12-13T20:52:17Z</time>
      </trkpt>
      <trkpt lat="44.07243" lon="1.89718">
        <ele>170</ele>
        <time>2023-12-13T20:52:20Z</time>
      </trkpt>
      <trkpt lat="44.07231" lon="1.89725">
        <ele>171</ele>
        <time>2023-12-13T20:52:22Z</time>
      </trkpt>
      <trkpt lat="44.07222" lon="1.89733">
        <ele>171</ele>
        <time>2023-12-13T20:52:24Z</time>
      </trkpt>
      <trkpt lat="44.07215" lon="1.89743">
        <ele>171</ele>
        <time>2023-12-13T20:52:26Z</time>
      </trkpt>
      <trkpt lat="44.07195" lon="1.89792">
        <ele>170</ele>
        <time>2023-12-13T20:52:33Z</time>
      </trkpt>
      <trkpt lat="44.07189" lon="1.89802">
        <ele>169</ele>
        <time>2023-12-13T20:52:35Z</time>
      </trkpt>
      <trkpt lat="44.07173" lon="1.89817">
        <ele>169</ele>
        <time>2023-12-13T20:52:38Z</time>
      </trkpt>
      <trkpt lat="44.06629" lon="1.90199">
        <ele>168</ele>
        <time>2023-12-13T20:54:27Z</time>
      </trkpt>
      <trkpt lat="44.06459" lon="1.90318">
        <ele>171</ele>
        <time>2023-12-13T20:55:01Z</time>
      </trkpt>
      <trkpt lat="44.06442" lon="1.90332">
        <ele>172</ele>
        <time>2023-12-13T20:55:04Z</time>
      </trkpt>
      <trkpt lat="44.06401" lon="1.90381">
        <ele>171</ele>
        <time>2023-12-13T20:55:14Z</time>
      </trkpt>
      <trkpt lat="44.06365" lon="1.9043">
        <ele>172</ele>
        <time>2023-12-13T20:55:23Z</time>
      </trkpt>
      <trkpt lat="44.06355" lon="1.90447">
        <ele>172</ele>
        <time>2023-12-13T20:55:25Z</time>
      </trkpt>
      <trkpt lat="44.06347" lon="1.90465">
        <ele>172</ele>
        <time>2023-12-13T20:55:28Z</time>
      </trkpt>
      <trkpt lat="44.06337" lon="1.90491">
        <ele>173</ele>
        <time>2023-12-13T20:55:32Z</time>
      </trkpt>
      <trkpt lat="44.0633" lon="1.9052">
        <ele>172</ele>
        <time>2023-12-13T20:55:36Z</time>
      </trkpt>
      <trkpt lat="44.0632" lon="1.90572">
        <ele>169</ele>
        <time>2023-12-13T20:55:43Z</time>
      </trkpt>
      <trkpt lat="44.06316" lon="1.90597">
        <ele>168</ele>
        <time>2023-12-13T20:55:46Z</time>
      </trkpt>
      <trkpt lat="44.06308" lon="1.90597">
        <ele>169</ele>
        <time>2023-12-13T20:55:47Z</time>
      </trkpt>
      <trkpt lat="44.0629" lon="1.90604">
        <ele>171</ele>
        <time>2023-12-13T20:55:51Z</time>
      </trkpt>
      <trkpt lat="44.06277" lon="1.90605">
        <ele>172</ele>
        <time>2023-12-13T20:55:53Z</time>
      </trkpt>
      <trkpt lat="44.06229" lon="1.906">
        <ele>176</ele>
        <time>2023-12-13T20:56:02Z</time>
      </trkpt>
      <trkpt lat="44.06215" lon="1.90606">
        <ele>177</ele>
        <time>2023-12-13T20:56:04Z</time>
      </trkpt>
      <trkpt lat="44.06204" lon="1.90619">
        <ele>177</ele>
        <time>2023-12-13T20:56:07Z</time>
      </trkpt>
      <trkpt lat="44.06201" lon="1.90629">
        <ele>177</ele>
        <time>2023-12-13T20:56:08Z</time>
      </trkpt>
      <trkpt lat="44.06186" lon="1.90701">
        <ele>177</ele>
        <time>2023-12-13T20:56:18Z</time>
      </trkpt>
      <trkpt lat="44.06182" lon="1.90713">
        <ele>178</ele>
        <time>2023-12-13T20:56:19Z</time>
      </trkpt>
      <trkpt lat="44.06177" lon="1.90723">
        <ele>178</ele>
        <time>2023-12-13T20:56:21Z</time>
      </trkpt>
      <trkpt lat="44.06169" lon="1.90731">
        <ele>179</ele>
        <time>2023-12-13T20:56:23Z</time>
      </trkpt>
      <trkpt lat="44.06161" lon="1.90737">
        <ele>180</ele>
        <time>2023-12-13T20:56:24Z</time>
      </trkpt>
      <trkpt lat="44.06145" lon="1.90738">
        <ele>180</ele>
        <time>2023-12-13T20:56:27Z</time>
      </trkpt>
      <trkpt lat="44.06065" lon="1.90713">
        <ele>181</ele>
        <time>2023-12-13T20:56:42Z</time>
      </trkpt>
      <trkpt lat="44.06031" lon="1.90713">
        <ele>181</ele>
        <time>2023-12-13T20:56:48Z</time>
      </trkpt>
      <trkpt lat="44.06001" lon="1.90719">
        <ele>181</ele>
        <time>2023-12-13T20:56:53Z</time>
      </trkpt>
      <trkpt lat="44.05917" lon="1.90763">
        <ele>178</ele>
        <time>2023-12-13T20:57:09Z</time>
      </trkpt>
      <trkpt lat="44.05889" lon="1.90774">
        <ele>178</ele>
        <time>2023-12-13T20:57:14Z</time>
      </trkpt>
      <trkpt lat="44.05837" lon="1.90804">
        <ele>176</ele>
        <time>2023-12-13T20:57:24Z</time>
      </trkpt>
      <trkpt lat="44.05785" lon="1.90831">
        <ele>176</ele>
        <time>2023-12-13T20:57:34Z</time>
      </trkpt>
      <trkpt lat="44.05734" lon="1.90856">
        <ele>177</ele>
        <time>2023-12-13T20:57:44Z</time>
      </trkpt>
      <trkpt lat="44.05682" lon="1.90877">
        <ele>176</ele>
        <time>2023-12-13T20:57:54Z</time>
      </trkpt>
      <trkpt lat="44.05657" lon="1.90895">
        <ele>176</ele>
        <time>2023-12-13T20:57:59Z</time>
      </trkpt>
      <trkpt lat="44.05597" lon="1.90952">
        <ele>175</ele>
        <time>2023-12-13T20:58:12Z</time>
      </trkpt>
      <trkpt lat="44.05575" lon="1.9091">
        <ele>178</ele>
        <time>2023-12-13T20:58:18Z</time>
      </trkpt>
      <trkpt lat="44.05562" lon="1.90894">
        <ele>179</ele>
        <time>2023-12-13T20:58:21Z</time>
      </trkpt>
      <trkpt lat="44.05548" lon="1.90884">
        <ele>180</ele>
        <time>2023-12-13T20:58:24Z</time>
      </trkpt>
      <trkpt lat="44.0551" lon="1.90878">
        <ele>182</ele>
        <time>2023-12-13T20:58:31Z</time>
      </trkpt>
      <trkpt lat="44.05493" lon="1.90865">
        <ele>182</ele>
        <time>2023-12-13T20:58:34Z</time>
      </trkpt>
      <trkpt lat="44.0548" lon="1.90844">
        <ele>183</ele>
        <time>2023-12-13T20:58:38Z</time>
      </trkpt>
      <trkpt lat="44.05451" lon="1.90765">
        <ele>186</ele>
        <time>2023-12-13T20:58:49Z</time>
      </trkpt>
      <trkpt lat="44.05431" lon="1.90724">
        <ele>188</ele>
        <time>2023-12-13T20:58:56Z</time>
      </trkpt>
      <trkpt lat="44.05376" lon="1.90632">
        <ele>193</ele>
        <time>2023-12-13T20:59:11Z</time>
      </trkpt>
      <trkpt lat="44.05296" lon="1.9043">
        <ele>205</ele>
        <time>2023-12-13T20:59:40Z</time>
      </trkpt>
      <trkpt lat="44.05268" lon="1.90315">
        <ele>206</ele>
        <time>2023-12-13T20:59:56Z</time>
      </trkpt>
      <trkpt lat="44.05258" lon="1.90301">
        <ele>203</ele>
        <time>2023-12-13T20:59:58Z</time>
      </trkpt>
      <trkpt lat="44.05243" lon="1.90286">
        <ele>200</ele>
        <time>2023-12-13T21:00:02Z</time>
      </trkpt>
      <trkpt lat="44.05207" lon="1.90268">
        <ele>201</ele>
        <time>2023-12-13T21:00:08Z</time>
      </trkpt>
      <trkpt lat="44.05194" lon="1.90251">
        <ele>203</ele>
        <time>2023-12-13T21:00:12Z</time>
      </trkpt>
      <trkpt lat="44.05189" lon="1.90229">
        <ele>204</ele>
        <time>2023-12-13T21:00:15Z</time>
      </trkpt>
      <trkpt lat="44.05192" lon="1.90191">
        <ele>206</ele>
        <time>2023-12-13T21:00:19Z</time>
      </trkpt>
      <trkpt lat="44.05193" lon="1.90146">
        <ele>207</ele>
        <time>2023-12-13T21:00:25Z</time>
      </trkpt>
      <trkpt lat="44.0519" lon="1.90093">
        <ele>207</ele>
        <time>2023-12-13T21:00:32Z</time>
      </trkpt>
      <trkpt lat="44.05183" lon="1.90054">
        <ele>209</ele>
        <time>2023-12-13T21:00:37Z</time>
      </trkpt>
      <trkpt lat="44.05155" lon="1.89953">
        <ele>215</ele>
        <time>2023-12-13T21:00:51Z</time>
      </trkpt>
      <trkpt lat="44.05141" lon="1.89875">
        <ele>218</ele>
        <time>2023-12-13T21:01:01Z</time>
      </trkpt>
      <trkpt lat="44.0513" lon="1.89828">
        <ele>220</ele>
        <time>2023-12-13T21:01:08Z</time>
      </trkpt>
      <trkpt lat="44.05085" lon="1.89722">
        <ele>224</ele>
        <time>2023-12-13T21:01:23Z</time>
      </trkpt>
      <trkpt lat="44.05067" lon="1.89686">
        <ele>226</ele>
        <time>2023-12-13T21:01:29Z</time>
      </trkpt>
      <trkpt lat="44.05002" lon="1.8962">
        <ele>233</ele>
        <time>2023-12-13T21:01:43Z</time>
      </trkpt>
      <trkpt lat="44.04922" lon="1.89546">
        <ele>243</ele>
        <time>2023-12-13T21:02:00Z</time>
      </trkpt>
      <trkpt lat="44.04891" lon="1.89524">
        <ele>244</ele>
        <time>2023-12-13T21:02:07Z</time>
      </trkpt>
      <trkpt lat="44.04793" lon="1.89472">
        <ele>252</ele>
        <time>2023-12-13T21:02:25Z</time>
      </trkpt>
      <trkpt lat="44.04705" lon="1.89397">
        <ele>256</ele>
        <time>2023-12-13T21:02:44Z</time>
      </trkpt>
      <trkpt lat="44.0468" lon="1.89384">
        <ele>257</ele>
        <time>2023-12-13T21:02:48Z</time>
      </trkpt>
      <trkpt lat="44.04666" lon="1.8937">
        <ele>258</ele>
        <time>2023-12-13T21:02:51Z</time>
      </trkpt>
      <trkpt lat="44.0466" lon="1.89356">
        <ele>259</ele>
        <time>2023-12-13T21:02:54Z</time>
      </trkpt>
      <trkpt lat="44.04657" lon="1.89336">
        <ele>260</ele>
        <time>2023-12-13T21:02:56Z</time>
      </trkpt>
      <trkpt lat="44.0466" lon="1.89261">
        <ele>265</ele>
        <time>2023-12-13T21:03:06Z</time>
      </trkpt>
      <trkpt lat="44.04659" lon="1.89231">
        <ele>266</ele>
        <time>2023-12-13T21:03:10Z</time>
      </trkpt>
      <trkpt lat="44.04653" lon="1.89174">
        <ele>264</ele>
        <time>2023-12-13T21:03:17Z</time>
      </trkpt>
      <trkpt lat="44.0464" lon="1.89092">
        <ele>266</ele>
        <time>2023-12-13T21:03:28Z</time>
      </trkpt>
      <trkpt lat="44.04632" lon="1.89054">
        <ele>267</ele>
        <time>2023-12-13T21:03:33Z</time>
      </trkpt>
      <trkpt lat="44.04624" lon="1.89029">
        <ele>268</ele>
        <time>2023-12-13T21:03:36Z</time>
      </trkpt>
      <trkpt lat="44.04587" lon="1.88951">
        <ele>271</ele>
        <time>2023-12-13T21:03:48Z</time>
      </trkpt>
      <trkpt lat="44.04584" lon="1.88944">
        <ele>271</ele>
        <time>2023-12-13T21:03:49Z</time>
      </trkpt>
      <trkpt lat="44.04585" lon="1.88919">
        <ele>272</ele>
        <time>2023-12-13T21:03:52Z</time>
      </trkpt>
      <trkpt lat="44.04592" lon="1.88901">
        <ele>273</ele>
        <time>2023-12-13T21:03:55Z</time>
      </trkpt>
      <trkpt lat="44.04595" lon="1.88883">
        <ele>273</ele>
        <time>2023-12-13T21:03:57Z</time>
      </trkpt>
      <trkpt lat="44.04594" lon="1.88858">
        <ele>274</ele>
        <time>2023-12-13T21:04:01Z</time>
      </trkpt>
      <trkpt lat="44.04591" lon="1.88848">
        <ele>275</ele>
        <time>2023-12-13T21:04:02Z</time>
      </trkpt>
      <trkpt lat="44.04586" lon="1.88845">
        <ele>275</ele>
        <time>2023-12-13T21:04:03Z</time>
      </trkpt>
      <trkpt lat="44.04551" lon="1.88799">
        <ele>277</ele>
        <time>2023-12-13T21:04:12Z</time>
      </trkpt>
      <trkpt lat="44.0453" lon="1.88767">
        <ele>279</ele>
        <time>2023-12-13T21:04:17Z</time>
      </trkpt>
      <trkpt lat="44.0452" lon="1.88743">
        <ele>280</ele>
        <time>2023-12-13T21:04:21Z</time>
      </trkpt>
      <trkpt lat="44.04503" lon="1.88647">
        <ele>286</ele>
        <time>2023-12-13T21:04:33Z</time>
      </trkpt>
      <trkpt lat="44.04442" lon="1.88433">
        <ele>294</ele>
        <time>2023-12-13T21:05:03Z</time>
      </trkpt>
      <trkpt lat="44.04423" lon="1.8836">
        <ele>293</ele>
        <time>2023-12-13T21:05:13Z</time>
      </trkpt>
      <trkpt lat="44.04369" lon="1.88101">
        <ele>295</ele>
        <time>2023-12-13T21:05:47Z</time>
      </trkpt>
      <trkpt lat="44.04361" lon="1.88053">
        <ele>296</ele>
        <time>2023-12-13T21:05:53Z</time>
      </trkpt>
      <trkpt lat="44.04353" lon="1.87927">
        <ele>299</ele>
        <time>2023-12-13T21:06:10Z</time>
      </trkpt>
      <trkpt lat="44.0435" lon="1.87912">
        <ele>299</ele>
        <time>2023-12-13T21:06:12Z</time>
      </trkpt>
      <trkpt lat="44.04251" lon="1.87566">
        <ele>298</ele>
        <time>2023-12-13T21:06:59Z</time>
      </trkpt>
      <trkpt lat="44.04246" lon="1.87536">
        <ele>297</ele>
        <time>2023-12-13T21:07:03Z</time>
      </trkpt>
      <trkpt lat="44.04237" lon="1.87422">
        <ele>294</ele>
        <time>2023-12-13T21:07:18Z</time>
      </trkpt>
      <trkpt lat="44.04225" lon="1.87304">
        <ele>292</ele>
        <time>2023-12-13T21:07:33Z</time>
      </trkpt>
      <trkpt lat="44.04196" lon="1.8713">
        <ele>288</ele>
        <time>2023-12-13T21:07:56Z</time>
      </trkpt>
      <trkpt lat="44.04195" lon="1.87098">
        <ele>288</ele>
        <time>2023-12-13T21:08:00Z</time>
      </trkpt>
      <trkpt lat="44.04203" lon="1.87008">
        <ele>285</ele>
        <time>2023-12-13T21:08:12Z</time>
      </trkpt>
      <trkpt lat="44.04204" lon="1.86959">
        <ele>283</ele>
        <time>2023-12-13T21:08:18Z</time>
      </trkpt>
      <trkpt lat="44.04199" lon="1.8693">
        <ele>281</ele>
        <time>2023-12-13T21:08:22Z</time>
      </trkpt>
      <trkpt lat="44.04191" lon="1.86904">
        <ele>280</ele>
        <time>2023-12-13T21:08:25Z</time>
      </trkpt>
      <trkpt lat="44.04178" lon="1.86886">
        <ele>279</ele>
        <time>2023-12-13T21:08:29Z</time>
      </trkpt>
      <trkpt lat="44.04134" lon="1.86845">
        <ele>276</ele>
        <time>2023-12-13T21:08:38Z</time>
      </trkpt>
      <trkpt lat="44.04105" lon="1.86802">
        <ele>272</ele>
        <time>2023-12-13T21:08:46Z</time>
      </trkpt>
      <trkpt lat="44.04073" lon="1.86748">
        <ele>267</ele>
        <time>2023-12-13T21:08:55Z</time>
      </trkpt>
      <trkpt lat="44.0406" lon="1.86709">
        <ele>264</ele>
        <time>2023-12-13T21:09:00Z</time>
      </trkpt>
      <trkpt lat="44.04042" lon="1.86677">
        <ele>260</ele>
        <time>2023-12-13T21:09:05Z</time>
      </trkpt>
      <trkpt lat="44.03992" lon="1.86631">
        <ele>252</ele>
        <time>2023-12-13T21:09:16Z</time>
      </trkpt>
      <trkpt lat="44.03971" lon="1.866">
        <ele>248</ele>
        <time>2023-12-13T21:09:21Z</time>
      </trkpt>
      <trkpt lat="44.03958" lon="1.8657">
        <ele>246</ele>
        <time>2023-12-13T21:09:26Z</time>
      </trkpt>
      <trkpt lat="44.03954" lon="1.86551">
        <ele>246</ele>
        <time>2023-12-13T21:09:28Z</time>
      </trkpt>
      <trkpt lat="44.03956" lon="1.86495">
        <ele>245</ele>
        <time>2023-12-13T21:09:36Z</time>
      </trkpt>
      <trkpt lat="44.03955" lon="1.86439">
        <ele>242</ele>
        <time>2023-12-13T21:09:43Z</time>
      </trkpt>
      <trkpt lat="44.03949" lon="1.8638">
        <ele>238</ele>
        <time>2023-12-13T21:09:50Z</time>
      </trkpt>
      <trkpt lat="44.0394" lon="1.86344">
        <ele>234</ele>
        <time>2023-12-13T21:09:55Z</time>
      </trkpt>
      <trkpt lat="44.03923" lon="1.86314">
        <ele>233</ele>
        <time>2023-12-13T21:10:00Z</time>
      </trkpt>
      <trkpt lat="44.03872" lon="1.86264">
        <ele>236</ele>
        <time>2023-12-13T21:10:11Z</time>
      </trkpt>
      <trkpt lat="44.03854" lon="1.86239">
        <ele>235</ele>
        <time>2023-12-13T21:10:16Z</time>
      </trkpt>
      <trkpt lat="44.03839" lon="1.86209">
        <ele>235</ele>
        <time>2023-12-13T21:10:20Z</time>
      </trkpt>
      <trkpt lat="44.03803" lon="1.86105">
        <ele>232</ele>
        <time>2023-12-13T21:10:35Z</time>
      </trkpt>
      <trkpt lat="44.03759" lon="1.86012">
        <ele>230</ele>
        <time>2023-12-13T21:10:49Z</time>
      </trkpt>
      <trkpt lat="44.03675" lon="1.85945">
        <ele>231</ele>
        <time>2023-12-13T21:11:07Z</time>
      </trkpt>
      <trkpt lat="44.03657" lon="1.85932">
        <ele>231</ele>
        <time>2023-12-13T21:11:10Z</time>
      </trkpt>
      <trkpt lat="44.03638" lon="1.85927">
        <ele>231</ele>
        <time>2023-12-13T21:11:14Z</time>
      </trkpt>
      <trkpt lat="44.03584" lon="1.85937">
        <ele>229</ele>
        <time>2023-12-13T21:11:23Z</time>
      </trkpt>
      <trkpt lat="44.03561" lon="1.85937">
        <ele>228</ele>
        <time>2023-12-13T21:11:27Z</time>
      </trkpt>
      <trkpt lat="44.03524" lon="1.85924">
        <ele>227</ele>
        <time>2023-12-13T21:11:34Z</time>
      </trkpt>
      <trkpt lat="44.03509" lon="1.85924">
        <ele>226</ele>
        <time>2023-12-13T21:11:37Z</time>
      </trkpt>
      <trkpt lat="44.03476" lon="1.85933">
        <ele>226</ele>
        <time>2023-12-13T21:11:43Z</time>
      </trkpt>
      <trkpt lat="44.03438" lon="1.85931">
        <ele>225</ele>
        <time>2023-12-13T21:11:50Z</time>
      </trkpt>
      <trkpt lat="44.03408" lon="1.85923">
        <ele>225</ele>
        <time>2023-12-13T21:11:55Z</time>
      </trkpt>
      <trkpt lat="44.03379" lon="1.85905">
        <ele>226</ele>
        <time>2023-12-13T21:12:01Z</time>
      </trkpt>
      <trkpt lat="44.03289" lon="1.85842">
        <ele>225</ele>
        <time>2023-12-13T21:12:19Z</time>
      </trkpt>
      <trkpt lat="44.03261" lon="1.85817">
        <ele>223</ele>
        <time>2023-12-13T21:12:25Z</time>
      </trkpt>
      <trkpt lat="44.03234" lon="1.85776">
        <ele>221</ele>
        <time>2023-12-13T21:12:32Z</time>
      </trkpt>
      <trkpt lat="44.03194" lon="1.85711">
        <ele>219</ele>
        <time>2023-12-13T21:12:43Z</time>
      </trkpt>
      <trkpt lat="44.03175" lon="1.85684">
        <ele>220</ele>
        <time>2023-12-13T21:12:47Z</time>
      </trkpt>
      <trkpt lat="44.0314" lon="1.85659">
        <ele>220</ele>
        <time>2023-12-13T21:12:54Z</time>
      </trkpt>
      <trkpt lat="44.03113" lon="1.85635">
        <ele>221</ele>
        <time>2023-12-13T21:13:00Z</time>
      </trkpt>
      <trkpt lat="44.03086" lon="1.85605">
        <ele>221</ele>
        <time>2023-12-13T21:13:06Z</time>
      </trkpt>
      <trkpt lat="44.03058" lon="1.85565">
        <ele>222</ele>
        <time>2023-12-13T21:13:13Z</time>
      </trkpt>
      <trkpt lat="44.03034" lon="1.85534">
        <ele>223</ele>
        <time>2023-12-13T21:13:19Z</time>
      </trkpt>
      <trkpt lat="44.0296" lon="1.85471">
        <ele>222</ele>
        <time>2023-12-13T21:13:35Z</time>
      </trkpt>
      <trkpt lat="44.02926" lon="1.85443">
        <ele>222</ele>
        <time>2023-12-13T21:13:42Z</time>
      </trkpt>
      <trkpt lat="44.02906" lon="1.85429">
        <ele>222</ele>
        <time>2023-12-13T21:13:46Z</time>
      </trkpt>
      <trkpt lat="44.02859" lon="1.85414">
        <ele>221</ele>
        <time>2023-12-13T21:13:54Z</time>
      </trkpt>
      <trkpt lat="44.02793" lon="1.85396">
        <ele>220</ele>
        <time>2023-12-13T21:14:06Z</time>
      </trkpt>
      <trkpt lat="44.02758" lon="1.85378">
        <ele>220</ele>
        <time>2023-12-13T21:14:13Z</time>
      </trkpt>
      <trkpt lat="44.02685" lon="1.85327">
        <ele>217</ele>
        <time>2023-12-13T21:14:27Z</time>
      </trkpt>
      <trkpt lat="44.02645" lon="1.85294">
        <ele>217</ele>
        <time>2023-12-13T21:14:36Z</time>
      </trkpt>
      <trkpt lat="44.02607" lon="1.85251">
        <ele>217</ele>
        <time>2023-12-13T21:14:44Z</time>
      </trkpt>
      <trkpt lat="44.02563" lon="1.85221">
        <ele>215</ele>
        <time>2023-12-13T21:14:53Z</time>
      </trkpt>
      <trkpt lat="44.02469" lon="1.85143">
        <ele>212</ele>
        <time>2023-12-13T21:15:13Z</time>
      </trkpt>
      <trkpt lat="44.02393" lon="1.85083">
        <ele>211</ele>
        <time>2023-12-13T21:15:28Z</time>
      </trkpt>
      <trkpt lat="44.02349" lon="1.85042">
        <ele>211</ele>
        <time>2023-12-13T21:15:38Z</time>
      </trkpt>
      <trkpt lat="44.02328" lon="1.85014">
        <ele>211</ele>
        <time>2023-12-13T21:15:43Z</time>
      </trkpt>
      <trkpt lat="44.02317" lon="1.84984">
        <ele>212</ele>
        <time>2023-12-13T21:15:47Z</time>
      </trkpt>
      <trkpt lat="44.02311" lon="1.84951">
        <ele>213</ele>
        <time>2023-12-13T21:15:51Z</time>
      </trkpt>
      <trkpt lat="44.02308" lon="1.84923">
        <ele>214</ele>
        <time>2023-12-13T21:15:55Z</time>
      </trkpt>
      <trkpt lat="44.02312" lon="1.84885">
        <ele>214</ele>
        <time>2023-12-13T21:16:00Z</time>
      </trkpt>
      <trkpt lat="44.02322" lon="1.8485">
        <ele>214</ele>
        <time>2023-12-13T21:16:05Z</time>
      </trkpt>
      <trkpt lat="44.02437" lon="1.84583">
        <ele>223</ele>
        <time>2023-12-13T21:16:45Z</time>
      </trkpt>
      <trkpt lat="44.02441" lon="1.8458">
        <ele>223</ele>
        <time>2023-12-13T21:16:45Z</time>
      </trkpt>
      <trkpt lat="44.02445" lon="1.8458">
        <ele>224</ele>
        <time>2023-12-13T21:16:46Z</time>
      </trkpt>
      <trkpt lat="44.02453" lon="1.8453">
        <ele>223</ele>
        <time>2023-12-13T21:16:53Z</time>
      </trkpt>
      <trkpt lat="44.02454" lon="1.84512">
        <ele>222</ele>
        <time>2023-12-13T21:16:55Z</time>
      </trkpt>
      <trkpt lat="44.02451" lon="1.84492">
        <ele>220</ele>
        <time>2023-12-13T21:16:58Z</time>
      </trkpt>
      <trkpt lat="44.02447" lon="1.84476">
        <ele>219</ele>
        <time>2023-12-13T21:17:00Z</time>
      </trkpt>
      <trkpt lat="44.02439" lon="1.84456">
        <ele>218</ele>
        <time>2023-12-13T21:17:03Z</time>
      </trkpt>
      <trkpt lat="44.0243" lon="1.84442">
        <ele>217</ele>
        <time>2023-12-13T21:17:05Z</time>
      </trkpt>
      <trkpt lat="44.02419" lon="1.84432">
        <ele>216</ele>
        <time>2023-12-13T21:17:07Z</time>
      </trkpt>
      <trkpt lat="44.02415" lon="1.8443">
        <ele>216</ele>
        <time>2023-12-13T21:17:08Z</time>
      </trkpt>
      <trkpt lat="44.02395" lon="1.84421">
        <ele>217</ele>
        <time>2023-12-13T21:17:12Z</time>
      </trkpt>
      <trkpt lat="44.02375" lon="1.8442">
        <ele>218</ele>
        <time>2023-12-13T21:17:16Z</time>
      </trkpt>
      <trkpt lat="44.02356" lon="1.84428">
        <ele>219</ele>
        <time>2023-12-13T21:17:19Z</time>
      </trkpt>
      <trkpt lat="44.02317" lon="1.84454">
        <ele>220</ele>
        <time>2023-12-13T21:17:27Z</time>
      </trkpt>
      <trkpt lat="44.02209" lon="1.84556">
        <ele>221</ele>
        <time>2023-12-13T21:17:50Z</time>
      </trkpt>
      <trkpt lat="44.02105" lon="1.84663">
        <ele>220</ele>
        <time>2023-12-13T21:18:13Z</time>
      </trkpt>
      <trkpt lat="44.02075" lon="1.84685">
        <ele>219</ele>
        <time>2023-12-13T21:18:19Z</time>
      </trkpt>
      <trkpt lat="44.02044" lon="1.84701">
        <ele>217</ele>
        <time>2023-12-13T21:18:25Z</time>
      </trkpt>
      <trkpt lat="44.02008" lon="1.84712">
        <ele>214</ele>
        <time>2023-12-13T21:18:31Z</time>
      </trkpt>
      <trkpt lat="44.01975" lon="1.84718">
        <ele>213</ele>
        <time>2023-12-13T21:18:37Z</time>
      </trkpt>
      <trkpt lat="44.01944" lon="1.84717">
        <ele>212</ele>
        <time>2023-12-13T21:18:43Z</time>
      </trkpt>
      <trkpt lat="44.01913" lon="1.84708">
        <ele>211</ele>
        <time>2023-12-13T21:18:49Z</time>
      </trkpt>
      <trkpt lat="44.01834" lon="1.84674">
        <ele>206</ele>
        <time>2023-12-13T21:19:03Z</time>
      </trkpt>
      <trkpt lat="44.01146" lon="1.84355">
        <ele>198</ele>
        <time>2023-12-13T21:21:12Z</time>
      </trkpt>
      <trkpt lat="44.00837" lon="1.84214">
        <ele>199</ele>
        <time>2023-12-13T21:22:10Z</time>
      </trkpt>
      <trkpt lat="44.00806" lon="1.84203">
        <ele>200</ele>
        <time>2023-12-13T21:22:16Z</time>
      </trkpt>
      <trkpt lat="44.00768" lon="1.84194">
        <ele>201</ele>
        <time>2023-12-13T21:22:23Z</time>
      </trkpt>
      <trkpt lat="44.00454" lon="1.84121">
        <ele>198</ele>
        <time>2023-12-13T21:23:19Z</time>
      </trkpt>
      <trkpt lat="44.00408" lon="1.84116">
        <ele>198</ele>
        <time>2023-12-13T21:23:28Z</time>
      </trkpt>
      <trkpt lat="44.00359" lon="1.84117">
        <ele>196</ele>
        <time>2023-12-13T21:23:36Z</time>
      </trkpt>
      <trkpt lat="43.99532" lon="1.84196">
        <ele>187</ele>
        <time>2023-12-13T21:26:04Z</time>
      </trkpt>
      <trkpt lat="43.99496" lon="1.84201">
        <ele>187</ele>
        <time>2023-12-13T21:26:10Z</time>
      </trkpt>
      <trkpt lat="43.99268" lon="1.84276">
        <ele>184</ele>
        <time>2023-12-13T21:26:52Z</time>
      </trkpt>
      <trkpt lat="43.99221" lon="1.84289">
        <ele>184</ele>
        <time>2023-12-13T21:27:00Z</time>
      </trkpt>
      <trkpt lat="43.99" lon="1.84324">
        <ele>188</ele>
        <time>2023-12-13T21:27:40Z</time>
      </trkpt>
      <trkpt lat="43.98963" lon="1.84321">
        <ele>189</ele>
        <time>2023-12-13T21:27:47Z</time>
      </trkpt>
      <trkpt lat="43.98751" lon="1.8429">
        <ele>187</ele>
        <time>2023-12-13T21:28:25Z</time>
      </trkpt>
      <trkpt lat="43.98717" lon="1.84278">
        <ele>186</ele>
        <time>2023-12-13T21:28:31Z</time>
      </trkpt>
      <trkpt lat="43.9869" lon="1.8426">
        <ele>184</ele>
        <time>2023-12-13T21:28:36Z</time>
      </trkpt>
      <trkpt lat="43.98672" lon="1.84237">
        <ele>183</ele>
        <time>2023-12-13T21:28:40Z</time>
      </trkpt>
      <trkpt lat="43.98655" lon="1.84183">
        <ele>183</ele>
        <time>2023-12-13T21:28:48Z</time>
      </trkpt>
      <trkpt lat="43.98641" lon="1.84136">
        <ele>180</ele>
        <time>2023-12-13T21:28:55Z</time>
      </trkpt>
      <trkpt lat="43.98632" lon="1.84116">
        <ele>179</ele>
        <time>2023-12-13T21:28:58Z</time>
      </trkpt>
      <trkpt lat="43.9861" lon="1.84077">
        <ele>176</ele>
        <time>2023-12-13T21:29:04Z</time>
      </trkpt>
      <trkpt lat="43.98583" lon="1.84049">
        <ele>175</ele>
        <time>2023-12-13T21:29:10Z</time>
      </trkpt>
      <trkpt lat="43.98553" lon="1.84033">
        <ele>175</ele>
        <time>2023-12-13T21:29:16Z</time>
      </trkpt>
      <trkpt lat="43.98515" lon="1.84027">
        <ele>177</ele>
        <time>2023-12-13T21:29:22Z</time>
      </trkpt>
      <trkpt lat="43.98443" lon="1.8402">
        <ele>175</ele>
        <time>2023-12-13T21:29:35Z</time>
      </trkpt>
      <trkpt lat="43.98432" lon="1.84019">
        <ele>175</ele>
        <time>2023-12-13T21:29:37Z</time>
      </trkpt>
      <trkpt lat="43.9838" lon="1.84014">
        <ele>174</ele>
        <time>2023-12-13T21:29:46Z</time>
      </trkpt>
      <trkpt lat="43.98359" lon="1.84018">
        <ele>174</ele>
        <time>2023-12-13T21:29:50Z</time>
      </trkpt>
      <trkpt lat="43.98342" lon="1.84027">
        <ele>173</ele>
        <time>2023-12-13T21:29:53Z</time>
      </trkpt>
      <trkpt lat="43.98328" lon="1.84041">
        <ele>174</ele>
        <time>2023-12-13T21:29:57Z</time>
      </trkpt>
      <trkpt lat="43.98277" lon="1.84093">
        <ele>179</ele>
        <time>2023-12-13T21:30:08Z</time>
      </trkpt>
      <trkpt lat="43.98247" lon="1.84146">
        <ele>182</ele>
        <time>2023-12-13T21:30:16Z</time>
      </trkpt>
      <trkpt lat="43.98178" lon="1.843">
        <ele>195</ele>
        <time>2023-12-13T21:30:40Z</time>
      </trkpt>
      <trkpt lat="43.98169" lon="1.84328">
        <ele>195</ele>
        <time>2023-12-13T21:30:44Z</time>
      </trkpt>
      <trkpt lat="43.98158" lon="1.84391">
        <ele>193</ele>
        <time>2023-12-13T21:30:52Z</time>
      </trkpt>
      <trkpt lat="43.98114" lon="1.84542">
        <ele>202</ele>
        <time>2023-12-13T21:31:13Z</time>
      </trkpt>
      <trkpt lat="43.98076" lon="1.84637">
        <ele>207</ele>
        <time>2023-12-13T21:31:27Z</time>
      </trkpt>
      <trkpt lat="43.98056" lon="1.84722">
        <ele>205</ele>
        <time>2023-12-13T21:31:38Z</time>
      </trkpt>
      <trkpt lat="43.98021" lon="1.84822">
        <ele>208</ele>
        <time>2023-12-13T21:31:52Z</time>
      </trkpt>
      <trkpt lat="43.97985" lon="1.84889">
        <ele>211</ele>
        <time>2023-12-13T21:32:03Z</time>
      </trkpt>
      <trkpt lat="43.97965" lon="1.84914">
        <ele>212</ele>
        <time>2023-12-13T21:32:08Z</time>
      </trkpt>
      <trkpt lat="43.97948" lon="1.84929">
        <ele>213</ele>
        <time>2023-12-13T21:32:11Z</time>
      </trkpt>
      <trkpt lat="43.97911" lon="1.84965">
        <ele>215</ele>
        <time>2023-12-13T21:32:19Z</time>
      </trkpt>
      <trkpt lat="43.9782" lon="1.85083">
        <ele>209</ele>
        <time>2023-12-13T21:32:42Z</time>
      </trkpt>
      <trkpt lat="43.97808" lon="1.85105">
        <ele>207</ele>
        <time>2023-12-13T21:32:45Z</time>
      </trkpt>
      <trkpt lat="43.97743" lon="1.85313">
        <ele>200</ele>
        <time>2023-12-13T21:33:14Z</time>
      </trkpt>
      <trkpt lat="43.97731" lon="1.85336">
        <ele>200</ele>
        <time>2023-12-13T21:33:18Z</time>
      </trkpt>
      <trkpt lat="43.97717" lon="1.85353">
        <ele>200</ele>
        <time>2023-12-13T21:33:21Z</time>
      </trkpt>
      <trkpt lat="43.97676" lon="1.85388">
        <ele>200</ele>
        <time>2023-12-13T21:33:30Z</time>
      </trkpt>
      <trkpt lat="43.97656" lon="1.85411">
        <ele>201</ele>
        <time>2023-12-13T21:33:34Z</time>
      </trkpt>
      <trkpt lat="43.9757" lon="1.8558">
        <ele>206</ele>
        <time>2023-12-13T21:34:01Z</time>
      </trkpt>
      <trkpt lat="43.97553" lon="1.85602">
        <ele>207</ele>
        <time>2023-12-13T21:34:05Z</time>
      </trkpt>
      <trkpt lat="43.97527" lon="1.85617">
        <ele>209</ele>
        <time>2023-12-13T21:34:10Z</time>
      </trkpt>
      <trkpt lat="43.97496" lon="1.85622">
        <ele>211</ele>
        <time>2023-12-13T21:34:16Z</time>
      </trkpt>
      <trkpt lat="43.97466" lon="1.8562">
        <ele>214</ele>
        <time>2023-12-13T21:34:21Z</time>
      </trkpt>
      <trkpt lat="43.97431" lon="1.85609">
        <ele>217</ele>
        <time>2023-12-13T21:34:27Z</time>
      </trkpt>
      <trkpt lat="43.97405" lon="1.85606">
        <ele>219</ele>
        <time>2023-12-13T21:34:32Z</time>
      </trkpt>
      <trkpt lat="43.97225" lon="1.85648">
        <ele>224</ele>
        <time>2023-12-13T21:35:04Z</time>
      </trkpt>
      <trkpt lat="43.97203" lon="1.85658">
        <ele>225</ele>
        <time>2023-12-13T21:35:08Z</time>
      </trkpt>
      <trkpt lat="43.97185" lon="1.85674">
        <ele>226</ele>
        <time>2023-12-13T21:35:12Z</time>
      </trkpt>
      <trkpt lat="43.97167" lon="1.857">
        <ele>227</ele>
        <time>2023-12-13T21:35:17Z</time>
      </trkpt>
      <trkpt lat="43.97153" lon="1.85728">
        <ele>227</ele>
        <time>2023-12-13T21:35:21Z</time>
      </trkpt>
      <trkpt lat="43.9707" lon="1.85933">
        <ele>231</ele>
        <time>2023-12-13T21:35:51Z</time>
      </trkpt>
      <trkpt lat="43.97046" lon="1.85985">
        <ele>229</ele>
        <time>2023-12-13T21:35:59Z</time>
      </trkpt>
      <trkpt lat="43.96952" lon="1.86136">
        <ele>233</ele>
        <time>2023-12-13T21:36:25Z</time>
      </trkpt>
      <trkpt lat="43.96938" lon="1.8617">
        <ele>237</ele>
        <time>2023-12-13T21:36:30Z</time>
      </trkpt>
      <trkpt lat="43.96897" lon="1.86306">
        <ele>244</ele>
        <time>2023-12-13T21:36:49Z</time>
      </trkpt>
      <trkpt lat="43.9688" lon="1.86349">
        <ele>247</ele>
        <time>2023-12-13T21:36:55Z</time>
      </trkpt>
      <trkpt lat="43.96856" lon="1.86396">
        <ele>250</ele>
        <time>2023-12-13T21:37:02Z</time>
      </trkpt>
      <trkpt lat="43.96826" lon="1.86428">
        <ele>252</ele>
        <time>2023-12-13T21:37:09Z</time>
      </trkpt>
      <trkpt lat="43.96796" lon="1.86444">
        <ele>252</ele>
        <time>2023-12-13T21:37:15Z</time>
      </trkpt>
      <trkpt lat="43.96748" lon="1.86467">
        <ele>254</ele>
        <time>2023-12-13T21:37:24Z</time>
      </trkpt>
      <trkpt lat="43.96715" lon="1.86487">
        <ele>256</ele>
        <time>2023-12-13T21:37:30Z</time>
      </trkpt>
      <trkpt lat="43.9667" lon="1.86521">
        <ele>257</ele>
        <time>2023-12-13T21:37:39Z</time>
      </trkpt>
      <trkpt lat="43.96587" lon="1.86573">
        <ele>261</ele>
        <time>2023-12-13T21:37:56Z</time>
      </trkpt>
      <trkpt lat="43.9657" lon="1.86596">
        <ele>262</ele>
        <time>2023-12-13T21:38:00Z</time>
      </trkpt>
      <trkpt lat="43.96556" lon="1.86618">
        <ele>263</ele>
        <time>2023-12-13T21:38:04Z</time>
      </trkpt>
      <trkpt lat="43.96531" lon="1.86665">
        <ele>263</ele>
        <time>2023-12-13T21:38:11Z</time>
      </trkpt>
      <trkpt lat="43.96512" lon="1.86687">
        <ele>264</ele>
        <time>2023-12-13T21:38:15Z</time>
      </trkpt>
      <trkpt lat="43.96491" lon="1.867">
        <ele>266</ele>
        <time>2023-12-13T21:38:20Z</time>
      </trkpt>
      <trkpt lat="43.96463" lon="1.86705">
        <ele>267</ele>
        <time>2023-12-13T21:38:25Z</time>
      </trkpt>
      <trkpt lat="43.96427" lon="1.86703">
        <ele>270</ele>
        <time>2023-12-13T21:38:31Z</time>
      </trkpt>
      <trkpt lat="43.96405" lon="1.8671">
        <ele>272</ele>
        <time>2023-12-13T21:38:35Z</time>
      </trkpt>
      <trkpt lat="43.96387" lon="1.86722">
        <ele>272</ele>
        <time>2023-12-13T21:38:39Z</time>
      </trkpt>
      <trkpt lat="43.96344" lon="1.86763">
        <ele>275</ele>
        <time>2023-12-13T21:38:48Z</time>
      </trkpt>
      <trkpt lat="43.9632" lon="1.8678">
        <ele>276</ele>
        <time>2023-12-13T21:38:53Z</time>
      </trkpt>
      <trkpt lat="43.96302" lon="1.86787">
        <ele>276</ele>
        <time>2023-12-13T21:38:56Z</time>
      </trkpt>
      <trkpt lat="43.96252" lon="1.86795">
        <ele>278</ele>
        <time>2023-12-13T21:39:05Z</time>
      </trkpt>
      <trkpt lat="43.96226" lon="1.86808">
        <ele>278</ele>
        <time>2023-12-13T21:39:10Z</time>
      </trkpt>
      <trkpt lat="43.9619" lon="1.86833">
        <ele>278</ele>
        <time>2023-12-13T21:39:17Z</time>
      </trkpt>
      <trkpt lat="43.96109" lon="1.86901">
        <ele>280</ele>
        <time>2023-12-13T21:39:34Z</time>
      </trkpt>
      <trkpt lat="43.96025" lon="1.86987">
        <ele>280</ele>
        <time>2023-12-13T21:39:52Z</time>
      </trkpt>
      <trkpt lat="43.95994" lon="1.87016">
        <ele>280</ele>
        <time>2023-12-13T21:39:59Z</time>
      </trkpt>
      <trkpt lat="43.95973" lon="1.87029">
        <ele>281</ele>
        <time>2023-12-13T21:40:03Z</time>
      </trkpt>
      <trkpt lat="43.9589" lon="1.8705">
        <ele>282</ele>
        <time>2023-12-13T21:40:18Z</time>
      </trkpt>
      <trkpt lat="43.9586" lon="1.87062">
        <ele>282</ele>
        <time>2023-12-13T21:40:24Z</time>
      </trkpt>
      <trkpt lat="43.95828" lon="1.87081">
        <ele>282</ele>
        <time>2023-12-13T21:40:30Z</time>
      </trkpt>
      <trkpt lat="43.95779" lon="1.87117">
        <ele>283</ele>
        <time>2023-12-13T21:40:40Z</time>
      </trkpt>
      <trkpt lat="43.95734" lon="1.87109">
        <ele>285</ele>
        <time>2023-12-13T21:40:48Z</time>
      </trkpt>
      <trkpt lat="43.95719" lon="1.87147">
        <ele>286</ele>
        <time>2023-12-13T21:40:53Z</time>
      </trkpt>
      <trkpt lat="43.95702" lon="1.87173">
        <ele>287</ele>
        <time>2023-12-13T21:40:58Z</time>
      </trkpt>
      <trkpt lat="43.95663" lon="1.87215">
        <ele>288</ele>
        <time>2023-12-13T21:41:07Z</time>
      </trkpt>
      <trkpt lat="43.95612" lon="1.8726">
        <ele>289</ele>
        <time>2023-12-13T21:41:17Z</time>
      </trkpt>
      <trkpt lat="43.95595" lon="1.87269">
        <ele>290</ele>
        <time>2023-12-13T21:41:21Z</time>
      </trkpt>
      <trkpt lat="43.95543" lon="1.87285">
        <ele>290</ele>
        <time>2023-12-13T21:41:30Z</time>
      </trkpt>
      <trkpt lat="43.95509" lon="1.87305">
        <ele>292</ele>
        <time>2023-12-13T21:41:37Z</time>
      </trkpt>
      <trkpt lat="43.95474" lon="1.87344">
        <ele>293</ele>
        <time>2023-12-13T21:41:45Z</time>
      </trkpt>
      <trkpt lat="43.95431" lon="1.87396">
        <ele>293</ele>
        <time>2023-12-13T21:41:55Z</time>
      </trkpt>
      <trkpt lat="43.95334" lon="1.87531">
        <ele>286</ele>
        <time>2023-12-13T21:42:19Z</time>
      </trkpt>
      <trkpt lat="43.95273" lon="1.87609">
        <ele>282</ele>
        <time>2023-12-13T21:42:34Z</time>
      </trkpt>
      <trkpt lat="43.95145" lon="1.87773">
        <ele>286</ele>
        <time>2023-12-13T21:43:05Z</time>
      </trkpt>
      <trkpt lat="43.95129" lon="1.87791">
        <ele>285</ele>
        <time>2023-12-13T21:43:09Z</time>
      </trkpt>
      <trkpt lat="43.9509" lon="1.87816">
        <ele>287</ele>
        <time>2023-12-13T21:43:16Z</time>
      </trkpt>
      <trkpt lat="43.94965" lon="1.87877">
        <ele>280</ele>
        <time>2023-12-13T21:43:40Z</time>
      </trkpt>
      <trkpt lat="43.94928" lon="1.87903">
        <ele>278</ele>
        <time>2023-12-13T21:43:47Z</time>
      </trkpt>
      <trkpt lat="43.94908" lon="1.87923">
        <ele>277</ele>
        <time>2023-12-13T21:43:52Z</time>
      </trkpt>
      <trkpt lat="43.9479" lon="1.88051">
        <ele>266</ele>
        <time>2023-12-13T21:44:18Z</time>
      </trkpt>
      <trkpt lat="43.94766" lon="1.8808">
        <ele>264</ele>
        <time>2023-12-13T21:44:24Z</time>
      </trkpt>
      <trkpt lat="43.94756" lon="1.88096">
        <ele>263</ele>
        <time>2023-12-13T21:44:27Z</time>
      </trkpt>
      <trkpt lat="43.94743" lon="1.88126">
        <ele>262</ele>
        <time>2023-12-13T21:44:31Z</time>
      </trkpt>
      <trkpt lat="43.94738" lon="1.88146">
        <ele>262</ele>
        <time>2023-12-13T21:44:34Z</time>
      </trkpt>
      <trkpt lat="43.94722" lon="1.88243">
        <ele>258</ele>
        <time>2023-12-13T21:44:47Z</time>
      </trkpt>
      <trkpt lat="43.94712" lon="1.88272">
        <ele>255</ele>
        <time>2023-12-13T21:44:51Z</time>
      </trkpt>
      <trkpt lat="43.94694" lon="1.88305">
        <ele>251</ele>
        <time>2023-12-13T21:44:56Z</time>
      </trkpt>
      <trkpt lat="43.94641" lon="1.88377">
        <ele>245</ele>
        <time>2023-12-13T21:45:09Z</time>
      </trkpt>
      <trkpt lat="43.94619" lon="1.884">
        <ele>244</ele>
        <time>2023-12-13T21:45:14Z</time>
      </trkpt>
      <trkpt lat="43.9459" lon="1.88426">
        <ele>241</ele>
        <time>2023-12-13T21:45:20Z</time>
      </trkpt>
      <trkpt lat="43.94563" lon="1.88442">
        <ele>239</ele>
        <time>2023-12-13T21:45:25Z</time>
      </trkpt>
      <trkpt lat="43.94551" lon="1.88447">
        <ele>238</ele>
        <time>2023-12-13T21:45:28Z</time>
      </trkpt>
      <trkpt lat="43.94527" lon="1.88451">
        <ele>237</ele>
        <time>2023-12-13T21:45:32Z</time>
      </trkpt>
      <trkpt lat="43.94496" lon="1.88447">
        <ele>235</ele>
        <time>2023-12-13T21:45:38Z</time>
      </trkpt>
      <trkpt lat="43.94448" lon="1.88435">
        <ele>233</ele>
        <time>2023-12-13T21:45:46Z</time>
      </trkpt>
      <trkpt lat="43.9442" lon="1.88434">
        <ele>232</ele>
        <time>2023-12-13T21:45:51Z</time>
      </trkpt>
      <trkpt lat="43.94393" lon="1.88437">
        <ele>230</ele>
        <time>2023-12-13T21:45:56Z</time>
      </trkpt>
      <trkpt lat="43.94339" lon="1.88447">
        <ele>226</ele>
        <time>2023-12-13T21:46:06Z</time>
      </trkpt>
      <trkpt lat="43.94304" lon="1.88459">
        <ele>223</ele>
        <time>2023-12-13T21:46:12Z</time>
      </trkpt>
      <trkpt lat="43.94283" lon="1.8847">
        <ele>222</ele>
        <time>2023-12-13T21:46:16Z</time>
      </trkpt>
      <trkpt lat="43.94211" lon="1.88523">
        <ele>217</ele>
        <time>2023-12-13T21:46:31Z</time>
      </trkpt>
      <trkpt lat="43.94185" lon="1.88539">
        <ele>215</ele>
        <time>2023-12-13T21:46:36Z</time>
      </trkpt>
      <trkpt lat="43.94157" lon="1.88549">
        <ele>213</ele>
        <time>2023-12-13T21:46:41Z</time>
      </trkpt>
      <trkpt lat="43.94114" lon="1.88556">
        <ele>208</ele>
        <time>2023-12-13T21:46:49Z</time>
      </trkpt>
      <trkpt lat="43.94087" lon="1.88566">
        <ele>205</ele>
        <time>2023-12-13T21:46:54Z</time>
      </trkpt>
      <trkpt lat="43.94062" lon="1.88582">
        <ele>203</ele>
        <time>2023-12-13T21:46:58Z</time>
      </trkpt>
      <trkpt lat="43.94002" lon="1.88632">
        <ele>198</ele>
        <time>2023-12-13T21:47:11Z</time>
      </trkpt>
      <trkpt lat="43.93961" lon="1.88659">
        <ele>197</ele>
        <time>2023-12-13T21:47:19Z</time>
      </trkpt>
      <trkpt lat="43.92569" lon="1.89323">
        <ele>155</ele>
        <time>2023-12-13T21:51:41Z</time>
      </trkpt>
      <trkpt lat="43.92538" lon="1.89333">
        <ele>154</ele>
        <time>2023-12-13T21:51:46Z</time>
      </trkpt>
      <trkpt lat="43.92527" lon="1.89331">
        <ele>154</ele>
        <time>2023-12-13T21:51:48Z</time>
      </trkpt>
      <trkpt lat="43.9252" lon="1.89326">
        <ele>154</ele>
        <time>2023-12-13T21:51:50Z</time>
      </trkpt>
      <trkpt lat="43.92498" lon="1.89317">
        <ele>154</ele>
        <time>2023-12-13T21:51:54Z</time>
      </trkpt>
      <trkpt lat="43.92489" lon="1.89306">
        <ele>154</ele>
        <time>2023-12-13T21:51:56Z</time>
      </trkpt>
      <trkpt lat="43.92476" lon="1.89283">
        <ele>154</ele>
        <time>2023-12-13T21:52:00Z</time>
      </trkpt>
      <trkpt lat="43.92429" lon="1.8916">
        <ele>154</ele>
        <time>2023-12-13T21:52:18Z</time>
      </trkpt>
      <trkpt lat="43.92409" lon="1.89117">
        <ele>155</ele>
        <time>2023-12-13T21:52:24Z</time>
      </trkpt>
      <trkpt lat="43.92384" lon="1.8907">
        <ele>155</ele>
        <time>2023-12-13T21:52:32Z</time>
      </trkpt>
      <trkpt lat="43.92283" lon="1.889">
        <ele>152</ele>
        <time>2023-12-13T21:53:00Z</time>
      </trkpt>
      <trkpt lat="43.92169" lon="1.88728">
        <ele>151</ele>
        <time>2023-12-13T21:53:30Z</time>
      </trkpt>
      <trkpt lat="43.92137" lon="1.88671">
        <ele>152</ele>
        <time>2023-12-13T21:53:39Z</time>
      </trkpt>
      <trkpt lat="43.92097" lon="1.88593">
        <ele>155</ele>
        <time>2023-12-13T21:53:51Z</time>
      </trkpt>
      <trkpt lat="43.92005" lon="1.88398">
        <ele>154</ele>
        <time>2023-12-13T21:54:21Z</time>
      </trkpt>
      <trkpt lat="43.91986" lon="1.88369">
        <ele>155</ele>
        <time>2023-12-13T21:54:26Z</time>
      </trkpt>
      <trkpt lat="43.91897" lon="1.88263">
        <ele>157</ele>
        <time>2023-12-13T21:54:47Z</time>
      </trkpt>
      <trkpt lat="43.9188" lon="1.88241">
        <ele>157</ele>
        <time>2023-12-13T21:54:51Z</time>
      </trkpt>
      <trkpt lat="43.9186" lon="1.88206">
        <ele>157</ele>
        <time>2023-12-13T21:54:57Z</time>
      </trkpt>
      <trkpt lat="43.91799" lon="1.88056">
        <ele>158</ele>
        <time>2023-12-13T21:55:19Z</time>
      </trkpt>
      <trkpt lat="43.91606" lon="1.87722">
        <ele>156</ele>
        <time>2023-12-13T21:56:14Z</time>
      </trkpt>
      <trkpt lat="43.91506" lon="1.87561">
        <ele>156</ele>
        <time>2023-12-13T21:56:41Z</time>
      </trkpt>
      <trkpt lat="43.91395" lon="1.87404">
        <ele>158</ele>
        <time>2023-12-13T21:57:09Z</time>
      </trkpt>
      <trkpt lat="43.91331" lon="1.87326">
        <ele>158</ele>
        <time>2023-12-13T21:57:25Z</time>
      </trkpt>
      <trkpt lat="43.91301" lon="1.87287">
        <ele>157</ele>
        <time>2023-12-13T21:57:32Z</time>
      </trkpt>
      <trkpt lat="43.9127" lon="1.87237">
        <ele>156</ele>
        <time>2023-12-13T21:57:40Z</time>
      </trkpt>
      <trkpt lat="43.91243" lon="1.8718">
        <ele>156</ele>
        <time>2023-12-13T21:57:49Z</time>
      </trkpt>
      <trkpt lat="43.91197" lon="1.87073">
        <ele>156</ele>
        <time>2023-12-13T21:58:05Z</time>
      </trkpt>
      <trkpt lat="43.91183" lon="1.87045">
        <ele>156</ele>
        <time>2023-12-13T21:58:09Z</time>
      </trkpt>
      <trkpt lat="43.91167" lon="1.87018">
        <ele>157</ele>
        <time>2023-12-13T21:58:14Z</time>
      </trkpt>
      <trkpt lat="43.91143" lon="1.86988">
        <ele>157</ele>
        <time>2023-12-13T21:58:20Z</time>
      </trkpt>
      <trkpt lat="43.91082" lon="1.86928">
        <ele>156</ele>
        <time>2023-12-13T21:58:33Z</time>
      </trkpt>
      <trkpt lat="43.91064" lon="1.86906">
        <ele>156</ele>
        <time>2023-12-13T21:58:37Z</time>
      </trkpt>
      <trkpt lat="43.91024" lon="1.8685">
        <ele>156</ele>
        <time>2023-12-13T21:58:47Z</time>
      </trkpt>
      <trkpt lat="43.90959" lon="1.86751">
        <ele>155</ele>
        <time>2023-12-13T21:59:05Z</time>
      </trkpt>
      <trkpt lat="43.9091" lon="1.86667">
        <ele>155</ele>
        <time>2023-12-13T21:59:18Z</time>
      </trkpt>
      <trkpt lat="43.90868" lon="1.86616">
        <ele>154</ele>
        <time>2023-12-13T21:59:28Z</time>
      </trkpt>
      <trkpt lat="43.90858" lon="1.86603">
        <ele>154</ele>
        <time>2023-12-13T21:59:31Z</time>
      </trkpt>
      <trkpt lat="43.90847" lon="1.86583">
        <ele>154</ele>
        <time>2023-12-13T21:59:34Z</time>
      </trkpt>
      <trkpt lat="43.90839" lon="1.86547">
        <ele>153</ele>
        <time>2023-12-13T21:59:39Z</time>
      </trkpt>
      <trkpt lat="43.90835" lon="1.86414">
        <ele>151</ele>
        <time>2023-12-13T21:59:56Z</time>
      </trkpt>
      <trkpt lat="43.90831" lon="1.86388">
        <ele>152</ele>
        <time>2023-12-13T21:59:59Z</time>
      </trkpt>
      <trkpt lat="43.9082" lon="1.86343">
        <ele>153</ele>
        <time>2023-12-13T22:00:05Z</time>
      </trkpt>
      <trkpt lat="43.90754" lon="1.86171">
        <ele>155</ele>
        <time>2023-12-13T22:00:30Z</time>
      </trkpt>
      <trkpt lat="43.90734" lon="1.86114">
        <ele>154</ele>
        <time>2023-12-13T22:00:38Z</time>
      </trkpt>
      <trkpt lat="43.9073" lon="1.86085">
        <ele>154</ele>
        <time>2023-12-13T22:00:42Z</time>
      </trkpt>
      <trkpt lat="43.90727" lon="1.86024">
        <ele>154</ele>
        <time>2023-12-13T22:00:50Z</time>
      </trkpt>
      <trkpt lat="43.90724" lon="1.86003">
        <ele>154</ele>
        <time>2023-12-13T22:00:53Z</time>
      </trkpt>
      <trkpt lat="43.90718" lon="1.85981">
        <ele>154</ele>
        <time>2023-12-13T22:00:56Z</time>
      </trkpt>
      <trkpt lat="43.90706" lon="1.85946">
        <ele>154</ele>
        <time>2023-12-13T22:01:01Z</time>
      </trkpt>
      <trkpt lat="43.90675" lon="1.85879">
        <ele>154</ele>
        <time>2023-12-13T22:01:11Z</time>
      </trkpt>
      <trkpt lat="43.90614" lon="1.85784">
        <ele>156</ele>
        <time>2023-12-13T22:01:27Z</time>
      </trkpt>
      <trkpt lat="43.90603" lon="1.85762">
        <ele>156</ele>
        <time>2023-12-13T22:01:31Z</time>
      </trkpt>
      <trkpt lat="43.90572" lon="1.8567">
        <ele>158</ele>
        <time>2023-12-13T22:01:44Z</time>
      </trkpt>
      <trkpt lat="43.90537" lon="1.85579">
        <ele>157</ele>
        <time>2023-12-13T22:01:57Z</time>
      </trkpt>
      <trkpt lat="43.90538" lon="1.8557">
        <ele>157</ele>
        <time>2023-12-13T22:01:58Z</time>
      </trkpt>
      <trkpt lat="43.90538" lon="1.85561">
        <ele>157</ele>
        <time>2023-12-13T22:01:59Z</time>
      </trkpt>
      <trkpt lat="43.90535" lon="1.85553">
        <ele>158</ele>
        <time>2023-12-13T22:02:01Z</time>
      </trkpt>
      <trkpt lat="43.90531" lon="1.85546">
        <ele>158</ele>
        <time>2023-12-13T22:02:02Z</time>
      </trkpt>
      <trkpt lat="43.90526" lon="1.85541">
        <ele>158</ele>
        <time>2023-12-13T22:02:03Z</time>
      </trkpt>
      <trkpt lat="43.90519" lon="1.85538">
        <ele>158</ele>
        <time>2023-12-13T22:02:04Z</time>
      </trkpt>
      <trkpt lat="43.90512" lon="1.85539">
        <ele>157</ele>
        <time>2023-12-13T22:02:05Z</time>
      </trkpt>
      <trkpt lat="43.90502" lon="1.85545">
        <ele>157</ele>
        <time>2023-12-13T22:02:07Z</time>
      </trkpt>
      <trkpt lat="43.90497" lon="1.85544">
        <ele>157</ele>
        <time>2023-12-13T22:02:08Z</time>
      </trkpt>
      <trkpt lat="43.90487" lon="1.85539">
        <ele>157</ele>
        <time>2023-12-13T22:02:10Z</time>
      </trkpt>
      <trkpt lat="43.90481" lon="1.85532">
        <ele>157</ele>
        <time>2023-12-13T22:02:11Z</time>
      </trkpt>
      <trkpt lat="43.90477" lon="1.85518">
        <ele>157</ele>
        <time>2023-12-13T22:02:13Z</time>
      </trkpt>
      <trkpt lat="43.90481" lon="1.85495">
        <ele>158</ele>
        <time>2023-12-13T22:02:16Z</time>
      </trkpt>
      <trkpt lat="43.90491" lon="1.85469">
        <ele>158</ele>
        <time>2023-12-13T22:02:20Z</time>
      </trkpt>
      <trkpt lat="43.90493" lon="1.85452">
        <ele>159</ele>
        <time>2023-12-13T22:02:22Z</time>
      </trkpt>
      <trkpt lat="43.9049" lon="1.8543">
        <ele>159</ele>
        <time>2023-12-13T22:02:25Z</time>
      </trkpt>
      <trkpt lat="43.90483" lon="1.85412">
        <ele>159</ele>
        <time>2023-12-13T22:02:28Z</time>
      </trkpt>
      <trkpt lat="43.90439" lon="1.85328">
        <ele>158</ele>
        <time>2023-12-13T22:02:41Z</time>
      </trkpt>
      <trkpt lat="43.90413" lon="1.85279">
        <ele>159</ele>
        <time>2023-12-13T22:02:49Z</time>
      </trkpt>
      <trkpt lat="43.90387" lon="1.85233">
        <ele>159</ele>
        <time>2023-12-13T22:02:56Z</time>
      </trkpt>
      <trkpt lat="43.90316" lon="1.85124">
        <ele>161</ele>
        <time>2023-12-13T22:03:15Z</time>
      </trkpt>
      <trkpt lat="43.90294" lon="1.85084">
        <ele>162</ele>
        <time>2023-12-13T22:03:22Z</time>
      </trkpt>
      <trkpt lat="43.90273" lon="1.85035">
        <ele>162</ele>
        <time>2023-12-13T22:03:29Z</time>
      </trkpt>
      <trkpt lat="43.90255" lon="1.84954">
        <ele>163</ele>
        <time>2023-12-13T22:03:40Z</time>
      </trkpt>
      <trkpt lat="43.90238" lon="1.84894">
        <ele>163</ele>
        <time>2023-12-13T22:03:48Z</time>
      </trkpt>
      <trkpt lat="43.90196" lon="1.84775">
        <ele>164</ele>
        <time>2023-12-13T22:04:05Z</time>
      </trkpt>
      <trkpt lat="43.90169" lon="1.84706">
        <ele>165</ele>
        <time>2023-12-13T22:04:15Z</time>
      </trkpt>
      <trkpt lat="43.90157" lon="1.84681">
        <ele>165</ele>
        <time>2023-12-13T22:04:19Z</time>
      </trkpt>
      <trkpt lat="43.90126" lon="1.84628">
        <ele>164</ele>
        <time>2023-12-13T22:04:28Z</time>
      </trkpt>
      <trkpt lat="43.90101" lon="1.84574">
        <ele>164</ele>
        <time>2023-12-13T22:04:36Z</time>
      </trkpt>
      <trkpt lat="43.90068" lon="1.84499">
        <ele>162</ele>
        <time>2023-12-13T22:04:47Z</time>
      </trkpt>
      <trkpt lat="43.90053" lon="1.84472">
        <ele>161</ele>
        <time>2023-12-13T22:04:52Z</time>
      </trkpt>
      <trkpt lat="43.90033" lon="1.84448">
        <ele>160</ele>
        <time>2023-12-13T22:04:56Z</time>
      </trkpt>
      <trkpt lat="43.90011" lon="1.84416">
        <ele>159</ele>
        <time>2023-12-13T22:05:02Z</time>
      </trkpt>
      <trkpt lat="43.89996" lon="1.84381">
        <ele>159</ele>
        <time>2023-12-13T22:05:07Z</time>
      </trkpt>
      <trkpt lat="43.8997" lon="1.84302">
        <ele>160</ele>
        <time>2023-12-13T22:05:18Z</time>
      </trkpt>
      <trkpt lat="43.8994" lon="1.84194">
        <ele>162</ele>
        <time>2023-12-13T22:05:33Z</time>
      </trkpt>
      <trkpt lat="43.89907" lon="1.84105">
        <ele>161</ele>
        <time>2023-12-13T22:05:46Z</time>
      </trkpt>
      <trkpt lat="43.89892" lon="1.84056">
        <ele>163</ele>
        <time>2023-12-13T22:05:53Z</time>
      </trkpt>
      <trkpt lat="43.89876" lon="1.84002">
        <ele>164</ele>
        <time>2023-12-13T22:06:00Z</time>
      </trkpt>
      <trkpt lat="43.89809" lon="1.83738">
        <ele>166</ele>
        <time>2023-12-13T22:06:36Z</time>
      </trkpt>
      <trkpt lat="43.89782" lon="1.83612">
        <ele>166</ele>
        <time>2023-12-13T22:06:53Z</time>
      </trkpt>
      <trkpt lat="43.89768" lon="1.83523">
        <ele>166</ele>
        <time>2023-12-13T22:07:05Z</time>
      </trkpt>
      <trkpt lat="43.89743" lon="1.83325">
        <ele>165</ele>
        <time>2023-12-13T22:07:31Z</time>
      </trkpt>
      <trkpt lat="43.89731" lon="1.83264">
        <ele>164</ele>
        <time>2023-12-13T22:07:39Z</time>
      </trkpt>
      <trkpt lat="43.89692" lon="1.83145">
        <ele>161</ele>
        <time>2023-12-13T22:07:56Z</time>
      </trkpt>
      <trkpt lat="43.89678" lon="1.8311">
        <ele>162</ele>
        <time>2023-12-13T22:08:01Z</time>
      </trkpt>
      <trkpt lat="43.8966" lon="1.83083">
        <ele>162</ele>
        <time>2023-12-13T22:08:05Z</time>
      </trkpt>
      <trkpt lat="43.89643" lon="1.83066">
        <ele>160</ele>
        <time>2023-12-13T22:08:09Z</time>
      </trkpt>
      <trkpt lat="43.89616" lon="1.8305">
        <ele>156</ele>
        <time>2023-12-13T22:08:14Z</time>
      </trkpt>
      <trkpt lat="43.89602" lon="1.83034">
        <ele>154</ele>
        <time>2023-12-13T22:08:18Z</time>
      </trkpt>
      <trkpt lat="43.89594" lon="1.83015">
        <ele>153</ele>
        <time>2023-12-13T22:08:20Z</time>
      </trkpt>
      <trkpt lat="43.89578" lon="1.82959">
        <ele>153</ele>
        <time>2023-12-13T22:08:28Z</time>
      </trkpt>
      <trkpt lat="43.89564" lon="1.8292">
        <ele>153</ele>
        <time>2023-12-13T22:08:34Z</time>
      </trkpt>
      <trkpt lat="43.89542" lon="1.82888">
        <ele>154</ele>
        <time>2023-12-13T22:08:39Z</time>
      </trkpt>
      <trkpt lat="43.89519" lon="1.82874">
        <ele>153</ele>
        <time>2023-12-13T22:08:44Z</time>
      </trkpt>
      <trkpt lat="43.8947" lon="1.82859">
        <ele>151</ele>
        <time>2023-12-13T22:08:53Z</time>
      </trkpt>
      <trkpt lat="43.89406" lon="1.82816">
        <ele>148</ele>
        <time>2023-12-13T22:09:05Z</time>
      </trkpt>
      <trkpt lat="43.89339" lon="1.82782">
        <ele>143</ele>
        <time>2023-12-13T22:09:18Z</time>
      </trkpt>
      <trkpt lat="43.89181" lon="1.82673">
        <ele>139</ele>
        <time>2023-12-13T22:09:49Z</time>
      </trkpt>
      <trkpt lat="43.89133" lon="1.82637">
        <ele>139</ele>
        <time>2023-12-13T22:09:59Z</time>
      </trkpt>
      <trkpt lat="43.89095" lon="1.82597">
        <ele>139</ele>
        <time>2023-12-13T22:10:08Z</time>
      </trkpt>
      <trkpt lat="43.89071" lon="1.82559">
        <ele>139</ele>
        <time>2023-12-13T22:10:14Z</time>
      </trkpt>
      <trkpt lat="43.89055" lon="1.82525">
        <ele>140</ele>
        <time>2023-12-13T22:10:19Z</time>
      </trkpt>
      <trkpt lat="43.88975" lon="1.82303">
        <ele>139</ele>
        <time>2023-12-13T22:10:51Z</time>
      </trkpt>
      <trkpt lat="43.88907" lon="1.82123">
        <ele>142</ele>
        <time>2023-12-13T22:11:17Z</time>
      </trkpt>
      <trkpt lat="43.8889" lon="1.82089">
        <ele>142</ele>
        <time>2023-12-13T22:11:23Z</time>
      </trkpt>
      <trkpt lat="43.88863" lon="1.82055">
        <ele>142</ele>
        <time>2023-12-13T22:11:29Z</time>
      </trkpt>
      <trkpt lat="43.88796" lon="1.81982">
        <ele>144</ele>
        <time>2023-12-13T22:11:44Z</time>
      </trkpt>
      <trkpt lat="43.8877" lon="1.81951">
        <ele>145</ele>
        <time>2023-12-13T22:11:50Z</time>
      </trkpt>
      <trkpt lat="43.88767" lon="1.8195">
        <ele>145</ele>
        <time>2023-12-13T22:11:51Z</time>
      </trkpt>
      <trkpt lat="43.88767" lon="1.81937">
        <ele>146</ele>
        <time>2023-12-13T22:11:53Z</time>
      </trkpt>
      <trkpt lat="43.88722" lon="1.8171">
        <ele>147</ele>
        <time>2023-12-13T22:12:23Z</time>
      </trkpt>
      <trkpt lat="43.88665" lon="1.815">
        <ele>147</ele>
        <time>2023-12-13T22:12:51Z</time>
      </trkpt>
      <trkpt lat="43.88541" lon="1.81085">
        <ele>155</ele>
        <time>2023-12-13T22:13:49Z</time>
      </trkpt>
      <trkpt lat="43.88512" lon="1.80977">
        <ele>153</ele>
        <time>2023-12-13T22:14:04Z</time>
      </trkpt>
      <trkpt lat="43.88388" lon="1.80511">
        <ele>151</ele>
        <time>2023-12-13T22:15:08Z</time>
      </trkpt>
      <trkpt lat="43.88379" lon="1.80433">
        <ele>152</ele>
        <time>2023-12-13T22:15:18Z</time>
      </trkpt>
      <trkpt lat="43.88374" lon="1.80409">
        <ele>152</ele>
        <time>2023-12-13T22:15:21Z</time>
      </trkpt>
      <trkpt lat="43.88361" lon="1.80366">
        <ele>150</ele>
        <time>2023-12-13T22:15:27Z</time>
      </trkpt>
      <trkpt lat="43.88316" lon="1.80235">
        <ele>150</ele>
        <time>2023-12-13T22:15:46Z</time>
      </trkpt>
      <trkpt lat="43.88301" lon="1.80176">
        <ele>149</ele>
        <time>2023-12-13T22:15:54Z</time>
      </trkpt>
      <trkpt lat="43.88266" lon="1.80088">
        <ele>148</ele>
        <time>2023-12-13T22:16:06Z</time>
      </trkpt>
      <trkpt lat="43.8825" lon="1.80029">
        <ele>147</ele>
        <time>2023-12-13T22:16:15Z</time>
      </trkpt>
      <trkpt lat="43.8824" lon="1.79985">
        <ele>147</ele>
        <time>2023-12-13T22:16:20Z</time>
      </trkpt>
      <trkpt lat="43.88236" lon="1.79948">
        <ele>147</ele>
        <time>2023-12-13T22:16:25Z</time>
      </trkpt>
      <trkpt lat="43.88228" lon="1.79915">
        <ele>148</ele>
        <time>2023-12-13T22:16:30Z</time>
      </trkpt>
      <trkpt lat="43.88222" lon="1.79899">
        <ele>148</ele>
        <time>2023-12-13T22:16:32Z</time>
      </trkpt>
      <trkpt lat="43.8821" lon="1.79878">
        <ele>147</ele>
        <time>2023-12-13T22:16:35Z</time>
      </trkpt>
      <trkpt lat="43.88177" lon="1.79834">
        <ele>146</ele>
        <time>2023-12-13T22:16:44Z</time>
      </trkpt>
      <trkpt lat="43.88157" lon="1.79799">
        <ele>146</ele>
        <time>2023-12-13T22:16:49Z</time>
      </trkpt>
      <trkpt lat="43.88141" lon="1.79758">
        <ele>146</ele>
        <time>2023-12-13T22:16:55Z</time>
      </trkpt>
      <trkpt lat="43.88102" lon="1.79631">
        <ele>147</ele>
        <time>2023-12-13T22:17:13Z</time>
      </trkpt>
      <trkpt lat="43.88082" lon="1.79572">
        <ele>146</ele>
        <time>2023-12-13T22:17:21Z</time>
      </trkpt>
      <trkpt lat="43.88074" lon="1.79553">
        <ele>146</ele>
        <time>2023-12-13T22:17:24Z</time>
      </trkpt>
      <trkpt lat="43.88023" lon="1.79444">
        <ele>148</ele>
        <time>2023-12-13T22:17:41Z</time>
      </trkpt>
      <trkpt lat="43.87957" lon="1.79321">
        <ele>146</ele>
        <time>2023-12-13T22:18:01Z</time>
      </trkpt>
      <trkpt lat="43.87871" lon="1.79172">
        <ele>143</ele>
        <time>2023-12-13T22:18:25Z</time>
      </trkpt>
      <trkpt lat="43.87835" lon="1.79087">
        <ele>144</ele>
        <time>2023-12-13T22:18:38Z</time>
      </trkpt>
      <trkpt lat="43.87813" lon="1.79046">
        <ele>144</ele>
        <time>2023-12-13T22:18:44Z</time>
      </trkpt>
      <trkpt lat="43.87795" lon="1.79008">
        <ele>145</ele>
        <time>2023-12-13T22:18:50Z</time>
      </trkpt>
      <trkpt lat="43.87765" lon="1.78933">
        <ele>145</ele>
        <time>2023-12-13T22:19:01Z</time>
      </trkpt>
      <trkpt lat="43.87762" lon="1.78921">
        <ele>145</ele>
        <time>2023-12-13T22:19:03Z</time>
      </trkpt>
      <trkpt lat="43.87755" lon="1.78885">
        <ele>145</ele>
        <time>2023-12-13T22:19:07Z</time>
      </trkpt>
      <trkpt lat="43.87738" lon="1.78711">
        <ele>144</ele>
        <time>2023-12-13T22:19:30Z</time>
      </trkpt>
      <trkpt lat="43.87734" lon="1.78689">
        <ele>144</ele>
        <time>2023-12-13T22:19:33Z</time>
      </trkpt>
      <trkpt lat="43.87702" lon="1.78543">
        <ele>145</ele>
        <time>2023-12-13T22:19:52Z</time>
      </trkpt>
      <trkpt lat="43.87685" lon="1.78477">
        <ele>145</ele>
        <time>2023-12-13T22:20:01Z</time>
      </trkpt>
      <trkpt lat="43.87647" lon="1.78357">
        <ele>145</ele>
        <time>2023-12-13T22:20:18Z</time>
      </trkpt>
      <trkpt lat="43.8761" lon="1.78189">
        <ele>148</ele>
        <time>2023-12-13T22:20:41Z</time>
      </trkpt>
      <trkpt lat="43.87588" lon="1.78067">
        <ele>148</ele>
        <time>2023-12-13T22:20:57Z</time>
      </trkpt>
      <trkpt lat="43.87586" lon="1.78052">
        <ele>148</ele>
        <time>2023-12-13T22:20:59Z</time>
      </trkpt>
      <trkpt lat="43.87577" lon="1.78003">
        <ele>147</ele>
        <time>2023-12-13T22:21:05Z</time>
      </trkpt>
      <trkpt lat="43.87554" lon="1.77937">
        <ele>146</ele>
        <time>2023-12-13T22:21:15Z</time>
      </trkpt>
      <trkpt lat="43.87526" lon="1.77789">
        <ele>146</ele>
        <time>2023-12-13T22:21:34Z</time>
      </trkpt>
      <trkpt lat="43.87518" lon="1.77768">
        <ele>146</ele>
        <time>2023-12-13T22:21:37Z</time>
      </trkpt>
      <trkpt lat="43.87505" lon="1.77743">
        <ele>146</ele>
        <time>2023-12-13T22:21:41Z</time>
      </trkpt>
      <trkpt lat="43.87379" lon="1.77532">
        <ele>148</ele>
        <time>2023-12-13T22:22:17Z</time>
      </trkpt>
      <trkpt lat="43.87338" lon="1.7746">
        <ele>149</ele>
        <time>2023-12-13T22:22:28Z</time>
      </trkpt>
      <trkpt lat="43.87302" lon="1.77405">
        <ele>149</ele>
        <time>2023-12-13T22:22:38Z</time>
      </trkpt>
      <trkpt lat="43.87283" lon="1.77374">
        <ele>150</ele>
        <time>2023-12-13T22:22:43Z</time>
      </trkpt>
      <trkpt lat="43.87277" lon="1.77357">
        <ele>150</ele>
        <time>2023-12-13T22:22:45Z</time>
      </trkpt>
      <trkpt lat="43.87287" lon="1.77316">
        <ele>150</ele>
        <time>2023-12-13T22:22:51Z</time>
      </trkpt>
      <trkpt lat="43.87289" lon="1.77289">
        <ele>150</ele>
        <time>2023-12-13T22:22:54Z</time>
      </trkpt>
      <trkpt lat="43.87288" lon="1.77253">
        <ele>150</ele>
        <time>2023-12-13T22:22:59Z</time>
      </trkpt>
      <trkpt lat="43.87284" lon="1.77206">
        <ele>150</ele>
        <time>2023-12-13T22:23:05Z</time>
      </trkpt>
      <trkpt lat="43.87265" lon="1.77081">
        <ele>155</ele>
        <time>2023-12-13T22:23:22Z</time>
      </trkpt>
      <trkpt lat="43.87261" lon="1.77065">
        <ele>155</ele>
        <time>2023-12-13T22:23:24Z</time>
      </trkpt>
      <trkpt lat="43.87255" lon="1.77047">
        <ele>155</ele>
        <time>2023-12-13T22:23:26Z</time>
      </trkpt>
      <trkpt lat="43.87205" lon="1.76931">
        <ele>152</ele>
        <time>2023-12-13T22:23:44Z</time>
      </trkpt>
      <trkpt lat="43.87125" lon="1.76764">
        <ele>148</ele>
        <time>2023-12-13T22:24:09Z</time>
      </trkpt>
      <trkpt lat="43.87108" lon="1.76724">
        <ele>146</ele>
        <time>2023-12-13T22:24:15Z</time>
      </trkpt>
      <trkpt lat="43.87093" lon="1.76682">
        <ele>144</ele>
        <time>2023-12-13T22:24:21Z</time>
      </trkpt>
      <trkpt lat="43.87075" lon="1.76639">
        <ele>144</ele>
        <time>2023-12-13T22:24:28Z</time>
      </trkpt>
      <trkpt lat="43.87068" lon="1.76627">
        <ele>144</ele>
        <time>2023-12-13T22:24:30Z</time>
      </trkpt>
      <trkpt lat="43.87046" lon="1.76603">
        <ele>145</ele>
        <time>2023-12-13T22:24:35Z</time>
      </trkpt>
      <trkpt lat="43.86908" lon="1.76494">
        <ele>147</ele>
        <time>2023-12-13T22:25:03Z</time>
      </trkpt>
      <trkpt lat="43.86881" lon="1.7647">
        <ele>147</ele>
        <time>2023-12-13T22:25:09Z</time>
      </trkpt>
      <trkpt lat="43.86846" lon="1.76431">
        <ele>147</ele>
        <time>2023-12-13T22:25:17Z</time>
      </trkpt>
      <trkpt lat="43.86625" lon="1.76097">
        <ele>142</ele>
        <time>2023-12-13T22:26:15Z</time>
      </trkpt>
      <trkpt lat="43.86557" lon="1.76005">
        <ele>140</ele>
        <time>2023-12-13T22:26:32Z</time>
      </trkpt>
      <trkpt lat="43.8635" lon="1.7566">
        <ele>140</ele>
        <time>2023-12-13T22:27:29Z</time>
      </trkpt>
      <trkpt lat="43.86295" lon="1.75551">
        <ele>141</ele>
        <time>2023-12-13T22:27:46Z</time>
      </trkpt>
      <trkpt lat="43.86214" lon="1.75411">
        <ele>142</ele>
        <time>2023-12-13T22:28:09Z</time>
      </trkpt>
      <trkpt lat="43.8621" lon="1.75397">
        <ele>142</ele>
        <time>2023-12-13T22:28:11Z</time>
      </trkpt>
      <trkpt lat="43.86208" lon="1.75351">
        <ele>141</ele>
        <time>2023-12-13T22:28:17Z</time>
      </trkpt>
      <trkpt lat="43.86209" lon="1.75268">
        <ele>142</ele>
        <time>2023-12-13T22:28:28Z</time>
      </trkpt>
      <trkpt lat="43.86205" lon="1.75231">
        <ele>142</ele>
        <time>2023-12-13T22:28:33Z</time>
      </trkpt>
      <trkpt lat="43.86201" lon="1.75219">
        <ele>142</ele>
        <time>2023-12-13T22:28:34Z</time>
      </trkpt>
      <trkpt lat="43.86145" lon="1.75091">
        <ele>138</ele>
        <time>2023-12-13T22:28:54Z</time>
      </trkpt>
      <trkpt lat="43.86133" lon="1.75051">
        <ele>138</ele>
        <time>2023-12-13T22:28:59Z</time>
      </trkpt>
      <trkpt lat="43.86126" lon="1.75018">
        <ele>138</ele>
        <time>2023-12-13T22:29:03Z</time>
      </trkpt>
      <trkpt lat="43.86121" lon="1.7497">
        <ele>139</ele>
        <time>2023-12-13T22:29:10Z</time>
      </trkpt>
      <trkpt lat="43.86114" lon="1.7494">
        <ele>140</ele>
        <time>2023-12-13T22:29:14Z</time>
      </trkpt>
      <trkpt lat="43.86106" lon="1.74911">
        <ele>141</ele>
        <time>2023-12-13T22:29:18Z</time>
      </trkpt>
      <trkpt lat="43.86048" lon="1.74797">
        <ele>141</ele>
        <time>2023-12-13T22:29:36Z</time>
      </trkpt>
      <trkpt lat="43.85979" lon="1.74648">
        <ele>141</ele>
        <time>2023-12-13T22:29:58Z</time>
      </trkpt>
      <trkpt lat="43.85967" lon="1.74628">
        <ele>141</ele>
        <time>2023-12-13T22:30:02Z</time>
      </trkpt>
      <trkpt lat="43.85952" lon="1.7461">
        <ele>141</ele>
        <time>2023-12-13T22:30:05Z</time>
      </trkpt>
      <trkpt lat="43.85908" lon="1.74573">
        <ele>141</ele>
        <time>2023-12-13T22:30:14Z</time>
      </trkpt>
      <trkpt lat="43.85808" lon="1.74494">
        <ele>141</ele>
        <time>2023-12-13T22:30:35Z</time>
      </trkpt>
      <trkpt lat="43.85781" lon="1.74468">
        <ele>142</ele>
        <time>2023-12-13T22:30:41Z</time>
      </trkpt>
      <trkpt lat="43.85747" lon="1.74419">
        <ele>141</ele>
        <time>2023-12-13T22:30:49Z</time>
      </trkpt>
      <trkpt lat="43.85726" lon="1.74394">
        <ele>141</ele>
        <time>2023-12-13T22:30:54Z</time>
      </trkpt>
      <trkpt lat="43.85617" lon="1.74297">
        <ele>140</ele>
        <time>2023-12-13T22:31:17Z</time>
      </trkpt>
      <trkpt lat="43.85583" lon="1.74263">
        <ele>141</ele>
        <time>2023-12-13T22:31:25Z</time>
      </trkpt>
      <trkpt lat="43.85503" lon="1.74162">
        <ele>139</ele>
        <time>2023-12-13T22:31:44Z</time>
      </trkpt>
      <trkpt lat="43.8546" lon="1.74116">
        <ele>139</ele>
        <time>2023-12-13T22:31:54Z</time>
      </trkpt>
      <trkpt lat="43.85437" lon="1.74086">
        <ele>139</ele>
        <time>2023-12-13T22:31:59Z</time>
      </trkpt>
      <trkpt lat="43.85384" lon="1.73991">
        <ele>139</ele>
        <time>2023-12-13T22:32:15Z</time>
      </trkpt>
      <trkpt lat="43.85344" lon="1.73931">
        <ele>141</ele>
        <time>2023-12-13T22:32:25Z</time>
      </trkpt>
      <trkpt lat="43.85339" lon="1.7392">
        <ele>142</ele>
        <time>2023-12-13T22:32:27Z</time>
      </trkpt>
      <trkpt lat="43.85333" lon="1.73912">
        <ele>142</ele>
        <time>2023-12-13T22:32:28Z</time>
      </trkpt>
      <trkpt lat="43.85313" lon="1.73897">
        <ele>142</ele>
        <time>2023-12-13T22:32:32Z</time>
      </trkpt>
      <trkpt lat="43.85207" lon="1.73852">
        <ele>141</ele>
        <time>2023-12-13T22:32:52Z</time>
      </trkpt>
      <trkpt lat="43.85181" lon="1.73833">
        <ele>140</ele>
        <time>2023-12-13T22:32:57Z</time>
      </trkpt>
      <trkpt lat="43.85076" lon="1.7372">
        <ele>139</ele>
        <time>2023-12-13T22:33:21Z</time>
      </trkpt>
      <trkpt lat="43.85026" lon="1.73686">
        <ele>139</ele>
        <time>2023-12-13T22:33:31Z</time>
      </trkpt>
      <trkpt lat="43.84961" lon="1.73656">
        <ele>139</ele>
        <time>2023-12-13T22:33:43Z</time>
      </trkpt>
      <trkpt lat="43.84935" lon="1.73636">
        <ele>139</ele>
        <time>2023-12-13T22:33:48Z</time>
      </trkpt>
      <trkpt lat="43.8489" lon="1.73592">
        <ele>139</ele>
        <time>2023-12-13T22:33:58Z</time>
      </trkpt>
      <trkpt lat="43.84859" lon="1.73576">
        <ele>140</ele>
        <time>2023-12-13T22:34:04Z</time>
      </trkpt>
      <trkpt lat="43.84825" lon="1.73568">
        <ele>140</ele>
        <time>2023-12-13T22:34:10Z</time>
      </trkpt>
      <trkpt lat="43.84786" lon="1.73565">
        <ele>139</ele>
        <time>2023-12-13T22:34:17Z</time>
      </trkpt>
      <trkpt lat="43.84753" lon="1.73567">
        <ele>138</ele>
        <time>2023-12-13T22:34:23Z</time>
      </trkpt>
      <trkpt lat="43.84716" lon="1.73564">
        <ele>138</ele>
        <time>2023-12-13T22:34:30Z</time>
      </trkpt>
      <trkpt lat="43.84688" lon="1.73556">
        <ele>138</ele>
        <time>2023-12-13T22:34:35Z</time>
      </trkpt>
      <trkpt lat="43.84648" lon="1.73538">
        <ele>138</ele>
        <time>2023-12-13T22:34:42Z</time>
      </trkpt>
      <trkpt lat="43.84619" lon="1.73515">
        <ele>137</ele>
        <time>2023-12-13T22:34:48Z</time>
      </trkpt>
      <trkpt lat="43.84471" lon="1.7338">
        <ele>138</ele>
        <time>2023-12-13T22:35:20Z</time>
      </trkpt>
      <trkpt lat="43.84447" lon="1.73348">
        <ele>139</ele>
        <time>2023-12-13T22:35:26Z</time>
      </trkpt>
      <trkpt lat="43.84402" lon="1.7328">
        <ele>139</ele>
        <time>2023-12-13T22:35:38Z</time>
      </trkpt>
      <trkpt lat="43.84297" lon="1.73144">
        <ele>140</ele>
        <time>2023-12-13T22:36:03Z</time>
      </trkpt>
      <trkpt lat="43.84282" lon="1.73126">
        <ele>140</ele>
        <time>2023-12-13T22:36:07Z</time>
      </trkpt>
      <trkpt lat="43.84261" lon="1.73111">
        <ele>140</ele>
        <time>2023-12-13T22:36:11Z</time>
      </trkpt>
      <trkpt lat="43.84116" lon="1.73082">
        <ele>138</ele>
        <time>2023-12-13T22:36:37Z</time>
      </trkpt>
      <trkpt lat="43.8408" lon="1.73072">
        <ele>138</ele>
        <time>2023-12-13T22:36:43Z</time>
      </trkpt>
      <trkpt lat="43.8402" lon="1.73046">
        <ele>136</ele>
        <time>2023-12-13T22:36:55Z</time>
      </trkpt>
      <trkpt lat="43.83963" lon="1.73032">
        <ele>135</ele>
        <time>2023-12-13T22:37:05Z</time>
      </trkpt>
      <trkpt lat="43.83822" lon="1.7302">
        <ele>132</ele>
        <time>2023-12-13T22:37:30Z</time>
      </trkpt>
      <trkpt lat="43.83763" lon="1.73007">
        <ele>133</ele>
        <time>2023-12-13T22:37:41Z</time>
      </trkpt>
      <trkpt lat="43.83711" lon="1.73005">
        <ele>132</ele>
        <time>2023-12-13T22:37:50Z</time>
      </trkpt>
      <trkpt lat="43.83548" lon="1.73015">
        <ele>131</ele>
        <time>2023-12-13T22:38:19Z</time>
      </trkpt>
      <trkpt lat="43.83514" lon="1.73012">
        <ele>130</ele>
        <time>2023-12-13T22:38:25Z</time>
      </trkpt>
      <trkpt lat="43.83468" lon="1.73002">
        <ele>131</ele>
        <time>2023-12-13T22:38:33Z</time>
      </trkpt>
      <trkpt lat="43.83381" lon="1.72972">
        <ele>132</ele>
        <time>2023-12-13T22:38:49Z</time>
      </trkpt>
      <trkpt lat="43.83279" lon="1.72931">
        <ele>132</ele>
        <time>2023-12-13T22:39:08Z</time>
      </trkpt>
      <trkpt lat="43.83224" lon="1.72899">
        <ele>132</ele>
        <time>2023-12-13T22:39:19Z</time>
      </trkpt>
      <trkpt lat="43.83176" lon="1.72887">
        <ele>131</ele>
        <time>2023-12-13T22:39:27Z</time>
      </trkpt>
      <trkpt lat="43.83119" lon="1.72881">
        <ele>131</ele>
        <time>2023-12-13T22:39:38Z</time>
      </trkpt>
      <trkpt lat="43.83008" lon="1.72835">
        <ele>132</ele>
        <time>2023-12-13T22:39:58Z</time>
      </trkpt>
      <trkpt lat="43.82964" lon="1.72825">
        <ele>132</ele>
        <time>2023-12-13T22:40:06Z</time>
      </trkpt>
      <trkpt lat="43.82917" lon="1.72812">
        <ele>132</ele>
        <time>2023-12-13T22:40:15Z</time>
      </trkpt>
      <trkpt lat="43.82889" lon="1.72797">
        <ele>132</ele>
        <time>2023-12-13T22:40:20Z</time>
      </trkpt>
      <trkpt lat="43.82828" lon="1.7274">
        <ele>132</ele>
        <time>2023-12-13T22:40:33Z</time>
      </trkpt>
      <trkpt lat="43.82792" lon="1.72725">
        <ele>131</ele>
        <time>2023-12-13T22:40:40Z</time>
      </trkpt>
      <trkpt lat="43.82756" lon="1.72715">
        <ele>131</ele>
        <time>2023-12-13T22:40:46Z</time>
      </trkpt>
      <trkpt lat="43.8273" lon="1.7271">
        <ele>131</ele>
        <time>2023-12-13T22:40:51Z</time>
      </trkpt>
      <trkpt lat="43.82628" lon="1.72699">
        <ele>130</ele>
        <time>2023-12-13T22:41:09Z</time>
      </trkpt>
      <trkpt lat="43.82585" lon="1.7269">
        <ele>129</ele>
        <time>2023-12-13T22:41:17Z</time>
      </trkpt>
      <trkpt lat="43.82535" lon="1.72676">
        <ele>130</ele>
        <time>2023-12-13T22:41:26Z</time>
      </trkpt>
      <trkpt lat="43.8249" lon="1.72652">
        <ele>131</ele>
        <time>2023-12-13T22:41:35Z</time>
      </trkpt>
      <trkpt lat="43.82468" lon="1.72643">
        <ele>131</ele>
        <time>2023-12-13T22:41:39Z</time>
      </trkpt>
      <trkpt lat="43.82356" lon="1.72612">
        <ele>132</ele>
        <time>2023-12-13T22:41:59Z</time>
      </trkpt>
      <trkpt lat="43.82336" lon="1.7261">
        <ele>132</ele>
        <time>2023-12-13T22:42:03Z</time>
      </trkpt>
      <trkpt lat="43.8233" lon="1.72596">
        <ele>132</ele>
        <time>2023-12-13T22:42:05Z</time>
      </trkpt>
      <trkpt lat="43.8226" lon="1.72524">
        <ele>130</ele>
        <time>2023-12-13T22:42:20Z</time>
      </trkpt>
      <trkpt lat="43.8219" lon="1.72446">
        <ele>130</ele>
        <time>2023-12-13T22:42:36Z</time>
      </trkpt>
      <trkpt lat="43.82137" lon="1.72392">
        <ele>130</ele>
        <time>2023-12-13T22:42:48Z</time>
      </trkpt>
      <trkpt lat="43.82128" lon="1.72386">
        <ele>130</ele>
        <time>2023-12-13T22:42:50Z</time>
      </trkpt>
      <trkpt lat="43.82126" lon="1.7238">
        <ele>130</ele>
        <time>2023-12-13T22:42:50Z</time>
      </trkpt>
      <trkpt lat="43.82122" lon="1.72377">
        <ele>130</ele>
        <time>2023-12-13T22:42:51Z</time>
      </trkpt>
      <trkpt lat="43.82115" lon="1.7238">
        <ele>130</ele>
        <time>2023-12-13T22:42:53Z</time>
      </trkpt>
      <trkpt lat="43.82113" lon="1.72386">
        <ele>130</ele>
        <time>2023-12-13T22:42:53Z</time>
      </trkpt>
      <trkpt lat="43.82114" lon="1.72391">
        <ele>130</ele>
        <time>2023-12-13T22:42:54Z</time>
      </trkpt>
      <trkpt lat="43.82115" lon="1.72394">
        <ele>130</ele>
        <time>2023-12-13T22:42:55Z</time>
      </trkpt>
      <trkpt lat="43.8212" lon="1.72398">
        <ele>130</ele>
        <time>2023-12-13T22:42:56Z</time>
      </trkpt>
      <trkpt lat="43.82111" lon="1.72422">
        <ele>132</ele>
        <time>2023-12-13T22:42:59Z</time>
      </trkpt>
      <trkpt lat="43.82091" lon="1.72465">
        <ele>134</ele>
        <time>2023-12-13T22:43:06Z</time>
      </trkpt>
      <trkpt lat="43.82074" lon="1.72501">
        <ele>133</ele>
        <time>2023-12-13T22:43:11Z</time>
      </trkpt>
      <trkpt lat="43.82053" lon="1.72557">
        <ele>122</ele>
        <time>2023-12-13T22:43:19Z</time>
      </trkpt>
      <trkpt lat="43.82041" lon="1.72575">
        <ele>117</ele>
        <time>2023-12-13T22:43:22Z</time>
      </trkpt>
      <trkpt lat="43.81955" lon="1.7271">
        <ele>109</ele>
        <time>2023-12-13T22:43:45Z</time>
      </trkpt>
      <trkpt lat="43.81927" lon="1.72757">
        <ele>116</ele>
        <time>2023-12-13T22:43:53Z</time>
      </trkpt>
      <trkpt lat="43.81854" lon="1.72868">
        <ele>117</ele>
        <time>2023-12-13T22:44:13Z</time>
      </trkpt>
      <trkpt lat="43.8184" lon="1.72891">
        <ele>117</ele>
        <time>2023-12-13T22:44:16Z</time>
      </trkpt>
      <trkpt lat="43.81833" lon="1.72902">
        <ele>117</ele>
        <time>2023-12-13T22:44:18Z</time>
      </trkpt>
      <trkpt lat="43.81813" lon="1.72881">
        <ele>118</ele>
        <time>2023-12-13T22:44:23Z</time>
      </trkpt>
      <trkpt lat="43.8179" lon="1.7287">
        <ele>118</ele>
        <time>2023-12-13T22:44:27Z</time>
      </trkpt>
      <trkpt lat="43.81685" lon="1.72851">
        <ele>120</ele>
        <time>2023-12-13T22:44:46Z</time>
      </trkpt>
      <trkpt lat="43.81667" lon="1.72851">
        <ele>120</ele>
        <time>2023-12-13T22:44:49Z</time>
      </trkpt>
      <trkpt lat="43.81664" lon="1.72853">
        <ele>120</ele>
        <time>2023-12-13T22:44:50Z</time>
      </trkpt>
      <trkpt lat="43.81613" lon="1.72804">
        <ele>118</ele>
        <time>2023-12-13T22:45:01Z</time>
      </trkpt>
      <trkpt lat="43.81566" lon="1.72753">
        <ele>117</ele>
        <time>2023-12-13T22:45:11Z</time>
      </trkpt>
      <trkpt lat="43.8154" lon="1.72716">
        <ele>117</ele>
        <time>2023-12-13T22:45:18Z</time>
      </trkpt>
      <trkpt lat="43.81482" lon="1.72637">
        <ele>116</ele>
        <time>2023-12-13T22:45:33Z</time>
      </trkpt>
      <trkpt lat="43.81471" lon="1.72625">
        <ele>117</ele>
        <time>2023-12-13T22:45:35Z</time>
      </trkpt>
      <trkpt lat="43.81458" lon="1.72618">
        <ele>117</ele>
        <time>2023-12-13T22:45:37Z</time>
      </trkpt>
      <trkpt lat="43.81439" lon="1.72547">
        <ele>117</ele>
        <time>2023-12-13T22:45:47Z</time>
      </trkpt>
      <trkpt lat="43.81434" lon="1.72525">
        <ele>117</ele>
        <time>2023-12-13T22:45:50Z</time>
      </trkpt>
      <trkpt lat="43.81434" lon="1.72498">
        <ele>117</ele>
        <time>2023-12-13T22:45:54Z</time>
      </trkpt>
      <trkpt lat="43.81438" lon="1.72432">
        <ele>118</ele>
        <time>2023-12-13T22:46:02Z</time>
      </trkpt>
      <trkpt lat="43.81437" lon="1.72421">
        <ele>118</ele>
        <time>2023-12-13T22:46:04Z</time>
      </trkpt>
      <trkpt lat="43.81434" lon="1.72409">
        <ele>118</ele>
        <time>2023-12-13T22:46:05Z</time>
      </trkpt>
      <trkpt lat="43.81426" lon="1.72394">
        <ele>117</ele>
        <time>2023-12-13T22:46:08Z</time>
      </trkpt>
      <trkpt lat="43.8142" lon="1.72388">
        <ele>117</ele>
        <time>2023-12-13T22:46:09Z</time>
      </trkpt>
      <trkpt lat="43.81412" lon="1.72382">
        <ele>117</ele>
        <time>2023-12-13T22:46:11Z</time>
      </trkpt>
      <trkpt lat="43.81388" lon="1.72373">
        <ele>117</ele>
        <time>2023-12-13T22:46:15Z</time>
      </trkpt>
      <trkpt lat="43.81379" lon="1.72366">
        <ele>117</ele>
        <time>2023-12-13T22:46:17Z</time>
      </trkpt>
      <trkpt lat="43.81365" lon="1.72353">
        <ele>117</ele>
        <time>2023-12-13T22:46:20Z</time>
      </trkpt>
      <trkpt lat="43.81157" lon="1.72122">
        <ele>116</ele>
        <time>2023-12-13T22:47:07Z</time>
      </trkpt>
      <trkpt lat="43.81145" lon="1.72103">
        <ele>117</ele>
        <time>2023-12-13T22:47:10Z</time>
      </trkpt>
      <trkpt lat="43.81136" lon="1.72083">
        <ele>117</ele>
        <time>2023-12-13T22:47:13Z</time>
      </trkpt>
      <trkpt lat="43.81116" lon="1.72028">
        <ele>116</ele>
        <time>2023-12-13T22:47:21Z</time>
      </trkpt>
      <trkpt lat="43.81093" lon="1.71951">
        <ele>117</ele>
        <time>2023-12-13T22:47:32Z</time>
      </trkpt>
      <trkpt lat="43.81073" lon="1.71894">
        <ele>117</ele>
        <time>2023-12-13T22:47:40Z</time>
      </trkpt>
      <trkpt lat="43.8105" lon="1.7184">
        <ele>116</ele>
        <time>2023-12-13T22:47:48Z</time>
      </trkpt>
      <trkpt lat="43.81024" lon="1.71756">
        <ele>116</ele>
        <time>2023-12-13T22:48:00Z</time>
      </trkpt>
      <trkpt lat="43.8095" lon="1.71553">
        <ele>117</ele>
        <time>2023-12-13T22:48:29Z</time>
      </trkpt>
      <trkpt lat="43.80831" lon="1.7128">
        <ele>115</ele>
        <time>2023-12-13T22:49:10Z</time>
      </trkpt>
      <trkpt lat="43.80755" lon="1.71095">
        <ele>114</ele>
        <time>2023-12-13T22:49:38Z</time>
      </trkpt>
      <trkpt lat="43.80716" lon="1.70975">
        <ele>114</ele>
        <time>2023-12-13T22:49:54Z</time>
      </trkpt>
      <trkpt lat="43.80695" lon="1.70919">
        <ele>115</ele>
        <time>2023-12-13T22:50:03Z</time>
      </trkpt>
      <trkpt lat="43.80677" lon="1.70883">
        <ele>116</ele>
        <time>2023-12-13T22:50:08Z</time>
      </trkpt>
      <trkpt lat="43.80615" lon="1.70781">
        <ele>117</ele>
        <time>2023-12-13T22:50:25Z</time>
      </trkpt>
      <trkpt lat="43.80569" lon="1.70689">
        <ele>119</ele>
        <time>2023-12-13T22:50:40Z</time>
      </trkpt>
      <trkpt lat="43.80555" lon="1.70655">
        <ele>119</ele>
        <time>2023-12-13T22:50:45Z</time>
      </trkpt>
      <trkpt lat="43.8054" lon="1.70604">
        <ele>119</ele>
        <time>2023-12-13T22:50:52Z</time>
      </trkpt>
      <trkpt lat="43.80527" lon="1.70573">
        <ele>119</ele>
        <time>2023-12-13T22:50:56Z</time>
      </trkpt>
      <trkpt lat="43.80505" lon="1.7053">
        <ele>118</ele>
        <time>2023-12-13T22:51:03Z</time>
      </trkpt>
      <trkpt lat="43.80484" lon="1.70497">
        <ele>119</ele>
        <time>2023-12-13T22:51:09Z</time>
      </trkpt>
      <trkpt lat="43.80451" lon="1.70452">
        <ele>120</ele>
        <time>2023-12-13T22:51:17Z</time>
      </trkpt>
      <trkpt lat="43.80313" lon="1.70323">
        <ele>115</ele>
        <time>2023-12-13T22:51:47Z</time>
      </trkpt>
      <trkpt lat="43.8025" lon="1.70257">
        <ele>114</ele>
        <time>2023-12-13T22:52:01Z</time>
      </trkpt>
      <trkpt lat="43.8016" lon="1.70137">
        <ele>115</ele>
        <time>2023-12-13T22:52:23Z</time>
      </trkpt>
      <trkpt lat="43.80128" lon="1.70108">
        <ele>116</ele>
        <time>2023-12-13T22:52:30Z</time>
      </trkpt>
      <trkpt lat="43.80071" lon="1.70065">
        <ele>116</ele>
        <time>2023-12-13T22:52:41Z</time>
      </trkpt>
      <trkpt lat="43.79985" lon="1.70007">
        <ele>114</ele>
        <time>2023-12-13T22:52:58Z</time>
      </trkpt>
      <trkpt lat="43.79705" lon="1.69789">
        <ele>114</ele>
        <time>2023-12-13T22:53:55Z</time>
      </trkpt>
      <trkpt lat="43.79559" lon="1.69708">
        <ele>113</ele>
        <time>2023-12-13T22:54:23Z</time>
      </trkpt>
      <trkpt lat="43.795" lon="1.69663">
        <ele>113</ele>
        <time>2023-12-13T22:54:35Z</time>
      </trkpt>
      <trkpt lat="43.79296" lon="1.69496">
        <ele>112</ele>
        <time>2023-12-13T22:55:18Z</time>
      </trkpt>
      <trkpt lat="43.79218" lon="1.69436">
        <ele>112</ele>
        <time>2023-12-13T22:55:33Z</time>
      </trkpt>
      <trkpt lat="43.79106" lon="1.69375">
        <ele>111</ele>
        <time>2023-12-13T22:55:55Z</time>
      </trkpt>
      <trkpt lat="43.78814" lon="1.69165">
        <ele>110</ele>
        <time>2023-12-13T22:56:53Z</time>
      </trkpt>
      <trkpt lat="43.7876" lon="1.69133">
        <ele>111</ele>
        <time>2023-12-13T22:57:04Z</time>
      </trkpt>
      <trkpt lat="43.78653" lon="1.69088">
        <ele>111</ele>
        <time>2023-12-13T22:57:24Z</time>
      </trkpt>
      <trkpt lat="43.78602" lon="1.69062">
        <ele>110</ele>
        <time>2023-12-13T22:57:33Z</time>
      </trkpt>
      <trkpt lat="43.78576" lon="1.69043">
        <ele>110</ele>
        <time>2023-12-13T22:57:39Z</time>
      </trkpt>
      <trkpt lat="43.78563" lon="1.69038">
        <ele>110</ele>
        <time>2023-12-13T22:57:41Z</time>
      </trkpt>
      <trkpt lat="43.7855" lon="1.69038">
        <ele>110</ele>
        <time>2023-12-13T22:57:43Z</time>
      </trkpt>
      <trkpt lat="43.7854" lon="1.69047">
        <ele>110</ele>
        <time>2023-12-13T22:57:45Z</time>
      </trkpt>
      <trkpt lat="43.78517" lon="1.69077">
        <ele>111</ele>
        <time>2023-12-13T22:57:51Z</time>
      </trkpt>
      <trkpt lat="43.78495" lon="1.691">
        <ele>111</ele>
        <time>2023-12-13T22:57:56Z</time>
      </trkpt>
      <trkpt lat="43.78461" lon="1.69105">
        <ele>111</ele>
        <time>2023-12-13T22:58:02Z</time>
      </trkpt>
      <trkpt lat="43.78453" lon="1.69109">
        <ele>111</ele>
        <time>2023-12-13T22:58:04Z</time>
      </trkpt>
      <trkpt lat="43.78436" lon="1.69134">
        <ele>112</ele>
        <time>2023-12-13T22:58:08Z</time>
      </trkpt>
      <trkpt lat="43.78431" lon="1.69143">
        <ele>112</ele>
        <time>2023-12-13T22:58:09Z</time>
      </trkpt>
      <trkpt lat="43.78421" lon="1.69157">
        <ele>113</ele>
        <time>2023-12-13T22:58:12Z</time>
      </trkpt>
      <trkpt lat="43.78365" lon="1.69202">
        <ele>113</ele>
        <time>2023-12-13T22:58:23Z</time>
      </trkpt>
      <trkpt lat="43.78358" lon="1.69207">
        <ele>113</ele>
        <time>2023-12-13T22:58:25Z</time>
      </trkpt>
      <trkpt lat="43.7835" lon="1.6921">
        <ele>113</ele>
        <time>2023-12-13T22:58:26Z</time>
      </trkpt>
      <trkpt lat="43.78343" lon="1.69212">
        <ele>113</ele>
        <time>2023-12-13T22:58:28Z</time>
      </trkpt>
      <trkpt lat="43.78259" lon="1.69218">
        <ele>112</ele>
        <time>2023-12-13T22:58:43Z</time>
      </trkpt>
      <trkpt lat="43.78194" lon="1.69206">
        <ele>110</ele>
        <time>2023-12-13T22:58:54Z</time>
      </trkpt>
      <trkpt lat="43.78174" lon="1.69196">
        <ele>110</ele>
        <time>2023-12-13T22:58:58Z</time>
      </trkpt>
      <trkpt lat="43.78162" lon="1.69179">
        <ele>109</ele>
        <time>2023-12-13T22:59:01Z</time>
      </trkpt>
      <trkpt lat="43.78152" lon="1.69146">
        <ele>110</ele>
        <time>2023-12-13T22:59:06Z</time>
      </trkpt>
      <trkpt lat="43.7814" lon="1.69118">
        <ele>111</ele>
        <time>2023-12-13T22:59:10Z</time>
      </trkpt>
      <trkpt lat="43.78104" lon="1.69064">
        <ele>111</ele>
        <time>2023-12-13T22:59:19Z</time>
      </trkpt>
      <trkpt lat="43.78093" lon="1.69043">
        <ele>111</ele>
        <time>2023-12-13T22:59:23Z</time>
      </trkpt>
      <trkpt lat="43.78086" lon="1.69011">
        <ele>111</ele>
        <time>2023-12-13T22:59:27Z</time>
      </trkpt>
      <trkpt lat="43.78077" lon="1.68933">
        <ele>112</ele>
        <time>2023-12-13T22:59:37Z</time>
      </trkpt>
      <trkpt lat="43.78072" lon="1.68915">
        <ele>112</ele>
        <time>2023-12-13T22:59:40Z</time>
      </trkpt>
      <trkpt lat="43.78064" lon="1.68909">
        <ele>112</ele>
        <time>2023-12-13T22:59:41Z</time>
      </trkpt>
      <trkpt lat="43.78052" lon="1.68911">
        <ele>112</ele>
        <time>2023-12-13T22:59:43Z</time>
      </trkpt>
      <trkpt lat="43.78032" lon="1.68917">
        <ele>112</ele>
        <time>2023-12-13T22:59:47Z</time>
      </trkpt>
      <trkpt lat="43.78019" lon="1.68919">
        <ele>112</ele>
        <time>2023-12-13T22:59:49Z</time>
      </trkpt>
      <trkpt lat="43.78001" lon="1.68914">
        <ele>112</ele>
        <time>2023-12-13T22:59:53Z</time>
      </trkpt>
      <trkpt lat="43.77898" lon="1.68789">
        <ele>112</ele>
        <time>2023-12-13T23:00:17Z</time>
      </trkpt>
      <trkpt lat="43.77854" lon="1.68744">
        <ele>113</ele>
        <time>2023-12-13T23:00:27Z</time>
      </trkpt>
      <trkpt lat="43.77829" lon="1.68725">
        <ele>112</ele>
        <time>2023-12-13T23:00:32Z</time>
      </trkpt>
      <trkpt lat="43.77809" lon="1.68711">
        <ele>110</ele>
        <time>2023-12-13T23:00:36Z</time>
      </trkpt>
      <trkpt lat="43.77793" lon="1.68702">
        <ele>109</ele>
        <time>2023-12-13T23:00:39Z</time>
      </trkpt>
      <trkpt lat="43.7774" lon="1.68678">
        <ele>106</ele>
        <time>2023-12-13T23:00:49Z</time>
      </trkpt>
      <trkpt lat="43.77627" lon="1.68638">
        <ele>108</ele>
        <time>2023-12-13T23:01:09Z</time>
      </trkpt>
      <trkpt lat="43.77573" lon="1.68616">
        <ele>114</ele>
        <time>2023-12-13T23:01:20Z</time>
      </trkpt>
      <trkpt lat="43.77589" lon="1.68501">
        <ele>114</ele>
        <time>2023-12-13T23:01:35Z</time>
      </trkpt>
      <trkpt lat="43.77603" lon="1.68419">
        <ele>111</ele>
        <time>2023-12-13T23:01:45Z</time>
      </trkpt>
      <trkpt lat="43.77602" lon="1.68412">
        <ele>111</ele>
        <time>2023-12-13T23:01:46Z</time>
      </trkpt>
      <trkpt lat="43.77608" lon="1.68402">
        <ele>111</ele>
        <time>2023-12-13T23:01:48Z</time>
      </trkpt>
      <trkpt lat="43.77608" lon="1.68393">
        <ele>111</ele>
        <time>2023-12-13T23:01:49Z</time>
      </trkpt>
      <trkpt lat="43.77605" lon="1.68385">
        <ele>112</ele>
        <time>2023-12-13T23:01:50Z</time>
      </trkpt>
      <trkpt lat="43.77607" lon="1.68366">
        <ele>112</ele>
        <time>2023-12-13T23:01:53Z</time>
      </trkpt>
      <trkpt lat="43.77612" lon="1.68317">
        <ele>113</ele>
        <time>2023-12-13T23:01:59Z</time>
      </trkpt>
      <trkpt lat="43.77498" lon="1.6813">
        <ele>113</ele>
        <time>2023-12-13T23:02:31Z</time>
      </trkpt>
      <trkpt lat="43.77494" lon="1.68128">
        <ele>113</ele>
        <time>2023-12-13T23:02:31Z</time>
      </trkpt>
    </trkseg>
  </trk>
</gpx>